<?xml version="1.0" encoding="UTF-8" standalone="no" ?>
<gpx xmlns="http://www.topografix.com/GPX/1/1" xmlns:xsi="http://www.w3.org/2001/XMLSchema-instance" xsi:schemaLocation="http://www.topografix.com/GPX/1/1 http://www.topografix.com/GPX/1/1/gpx.xsd" version="1.1" creator="VisuGPX - https://www.visugpx.com">
  <metadata>
    <name>Touffreville découverte Lyons la forêt. </name>
    <desc><![CDATA[Total chaîne + plaquettes ar 140 kms]]></desc>
  </metadata>
  <trk>
    <name><![CDATA[Touffreville VTT Découverte Lyons la forêt. ]]></name>
    <desc><![CDATA[Total chaîne + plaquettes ar 140 kms]]></desc>
    <trkseg>
      <trkpt lat="49.35283" lon="1.44476">
        <ele>90.199996948242</ele>
        <time>2021-02-26T07:15:36.000Z</time>
      </trkpt>
      <trkpt lat="49.35283" lon="1.44476">
        <ele>90.199996948242</ele>
        <time>2021-02-26T07:15:37.000Z</time>
      </trkpt>
      <trkpt lat="49.3528" lon="1.44481">
        <ele>89.599998474121</ele>
        <time>2021-02-26T07:16:42.000Z</time>
      </trkpt>
      <trkpt lat="49.35276" lon="1.44485">
        <ele>89.599998474121</ele>
        <time>2021-02-26T07:16:44.000Z</time>
      </trkpt>
      <trkpt lat="49.35277" lon="1.44494">
        <ele>89.599998474121</ele>
        <time>2021-02-26T07:16:47.000Z</time>
      </trkpt>
      <trkpt lat="49.35286" lon="1.44492">
        <ele>89.599998474121</ele>
        <time>2021-02-26T07:16:51.000Z</time>
      </trkpt>
      <trkpt lat="49.35289" lon="1.44491">
        <ele>89.599998474121</ele>
        <time>2021-02-26T07:16:52.000Z</time>
      </trkpt>
      <trkpt lat="49.35308" lon="1.44489">
        <ele>90.199996948242</ele>
        <time>2021-02-26T07:16:59.000Z</time>
      </trkpt>
      <trkpt lat="49.35318" lon="1.4449">
        <ele>91.199996948242</ele>
        <time>2021-02-26T07:17:03.000Z</time>
      </trkpt>
      <trkpt lat="49.35325" lon="1.44493">
        <ele>92</ele>
        <time>2021-02-26T07:17:06.000Z</time>
      </trkpt>
      <trkpt lat="49.35328" lon="1.44494">
        <ele>92.800003051758</ele>
        <time>2021-02-26T07:17:07.000Z</time>
      </trkpt>
      <trkpt lat="49.35334" lon="1.44498">
        <ele>94</ele>
        <time>2021-02-26T07:17:10.000Z</time>
      </trkpt>
      <trkpt lat="49.35336" lon="1.44497">
        <ele>94.400001525879</ele>
        <time>2021-02-26T07:17:11.000Z</time>
      </trkpt>
      <trkpt lat="49.35339" lon="1.44496">
        <ele>94.599998474121</ele>
        <time>2021-02-26T07:17:12.000Z</time>
      </trkpt>
      <trkpt lat="49.35343" lon="1.44487">
        <ele>95.199996948242</ele>
        <time>2021-02-26T07:17:15.000Z</time>
      </trkpt>
      <trkpt lat="49.35345" lon="1.44483">
        <ele>95.199996948242</ele>
        <time>2021-02-26T07:17:16.000Z</time>
      </trkpt>
      <trkpt lat="49.35348" lon="1.44471">
        <ele>96</ele>
        <time>2021-02-26T07:17:19.000Z</time>
      </trkpt>
      <trkpt lat="49.3535" lon="1.44466">
        <ele>96.400001525879</ele>
        <time>2021-02-26T07:17:20.000Z</time>
      </trkpt>
      <trkpt lat="49.35351" lon="1.44462">
        <ele>96.599998474121</ele>
        <time>2021-02-26T07:17:21.000Z</time>
      </trkpt>
      <trkpt lat="49.35353" lon="1.44458">
        <ele>96.800003051758</ele>
        <time>2021-02-26T07:17:22.000Z</time>
      </trkpt>
      <trkpt lat="49.3536" lon="1.44442">
        <ele>97.400001525879</ele>
        <time>2021-02-26T07:17:26.000Z</time>
      </trkpt>
      <trkpt lat="49.35362" lon="1.44437">
        <ele>97.400001525879</ele>
        <time>2021-02-26T07:17:27.000Z</time>
      </trkpt>
      <trkpt lat="49.35379" lon="1.444">
        <ele>97.400001525879</ele>
        <time>2021-02-26T07:17:35.000Z</time>
      </trkpt>
      <trkpt lat="49.35393" lon="1.44377">
        <ele>97.599998474121</ele>
        <time>2021-02-26T07:17:41.000Z</time>
      </trkpt>
      <trkpt lat="49.35405" lon="1.44355">
        <ele>97.800003051758</ele>
        <time>2021-02-26T07:17:46.000Z</time>
      </trkpt>
      <trkpt lat="49.35415" lon="1.44334">
        <ele>97.800003051758</ele>
        <time>2021-02-26T07:17:50.000Z</time>
      </trkpt>
      <trkpt lat="49.35421" lon="1.44324">
        <ele>97.800003051758</ele>
        <time>2021-02-26T07:17:52.000Z</time>
      </trkpt>
      <trkpt lat="49.35436" lon="1.44285">
        <ele>97.599998474121</ele>
        <time>2021-02-26T07:17:58.000Z</time>
      </trkpt>
      <trkpt lat="49.35439" lon="1.44278">
        <ele>97.599998474121</ele>
        <time>2021-02-26T07:17:59.000Z</time>
      </trkpt>
      <trkpt lat="49.35446" lon="1.44252">
        <ele>96.400001525879</ele>
        <time>2021-02-26T07:18:03.000Z</time>
      </trkpt>
      <trkpt lat="49.35447" lon="1.44246">
        <ele>95.800003051758</ele>
        <time>2021-02-26T07:18:04.000Z</time>
      </trkpt>
      <trkpt lat="49.35449" lon="1.4424">
        <ele>95.800003051758</ele>
        <time>2021-02-26T07:18:05.000Z</time>
      </trkpt>
      <trkpt lat="49.35454" lon="1.4422">
        <ele>95.599998474121</ele>
        <time>2021-02-26T07:18:08.000Z</time>
      </trkpt>
      <trkpt lat="49.35469" lon="1.44175">
        <ele>95.199996948242</ele>
        <time>2021-02-26T07:18:14.000Z</time>
      </trkpt>
      <trkpt lat="49.35478" lon="1.44141">
        <ele>94.599998474121</ele>
        <time>2021-02-26T07:18:18.000Z</time>
      </trkpt>
      <trkpt lat="49.35486" lon="1.44117">
        <ele>93.599998474121</ele>
        <time>2021-02-26T07:18:21.000Z</time>
      </trkpt>
      <trkpt lat="49.35492" lon="1.44094">
        <ele>92.400001525879</ele>
        <time>2021-02-26T07:18:24.000Z</time>
      </trkpt>
      <trkpt lat="49.35501" lon="1.44066">
        <ele>91.599998474121</ele>
        <time>2021-02-26T07:18:28.000Z</time>
      </trkpt>
      <trkpt lat="49.35507" lon="1.44045">
        <ele>91.599998474121</ele>
        <time>2021-02-26T07:18:31.000Z</time>
      </trkpt>
      <trkpt lat="49.35514" lon="1.44021">
        <ele>91.599998474121</ele>
        <time>2021-02-26T07:18:35.000Z</time>
      </trkpt>
      <trkpt lat="49.35517" lon="1.4401">
        <ele>91.599998474121</ele>
        <time>2021-02-26T07:18:37.000Z</time>
      </trkpt>
      <trkpt lat="49.35522" lon="1.43993">
        <ele>91.800003051758</ele>
        <time>2021-02-26T07:18:40.000Z</time>
      </trkpt>
      <trkpt lat="49.3553" lon="1.43969">
        <ele>92.599998474121</ele>
        <time>2021-02-26T07:18:45.000Z</time>
      </trkpt>
      <trkpt lat="49.35532" lon="1.43948">
        <ele>93</ele>
        <time>2021-02-26T07:18:50.000Z</time>
      </trkpt>
      <trkpt lat="49.35535" lon="1.4394">
        <ele>93.400001525879</ele>
        <time>2021-02-26T07:18:53.000Z</time>
      </trkpt>
      <trkpt lat="49.35536" lon="1.43938">
        <ele>93.800003051758</ele>
        <time>2021-02-26T07:18:55.000Z</time>
      </trkpt>
      <trkpt lat="49.35537" lon="1.43937">
        <ele>93.800003051758</ele>
        <time>2021-02-26T07:18:56.000Z</time>
      </trkpt>
      <trkpt lat="49.35542" lon="1.43939">
        <ele>94.199996948242</ele>
        <time>2021-02-26T07:19:00.000Z</time>
      </trkpt>
      <trkpt lat="49.35542" lon="1.43941">
        <ele>94.599998474121</ele>
        <time>2021-02-26T07:19:01.000Z</time>
      </trkpt>
      <trkpt lat="49.35543" lon="1.43943">
        <ele>94.800003051758</ele>
        <time>2021-02-26T07:19:02.000Z</time>
      </trkpt>
      <trkpt lat="49.35547" lon="1.43949">
        <ele>95.199996948242</ele>
        <time>2021-02-26T07:19:04.000Z</time>
      </trkpt>
      <trkpt lat="49.35549" lon="1.43951">
        <ele>95.800003051758</ele>
        <time>2021-02-26T07:19:06.000Z</time>
      </trkpt>
      <trkpt lat="49.35552" lon="1.43952">
        <ele>96.400001525879</ele>
        <time>2021-02-26T07:19:08.000Z</time>
      </trkpt>
      <trkpt lat="49.35553" lon="1.43952">
        <ele>96.599998474121</ele>
        <time>2021-02-26T07:19:09.000Z</time>
      </trkpt>
      <trkpt lat="49.35557" lon="1.43953">
        <ele>96.800003051758</ele>
        <time>2021-02-26T07:19:11.000Z</time>
      </trkpt>
      <trkpt lat="49.35559" lon="1.43954">
        <ele>97.199996948242</ele>
        <time>2021-02-26T07:19:12.000Z</time>
      </trkpt>
      <trkpt lat="49.35562" lon="1.43959">
        <ele>98</ele>
        <time>2021-02-26T07:19:14.000Z</time>
      </trkpt>
      <trkpt lat="49.35565" lon="1.43969">
        <ele>99.199996948242</ele>
        <time>2021-02-26T07:19:17.000Z</time>
      </trkpt>
      <trkpt lat="49.35569" lon="1.43975">
        <ele>100.40000152588</ele>
        <time>2021-02-26T07:19:20.000Z</time>
      </trkpt>
      <trkpt lat="49.35572" lon="1.43978">
        <ele>100.80000305176</ele>
        <time>2021-02-26T07:19:22.000Z</time>
      </trkpt>
      <trkpt lat="49.35577" lon="1.4398">
        <ele>101.40000152588</ele>
        <time>2021-02-26T07:19:25.000Z</time>
      </trkpt>
      <trkpt lat="49.35582" lon="1.43983">
        <ele>102</ele>
        <time>2021-02-26T07:19:28.000Z</time>
      </trkpt>
      <trkpt lat="49.35584" lon="1.43983">
        <ele>102.59999847412</ele>
        <time>2021-02-26T07:19:29.000Z</time>
      </trkpt>
      <trkpt lat="49.35593" lon="1.43986">
        <ele>103.80000305176</ele>
        <time>2021-02-26T07:19:33.000Z</time>
      </trkpt>
      <trkpt lat="49.356" lon="1.43989">
        <ele>104.80000305176</ele>
        <time>2021-02-26T07:19:36.000Z</time>
      </trkpt>
      <trkpt lat="49.35613" lon="1.43996">
        <ele>106</ele>
        <time>2021-02-26T07:19:41.000Z</time>
      </trkpt>
      <trkpt lat="49.35625" lon="1.44001">
        <ele>106.80000305176</ele>
        <time>2021-02-26T07:19:46.000Z</time>
      </trkpt>
      <trkpt lat="49.35628" lon="1.44002">
        <ele>107</ele>
        <time>2021-02-26T07:19:47.000Z</time>
      </trkpt>
      <trkpt lat="49.35644" lon="1.44009">
        <ele>108</ele>
        <time>2021-02-26T07:19:52.000Z</time>
      </trkpt>
      <trkpt lat="49.3565" lon="1.4401">
        <ele>108.19999694824</ele>
        <time>2021-02-26T07:19:54.000Z</time>
      </trkpt>
      <trkpt lat="49.35661" lon="1.44014">
        <ele>108.59999847412</ele>
        <time>2021-02-26T07:19:58.000Z</time>
      </trkpt>
      <trkpt lat="49.35668" lon="1.44017">
        <ele>109.19999694824</ele>
        <time>2021-02-26T07:20:01.000Z</time>
      </trkpt>
      <trkpt lat="49.35675" lon="1.4402">
        <ele>109.40000152588</ele>
        <time>2021-02-26T07:20:03.000Z</time>
      </trkpt>
      <trkpt lat="49.3569" lon="1.44024">
        <ele>109.80000305176</ele>
        <time>2021-02-26T07:20:08.000Z</time>
      </trkpt>
      <trkpt lat="49.35699" lon="1.44025">
        <ele>110</ele>
        <time>2021-02-26T07:20:11.000Z</time>
      </trkpt>
      <trkpt lat="49.35708" lon="1.44029">
        <ele>110.19999694824</ele>
        <time>2021-02-26T07:20:14.000Z</time>
      </trkpt>
      <trkpt lat="49.35727" lon="1.44038">
        <ele>110.40000152588</ele>
        <time>2021-02-26T07:20:20.000Z</time>
      </trkpt>
      <trkpt lat="49.35742" lon="1.44042">
        <ele>111</ele>
        <time>2021-02-26T07:20:25.000Z</time>
      </trkpt>
      <trkpt lat="49.35745" lon="1.44043">
        <ele>111</ele>
        <time>2021-02-26T07:20:26.000Z</time>
      </trkpt>
      <trkpt lat="49.3576" lon="1.44051">
        <ele>111.40000152588</ele>
        <time>2021-02-26T07:20:31.000Z</time>
      </trkpt>
      <trkpt lat="49.35771" lon="1.44054">
        <ele>111.40000152588</ele>
        <time>2021-02-26T07:20:35.000Z</time>
      </trkpt>
      <trkpt lat="49.35786" lon="1.44064">
        <ele>111.59999847412</ele>
        <time>2021-02-26T07:20:40.000Z</time>
      </trkpt>
      <trkpt lat="49.35792" lon="1.44068">
        <ele>111.59999847412</ele>
        <time>2021-02-26T07:20:42.000Z</time>
      </trkpt>
      <trkpt lat="49.35799" lon="1.44068">
        <ele>111.59999847412</ele>
        <time>2021-02-26T07:20:44.000Z</time>
      </trkpt>
      <trkpt lat="49.35806" lon="1.44068">
        <ele>111.59999847412</ele>
        <time>2021-02-26T07:20:46.000Z</time>
      </trkpt>
      <trkpt lat="49.35814" lon="1.44069">
        <ele>111.59999847412</ele>
        <time>2021-02-26T07:20:49.000Z</time>
      </trkpt>
      <trkpt lat="49.35827" lon="1.4408">
        <ele>111.80000305176</ele>
        <time>2021-02-26T07:20:54.000Z</time>
      </trkpt>
      <trkpt lat="49.35838" lon="1.44082">
        <ele>111.80000305176</ele>
        <time>2021-02-26T07:20:58.000Z</time>
      </trkpt>
      <trkpt lat="49.35851" lon="1.4408">
        <ele>111.80000305176</ele>
        <time>2021-02-26T07:21:02.000Z</time>
      </trkpt>
      <trkpt lat="49.3586" lon="1.44082">
        <ele>111.59999847412</ele>
        <time>2021-02-26T07:21:05.000Z</time>
      </trkpt>
      <trkpt lat="49.35871" lon="1.44085">
        <ele>111.59999847412</ele>
        <time>2021-02-26T07:21:08.000Z</time>
      </trkpt>
      <trkpt lat="49.35885" lon="1.44089">
        <ele>111.59999847412</ele>
        <time>2021-02-26T07:21:12.000Z</time>
      </trkpt>
      <trkpt lat="49.35893" lon="1.44091">
        <ele>111.80000305176</ele>
        <time>2021-02-26T07:21:14.000Z</time>
      </trkpt>
      <trkpt lat="49.3592" lon="1.44099">
        <ele>112.19999694824</ele>
        <time>2021-02-26T07:21:21.000Z</time>
      </trkpt>
      <trkpt lat="49.35928" lon="1.44102">
        <ele>112.59999847412</ele>
        <time>2021-02-26T07:21:23.000Z</time>
      </trkpt>
      <trkpt lat="49.35946" lon="1.44108">
        <ele>113.40000152588</ele>
        <time>2021-02-26T07:21:28.000Z</time>
      </trkpt>
      <trkpt lat="49.3595" lon="1.44109">
        <ele>113.80000305176</ele>
        <time>2021-02-26T07:21:29.000Z</time>
      </trkpt>
      <trkpt lat="49.35964" lon="1.44114">
        <ele>114.40000152588</ele>
        <time>2021-02-26T07:21:33.000Z</time>
      </trkpt>
      <trkpt lat="49.35968" lon="1.44115">
        <ele>114.59999847412</ele>
        <time>2021-02-26T07:21:34.000Z</time>
      </trkpt>
      <trkpt lat="49.3598" lon="1.44121">
        <ele>115.40000152588</ele>
        <time>2021-02-26T07:21:38.000Z</time>
      </trkpt>
      <trkpt lat="49.35989" lon="1.44125">
        <ele>115.80000305176</ele>
        <time>2021-02-26T07:21:41.000Z</time>
      </trkpt>
      <trkpt lat="49.36" lon="1.44129">
        <ele>116.19999694824</ele>
        <time>2021-02-26T07:21:45.000Z</time>
      </trkpt>
      <trkpt lat="49.3601" lon="1.44134">
        <ele>116.59999847412</ele>
        <time>2021-02-26T07:21:48.000Z</time>
      </trkpt>
      <trkpt lat="49.36013" lon="1.44135">
        <ele>117</ele>
        <time>2021-02-26T07:21:49.000Z</time>
      </trkpt>
      <trkpt lat="49.36016" lon="1.44137">
        <ele>117</ele>
        <time>2021-02-26T07:21:50.000Z</time>
      </trkpt>
      <trkpt lat="49.36033" lon="1.44143">
        <ele>117.40000152588</ele>
        <time>2021-02-26T07:21:55.000Z</time>
      </trkpt>
      <trkpt lat="49.36042" lon="1.44148">
        <ele>117.80000305176</ele>
        <time>2021-02-26T07:21:58.000Z</time>
      </trkpt>
      <trkpt lat="49.36043" lon="1.44151">
        <ele>117.80000305176</ele>
        <time>2021-02-26T07:21:59.000Z</time>
      </trkpt>
      <trkpt lat="49.36038" lon="1.44157">
        <ele>118.19999694824</ele>
        <time>2021-02-26T07:22:02.000Z</time>
      </trkpt>
      <trkpt lat="49.36027" lon="1.44162">
        <ele>118.59999847412</ele>
        <time>2021-02-26T07:22:05.000Z</time>
      </trkpt>
      <trkpt lat="49.36019" lon="1.44166">
        <ele>118.80000305176</ele>
        <time>2021-02-26T07:22:07.000Z</time>
      </trkpt>
      <trkpt lat="49.3601" lon="1.4417">
        <ele>118.80000305176</ele>
        <time>2021-02-26T07:22:09.000Z</time>
      </trkpt>
      <trkpt lat="49.36" lon="1.44174">
        <ele>118.80000305176</ele>
        <time>2021-02-26T07:22:11.000Z</time>
      </trkpt>
      <trkpt lat="49.35991" lon="1.44179">
        <ele>118.59999847412</ele>
        <time>2021-02-26T07:22:13.000Z</time>
      </trkpt>
      <trkpt lat="49.35981" lon="1.44184">
        <ele>118.40000152588</ele>
        <time>2021-02-26T07:22:15.000Z</time>
      </trkpt>
      <trkpt lat="49.35958" lon="1.44197">
        <ele>117.19999694824</ele>
        <time>2021-02-26T07:22:19.000Z</time>
      </trkpt>
      <trkpt lat="49.3594" lon="1.44207">
        <ele>116.80000305176</ele>
        <time>2021-02-26T07:22:22.000Z</time>
      </trkpt>
      <trkpt lat="49.35928" lon="1.44213">
        <ele>115.80000305176</ele>
        <time>2021-02-26T07:22:24.000Z</time>
      </trkpt>
      <trkpt lat="49.35911" lon="1.44222">
        <ele>114.59999847412</ele>
        <time>2021-02-26T07:22:27.000Z</time>
      </trkpt>
      <trkpt lat="49.35899" lon="1.44227">
        <ele>114</ele>
        <time>2021-02-26T07:22:29.000Z</time>
      </trkpt>
      <trkpt lat="49.35883" lon="1.44234">
        <ele>113.40000152588</ele>
        <time>2021-02-26T07:22:32.000Z</time>
      </trkpt>
      <trkpt lat="49.3587" lon="1.44241">
        <ele>113.19999694824</ele>
        <time>2021-02-26T07:22:35.000Z</time>
      </trkpt>
      <trkpt lat="49.35835" lon="1.44257">
        <ele>113.40000152588</ele>
        <time>2021-02-26T07:22:42.000Z</time>
      </trkpt>
      <trkpt lat="49.35795" lon="1.44277">
        <ele>114</ele>
        <time>2021-02-26T07:22:50.000Z</time>
      </trkpt>
      <trkpt lat="49.35785" lon="1.44282">
        <ele>114.19999694824</ele>
        <time>2021-02-26T07:22:52.000Z</time>
      </trkpt>
      <trkpt lat="49.35771" lon="1.4429">
        <ele>114.40000152588</ele>
        <time>2021-02-26T07:22:55.000Z</time>
      </trkpt>
      <trkpt lat="49.35732" lon="1.4431">
        <ele>114.59999847412</ele>
        <time>2021-02-26T07:23:02.000Z</time>
      </trkpt>
      <trkpt lat="49.35698" lon="1.44326">
        <ele>114.59999847412</ele>
        <time>2021-02-26T07:23:08.000Z</time>
      </trkpt>
      <trkpt lat="49.35692" lon="1.44329">
        <ele>114.40000152588</ele>
        <time>2021-02-26T07:23:09.000Z</time>
      </trkpt>
      <trkpt lat="49.35667" lon="1.44341">
        <ele>113.40000152588</ele>
        <time>2021-02-26T07:23:13.000Z</time>
      </trkpt>
      <trkpt lat="49.35654" lon="1.44348">
        <ele>113</ele>
        <time>2021-02-26T07:23:15.000Z</time>
      </trkpt>
      <trkpt lat="49.35629" lon="1.44362">
        <ele>112.19999694824</ele>
        <time>2021-02-26T07:23:19.000Z</time>
      </trkpt>
      <trkpt lat="49.35616" lon="1.44368">
        <ele>111.80000305176</ele>
        <time>2021-02-26T07:23:21.000Z</time>
      </trkpt>
      <trkpt lat="49.3559" lon="1.4438">
        <ele>110.59999847412</ele>
        <time>2021-02-26T07:23:25.000Z</time>
      </trkpt>
      <trkpt lat="49.35565" lon="1.44391">
        <ele>109.59999847412</ele>
        <time>2021-02-26T07:23:29.000Z</time>
      </trkpt>
      <trkpt lat="49.35559" lon="1.44394">
        <ele>109</ele>
        <time>2021-02-26T07:23:30.000Z</time>
      </trkpt>
      <trkpt lat="49.35546" lon="1.44401">
        <ele>108.40000152588</ele>
        <time>2021-02-26T07:23:32.000Z</time>
      </trkpt>
      <trkpt lat="49.35521" lon="1.44413">
        <ele>107.40000152588</ele>
        <time>2021-02-26T07:23:36.000Z</time>
      </trkpt>
      <trkpt lat="49.35515" lon="1.44415">
        <ele>107</ele>
        <time>2021-02-26T07:23:37.000Z</time>
      </trkpt>
      <trkpt lat="49.35504" lon="1.4442">
        <ele>106</ele>
        <time>2021-02-26T07:23:39.000Z</time>
      </trkpt>
      <trkpt lat="49.35493" lon="1.44426">
        <ele>105.40000152588</ele>
        <time>2021-02-26T07:23:41.000Z</time>
      </trkpt>
      <trkpt lat="49.35463" lon="1.44441">
        <ele>105</ele>
        <time>2021-02-26T07:23:46.000Z</time>
      </trkpt>
      <trkpt lat="49.35457" lon="1.44444">
        <ele>104.80000305176</ele>
        <time>2021-02-26T07:23:47.000Z</time>
      </trkpt>
      <trkpt lat="49.35438" lon="1.44453">
        <ele>104.40000152588</ele>
        <time>2021-02-26T07:23:50.000Z</time>
      </trkpt>
      <trkpt lat="49.35433" lon="1.44455">
        <ele>104.19999694824</ele>
        <time>2021-02-26T07:23:51.000Z</time>
      </trkpt>
      <trkpt lat="49.3542" lon="1.4446">
        <ele>103.80000305176</ele>
        <time>2021-02-26T07:23:53.000Z</time>
      </trkpt>
      <trkpt lat="49.354" lon="1.44469">
        <ele>102.80000305176</ele>
        <time>2021-02-26T07:23:56.000Z</time>
      </trkpt>
      <trkpt lat="49.35394" lon="1.44471">
        <ele>102.40000152588</ele>
        <time>2021-02-26T07:23:57.000Z</time>
      </trkpt>
      <trkpt lat="49.35381" lon="1.44476">
        <ele>101.40000152588</ele>
        <time>2021-02-26T07:23:59.000Z</time>
      </trkpt>
      <trkpt lat="49.35363" lon="1.44484">
        <ele>100</ele>
        <time>2021-02-26T07:24:02.000Z</time>
      </trkpt>
      <trkpt lat="49.3534" lon="1.44483">
        <ele>98.599998474121</ele>
        <time>2021-02-26T07:24:05.000Z</time>
      </trkpt>
      <trkpt lat="49.35312" lon="1.44479">
        <ele>97.400001525879</ele>
        <time>2021-02-26T07:24:08.000Z</time>
      </trkpt>
      <trkpt lat="49.35302" lon="1.44481">
        <ele>97</ele>
        <time>2021-02-26T07:24:09.000Z</time>
      </trkpt>
      <trkpt lat="49.35292" lon="1.44484">
        <ele>96.199996948242</ele>
        <time>2021-02-26T07:24:10.000Z</time>
      </trkpt>
      <trkpt lat="49.35272" lon="1.44486">
        <ele>94.800003051758</ele>
        <time>2021-02-26T07:24:12.000Z</time>
      </trkpt>
      <trkpt lat="49.35262" lon="1.44485">
        <ele>94.199996948242</ele>
        <time>2021-02-26T07:24:13.000Z</time>
      </trkpt>
      <trkpt lat="49.35251" lon="1.44483">
        <ele>93.400001525879</ele>
        <time>2021-02-26T07:24:14.000Z</time>
      </trkpt>
      <trkpt lat="49.3524" lon="1.4448">
        <ele>92.400001525879</ele>
        <time>2021-02-26T07:24:15.000Z</time>
      </trkpt>
      <trkpt lat="49.35229" lon="1.44476">
        <ele>91</ele>
        <time>2021-02-26T07:24:16.000Z</time>
      </trkpt>
      <trkpt lat="49.35219" lon="1.44474">
        <ele>89.599998474121</ele>
        <time>2021-02-26T07:24:17.000Z</time>
      </trkpt>
      <trkpt lat="49.35208" lon="1.44473">
        <ele>88.599998474121</ele>
        <time>2021-02-26T07:24:18.000Z</time>
      </trkpt>
      <trkpt lat="49.35187" lon="1.44471">
        <ele>86.599998474121</ele>
        <time>2021-02-26T07:24:20.000Z</time>
      </trkpt>
      <trkpt lat="49.35164" lon="1.44469">
        <ele>84.599998474121</ele>
        <time>2021-02-26T07:24:22.000Z</time>
      </trkpt>
      <trkpt lat="49.35153" lon="1.44468">
        <ele>83.599998474121</ele>
        <time>2021-02-26T07:24:23.000Z</time>
      </trkpt>
      <trkpt lat="49.3514" lon="1.44468">
        <ele>82.400001525879</ele>
        <time>2021-02-26T07:24:24.000Z</time>
      </trkpt>
      <trkpt lat="49.35128" lon="1.44467">
        <ele>81</ele>
        <time>2021-02-26T07:24:25.000Z</time>
      </trkpt>
      <trkpt lat="49.35117" lon="1.44467">
        <ele>79.199996948242</ele>
        <time>2021-02-26T07:24:26.000Z</time>
      </trkpt>
      <trkpt lat="49.35107" lon="1.44466">
        <ele>77.599998474121</ele>
        <time>2021-02-26T07:24:27.000Z</time>
      </trkpt>
      <trkpt lat="49.35097" lon="1.44465">
        <ele>75.800003051758</ele>
        <time>2021-02-26T07:24:28.000Z</time>
      </trkpt>
      <trkpt lat="49.35089" lon="1.44463">
        <ele>73.599998474121</ele>
        <time>2021-02-26T07:24:29.000Z</time>
      </trkpt>
      <trkpt lat="49.35082" lon="1.4446">
        <ele>71.400001525879</ele>
        <time>2021-02-26T07:24:30.000Z</time>
      </trkpt>
      <trkpt lat="49.35075" lon="1.44455">
        <ele>69.199996948242</ele>
        <time>2021-02-26T07:24:31.000Z</time>
      </trkpt>
      <trkpt lat="49.3507" lon="1.4445">
        <ele>67</ele>
        <time>2021-02-26T07:24:32.000Z</time>
      </trkpt>
      <trkpt lat="49.35065" lon="1.44447">
        <ele>64.800003051758</ele>
        <time>2021-02-26T07:24:33.000Z</time>
      </trkpt>
      <trkpt lat="49.35061" lon="1.44447">
        <ele>63</ele>
        <time>2021-02-26T07:24:34.000Z</time>
      </trkpt>
      <trkpt lat="49.35058" lon="1.4445">
        <ele>61.400001525879</ele>
        <time>2021-02-26T07:24:35.000Z</time>
      </trkpt>
      <trkpt lat="49.35055" lon="1.44455">
        <ele>59.799999237061</ele>
        <time>2021-02-26T07:24:36.000Z</time>
      </trkpt>
      <trkpt lat="49.35053" lon="1.44462">
        <ele>58.599998474121</ele>
        <time>2021-02-26T07:24:37.000Z</time>
      </trkpt>
      <trkpt lat="49.3505" lon="1.44468">
        <ele>57.400001525879</ele>
        <time>2021-02-26T07:24:38.000Z</time>
      </trkpt>
      <trkpt lat="49.35047" lon="1.44474">
        <ele>56.599998474121</ele>
        <time>2021-02-26T07:24:39.000Z</time>
      </trkpt>
      <trkpt lat="49.35044" lon="1.44481">
        <ele>56.200000762939</ele>
        <time>2021-02-26T07:24:40.000Z</time>
      </trkpt>
      <trkpt lat="49.3504" lon="1.44487">
        <ele>55.799999237061</ele>
        <time>2021-02-26T07:24:41.000Z</time>
      </trkpt>
      <trkpt lat="49.35034" lon="1.445">
        <ele>55.400001525879</ele>
        <time>2021-02-26T07:24:43.000Z</time>
      </trkpt>
      <trkpt lat="49.35024" lon="1.4452">
        <ele>55.200000762939</ele>
        <time>2021-02-26T07:24:46.000Z</time>
      </trkpt>
      <trkpt lat="49.35019" lon="1.44534">
        <ele>55.200000762939</ele>
        <time>2021-02-26T07:24:48.000Z</time>
      </trkpt>
      <trkpt lat="49.35016" lon="1.44541">
        <ele>55.200000762939</ele>
        <time>2021-02-26T07:24:49.000Z</time>
      </trkpt>
      <trkpt lat="49.35001" lon="1.4459">
        <ele>55.200000762939</ele>
        <time>2021-02-26T07:24:56.000Z</time>
      </trkpt>
      <trkpt lat="49.35" lon="1.44592">
        <ele>55.200000762939</ele>
        <time>2021-02-26T07:24:57.000Z</time>
      </trkpt>
      <trkpt lat="49.35001" lon="1.44595">
        <ele>55.200000762939</ele>
        <time>2021-02-26T07:24:59.000Z</time>
      </trkpt>
      <trkpt lat="49.35003" lon="1.44584">
        <ele>55.400001525879</ele>
        <time>2021-02-26T07:25:03.000Z</time>
      </trkpt>
      <trkpt lat="49.35004" lon="1.44579">
        <ele>56.200000762939</ele>
        <time>2021-02-26T07:25:06.000Z</time>
      </trkpt>
      <trkpt lat="49.35004" lon="1.44579">
        <ele>56.200000762939</ele>
        <time>2021-02-26T07:25:07.000Z</time>
      </trkpt>
      <trkpt lat="49.35008" lon="1.4458">
        <ele>56.400001525879</ele>
        <time>2021-02-26T07:25:35.000Z</time>
      </trkpt>
      <trkpt lat="49.3501" lon="1.44587">
        <ele>56.400001525879</ele>
        <time>2021-02-26T07:25:37.000Z</time>
      </trkpt>
      <trkpt lat="49.3502" lon="1.4461">
        <ele>56.400001525879</ele>
        <time>2021-02-26T07:25:42.000Z</time>
      </trkpt>
      <trkpt lat="49.35035" lon="1.44633">
        <ele>56.400001525879</ele>
        <time>2021-02-26T07:25:48.000Z</time>
      </trkpt>
      <trkpt lat="49.35053" lon="1.44667">
        <ele>57.200000762939</ele>
        <time>2021-02-26T07:25:56.000Z</time>
      </trkpt>
      <trkpt lat="49.35057" lon="1.44675">
        <ele>57.599998474121</ele>
        <time>2021-02-26T07:25:58.000Z</time>
      </trkpt>
      <trkpt lat="49.35066" lon="1.44691">
        <ele>58.400001525879</ele>
        <time>2021-02-26T07:26:02.000Z</time>
      </trkpt>
      <trkpt lat="49.35075" lon="1.44707">
        <ele>59.200000762939</ele>
        <time>2021-02-26T07:26:06.000Z</time>
      </trkpt>
      <trkpt lat="49.35078" lon="1.44711">
        <ele>59.400001525879</ele>
        <time>2021-02-26T07:26:07.000Z</time>
      </trkpt>
      <trkpt lat="49.35094" lon="1.4474">
        <ele>60.200000762939</ele>
        <time>2021-02-26T07:26:14.000Z</time>
      </trkpt>
      <trkpt lat="49.35107" lon="1.44765">
        <ele>60.599998474121</ele>
        <time>2021-02-26T07:26:20.000Z</time>
      </trkpt>
      <trkpt lat="49.35109" lon="1.44769">
        <ele>60.599998474121</ele>
        <time>2021-02-26T07:26:21.000Z</time>
      </trkpt>
      <trkpt lat="49.35125" lon="1.44797">
        <ele>61</ele>
        <time>2021-02-26T07:26:29.000Z</time>
      </trkpt>
      <trkpt lat="49.35139" lon="1.44818">
        <ele>61.599998474121</ele>
        <time>2021-02-26T07:26:36.000Z</time>
      </trkpt>
      <trkpt lat="49.35153" lon="1.44832">
        <ele>62.400001525879</ele>
        <time>2021-02-26T07:26:42.000Z</time>
      </trkpt>
      <trkpt lat="49.35158" lon="1.44835">
        <ele>62.599998474121</ele>
        <time>2021-02-26T07:26:44.000Z</time>
      </trkpt>
      <trkpt lat="49.35171" lon="1.44841">
        <ele>63.400001525879</ele>
        <time>2021-02-26T07:26:49.000Z</time>
      </trkpt>
      <trkpt lat="49.35173" lon="1.44843">
        <ele>63.799999237061</ele>
        <time>2021-02-26T07:26:50.000Z</time>
      </trkpt>
      <trkpt lat="49.35185" lon="1.4485">
        <ele>65</ele>
        <time>2021-02-26T07:26:55.000Z</time>
      </trkpt>
      <trkpt lat="49.35193" lon="1.44854">
        <ele>66</ele>
        <time>2021-02-26T07:26:59.000Z</time>
      </trkpt>
      <trkpt lat="49.35196" lon="1.44856">
        <ele>66.199996948242</ele>
        <time>2021-02-26T07:27:00.000Z</time>
      </trkpt>
      <trkpt lat="49.35204" lon="1.44861">
        <ele>67.400001525879</ele>
        <time>2021-02-26T07:27:04.000Z</time>
      </trkpt>
      <trkpt lat="49.35212" lon="1.44865">
        <ele>68.400001525879</ele>
        <time>2021-02-26T07:27:08.000Z</time>
      </trkpt>
      <trkpt lat="49.35214" lon="1.44867">
        <ele>68.599998474121</ele>
        <time>2021-02-26T07:27:09.000Z</time>
      </trkpt>
      <trkpt lat="49.35225" lon="1.44873">
        <ele>69.800003051758</ele>
        <time>2021-02-26T07:27:14.000Z</time>
      </trkpt>
      <trkpt lat="49.35233" lon="1.44876">
        <ele>71.199996948242</ele>
        <time>2021-02-26T07:27:18.000Z</time>
      </trkpt>
      <trkpt lat="49.35243" lon="1.44882">
        <ele>72.400001525879</ele>
        <time>2021-02-26T07:27:23.000Z</time>
      </trkpt>
      <trkpt lat="49.35247" lon="1.44884">
        <ele>72.800003051758</ele>
        <time>2021-02-26T07:27:25.000Z</time>
      </trkpt>
      <trkpt lat="49.35251" lon="1.44887">
        <ele>73.199996948242</ele>
        <time>2021-02-26T07:27:27.000Z</time>
      </trkpt>
      <trkpt lat="49.35253" lon="1.44888">
        <ele>73.400001525879</ele>
        <time>2021-02-26T07:27:28.000Z</time>
      </trkpt>
      <trkpt lat="49.35264" lon="1.44894">
        <ele>74.400001525879</ele>
        <time>2021-02-26T07:27:33.000Z</time>
      </trkpt>
      <trkpt lat="49.35272" lon="1.44899">
        <ele>75.400001525879</ele>
        <time>2021-02-26T07:27:37.000Z</time>
      </trkpt>
      <trkpt lat="49.35275" lon="1.449">
        <ele>75.599998474121</ele>
        <time>2021-02-26T07:27:38.000Z</time>
      </trkpt>
      <trkpt lat="49.35285" lon="1.44907">
        <ele>76.599998474121</ele>
        <time>2021-02-26T07:27:43.000Z</time>
      </trkpt>
      <trkpt lat="49.35295" lon="1.44913">
        <ele>77.800003051758</ele>
        <time>2021-02-26T07:27:48.000Z</time>
      </trkpt>
      <trkpt lat="49.35303" lon="1.44917">
        <ele>79</ele>
        <time>2021-02-26T07:27:52.000Z</time>
      </trkpt>
      <trkpt lat="49.35311" lon="1.44923">
        <ele>80</ele>
        <time>2021-02-26T07:27:56.000Z</time>
      </trkpt>
      <trkpt lat="49.35313" lon="1.44924">
        <ele>80.199996948242</ele>
        <time>2021-02-26T07:27:57.000Z</time>
      </trkpt>
      <trkpt lat="49.35323" lon="1.4493">
        <ele>81.199996948242</ele>
        <time>2021-02-26T07:28:02.000Z</time>
      </trkpt>
      <trkpt lat="49.35327" lon="1.44931">
        <ele>81.599998474121</ele>
        <time>2021-02-26T07:28:04.000Z</time>
      </trkpt>
      <trkpt lat="49.35333" lon="1.44935">
        <ele>82.199996948242</ele>
        <time>2021-02-26T07:28:07.000Z</time>
      </trkpt>
      <trkpt lat="49.3534" lon="1.4494">
        <ele>83.199996948242</ele>
        <time>2021-02-26T07:28:11.000Z</time>
      </trkpt>
      <trkpt lat="49.35348" lon="1.44945">
        <ele>84.199996948242</ele>
        <time>2021-02-26T07:28:15.000Z</time>
      </trkpt>
      <trkpt lat="49.35356" lon="1.44949">
        <ele>85.199996948242</ele>
        <time>2021-02-26T07:28:19.000Z</time>
      </trkpt>
      <trkpt lat="49.35358" lon="1.4495">
        <ele>85.400001525879</ele>
        <time>2021-02-26T07:28:20.000Z</time>
      </trkpt>
      <trkpt lat="49.35366" lon="1.44955">
        <ele>86.599998474121</ele>
        <time>2021-02-26T07:28:24.000Z</time>
      </trkpt>
      <trkpt lat="49.35372" lon="1.44956">
        <ele>87.199996948242</ele>
        <time>2021-02-26T07:28:27.000Z</time>
      </trkpt>
      <trkpt lat="49.35375" lon="1.44958">
        <ele>87.599998474121</ele>
        <time>2021-02-26T07:28:29.000Z</time>
      </trkpt>
      <trkpt lat="49.35385" lon="1.44964">
        <ele>88.800003051758</ele>
        <time>2021-02-26T07:28:34.000Z</time>
      </trkpt>
      <trkpt lat="49.35388" lon="1.44966">
        <ele>89.400001525879</ele>
        <time>2021-02-26T07:28:36.000Z</time>
      </trkpt>
      <trkpt lat="49.35394" lon="1.44969">
        <ele>90</ele>
        <time>2021-02-26T07:28:39.000Z</time>
      </trkpt>
      <trkpt lat="49.35403" lon="1.44974">
        <ele>91.400001525879</ele>
        <time>2021-02-26T07:28:44.000Z</time>
      </trkpt>
      <trkpt lat="49.35406" lon="1.44976">
        <ele>92.199996948242</ele>
        <time>2021-02-26T07:28:46.000Z</time>
      </trkpt>
      <trkpt lat="49.35408" lon="1.44977">
        <ele>92.400001525879</ele>
        <time>2021-02-26T07:28:47.000Z</time>
      </trkpt>
      <trkpt lat="49.35415" lon="1.44981">
        <ele>93.400001525879</ele>
        <time>2021-02-26T07:28:51.000Z</time>
      </trkpt>
      <trkpt lat="49.35421" lon="1.44988">
        <ele>94.199996948242</ele>
        <time>2021-02-26T07:28:55.000Z</time>
      </trkpt>
      <trkpt lat="49.35424" lon="1.44991">
        <ele>94.800003051758</ele>
        <time>2021-02-26T07:28:57.000Z</time>
      </trkpt>
      <trkpt lat="49.3543" lon="1.45003">
        <ele>96</ele>
        <time>2021-02-26T07:29:02.000Z</time>
      </trkpt>
      <trkpt lat="49.35432" lon="1.45008">
        <ele>96.400001525879</ele>
        <time>2021-02-26T07:29:04.000Z</time>
      </trkpt>
      <trkpt lat="49.35436" lon="1.45016">
        <ele>97.199996948242</ele>
        <time>2021-02-26T07:29:07.000Z</time>
      </trkpt>
      <trkpt lat="49.35442" lon="1.4503">
        <ele>98.199996948242</ele>
        <time>2021-02-26T07:29:12.000Z</time>
      </trkpt>
      <trkpt lat="49.35444" lon="1.45039">
        <ele>99</ele>
        <time>2021-02-26T07:29:15.000Z</time>
      </trkpt>
      <trkpt lat="49.35446" lon="1.45045">
        <ele>99.400001525879</ele>
        <time>2021-02-26T07:29:17.000Z</time>
      </trkpt>
      <trkpt lat="49.35453" lon="1.45062">
        <ele>100.40000152588</ele>
        <time>2021-02-26T07:29:23.000Z</time>
      </trkpt>
      <trkpt lat="49.35454" lon="1.45065">
        <ele>100.40000152588</ele>
        <time>2021-02-26T07:29:24.000Z</time>
      </trkpt>
      <trkpt lat="49.3546" lon="1.45085">
        <ele>101.59999847412</ele>
        <time>2021-02-26T07:29:30.000Z</time>
      </trkpt>
      <trkpt lat="49.35463" lon="1.45096">
        <ele>102</ele>
        <time>2021-02-26T07:29:33.000Z</time>
      </trkpt>
      <trkpt lat="49.3547" lon="1.45117">
        <ele>102.59999847412</ele>
        <time>2021-02-26T07:29:39.000Z</time>
      </trkpt>
      <trkpt lat="49.35472" lon="1.45124">
        <ele>102.80000305176</ele>
        <time>2021-02-26T07:29:41.000Z</time>
      </trkpt>
      <trkpt lat="49.35483" lon="1.45154">
        <ele>103.59999847412</ele>
        <time>2021-02-26T07:29:49.000Z</time>
      </trkpt>
      <trkpt lat="49.35491" lon="1.4518">
        <ele>104.59999847412</ele>
        <time>2021-02-26T07:29:56.000Z</time>
      </trkpt>
      <trkpt lat="49.35492" lon="1.45184">
        <ele>105</ele>
        <time>2021-02-26T07:29:57.000Z</time>
      </trkpt>
      <trkpt lat="49.355" lon="1.45205">
        <ele>105.80000305176</ele>
        <time>2021-02-26T07:30:03.000Z</time>
      </trkpt>
      <trkpt lat="49.35501" lon="1.45209">
        <ele>106</ele>
        <time>2021-02-26T07:30:04.000Z</time>
      </trkpt>
      <trkpt lat="49.35506" lon="1.45227">
        <ele>107</ele>
        <time>2021-02-26T07:30:09.000Z</time>
      </trkpt>
      <trkpt lat="49.35509" lon="1.45234">
        <ele>107.19999694824</ele>
        <time>2021-02-26T07:30:11.000Z</time>
      </trkpt>
      <trkpt lat="49.35516" lon="1.45253">
        <ele>108</ele>
        <time>2021-02-26T07:30:16.000Z</time>
      </trkpt>
      <trkpt lat="49.35519" lon="1.45265">
        <ele>108.40000152588</ele>
        <time>2021-02-26T07:30:19.000Z</time>
      </trkpt>
      <trkpt lat="49.35527" lon="1.45288">
        <ele>109.40000152588</ele>
        <time>2021-02-26T07:30:25.000Z</time>
      </trkpt>
      <trkpt lat="49.35532" lon="1.45303">
        <ele>110</ele>
        <time>2021-02-26T07:30:29.000Z</time>
      </trkpt>
      <trkpt lat="49.35536" lon="1.45315">
        <ele>110.40000152588</ele>
        <time>2021-02-26T07:30:32.000Z</time>
      </trkpt>
      <trkpt lat="49.35542" lon="1.45334">
        <ele>111.19999694824</ele>
        <time>2021-02-26T07:30:37.000Z</time>
      </trkpt>
      <trkpt lat="49.35543" lon="1.45337">
        <ele>111.40000152588</ele>
        <time>2021-02-26T07:30:38.000Z</time>
      </trkpt>
      <trkpt lat="49.35548" lon="1.45352">
        <ele>112.40000152588</ele>
        <time>2021-02-26T07:30:42.000Z</time>
      </trkpt>
      <trkpt lat="49.35555" lon="1.45374">
        <ele>113.40000152588</ele>
        <time>2021-02-26T07:30:48.000Z</time>
      </trkpt>
      <trkpt lat="49.35562" lon="1.45395">
        <ele>114.59999847412</ele>
        <time>2021-02-26T07:30:54.000Z</time>
      </trkpt>
      <trkpt lat="49.35566" lon="1.45406">
        <ele>115.40000152588</ele>
        <time>2021-02-26T07:30:57.000Z</time>
      </trkpt>
      <trkpt lat="49.35568" lon="1.45413">
        <ele>115.59999847412</ele>
        <time>2021-02-26T07:30:59.000Z</time>
      </trkpt>
      <trkpt lat="49.35573" lon="1.45427">
        <ele>117</ele>
        <time>2021-02-26T07:31:03.000Z</time>
      </trkpt>
      <trkpt lat="49.35578" lon="1.45442">
        <ele>118</ele>
        <time>2021-02-26T07:31:07.000Z</time>
      </trkpt>
      <trkpt lat="49.35583" lon="1.45457">
        <ele>119</ele>
        <time>2021-02-26T07:31:11.000Z</time>
      </trkpt>
      <trkpt lat="49.35588" lon="1.45471">
        <ele>119.80000305176</ele>
        <time>2021-02-26T07:31:15.000Z</time>
      </trkpt>
      <trkpt lat="49.35592" lon="1.45482">
        <ele>120.19999694824</ele>
        <time>2021-02-26T07:31:18.000Z</time>
      </trkpt>
      <trkpt lat="49.35599" lon="1.45504">
        <ele>121.19999694824</ele>
        <time>2021-02-26T07:31:24.000Z</time>
      </trkpt>
      <trkpt lat="49.35605" lon="1.45522">
        <ele>122.19999694824</ele>
        <time>2021-02-26T07:31:29.000Z</time>
      </trkpt>
      <trkpt lat="49.35609" lon="1.45532">
        <ele>122.80000305176</ele>
        <time>2021-02-26T07:31:32.000Z</time>
      </trkpt>
      <trkpt lat="49.35612" lon="1.45543">
        <ele>123.40000152588</ele>
        <time>2021-02-26T07:31:35.000Z</time>
      </trkpt>
      <trkpt lat="49.35616" lon="1.45554">
        <ele>124.59999847412</ele>
        <time>2021-02-26T07:31:38.000Z</time>
      </trkpt>
      <trkpt lat="49.35618" lon="1.45561">
        <ele>125.19999694824</ele>
        <time>2021-02-26T07:31:40.000Z</time>
      </trkpt>
      <trkpt lat="49.35621" lon="1.45568">
        <ele>125.80000305176</ele>
        <time>2021-02-26T07:31:42.000Z</time>
      </trkpt>
      <trkpt lat="49.35626" lon="1.45584">
        <ele>126.80000305176</ele>
        <time>2021-02-26T07:31:47.000Z</time>
      </trkpt>
      <trkpt lat="49.35627" lon="1.45587">
        <ele>127.19999694824</ele>
        <time>2021-02-26T07:31:48.000Z</time>
      </trkpt>
      <trkpt lat="49.35631" lon="1.45597">
        <ele>128</ele>
        <time>2021-02-26T07:31:51.000Z</time>
      </trkpt>
      <trkpt lat="49.35635" lon="1.45611">
        <ele>129</ele>
        <time>2021-02-26T07:31:55.000Z</time>
      </trkpt>
      <trkpt lat="49.35638" lon="1.45621">
        <ele>129.80000305176</ele>
        <time>2021-02-26T07:31:58.000Z</time>
      </trkpt>
      <trkpt lat="49.35641" lon="1.45629">
        <ele>130.19999694824</ele>
        <time>2021-02-26T07:32:00.000Z</time>
      </trkpt>
      <trkpt lat="49.35647" lon="1.45648">
        <ele>131.39999389648</ele>
        <time>2021-02-26T07:32:05.000Z</time>
      </trkpt>
      <trkpt lat="49.35653" lon="1.45665">
        <ele>132</ele>
        <time>2021-02-26T07:32:09.000Z</time>
      </trkpt>
      <trkpt lat="49.35661" lon="1.45687">
        <ele>132.60000610352</ele>
        <time>2021-02-26T07:32:14.000Z</time>
      </trkpt>
      <trkpt lat="49.35665" lon="1.45695">
        <ele>132.60000610352</ele>
        <time>2021-02-26T07:32:16.000Z</time>
      </trkpt>
      <trkpt lat="49.35682" lon="1.45712">
        <ele>132.80000305176</ele>
        <time>2021-02-26T07:32:22.000Z</time>
      </trkpt>
      <trkpt lat="49.35707" lon="1.45725">
        <ele>133</ele>
        <time>2021-02-26T07:32:29.000Z</time>
      </trkpt>
      <trkpt lat="49.35718" lon="1.45738">
        <ele>133.19999694824</ele>
        <time>2021-02-26T07:32:33.000Z</time>
      </trkpt>
      <trkpt lat="49.35724" lon="1.45767">
        <ele>133</ele>
        <time>2021-02-26T07:32:39.000Z</time>
      </trkpt>
      <trkpt lat="49.35716" lon="1.45777">
        <ele>133</ele>
        <time>2021-02-26T07:32:42.000Z</time>
      </trkpt>
      <trkpt lat="49.35712" lon="1.4578">
        <ele>133</ele>
        <time>2021-02-26T07:32:43.000Z</time>
      </trkpt>
      <trkpt lat="49.35695" lon="1.45794">
        <ele>133</ele>
        <time>2021-02-26T07:32:47.000Z</time>
      </trkpt>
      <trkpt lat="49.35646" lon="1.45839">
        <ele>132</ele>
        <time>2021-02-26T07:32:57.000Z</time>
      </trkpt>
      <trkpt lat="49.3563" lon="1.45853">
        <ele>131.39999389648</ele>
        <time>2021-02-26T07:33:00.000Z</time>
      </trkpt>
      <trkpt lat="49.35607" lon="1.45875">
        <ele>130.80000305176</ele>
        <time>2021-02-26T07:33:04.000Z</time>
      </trkpt>
      <trkpt lat="49.35588" lon="1.45892">
        <ele>130.19999694824</ele>
        <time>2021-02-26T07:33:07.000Z</time>
      </trkpt>
      <trkpt lat="49.35562" lon="1.45915">
        <ele>129.19999694824</ele>
        <time>2021-02-26T07:33:11.000Z</time>
      </trkpt>
      <trkpt lat="49.35556" lon="1.45921">
        <ele>128.80000305176</ele>
        <time>2021-02-26T07:33:12.000Z</time>
      </trkpt>
      <trkpt lat="49.35536" lon="1.4594">
        <ele>128</ele>
        <time>2021-02-26T07:33:15.000Z</time>
      </trkpt>
      <trkpt lat="49.35515" lon="1.45959">
        <ele>127</ele>
        <time>2021-02-26T07:33:18.000Z</time>
      </trkpt>
      <trkpt lat="49.355" lon="1.45972">
        <ele>126.19999694824</ele>
        <time>2021-02-26T07:33:20.000Z</time>
      </trkpt>
      <trkpt lat="49.35493" lon="1.45979">
        <ele>125.59999847412</ele>
        <time>2021-02-26T07:33:21.000Z</time>
      </trkpt>
      <trkpt lat="49.3547" lon="1.45999">
        <ele>124.40000152588</ele>
        <time>2021-02-26T07:33:24.000Z</time>
      </trkpt>
      <trkpt lat="49.35447" lon="1.4602">
        <ele>122.59999847412</ele>
        <time>2021-02-26T07:33:27.000Z</time>
      </trkpt>
      <trkpt lat="49.35431" lon="1.46034">
        <ele>120.80000305176</ele>
        <time>2021-02-26T07:33:29.000Z</time>
      </trkpt>
      <trkpt lat="49.35423" lon="1.46042">
        <ele>119.40000152588</ele>
        <time>2021-02-26T07:33:30.000Z</time>
      </trkpt>
      <trkpt lat="49.35407" lon="1.46057">
        <ele>118</ele>
        <time>2021-02-26T07:33:32.000Z</time>
      </trkpt>
      <trkpt lat="49.35391" lon="1.46071">
        <ele>116.59999847412</ele>
        <time>2021-02-26T07:33:34.000Z</time>
      </trkpt>
      <trkpt lat="49.35375" lon="1.46086">
        <ele>115.59999847412</ele>
        <time>2021-02-26T07:33:36.000Z</time>
      </trkpt>
      <trkpt lat="49.35359" lon="1.461">
        <ele>114.40000152588</ele>
        <time>2021-02-26T07:33:38.000Z</time>
      </trkpt>
      <trkpt lat="49.35343" lon="1.46114">
        <ele>113</ele>
        <time>2021-02-26T07:33:40.000Z</time>
      </trkpt>
      <trkpt lat="49.35326" lon="1.46129">
        <ele>111.59999847412</ele>
        <time>2021-02-26T07:33:42.000Z</time>
      </trkpt>
      <trkpt lat="49.3531" lon="1.46142">
        <ele>110.40000152588</ele>
        <time>2021-02-26T07:33:44.000Z</time>
      </trkpt>
      <trkpt lat="49.35293" lon="1.46157">
        <ele>109.19999694824</ele>
        <time>2021-02-26T07:33:46.000Z</time>
      </trkpt>
      <trkpt lat="49.35285" lon="1.46164">
        <ele>108.59999847412</ele>
        <time>2021-02-26T07:33:47.000Z</time>
      </trkpt>
      <trkpt lat="49.35276" lon="1.46172">
        <ele>108</ele>
        <time>2021-02-26T07:33:48.000Z</time>
      </trkpt>
      <trkpt lat="49.35259" lon="1.46185">
        <ele>106.59999847412</ele>
        <time>2021-02-26T07:33:50.000Z</time>
      </trkpt>
      <trkpt lat="49.35242" lon="1.46198">
        <ele>105.40000152588</ele>
        <time>2021-02-26T07:33:52.000Z</time>
      </trkpt>
      <trkpt lat="49.35226" lon="1.46213">
        <ele>104.40000152588</ele>
        <time>2021-02-26T07:33:54.000Z</time>
      </trkpt>
      <trkpt lat="49.35203" lon="1.46235">
        <ele>103</ele>
        <time>2021-02-26T07:33:57.000Z</time>
      </trkpt>
      <trkpt lat="49.35187" lon="1.46249">
        <ele>101.19999694824</ele>
        <time>2021-02-26T07:33:59.000Z</time>
      </trkpt>
      <trkpt lat="49.35171" lon="1.46263">
        <ele>100</ele>
        <time>2021-02-26T07:34:01.000Z</time>
      </trkpt>
      <trkpt lat="49.35163" lon="1.4627">
        <ele>99.599998474121</ele>
        <time>2021-02-26T07:34:02.000Z</time>
      </trkpt>
      <trkpt lat="49.35155" lon="1.46277">
        <ele>98.800003051758</ele>
        <time>2021-02-26T07:34:03.000Z</time>
      </trkpt>
      <trkpt lat="49.3513" lon="1.46299">
        <ele>97.400001525879</ele>
        <time>2021-02-26T07:34:06.000Z</time>
      </trkpt>
      <trkpt lat="49.35107" lon="1.46321">
        <ele>96</ele>
        <time>2021-02-26T07:34:09.000Z</time>
      </trkpt>
      <trkpt lat="49.351" lon="1.4633">
        <ele>95.599998474121</ele>
        <time>2021-02-26T07:34:10.000Z</time>
      </trkpt>
      <trkpt lat="49.35094" lon="1.4634">
        <ele>94.800003051758</ele>
        <time>2021-02-26T07:34:11.000Z</time>
      </trkpt>
      <trkpt lat="49.35085" lon="1.46364">
        <ele>93.599998474121</ele>
        <time>2021-02-26T07:34:13.000Z</time>
      </trkpt>
      <trkpt lat="49.35082" lon="1.46393">
        <ele>92.199996948242</ele>
        <time>2021-02-26T07:34:15.000Z</time>
      </trkpt>
      <trkpt lat="49.3508" lon="1.46422">
        <ele>91.400001525879</ele>
        <time>2021-02-26T07:34:17.000Z</time>
      </trkpt>
      <trkpt lat="49.35079" lon="1.46436">
        <ele>91.199996948242</ele>
        <time>2021-02-26T07:34:18.000Z</time>
      </trkpt>
      <trkpt lat="49.35073" lon="1.46495">
        <ele>90</ele>
        <time>2021-02-26T07:34:22.000Z</time>
      </trkpt>
      <trkpt lat="49.35071" lon="1.46508">
        <ele>89.599998474121</ele>
        <time>2021-02-26T07:34:23.000Z</time>
      </trkpt>
      <trkpt lat="49.35069" lon="1.46536">
        <ele>88.800003051758</ele>
        <time>2021-02-26T07:34:25.000Z</time>
      </trkpt>
      <trkpt lat="49.35068" lon="1.46562">
        <ele>87.400001525879</ele>
        <time>2021-02-26T07:34:27.000Z</time>
      </trkpt>
      <trkpt lat="49.35069" lon="1.46575">
        <ele>86.599998474121</ele>
        <time>2021-02-26T07:34:28.000Z</time>
      </trkpt>
      <trkpt lat="49.35071" lon="1.46587">
        <ele>86</ele>
        <time>2021-02-26T07:34:29.000Z</time>
      </trkpt>
      <trkpt lat="49.35077" lon="1.46612">
        <ele>84.800003051758</ele>
        <time>2021-02-26T07:34:31.000Z</time>
      </trkpt>
      <trkpt lat="49.3508" lon="1.46625">
        <ele>84.400001525879</ele>
        <time>2021-02-26T07:34:32.000Z</time>
      </trkpt>
      <trkpt lat="49.35087" lon="1.4665">
        <ele>83.800003051758</ele>
        <time>2021-02-26T07:34:34.000Z</time>
      </trkpt>
      <trkpt lat="49.35093" lon="1.46675">
        <ele>82.599998474121</ele>
        <time>2021-02-26T07:34:36.000Z</time>
      </trkpt>
      <trkpt lat="49.351" lon="1.46699">
        <ele>82</ele>
        <time>2021-02-26T07:34:38.000Z</time>
      </trkpt>
      <trkpt lat="49.35105" lon="1.46711">
        <ele>81.400001525879</ele>
        <time>2021-02-26T07:34:39.000Z</time>
      </trkpt>
      <trkpt lat="49.35121" lon="1.46744">
        <ele>79.599998474121</ele>
        <time>2021-02-26T07:34:42.000Z</time>
      </trkpt>
      <trkpt lat="49.35127" lon="1.46755">
        <ele>79</ele>
        <time>2021-02-26T07:34:43.000Z</time>
      </trkpt>
      <trkpt lat="49.35132" lon="1.46767">
        <ele>78.599998474121</ele>
        <time>2021-02-26T07:34:44.000Z</time>
      </trkpt>
      <trkpt lat="49.35143" lon="1.46792">
        <ele>77.199996948242</ele>
        <time>2021-02-26T07:34:46.000Z</time>
      </trkpt>
      <trkpt lat="49.35156" lon="1.4683">
        <ele>76.199996948242</ele>
        <time>2021-02-26T07:34:49.000Z</time>
      </trkpt>
      <trkpt lat="49.3516" lon="1.46868">
        <ele>74.599998474121</ele>
        <time>2021-02-26T07:34:52.000Z</time>
      </trkpt>
      <trkpt lat="49.3516" lon="1.46881">
        <ele>74</ele>
        <time>2021-02-26T07:34:53.000Z</time>
      </trkpt>
      <trkpt lat="49.3516" lon="1.46894">
        <ele>73.199996948242</ele>
        <time>2021-02-26T07:34:54.000Z</time>
      </trkpt>
      <trkpt lat="49.3516" lon="1.46921">
        <ele>72</ele>
        <time>2021-02-26T07:34:56.000Z</time>
      </trkpt>
      <trkpt lat="49.35166" lon="1.46945">
        <ele>71.199996948242</ele>
        <time>2021-02-26T07:34:58.000Z</time>
      </trkpt>
      <trkpt lat="49.3517" lon="1.46955">
        <ele>70.400001525879</ele>
        <time>2021-02-26T07:34:59.000Z</time>
      </trkpt>
      <trkpt lat="49.35179" lon="1.46975">
        <ele>69.199996948242</ele>
        <time>2021-02-26T07:35:01.000Z</time>
      </trkpt>
      <trkpt lat="49.35187" lon="1.46995">
        <ele>68</ele>
        <time>2021-02-26T07:35:03.000Z</time>
      </trkpt>
      <trkpt lat="49.3519" lon="1.47004">
        <ele>67.599998474121</ele>
        <time>2021-02-26T07:35:04.000Z</time>
      </trkpt>
      <trkpt lat="49.35197" lon="1.4702">
        <ele>67</ele>
        <time>2021-02-26T07:35:06.000Z</time>
      </trkpt>
      <trkpt lat="49.35201" lon="1.47025">
        <ele>66.800003051758</ele>
        <time>2021-02-26T07:35:07.000Z</time>
      </trkpt>
      <trkpt lat="49.35216" lon="1.47024">
        <ele>66.599998474121</ele>
        <time>2021-02-26T07:35:10.000Z</time>
      </trkpt>
      <trkpt lat="49.35221" lon="1.47022">
        <ele>66.599998474121</ele>
        <time>2021-02-26T07:35:11.000Z</time>
      </trkpt>
      <trkpt lat="49.35231" lon="1.47017">
        <ele>65.800003051758</ele>
        <time>2021-02-26T07:35:13.000Z</time>
      </trkpt>
      <trkpt lat="49.35252" lon="1.47008">
        <ele>64.800003051758</ele>
        <time>2021-02-26T07:35:17.000Z</time>
      </trkpt>
      <trkpt lat="49.35257" lon="1.47006">
        <ele>64.599998474121</ele>
        <time>2021-02-26T07:35:18.000Z</time>
      </trkpt>
      <trkpt lat="49.35284" lon="1.46998">
        <ele>64</ele>
        <time>2021-02-26T07:35:23.000Z</time>
      </trkpt>
      <trkpt lat="49.35294" lon="1.46999">
        <ele>64</ele>
        <time>2021-02-26T07:35:25.000Z</time>
      </trkpt>
      <trkpt lat="49.35309" lon="1.47016">
        <ele>64</ele>
        <time>2021-02-26T07:35:29.000Z</time>
      </trkpt>
      <trkpt lat="49.35314" lon="1.47029">
        <ele>64</ele>
        <time>2021-02-26T07:35:31.000Z</time>
      </trkpt>
      <trkpt lat="49.35325" lon="1.47061">
        <ele>64.199996948242</ele>
        <time>2021-02-26T07:35:36.000Z</time>
      </trkpt>
      <trkpt lat="49.35339" lon="1.47099">
        <ele>64.800003051758</ele>
        <time>2021-02-26T07:35:43.000Z</time>
      </trkpt>
      <trkpt lat="49.35344" lon="1.47117">
        <ele>65.599998474121</ele>
        <time>2021-02-26T07:35:48.000Z</time>
      </trkpt>
      <trkpt lat="49.35346" lon="1.47127">
        <ele>67</ele>
        <time>2021-02-26T07:35:53.000Z</time>
      </trkpt>
      <trkpt lat="49.35346" lon="1.47129">
        <ele>67.199996948242</ele>
        <time>2021-02-26T07:35:54.000Z</time>
      </trkpt>
      <trkpt lat="49.35347" lon="1.47131">
        <ele>68</ele>
        <time>2021-02-26T07:35:56.000Z</time>
      </trkpt>
      <trkpt lat="49.35348" lon="1.47135">
        <ele>69.199996948242</ele>
        <time>2021-02-26T07:35:59.000Z</time>
      </trkpt>
      <trkpt lat="49.35348" lon="1.47139">
        <ele>70.199996948242</ele>
        <time>2021-02-26T07:36:01.000Z</time>
      </trkpt>
      <trkpt lat="49.35348" lon="1.4714">
        <ele>70.599998474121</ele>
        <time>2021-02-26T07:36:02.000Z</time>
      </trkpt>
      <trkpt lat="49.35349" lon="1.47144">
        <ele>72</ele>
        <time>2021-02-26T07:36:05.000Z</time>
      </trkpt>
      <trkpt lat="49.35349" lon="1.47148">
        <ele>73</ele>
        <time>2021-02-26T07:36:08.000Z</time>
      </trkpt>
      <trkpt lat="49.35351" lon="1.47153">
        <ele>74.400001525879</ele>
        <time>2021-02-26T07:36:11.000Z</time>
      </trkpt>
      <trkpt lat="49.35352" lon="1.47156">
        <ele>75.199996948242</ele>
        <time>2021-02-26T07:36:13.000Z</time>
      </trkpt>
      <trkpt lat="49.35353" lon="1.47158">
        <ele>75.400001525879</ele>
        <time>2021-02-26T07:36:14.000Z</time>
      </trkpt>
      <trkpt lat="49.35354" lon="1.47161">
        <ele>76</ele>
        <time>2021-02-26T07:36:16.000Z</time>
      </trkpt>
      <trkpt lat="49.35355" lon="1.47162">
        <ele>76.599998474121</ele>
        <time>2021-02-26T07:36:17.000Z</time>
      </trkpt>
      <trkpt lat="49.35356" lon="1.47164">
        <ele>77</ele>
        <time>2021-02-26T07:36:18.000Z</time>
      </trkpt>
      <trkpt lat="49.35357" lon="1.47168">
        <ele>77.800003051758</ele>
        <time>2021-02-26T07:36:20.000Z</time>
      </trkpt>
      <trkpt lat="49.35359" lon="1.47172">
        <ele>78.800003051758</ele>
        <time>2021-02-26T07:36:22.000Z</time>
      </trkpt>
      <trkpt lat="49.35359" lon="1.47174">
        <ele>79</ele>
        <time>2021-02-26T07:36:23.000Z</time>
      </trkpt>
      <trkpt lat="49.3536" lon="1.47176">
        <ele>79.400001525879</ele>
        <time>2021-02-26T07:36:24.000Z</time>
      </trkpt>
      <trkpt lat="49.35362" lon="1.4718">
        <ele>80.199996948242</ele>
        <time>2021-02-26T07:36:26.000Z</time>
      </trkpt>
      <trkpt lat="49.35363" lon="1.47183">
        <ele>81</ele>
        <time>2021-02-26T07:36:28.000Z</time>
      </trkpt>
      <trkpt lat="49.35363" lon="1.47185">
        <ele>81.199996948242</ele>
        <time>2021-02-26T07:36:29.000Z</time>
      </trkpt>
      <trkpt lat="49.35365" lon="1.47192">
        <ele>82.400001525879</ele>
        <time>2021-02-26T07:36:33.000Z</time>
      </trkpt>
      <trkpt lat="49.35368" lon="1.47192">
        <ele>83.599998474121</ele>
        <time>2021-02-26T07:36:38.000Z</time>
      </trkpt>
      <trkpt lat="49.3537" lon="1.47192">
        <ele>83.800003051758</ele>
        <time>2021-02-26T07:36:39.000Z</time>
      </trkpt>
      <trkpt lat="49.35371" lon="1.47192">
        <ele>83.800003051758</ele>
        <time>2021-02-26T07:36:40.000Z</time>
      </trkpt>
      <trkpt lat="49.35378" lon="1.47192">
        <ele>84.400001525879</ele>
        <time>2021-02-26T07:36:47.000Z</time>
      </trkpt>
      <trkpt lat="49.35382" lon="1.47194">
        <ele>85</ele>
        <time>2021-02-26T07:37:44.000Z</time>
      </trkpt>
      <trkpt lat="49.35387" lon="1.47195">
        <ele>85</ele>
        <time>2021-02-26T07:37:46.000Z</time>
      </trkpt>
      <trkpt lat="49.35403" lon="1.47198">
        <ele>85.400001525879</ele>
        <time>2021-02-26T07:37:53.000Z</time>
      </trkpt>
      <trkpt lat="49.35417" lon="1.47206">
        <ele>86</ele>
        <time>2021-02-26T07:37:59.000Z</time>
      </trkpt>
      <trkpt lat="49.3542" lon="1.47207">
        <ele>86.199996948242</ele>
        <time>2021-02-26T07:38:00.000Z</time>
      </trkpt>
      <trkpt lat="49.35431" lon="1.47214">
        <ele>87.199996948242</ele>
        <time>2021-02-26T07:38:05.000Z</time>
      </trkpt>
      <trkpt lat="49.35431" lon="1.47221">
        <ele>87.599998474121</ele>
        <time>2021-02-26T07:38:07.000Z</time>
      </trkpt>
      <trkpt lat="49.35427" lon="1.47228">
        <ele>88.199996948242</ele>
        <time>2021-02-26T07:38:10.000Z</time>
      </trkpt>
      <trkpt lat="49.35424" lon="1.47229">
        <ele>88.400001525879</ele>
        <time>2021-02-26T07:38:11.000Z</time>
      </trkpt>
      <trkpt lat="49.35413" lon="1.47236">
        <ele>89.400001525879</ele>
        <time>2021-02-26T07:38:16.000Z</time>
      </trkpt>
      <trkpt lat="49.35404" lon="1.47242">
        <ele>90.599998474121</ele>
        <time>2021-02-26T07:38:20.000Z</time>
      </trkpt>
      <trkpt lat="49.35396" lon="1.47249">
        <ele>91.800003051758</ele>
        <time>2021-02-26T07:38:24.000Z</time>
      </trkpt>
      <trkpt lat="49.35385" lon="1.4726">
        <ele>92.800003051758</ele>
        <time>2021-02-26T07:38:29.000Z</time>
      </trkpt>
      <trkpt lat="49.35383" lon="1.47263">
        <ele>93</ele>
        <time>2021-02-26T07:38:30.000Z</time>
      </trkpt>
      <trkpt lat="49.35379" lon="1.4728">
        <ele>94</ele>
        <time>2021-02-26T07:38:35.000Z</time>
      </trkpt>
      <trkpt lat="49.35388" lon="1.47285">
        <ele>94.400001525879</ele>
        <time>2021-02-26T07:38:39.000Z</time>
      </trkpt>
      <trkpt lat="49.35395" lon="1.47291">
        <ele>94.800003051758</ele>
        <time>2021-02-26T07:38:43.000Z</time>
      </trkpt>
      <trkpt lat="49.35399" lon="1.47295">
        <ele>95</ele>
        <time>2021-02-26T07:38:45.000Z</time>
      </trkpt>
      <trkpt lat="49.35403" lon="1.47298">
        <ele>95.599998474121</ele>
        <time>2021-02-26T07:38:47.000Z</time>
      </trkpt>
      <trkpt lat="49.35408" lon="1.47301">
        <ele>96.400001525879</ele>
        <time>2021-02-26T07:38:49.000Z</time>
      </trkpt>
      <trkpt lat="49.35416" lon="1.47307">
        <ele>97.599998474121</ele>
        <time>2021-02-26T07:38:53.000Z</time>
      </trkpt>
      <trkpt lat="49.35423" lon="1.47313">
        <ele>98.599998474121</ele>
        <time>2021-02-26T07:38:57.000Z</time>
      </trkpt>
      <trkpt lat="49.35425" lon="1.47314">
        <ele>98.800003051758</ele>
        <time>2021-02-26T07:38:58.000Z</time>
      </trkpt>
      <trkpt lat="49.35432" lon="1.4732">
        <ele>99.800003051758</ele>
        <time>2021-02-26T07:39:02.000Z</time>
      </trkpt>
      <trkpt lat="49.35439" lon="1.47326">
        <ele>101.19999694824</ele>
        <time>2021-02-26T07:39:06.000Z</time>
      </trkpt>
      <trkpt lat="49.35441" lon="1.47327">
        <ele>101.40000152588</ele>
        <time>2021-02-26T07:39:07.000Z</time>
      </trkpt>
      <trkpt lat="49.35446" lon="1.47331">
        <ele>102.19999694824</ele>
        <time>2021-02-26T07:39:10.000Z</time>
      </trkpt>
      <trkpt lat="49.35452" lon="1.47335">
        <ele>103.19999694824</ele>
        <time>2021-02-26T07:39:13.000Z</time>
      </trkpt>
      <trkpt lat="49.35459" lon="1.47341">
        <ele>104</ele>
        <time>2021-02-26T07:39:17.000Z</time>
      </trkpt>
      <trkpt lat="49.35461" lon="1.47342">
        <ele>104.19999694824</ele>
        <time>2021-02-26T07:39:18.000Z</time>
      </trkpt>
      <trkpt lat="49.3547" lon="1.47349">
        <ele>105.40000152588</ele>
        <time>2021-02-26T07:39:23.000Z</time>
      </trkpt>
      <trkpt lat="49.35472" lon="1.47351">
        <ele>105.59999847412</ele>
        <time>2021-02-26T07:39:24.000Z</time>
      </trkpt>
      <trkpt lat="49.3548" lon="1.47357">
        <ele>106.59999847412</ele>
        <time>2021-02-26T07:39:28.000Z</time>
      </trkpt>
      <trkpt lat="49.3549" lon="1.47365">
        <ele>107.59999847412</ele>
        <time>2021-02-26T07:39:33.000Z</time>
      </trkpt>
      <trkpt lat="49.35492" lon="1.47367">
        <ele>107.80000305176</ele>
        <time>2021-02-26T07:39:34.000Z</time>
      </trkpt>
      <trkpt lat="49.35502" lon="1.47376">
        <ele>108.59999847412</ele>
        <time>2021-02-26T07:39:39.000Z</time>
      </trkpt>
      <trkpt lat="49.35511" lon="1.47383">
        <ele>109.40000152588</ele>
        <time>2021-02-26T07:39:43.000Z</time>
      </trkpt>
      <trkpt lat="49.35515" lon="1.47386">
        <ele>109.80000305176</ele>
        <time>2021-02-26T07:39:45.000Z</time>
      </trkpt>
      <trkpt lat="49.35531" lon="1.474">
        <ele>110.80000305176</ele>
        <time>2021-02-26T07:39:52.000Z</time>
      </trkpt>
      <trkpt lat="49.35534" lon="1.47402">
        <ele>110.80000305176</ele>
        <time>2021-02-26T07:39:53.000Z</time>
      </trkpt>
      <trkpt lat="49.35552" lon="1.4742">
        <ele>111.80000305176</ele>
        <time>2021-02-26T07:40:01.000Z</time>
      </trkpt>
      <trkpt lat="49.35555" lon="1.47423">
        <ele>111.80000305176</ele>
        <time>2021-02-26T07:40:02.000Z</time>
      </trkpt>
      <trkpt lat="49.35575" lon="1.47444">
        <ele>112.80000305176</ele>
        <time>2021-02-26T07:40:10.000Z</time>
      </trkpt>
      <trkpt lat="49.35577" lon="1.47446">
        <ele>113</ele>
        <time>2021-02-26T07:40:11.000Z</time>
      </trkpt>
      <trkpt lat="49.35587" lon="1.4745">
        <ele>113.40000152588</ele>
        <time>2021-02-26T07:40:15.000Z</time>
      </trkpt>
      <trkpt lat="49.35598" lon="1.47456">
        <ele>114</ele>
        <time>2021-02-26T07:40:19.000Z</time>
      </trkpt>
      <trkpt lat="49.35604" lon="1.47459">
        <ele>114</ele>
        <time>2021-02-26T07:40:21.000Z</time>
      </trkpt>
      <trkpt lat="49.3562" lon="1.47467">
        <ele>114</ele>
        <time>2021-02-26T07:40:26.000Z</time>
      </trkpt>
      <trkpt lat="49.35632" lon="1.47472">
        <ele>114.19999694824</ele>
        <time>2021-02-26T07:40:30.000Z</time>
      </trkpt>
      <trkpt lat="49.3565" lon="1.47483">
        <ele>114</ele>
        <time>2021-02-26T07:40:35.000Z</time>
      </trkpt>
      <trkpt lat="49.35681" lon="1.47498">
        <ele>113.80000305176</ele>
        <time>2021-02-26T07:40:42.000Z</time>
      </trkpt>
      <trkpt lat="49.357" lon="1.47509">
        <ele>113.40000152588</ele>
        <time>2021-02-26T07:40:47.000Z</time>
      </trkpt>
      <trkpt lat="49.35712" lon="1.4752">
        <ele>113</ele>
        <time>2021-02-26T07:40:50.000Z</time>
      </trkpt>
      <trkpt lat="49.35718" lon="1.47526">
        <ele>112.59999847412</ele>
        <time>2021-02-26T07:40:52.000Z</time>
      </trkpt>
      <trkpt lat="49.35733" lon="1.4754">
        <ele>112.59999847412</ele>
        <time>2021-02-26T07:40:56.000Z</time>
      </trkpt>
      <trkpt lat="49.3575" lon="1.47552">
        <ele>112.40000152588</ele>
        <time>2021-02-26T07:41:00.000Z</time>
      </trkpt>
      <trkpt lat="49.35778" lon="1.4757">
        <ele>113</ele>
        <time>2021-02-26T07:41:07.000Z</time>
      </trkpt>
      <trkpt lat="49.35801" lon="1.47584">
        <ele>113.40000152588</ele>
        <time>2021-02-26T07:41:13.000Z</time>
      </trkpt>
      <trkpt lat="49.35817" lon="1.47597">
        <ele>113.80000305176</ele>
        <time>2021-02-26T07:41:18.000Z</time>
      </trkpt>
      <trkpt lat="49.35837" lon="1.47611">
        <ele>114.40000152588</ele>
        <time>2021-02-26T07:41:23.000Z</time>
      </trkpt>
      <trkpt lat="49.35854" lon="1.47621">
        <ele>114.80000305176</ele>
        <time>2021-02-26T07:41:27.000Z</time>
      </trkpt>
      <trkpt lat="49.35858" lon="1.47624">
        <ele>114.80000305176</ele>
        <time>2021-02-26T07:41:28.000Z</time>
      </trkpt>
      <trkpt lat="49.35887" lon="1.47645">
        <ele>115.19999694824</ele>
        <time>2021-02-26T07:41:35.000Z</time>
      </trkpt>
      <trkpt lat="49.35909" lon="1.4766">
        <ele>115.59999847412</ele>
        <time>2021-02-26T07:41:41.000Z</time>
      </trkpt>
      <trkpt lat="49.35915" lon="1.47665">
        <ele>116</ele>
        <time>2021-02-26T07:41:43.000Z</time>
      </trkpt>
      <trkpt lat="49.35927" lon="1.47675">
        <ele>116.19999694824</ele>
        <time>2021-02-26T07:41:47.000Z</time>
      </trkpt>
      <trkpt lat="49.35945" lon="1.4769">
        <ele>116.80000305176</ele>
        <time>2021-02-26T07:41:52.000Z</time>
      </trkpt>
      <trkpt lat="49.35956" lon="1.47703">
        <ele>117.19999694824</ele>
        <time>2021-02-26T07:41:56.000Z</time>
      </trkpt>
      <trkpt lat="49.35957" lon="1.47707">
        <ele>117.19999694824</ele>
        <time>2021-02-26T07:41:57.000Z</time>
      </trkpt>
      <trkpt lat="49.35956" lon="1.47723">
        <ele>117.19999694824</ele>
        <time>2021-02-26T07:42:01.000Z</time>
      </trkpt>
      <trkpt lat="49.35955" lon="1.47729">
        <ele>117.40000152588</ele>
        <time>2021-02-26T07:42:03.000Z</time>
      </trkpt>
      <trkpt lat="49.35955" lon="1.47736">
        <ele>118</ele>
        <time>2021-02-26T07:42:05.000Z</time>
      </trkpt>
      <trkpt lat="49.35954" lon="1.47746">
        <ele>119</ele>
        <time>2021-02-26T07:42:08.000Z</time>
      </trkpt>
      <trkpt lat="49.35951" lon="1.47756">
        <ele>120.19999694824</ele>
        <time>2021-02-26T07:42:11.000Z</time>
      </trkpt>
      <trkpt lat="49.35948" lon="1.47766">
        <ele>121.19999694824</ele>
        <time>2021-02-26T07:42:14.000Z</time>
      </trkpt>
      <trkpt lat="49.35946" lon="1.47777">
        <ele>122.19999694824</ele>
        <time>2021-02-26T07:42:17.000Z</time>
      </trkpt>
      <trkpt lat="49.35941" lon="1.47794">
        <ele>122.80000305176</ele>
        <time>2021-02-26T07:42:21.000Z</time>
      </trkpt>
      <trkpt lat="49.35939" lon="1.47802">
        <ele>123.19999694824</ele>
        <time>2021-02-26T07:42:23.000Z</time>
      </trkpt>
      <trkpt lat="49.35933" lon="1.47812">
        <ele>123.80000305176</ele>
        <time>2021-02-26T07:42:27.000Z</time>
      </trkpt>
      <trkpt lat="49.35927" lon="1.47815">
        <ele>124.19999694824</ele>
        <time>2021-02-26T07:42:29.000Z</time>
      </trkpt>
      <trkpt lat="49.35919" lon="1.47821">
        <ele>124.59999847412</ele>
        <time>2021-02-26T07:42:32.000Z</time>
      </trkpt>
      <trkpt lat="49.35902" lon="1.47829">
        <ele>124.59999847412</ele>
        <time>2021-02-26T07:42:37.000Z</time>
      </trkpt>
      <trkpt lat="49.35896" lon="1.47833">
        <ele>124.59999847412</ele>
        <time>2021-02-26T07:42:39.000Z</time>
      </trkpt>
      <trkpt lat="49.35894" lon="1.47842">
        <ele>124.59999847412</ele>
        <time>2021-02-26T07:42:41.000Z</time>
      </trkpt>
      <trkpt lat="49.359" lon="1.47851">
        <ele>124.40000152588</ele>
        <time>2021-02-26T07:42:44.000Z</time>
      </trkpt>
      <trkpt lat="49.35902" lon="1.47853">
        <ele>124.40000152588</ele>
        <time>2021-02-26T07:42:45.000Z</time>
      </trkpt>
      <trkpt lat="49.35918" lon="1.47871">
        <ele>124.40000152588</ele>
        <time>2021-02-26T07:42:51.000Z</time>
      </trkpt>
      <trkpt lat="49.3594" lon="1.47892">
        <ele>124.80000305176</ele>
        <time>2021-02-26T07:42:58.000Z</time>
      </trkpt>
      <trkpt lat="49.3595" lon="1.47901">
        <ele>125.19999694824</ele>
        <time>2021-02-26T07:43:01.000Z</time>
      </trkpt>
      <trkpt lat="49.35972" lon="1.47922">
        <ele>125.80000305176</ele>
        <time>2021-02-26T07:43:07.000Z</time>
      </trkpt>
      <trkpt lat="49.35997" lon="1.47946">
        <ele>126.40000152588</ele>
        <time>2021-02-26T07:43:14.000Z</time>
      </trkpt>
      <trkpt lat="49.36001" lon="1.4795">
        <ele>126.59999847412</ele>
        <time>2021-02-26T07:43:15.000Z</time>
      </trkpt>
      <trkpt lat="49.36028" lon="1.47974">
        <ele>127</ele>
        <time>2021-02-26T07:43:22.000Z</time>
      </trkpt>
      <trkpt lat="49.36036" lon="1.47981">
        <ele>127.40000152588</ele>
        <time>2021-02-26T07:43:24.000Z</time>
      </trkpt>
      <trkpt lat="49.3606" lon="1.48003">
        <ele>128.19999694824</ele>
        <time>2021-02-26T07:43:30.000Z</time>
      </trkpt>
      <trkpt lat="49.36067" lon="1.4801">
        <ele>128.39999389648</ele>
        <time>2021-02-26T07:43:32.000Z</time>
      </trkpt>
      <trkpt lat="49.36094" lon="1.48034">
        <ele>129.19999694824</ele>
        <time>2021-02-26T07:43:39.000Z</time>
      </trkpt>
      <trkpt lat="49.36097" lon="1.48038">
        <ele>129.39999389648</ele>
        <time>2021-02-26T07:43:40.000Z</time>
      </trkpt>
      <trkpt lat="49.36101" lon="1.48041">
        <ele>129.39999389648</ele>
        <time>2021-02-26T07:43:41.000Z</time>
      </trkpt>
      <trkpt lat="49.3612" lon="1.48059">
        <ele>129.60000610352</ele>
        <time>2021-02-26T07:43:46.000Z</time>
      </trkpt>
      <trkpt lat="49.36147" lon="1.48084">
        <ele>130.19999694824</ele>
        <time>2021-02-26T07:43:53.000Z</time>
      </trkpt>
      <trkpt lat="49.36155" lon="1.48091">
        <ele>130.39999389648</ele>
        <time>2021-02-26T07:43:55.000Z</time>
      </trkpt>
      <trkpt lat="49.36173" lon="1.48105">
        <ele>131</ele>
        <time>2021-02-26T07:44:00.000Z</time>
      </trkpt>
      <trkpt lat="49.36179" lon="1.48106">
        <ele>131.19999694824</ele>
        <time>2021-02-26T07:44:02.000Z</time>
      </trkpt>
      <trkpt lat="49.36183" lon="1.48103">
        <ele>131.19999694824</ele>
        <time>2021-02-26T07:44:04.000Z</time>
      </trkpt>
      <trkpt lat="49.36189" lon="1.48092">
        <ele>131.39999389648</ele>
        <time>2021-02-26T07:44:07.000Z</time>
      </trkpt>
      <trkpt lat="49.36195" lon="1.48077">
        <ele>131.19999694824</ele>
        <time>2021-02-26T07:44:10.000Z</time>
      </trkpt>
      <trkpt lat="49.362" lon="1.48061">
        <ele>131.19999694824</ele>
        <time>2021-02-26T07:44:13.000Z</time>
      </trkpt>
      <trkpt lat="49.36205" lon="1.48051">
        <ele>131.19999694824</ele>
        <time>2021-02-26T07:44:15.000Z</time>
      </trkpt>
      <trkpt lat="49.36218" lon="1.48027">
        <ele>131</ele>
        <time>2021-02-26T07:44:19.000Z</time>
      </trkpt>
      <trkpt lat="49.36223" lon="1.48021">
        <ele>130.80000305176</ele>
        <time>2021-02-26T07:44:20.000Z</time>
      </trkpt>
      <trkpt lat="49.36236" lon="1.48008">
        <ele>130.19999694824</ele>
        <time>2021-02-26T07:44:23.000Z</time>
      </trkpt>
      <trkpt lat="49.36247" lon="1.48004">
        <ele>129.39999389648</ele>
        <time>2021-02-26T07:44:25.000Z</time>
      </trkpt>
      <trkpt lat="49.36253" lon="1.48002">
        <ele>129</ele>
        <time>2021-02-26T07:44:26.000Z</time>
      </trkpt>
      <trkpt lat="49.3626" lon="1.47999">
        <ele>128.60000610352</ele>
        <time>2021-02-26T07:44:27.000Z</time>
      </trkpt>
      <trkpt lat="49.36279" lon="1.47993">
        <ele>127.59999847412</ele>
        <time>2021-02-26T07:44:30.000Z</time>
      </trkpt>
      <trkpt lat="49.36286" lon="1.47992">
        <ele>127.19999694824</ele>
        <time>2021-02-26T07:44:31.000Z</time>
      </trkpt>
      <trkpt lat="49.36293" lon="1.4799">
        <ele>126.59999847412</ele>
        <time>2021-02-26T07:44:32.000Z</time>
      </trkpt>
      <trkpt lat="49.36307" lon="1.47988">
        <ele>125.59999847412</ele>
        <time>2021-02-26T07:44:34.000Z</time>
      </trkpt>
      <trkpt lat="49.36321" lon="1.47988">
        <ele>124.40000152588</ele>
        <time>2021-02-26T07:44:36.000Z</time>
      </trkpt>
      <trkpt lat="49.36334" lon="1.47989">
        <ele>123</ele>
        <time>2021-02-26T07:44:38.000Z</time>
      </trkpt>
      <trkpt lat="49.36347" lon="1.47991">
        <ele>121.80000305176</ele>
        <time>2021-02-26T07:44:40.000Z</time>
      </trkpt>
      <trkpt lat="49.36352" lon="1.47989">
        <ele>121.19999694824</ele>
        <time>2021-02-26T07:44:41.000Z</time>
      </trkpt>
      <trkpt lat="49.36363" lon="1.47989">
        <ele>120.59999847412</ele>
        <time>2021-02-26T07:44:43.000Z</time>
      </trkpt>
      <trkpt lat="49.36373" lon="1.4799">
        <ele>120.59999847412</ele>
        <time>2021-02-26T07:44:45.000Z</time>
      </trkpt>
      <trkpt lat="49.36389" lon="1.47988">
        <ele>120.59999847412</ele>
        <time>2021-02-26T07:44:49.000Z</time>
      </trkpt>
      <trkpt lat="49.36404" lon="1.47983">
        <ele>120.59999847412</ele>
        <time>2021-02-26T07:44:52.000Z</time>
      </trkpt>
      <trkpt lat="49.36412" lon="1.47981">
        <ele>120.80000305176</ele>
        <time>2021-02-26T07:44:53.000Z</time>
      </trkpt>
      <trkpt lat="49.36418" lon="1.47979">
        <ele>121.19999694824</ele>
        <time>2021-02-26T07:44:54.000Z</time>
      </trkpt>
      <trkpt lat="49.3643" lon="1.47973">
        <ele>121.40000152588</ele>
        <time>2021-02-26T07:44:56.000Z</time>
      </trkpt>
      <trkpt lat="49.36439" lon="1.47966">
        <ele>121.59999847412</ele>
        <time>2021-02-26T07:44:58.000Z</time>
      </trkpt>
      <trkpt lat="49.36457" lon="1.47955">
        <ele>121.80000305176</ele>
        <time>2021-02-26T07:45:02.000Z</time>
      </trkpt>
      <trkpt lat="49.3646" lon="1.47953">
        <ele>121.80000305176</ele>
        <time>2021-02-26T07:45:03.000Z</time>
      </trkpt>
      <trkpt lat="49.36486" lon="1.47939">
        <ele>122</ele>
        <time>2021-02-26T07:45:09.000Z</time>
      </trkpt>
      <trkpt lat="49.36498" lon="1.47945">
        <ele>122.59999847412</ele>
        <time>2021-02-26T07:45:12.000Z</time>
      </trkpt>
      <trkpt lat="49.36504" lon="1.47951">
        <ele>123</ele>
        <time>2021-02-26T07:45:14.000Z</time>
      </trkpt>
      <trkpt lat="49.36518" lon="1.47958">
        <ele>124.19999694824</ele>
        <time>2021-02-26T07:45:18.000Z</time>
      </trkpt>
      <trkpt lat="49.36528" lon="1.47962">
        <ele>125.59999847412</ele>
        <time>2021-02-26T07:45:21.000Z</time>
      </trkpt>
      <trkpt lat="49.36531" lon="1.47963">
        <ele>126.80000305176</ele>
        <time>2021-02-26T07:45:22.000Z</time>
      </trkpt>
      <trkpt lat="49.36539" lon="1.47966">
        <ele>128</ele>
        <time>2021-02-26T07:45:25.000Z</time>
      </trkpt>
      <trkpt lat="49.36548" lon="1.47974">
        <ele>129</ele>
        <time>2021-02-26T07:45:29.000Z</time>
      </trkpt>
      <trkpt lat="49.36551" lon="1.47976">
        <ele>129.19999694824</ele>
        <time>2021-02-26T07:45:30.000Z</time>
      </trkpt>
      <trkpt lat="49.36561" lon="1.47984">
        <ele>130.39999389648</ele>
        <time>2021-02-26T07:45:34.000Z</time>
      </trkpt>
      <trkpt lat="49.36575" lon="1.47998">
        <ele>131.39999389648</ele>
        <time>2021-02-26T07:45:39.000Z</time>
      </trkpt>
      <trkpt lat="49.36578" lon="1.48001">
        <ele>131.60000610352</ele>
        <time>2021-02-26T07:45:40.000Z</time>
      </trkpt>
      <trkpt lat="49.36591" lon="1.48016">
        <ele>132.39999389648</ele>
        <time>2021-02-26T07:45:45.000Z</time>
      </trkpt>
      <trkpt lat="49.36597" lon="1.48023">
        <ele>132.60000610352</ele>
        <time>2021-02-26T07:45:47.000Z</time>
      </trkpt>
      <trkpt lat="49.36611" lon="1.48038">
        <ele>133.39999389648</ele>
        <time>2021-02-26T07:45:52.000Z</time>
      </trkpt>
      <trkpt lat="49.36616" lon="1.48045">
        <ele>133.60000610352</ele>
        <time>2021-02-26T07:45:54.000Z</time>
      </trkpt>
      <trkpt lat="49.36632" lon="1.48074">
        <ele>134.19999694824</ele>
        <time>2021-02-26T07:46:01.000Z</time>
      </trkpt>
      <trkpt lat="49.36637" lon="1.48085">
        <ele>134.60000610352</ele>
        <time>2021-02-26T07:46:04.000Z</time>
      </trkpt>
      <trkpt lat="49.36644" lon="1.48099">
        <ele>135</ele>
        <time>2021-02-26T07:46:08.000Z</time>
      </trkpt>
      <trkpt lat="49.36654" lon="1.48122">
        <ele>135.60000610352</ele>
        <time>2021-02-26T07:46:14.000Z</time>
      </trkpt>
      <trkpt lat="49.36656" lon="1.48126">
        <ele>135.60000610352</ele>
        <time>2021-02-26T07:46:15.000Z</time>
      </trkpt>
      <trkpt lat="49.36666" lon="1.4815">
        <ele>136.60000610352</ele>
        <time>2021-02-26T07:46:21.000Z</time>
      </trkpt>
      <trkpt lat="49.36668" lon="1.48155">
        <ele>136.60000610352</ele>
        <time>2021-02-26T07:46:22.000Z</time>
      </trkpt>
      <trkpt lat="49.36674" lon="1.48172">
        <ele>136.80000305176</ele>
        <time>2021-02-26T07:46:26.000Z</time>
      </trkpt>
      <trkpt lat="49.36684" lon="1.48199">
        <ele>136.80000305176</ele>
        <time>2021-02-26T07:46:32.000Z</time>
      </trkpt>
      <trkpt lat="49.36694" lon="1.48235">
        <ele>136.60000610352</ele>
        <time>2021-02-26T07:46:39.000Z</time>
      </trkpt>
      <trkpt lat="49.36696" lon="1.48256">
        <ele>136.60000610352</ele>
        <time>2021-02-26T07:46:44.000Z</time>
      </trkpt>
      <trkpt lat="49.36697" lon="1.48262">
        <ele>136.60000610352</ele>
        <time>2021-02-26T07:46:46.000Z</time>
      </trkpt>
      <trkpt lat="49.36696" lon="1.48272">
        <ele>137.19999694824</ele>
        <time>2021-02-26T07:46:49.000Z</time>
      </trkpt>
      <trkpt lat="49.36697" lon="1.48278">
        <ele>137.80000305176</ele>
        <time>2021-02-26T07:46:51.000Z</time>
      </trkpt>
      <trkpt lat="49.36697" lon="1.48281">
        <ele>138</ele>
        <time>2021-02-26T07:46:52.000Z</time>
      </trkpt>
      <trkpt lat="49.36698" lon="1.48289">
        <ele>138.39999389648</ele>
        <time>2021-02-26T07:46:54.000Z</time>
      </trkpt>
      <trkpt lat="49.36698" lon="1.48294">
        <ele>139</ele>
        <time>2021-02-26T07:46:56.000Z</time>
      </trkpt>
      <trkpt lat="49.36698" lon="1.48299">
        <ele>139.19999694824</ele>
        <time>2021-02-26T07:46:58.000Z</time>
      </trkpt>
      <trkpt lat="49.36698" lon="1.48301">
        <ele>139.60000610352</ele>
        <time>2021-02-26T07:46:59.000Z</time>
      </trkpt>
      <trkpt lat="49.36698" lon="1.48304">
        <ele>140</ele>
        <time>2021-02-26T07:47:00.000Z</time>
      </trkpt>
      <trkpt lat="49.36697" lon="1.48307">
        <ele>140.19999694824</ele>
        <time>2021-02-26T07:47:01.000Z</time>
      </trkpt>
      <trkpt lat="49.36697" lon="1.48314">
        <ele>140.80000305176</ele>
        <time>2021-02-26T07:47:03.000Z</time>
      </trkpt>
      <trkpt lat="49.36697" lon="1.48321">
        <ele>141.19999694824</ele>
        <time>2021-02-26T07:47:05.000Z</time>
      </trkpt>
      <trkpt lat="49.36697" lon="1.48325">
        <ele>141.39999389648</ele>
        <time>2021-02-26T07:47:06.000Z</time>
      </trkpt>
      <trkpt lat="49.36698" lon="1.48337">
        <ele>142</ele>
        <time>2021-02-26T07:47:09.000Z</time>
      </trkpt>
      <trkpt lat="49.36698" lon="1.48343">
        <ele>142.39999389648</ele>
        <time>2021-02-26T07:47:11.000Z</time>
      </trkpt>
      <trkpt lat="49.36698" lon="1.48357">
        <ele>143.39999389648</ele>
        <time>2021-02-26T07:47:15.000Z</time>
      </trkpt>
      <trkpt lat="49.36698" lon="1.48361">
        <ele>143.60000610352</ele>
        <time>2021-02-26T07:47:16.000Z</time>
      </trkpt>
      <trkpt lat="49.36699" lon="1.48381">
        <ele>144.60000610352</ele>
        <time>2021-02-26T07:47:21.000Z</time>
      </trkpt>
      <trkpt lat="49.36699" lon="1.48385">
        <ele>144.80000305176</ele>
        <time>2021-02-26T07:47:22.000Z</time>
      </trkpt>
      <trkpt lat="49.36701" lon="1.48405">
        <ele>146</ele>
        <time>2021-02-26T07:47:27.000Z</time>
      </trkpt>
      <trkpt lat="49.36703" lon="1.48432">
        <ele>146.60000610352</ele>
        <time>2021-02-26T07:47:33.000Z</time>
      </trkpt>
      <trkpt lat="49.36704" lon="1.48448">
        <ele>147</ele>
        <time>2021-02-26T07:47:37.000Z</time>
      </trkpt>
      <trkpt lat="49.36703" lon="1.48456">
        <ele>147.19999694824</ele>
        <time>2021-02-26T07:47:39.000Z</time>
      </trkpt>
      <trkpt lat="49.36704" lon="1.48479">
        <ele>148.19999694824</ele>
        <time>2021-02-26T07:47:44.000Z</time>
      </trkpt>
      <trkpt lat="49.36704" lon="1.48489">
        <ele>148.39999389648</ele>
        <time>2021-02-26T07:47:46.000Z</time>
      </trkpt>
      <trkpt lat="49.36705" lon="1.48512">
        <ele>149</ele>
        <time>2021-02-26T07:47:51.000Z</time>
      </trkpt>
      <trkpt lat="49.36705" lon="1.4852">
        <ele>149.19999694824</ele>
        <time>2021-02-26T07:47:53.000Z</time>
      </trkpt>
      <trkpt lat="49.36705" lon="1.48534">
        <ele>149.80000305176</ele>
        <time>2021-02-26T07:47:56.000Z</time>
      </trkpt>
      <trkpt lat="49.36706" lon="1.48539">
        <ele>149.80000305176</ele>
        <time>2021-02-26T07:47:57.000Z</time>
      </trkpt>
      <trkpt lat="49.36706" lon="1.48548">
        <ele>150.39999389648</ele>
        <time>2021-02-26T07:47:59.000Z</time>
      </trkpt>
      <trkpt lat="49.36705" lon="1.48566">
        <ele>150.80000305176</ele>
        <time>2021-02-26T07:48:03.000Z</time>
      </trkpt>
      <trkpt lat="49.36704" lon="1.48574">
        <ele>151.19999694824</ele>
        <time>2021-02-26T07:48:05.000Z</time>
      </trkpt>
      <trkpt lat="49.36703" lon="1.48578">
        <ele>151.39999389648</ele>
        <time>2021-02-26T07:48:06.000Z</time>
      </trkpt>
      <trkpt lat="49.36702" lon="1.48586">
        <ele>151.60000610352</ele>
        <time>2021-02-26T07:48:08.000Z</time>
      </trkpt>
      <trkpt lat="49.36703" lon="1.48602">
        <ele>152.60000610352</ele>
        <time>2021-02-26T07:48:12.000Z</time>
      </trkpt>
      <trkpt lat="49.36704" lon="1.48606">
        <ele>152.80000305176</ele>
        <time>2021-02-26T07:48:13.000Z</time>
      </trkpt>
      <trkpt lat="49.36705" lon="1.4861">
        <ele>152.80000305176</ele>
        <time>2021-02-26T07:48:14.000Z</time>
      </trkpt>
      <trkpt lat="49.3671" lon="1.48624">
        <ele>153.39999389648</ele>
        <time>2021-02-26T07:48:17.000Z</time>
      </trkpt>
      <trkpt lat="49.36721" lon="1.48653">
        <ele>153.60000610352</ele>
        <time>2021-02-26T07:48:23.000Z</time>
      </trkpt>
      <trkpt lat="49.3673" lon="1.48677">
        <ele>153.39999389648</ele>
        <time>2021-02-26T07:48:28.000Z</time>
      </trkpt>
      <trkpt lat="49.36744" lon="1.48712">
        <ele>153</ele>
        <time>2021-02-26T07:48:34.000Z</time>
      </trkpt>
      <trkpt lat="49.36754" lon="1.48742">
        <ele>152.60000610352</ele>
        <time>2021-02-26T07:48:39.000Z</time>
      </trkpt>
      <trkpt lat="49.36765" lon="1.48779">
        <ele>151.80000305176</ele>
        <time>2021-02-26T07:48:45.000Z</time>
      </trkpt>
      <trkpt lat="49.36768" lon="1.48785">
        <ele>151.60000610352</ele>
        <time>2021-02-26T07:48:46.000Z</time>
      </trkpt>
      <trkpt lat="49.36774" lon="1.48802">
        <ele>151.39999389648</ele>
        <time>2021-02-26T07:48:49.000Z</time>
      </trkpt>
      <trkpt lat="49.36779" lon="1.48813">
        <ele>150.80000305176</ele>
        <time>2021-02-26T07:48:51.000Z</time>
      </trkpt>
      <trkpt lat="49.36786" lon="1.4883">
        <ele>150.39999389648</ele>
        <time>2021-02-26T07:48:54.000Z</time>
      </trkpt>
      <trkpt lat="49.36792" lon="1.4884">
        <ele>150</ele>
        <time>2021-02-26T07:48:56.000Z</time>
      </trkpt>
      <trkpt lat="49.36797" lon="1.48849">
        <ele>149.60000610352</ele>
        <time>2021-02-26T07:49:00.000Z</time>
      </trkpt>
      <trkpt lat="49.36797" lon="1.48849">
        <ele>149.39999389648</ele>
        <time>2021-02-26T07:49:01.000Z</time>
      </trkpt>
      <trkpt lat="49.368" lon="1.48858">
        <ele>149</ele>
        <time>2021-02-26T07:49:08.000Z</time>
      </trkpt>
      <trkpt lat="49.36802" lon="1.48862">
        <ele>149</ele>
        <time>2021-02-26T07:49:09.000Z</time>
      </trkpt>
      <trkpt lat="49.36816" lon="1.48894">
        <ele>148.80000305176</ele>
        <time>2021-02-26T07:49:14.000Z</time>
      </trkpt>
      <trkpt lat="49.36826" lon="1.48914">
        <ele>147.60000610352</ele>
        <time>2021-02-26T07:49:17.000Z</time>
      </trkpt>
      <trkpt lat="49.36837" lon="1.48935">
        <ele>146.60000610352</ele>
        <time>2021-02-26T07:49:20.000Z</time>
      </trkpt>
      <trkpt lat="49.3684" lon="1.48942">
        <ele>146.19999694824</ele>
        <time>2021-02-26T07:49:21.000Z</time>
      </trkpt>
      <trkpt lat="49.36847" lon="1.48955">
        <ele>145.60000610352</ele>
        <time>2021-02-26T07:49:23.000Z</time>
      </trkpt>
      <trkpt lat="49.36856" lon="1.48973">
        <ele>143.80000305176</ele>
        <time>2021-02-26T07:49:26.000Z</time>
      </trkpt>
      <trkpt lat="49.36864" lon="1.48988">
        <ele>142.19999694824</ele>
        <time>2021-02-26T07:49:28.000Z</time>
      </trkpt>
      <trkpt lat="49.36874" lon="1.4901">
        <ele>140.80000305176</ele>
        <time>2021-02-26T07:49:31.000Z</time>
      </trkpt>
      <trkpt lat="49.36877" lon="1.49015">
        <ele>140.39999389648</ele>
        <time>2021-02-26T07:49:32.000Z</time>
      </trkpt>
      <trkpt lat="49.3688" lon="1.49019">
        <ele>139.80000305176</ele>
        <time>2021-02-26T07:49:33.000Z</time>
      </trkpt>
      <trkpt lat="49.36884" lon="1.49022">
        <ele>139.19999694824</ele>
        <time>2021-02-26T07:49:34.000Z</time>
      </trkpt>
      <trkpt lat="49.36889" lon="1.49024">
        <ele>138.60000610352</ele>
        <time>2021-02-26T07:49:35.000Z</time>
      </trkpt>
      <trkpt lat="49.369" lon="1.49026">
        <ele>137.60000610352</ele>
        <time>2021-02-26T07:49:37.000Z</time>
      </trkpt>
      <trkpt lat="49.36905" lon="1.49026">
        <ele>136.80000305176</ele>
        <time>2021-02-26T07:49:38.000Z</time>
      </trkpt>
      <trkpt lat="49.36911" lon="1.49027">
        <ele>136.39999389648</ele>
        <time>2021-02-26T07:49:39.000Z</time>
      </trkpt>
      <trkpt lat="49.36916" lon="1.49027">
        <ele>136</ele>
        <time>2021-02-26T07:49:40.000Z</time>
      </trkpt>
      <trkpt lat="49.36927" lon="1.49023">
        <ele>134.80000305176</ele>
        <time>2021-02-26T07:49:42.000Z</time>
      </trkpt>
      <trkpt lat="49.36932" lon="1.49019">
        <ele>133.19999694824</ele>
        <time>2021-02-26T07:49:43.000Z</time>
      </trkpt>
      <trkpt lat="49.36937" lon="1.49014">
        <ele>131.80000305176</ele>
        <time>2021-02-26T07:49:44.000Z</time>
      </trkpt>
      <trkpt lat="49.36942" lon="1.49011">
        <ele>130.39999389648</ele>
        <time>2021-02-26T07:49:45.000Z</time>
      </trkpt>
      <trkpt lat="49.36946" lon="1.49009">
        <ele>129</ele>
        <time>2021-02-26T07:49:46.000Z</time>
      </trkpt>
      <trkpt lat="49.36948" lon="1.49006">
        <ele>127.59999847412</ele>
        <time>2021-02-26T07:49:47.000Z</time>
      </trkpt>
      <trkpt lat="49.36951" lon="1.49003">
        <ele>126.59999847412</ele>
        <time>2021-02-26T07:49:48.000Z</time>
      </trkpt>
      <trkpt lat="49.36953" lon="1.49001">
        <ele>125.40000152588</ele>
        <time>2021-02-26T07:49:49.000Z</time>
      </trkpt>
      <trkpt lat="49.36954" lon="1.49">
        <ele>124</ele>
        <time>2021-02-26T07:49:50.000Z</time>
      </trkpt>
      <trkpt lat="49.36956" lon="1.48998">
        <ele>122.80000305176</ele>
        <time>2021-02-26T07:49:51.000Z</time>
      </trkpt>
      <trkpt lat="49.36957" lon="1.48996">
        <ele>121.80000305176</ele>
        <time>2021-02-26T07:49:52.000Z</time>
      </trkpt>
      <trkpt lat="49.36959" lon="1.4899">
        <ele>120.19999694824</ele>
        <time>2021-02-26T07:49:54.000Z</time>
      </trkpt>
      <trkpt lat="49.3696" lon="1.48982">
        <ele>119</ele>
        <time>2021-02-26T07:49:56.000Z</time>
      </trkpt>
      <trkpt lat="49.36961" lon="1.48979">
        <ele>118.40000152588</ele>
        <time>2021-02-26T07:49:57.000Z</time>
      </trkpt>
      <trkpt lat="49.36962" lon="1.48975">
        <ele>117.59999847412</ele>
        <time>2021-02-26T07:49:59.000Z</time>
      </trkpt>
      <trkpt lat="49.36962" lon="1.4897">
        <ele>116.40000152588</ele>
        <time>2021-02-26T07:50:02.000Z</time>
      </trkpt>
      <trkpt lat="49.36963" lon="1.48968">
        <ele>116.19999694824</ele>
        <time>2021-02-26T07:50:03.000Z</time>
      </trkpt>
      <trkpt lat="49.36967" lon="1.48951">
        <ele>115.19999694824</ele>
        <time>2021-02-26T07:50:08.000Z</time>
      </trkpt>
      <trkpt lat="49.36968" lon="1.48946">
        <ele>115</ele>
        <time>2021-02-26T07:50:09.000Z</time>
      </trkpt>
      <trkpt lat="49.36969" lon="1.48935">
        <ele>114.40000152588</ele>
        <time>2021-02-26T07:50:13.000Z</time>
      </trkpt>
      <trkpt lat="49.36969" lon="1.48925">
        <ele>114</ele>
        <time>2021-02-26T07:50:15.000Z</time>
      </trkpt>
      <trkpt lat="49.36969" lon="1.48917">
        <ele>113.40000152588</ele>
        <time>2021-02-26T07:50:17.000Z</time>
      </trkpt>
      <trkpt lat="49.36969" lon="1.48908">
        <ele>112.80000305176</ele>
        <time>2021-02-26T07:50:19.000Z</time>
      </trkpt>
      <trkpt lat="49.36968" lon="1.48892">
        <ele>111.80000305176</ele>
        <time>2021-02-26T07:50:22.000Z</time>
      </trkpt>
      <trkpt lat="49.36967" lon="1.48886">
        <ele>111.40000152588</ele>
        <time>2021-02-26T07:50:23.000Z</time>
      </trkpt>
      <trkpt lat="49.36962" lon="1.48872">
        <ele>110.59999847412</ele>
        <time>2021-02-26T07:50:27.000Z</time>
      </trkpt>
      <trkpt lat="49.36962" lon="1.48869">
        <ele>110.40000152588</ele>
        <time>2021-02-26T07:50:28.000Z</time>
      </trkpt>
      <trkpt lat="49.36961" lon="1.48855">
        <ele>109.59999847412</ele>
        <time>2021-02-26T07:50:33.000Z</time>
      </trkpt>
      <trkpt lat="49.36959" lon="1.48853">
        <ele>109.40000152588</ele>
        <time>2021-02-26T07:50:36.000Z</time>
      </trkpt>
      <trkpt lat="49.36959" lon="1.48854">
        <ele>109</ele>
        <time>2021-02-26T07:50:37.000Z</time>
      </trkpt>
      <trkpt lat="49.3696" lon="1.48856">
        <ele>109</ele>
        <time>2021-02-26T07:50:39.000Z</time>
      </trkpt>
      <trkpt lat="49.36963" lon="1.48866">
        <ele>109</ele>
        <time>2021-02-26T07:50:43.000Z</time>
      </trkpt>
      <trkpt lat="49.36968" lon="1.48888">
        <ele>109</ele>
        <time>2021-02-26T07:50:49.000Z</time>
      </trkpt>
      <trkpt lat="49.36968" lon="1.48891">
        <ele>109</ele>
        <time>2021-02-26T07:50:50.000Z</time>
      </trkpt>
      <trkpt lat="49.36967" lon="1.48901">
        <ele>109</ele>
        <time>2021-02-26T07:50:53.000Z</time>
      </trkpt>
      <trkpt lat="49.36966" lon="1.48905">
        <ele>109.19999694824</ele>
        <time>2021-02-26T07:50:55.000Z</time>
      </trkpt>
      <trkpt lat="49.36965" lon="1.48908">
        <ele>109.40000152588</ele>
        <time>2021-02-26T07:50:57.000Z</time>
      </trkpt>
      <trkpt lat="49.36965" lon="1.4891">
        <ele>109.40000152588</ele>
        <time>2021-02-26T07:50:58.000Z</time>
      </trkpt>
      <trkpt lat="49.36966" lon="1.48921">
        <ele>110.40000152588</ele>
        <time>2021-02-26T07:51:02.000Z</time>
      </trkpt>
      <trkpt lat="49.36965" lon="1.48927">
        <ele>110.80000305176</ele>
        <time>2021-02-26T07:51:04.000Z</time>
      </trkpt>
      <trkpt lat="49.36964" lon="1.48944">
        <ele>111.19999694824</ele>
        <time>2021-02-26T07:51:09.000Z</time>
      </trkpt>
      <trkpt lat="49.36964" lon="1.48946">
        <ele>111.40000152588</ele>
        <time>2021-02-26T07:51:10.000Z</time>
      </trkpt>
      <trkpt lat="49.36963" lon="1.48957">
        <ele>112.19999694824</ele>
        <time>2021-02-26T07:51:14.000Z</time>
      </trkpt>
      <trkpt lat="49.36962" lon="1.48959">
        <ele>112.40000152588</ele>
        <time>2021-02-26T07:51:15.000Z</time>
      </trkpt>
      <trkpt lat="49.36962" lon="1.48967">
        <ele>113.40000152588</ele>
        <time>2021-02-26T07:51:18.000Z</time>
      </trkpt>
      <trkpt lat="49.3696" lon="1.48982">
        <ele>114.59999847412</ele>
        <time>2021-02-26T07:51:24.000Z</time>
      </trkpt>
      <trkpt lat="49.3696" lon="1.48994">
        <ele>115.40000152588</ele>
        <time>2021-02-26T07:51:29.000Z</time>
      </trkpt>
      <trkpt lat="49.36961" lon="1.48997">
        <ele>115.59999847412</ele>
        <time>2021-02-26T07:51:30.000Z</time>
      </trkpt>
      <trkpt lat="49.36961" lon="1.49">
        <ele>115.80000305176</ele>
        <time>2021-02-26T07:51:31.000Z</time>
      </trkpt>
      <trkpt lat="49.36962" lon="1.49006">
        <ele>116</ele>
        <time>2021-02-26T07:51:33.000Z</time>
      </trkpt>
      <trkpt lat="49.36964" lon="1.49014">
        <ele>116.59999847412</ele>
        <time>2021-02-26T07:51:36.000Z</time>
      </trkpt>
      <trkpt lat="49.36965" lon="1.49023">
        <ele>116.80000305176</ele>
        <time>2021-02-26T07:51:39.000Z</time>
      </trkpt>
      <trkpt lat="49.36965" lon="1.49027">
        <ele>117</ele>
        <time>2021-02-26T07:51:40.000Z</time>
      </trkpt>
      <trkpt lat="49.36966" lon="1.49031">
        <ele>117.19999694824</ele>
        <time>2021-02-26T07:51:41.000Z</time>
      </trkpt>
      <trkpt lat="49.36967" lon="1.49037">
        <ele>117.40000152588</ele>
        <time>2021-02-26T07:51:43.000Z</time>
      </trkpt>
      <trkpt lat="49.36966" lon="1.49046">
        <ele>117.80000305176</ele>
        <time>2021-02-26T07:51:46.000Z</time>
      </trkpt>
      <trkpt lat="49.36967" lon="1.49053">
        <ele>118</ele>
        <time>2021-02-26T07:51:48.000Z</time>
      </trkpt>
      <trkpt lat="49.36967" lon="1.49057">
        <ele>118</ele>
        <time>2021-02-26T07:51:49.000Z</time>
      </trkpt>
      <trkpt lat="49.36967" lon="1.49063">
        <ele>118.19999694824</ele>
        <time>2021-02-26T07:51:51.000Z</time>
      </trkpt>
      <trkpt lat="49.36966" lon="1.49068">
        <ele>118.40000152588</ele>
        <time>2021-02-26T07:51:53.000Z</time>
      </trkpt>
      <trkpt lat="49.36967" lon="1.49077">
        <ele>118.80000305176</ele>
        <time>2021-02-26T07:51:56.000Z</time>
      </trkpt>
      <trkpt lat="49.36968" lon="1.49097">
        <ele>120</ele>
        <time>2021-02-26T07:52:02.000Z</time>
      </trkpt>
      <trkpt lat="49.36968" lon="1.49101">
        <ele>120</ele>
        <time>2021-02-26T07:52:03.000Z</time>
      </trkpt>
      <trkpt lat="49.3697" lon="1.49123">
        <ele>121</ele>
        <time>2021-02-26T07:52:10.000Z</time>
      </trkpt>
      <trkpt lat="49.3697" lon="1.49126">
        <ele>121.19999694824</ele>
        <time>2021-02-26T07:52:11.000Z</time>
      </trkpt>
      <trkpt lat="49.36972" lon="1.49147">
        <ele>122</ele>
        <time>2021-02-26T07:52:17.000Z</time>
      </trkpt>
      <trkpt lat="49.36972" lon="1.49159">
        <ele>122.80000305176</ele>
        <time>2021-02-26T07:52:22.000Z</time>
      </trkpt>
      <trkpt lat="49.36973" lon="1.49161">
        <ele>123.19999694824</ele>
        <time>2021-02-26T07:52:24.000Z</time>
      </trkpt>
      <trkpt lat="49.36973" lon="1.49161">
        <ele>123.40000152588</ele>
        <time>2021-02-26T07:52:25.000Z</time>
      </trkpt>
      <trkpt lat="49.36973" lon="1.49171">
        <ele>124.40000152588</ele>
        <time>2021-02-26T07:52:36.000Z</time>
      </trkpt>
      <trkpt lat="49.36973" lon="1.49174">
        <ele>124.40000152588</ele>
        <time>2021-02-26T07:52:37.000Z</time>
      </trkpt>
      <trkpt lat="49.36973" lon="1.49192">
        <ele>124.40000152588</ele>
        <time>2021-02-26T07:52:42.000Z</time>
      </trkpt>
      <trkpt lat="49.36979" lon="1.49218">
        <ele>125</ele>
        <time>2021-02-26T07:52:49.000Z</time>
      </trkpt>
      <trkpt lat="49.36981" lon="1.49221">
        <ele>125.19999694824</ele>
        <time>2021-02-26T07:52:50.000Z</time>
      </trkpt>
      <trkpt lat="49.36989" lon="1.49242">
        <ele>126</ele>
        <time>2021-02-26T07:52:55.000Z</time>
      </trkpt>
      <trkpt lat="49.37002" lon="1.49272">
        <ele>126</ele>
        <time>2021-02-26T07:53:01.000Z</time>
      </trkpt>
      <trkpt lat="49.37007" lon="1.49284">
        <ele>126</ele>
        <time>2021-02-26T07:53:03.000Z</time>
      </trkpt>
      <trkpt lat="49.37016" lon="1.49303">
        <ele>125.59999847412</ele>
        <time>2021-02-26T07:53:06.000Z</time>
      </trkpt>
      <trkpt lat="49.3703" lon="1.49331">
        <ele>123.80000305176</ele>
        <time>2021-02-26T07:53:11.000Z</time>
      </trkpt>
      <trkpt lat="49.37032" lon="1.49332">
        <ele>123.40000152588</ele>
        <time>2021-02-26T07:53:12.000Z</time>
      </trkpt>
      <trkpt lat="49.37037" lon="1.4933">
        <ele>122.59999847412</ele>
        <time>2021-02-26T07:53:14.000Z</time>
      </trkpt>
      <trkpt lat="49.37051" lon="1.49319">
        <ele>121.40000152588</ele>
        <time>2021-02-26T07:53:18.000Z</time>
      </trkpt>
      <trkpt lat="49.37062" lon="1.49309">
        <ele>120</ele>
        <time>2021-02-26T07:53:22.000Z</time>
      </trkpt>
      <trkpt lat="49.37064" lon="1.49308">
        <ele>119</ele>
        <time>2021-02-26T07:53:23.000Z</time>
      </trkpt>
      <trkpt lat="49.37067" lon="1.49306">
        <ele>118</ele>
        <time>2021-02-26T07:53:24.000Z</time>
      </trkpt>
      <trkpt lat="49.3707" lon="1.49303">
        <ele>115</ele>
        <time>2021-02-26T07:53:26.000Z</time>
      </trkpt>
      <trkpt lat="49.37071" lon="1.49301">
        <ele>114.19999694824</ele>
        <time>2021-02-26T07:53:27.000Z</time>
      </trkpt>
      <trkpt lat="49.37072" lon="1.49299">
        <ele>113</ele>
        <time>2021-02-26T07:53:28.000Z</time>
      </trkpt>
      <trkpt lat="49.37072" lon="1.49298">
        <ele>111.40000152588</ele>
        <time>2021-02-26T07:53:30.000Z</time>
      </trkpt>
      <trkpt lat="49.37082" lon="1.49295">
        <ele>108</ele>
        <time>2021-02-26T07:53:37.000Z</time>
      </trkpt>
      <trkpt lat="49.37084" lon="1.49293">
        <ele>107.80000305176</ele>
        <time>2021-02-26T07:53:38.000Z</time>
      </trkpt>
      <trkpt lat="49.37096" lon="1.49285">
        <ele>107.59999847412</ele>
        <time>2021-02-26T07:53:41.000Z</time>
      </trkpt>
      <trkpt lat="49.37101" lon="1.49282">
        <ele>107.40000152588</ele>
        <time>2021-02-26T07:53:42.000Z</time>
      </trkpt>
      <trkpt lat="49.37111" lon="1.49273">
        <ele>107</ele>
        <time>2021-02-26T07:53:44.000Z</time>
      </trkpt>
      <trkpt lat="49.37122" lon="1.49263">
        <ele>105.80000305176</ele>
        <time>2021-02-26T07:53:46.000Z</time>
      </trkpt>
      <trkpt lat="49.37128" lon="1.49258">
        <ele>105.19999694824</ele>
        <time>2021-02-26T07:53:47.000Z</time>
      </trkpt>
      <trkpt lat="49.37135" lon="1.49254">
        <ele>104.19999694824</ele>
        <time>2021-02-26T07:53:48.000Z</time>
      </trkpt>
      <trkpt lat="49.37141" lon="1.49249">
        <ele>103.19999694824</ele>
        <time>2021-02-26T07:53:49.000Z</time>
      </trkpt>
      <trkpt lat="49.37147" lon="1.49244">
        <ele>102</ele>
        <time>2021-02-26T07:53:50.000Z</time>
      </trkpt>
      <trkpt lat="49.37151" lon="1.49239">
        <ele>100.80000305176</ele>
        <time>2021-02-26T07:53:51.000Z</time>
      </trkpt>
      <trkpt lat="49.37155" lon="1.49235">
        <ele>99.599998474121</ele>
        <time>2021-02-26T07:53:52.000Z</time>
      </trkpt>
      <trkpt lat="49.37165" lon="1.49226">
        <ele>97.800003051758</ele>
        <time>2021-02-26T07:53:54.000Z</time>
      </trkpt>
      <trkpt lat="49.37171" lon="1.49222">
        <ele>95.800003051758</ele>
        <time>2021-02-26T07:53:55.000Z</time>
      </trkpt>
      <trkpt lat="49.37175" lon="1.49219">
        <ele>94.400001525879</ele>
        <time>2021-02-26T07:53:56.000Z</time>
      </trkpt>
      <trkpt lat="49.37181" lon="1.49213">
        <ele>92.599998474121</ele>
        <time>2021-02-26T07:53:58.000Z</time>
      </trkpt>
      <trkpt lat="49.37183" lon="1.49212">
        <ele>92</ele>
        <time>2021-02-26T07:53:59.000Z</time>
      </trkpt>
      <trkpt lat="49.37184" lon="1.4921">
        <ele>91.400001525879</ele>
        <time>2021-02-26T07:54:00.000Z</time>
      </trkpt>
      <trkpt lat="49.37185" lon="1.49206">
        <ele>90</ele>
        <time>2021-02-26T07:54:02.000Z</time>
      </trkpt>
      <trkpt lat="49.37185" lon="1.49202">
        <ele>89.199996948242</ele>
        <time>2021-02-26T07:54:03.000Z</time>
      </trkpt>
      <trkpt lat="49.37184" lon="1.492">
        <ele>88.199996948242</ele>
        <time>2021-02-26T07:54:04.000Z</time>
      </trkpt>
      <trkpt lat="49.37179" lon="1.49195">
        <ele>87</ele>
        <time>2021-02-26T07:54:06.000Z</time>
      </trkpt>
      <trkpt lat="49.37177" lon="1.49192">
        <ele>86.400001525879</ele>
        <time>2021-02-26T07:54:07.000Z</time>
      </trkpt>
      <trkpt lat="49.37167" lon="1.49169">
        <ele>86.199996948242</ele>
        <time>2021-02-26T07:54:12.000Z</time>
      </trkpt>
      <trkpt lat="49.37151" lon="1.49125">
        <ele>85.800003051758</ele>
        <time>2021-02-26T07:54:19.000Z</time>
      </trkpt>
      <trkpt lat="49.37144" lon="1.49106">
        <ele>85.800003051758</ele>
        <time>2021-02-26T07:54:22.000Z</time>
      </trkpt>
      <trkpt lat="49.37139" lon="1.49093">
        <ele>85.800003051758</ele>
        <time>2021-02-26T07:54:24.000Z</time>
      </trkpt>
      <trkpt lat="49.37137" lon="1.49087">
        <ele>85.599998474121</ele>
        <time>2021-02-26T07:54:25.000Z</time>
      </trkpt>
      <trkpt lat="49.37123" lon="1.49051">
        <ele>85.400001525879</ele>
        <time>2021-02-26T07:54:31.000Z</time>
      </trkpt>
      <trkpt lat="49.37116" lon="1.49025">
        <ele>85</ele>
        <time>2021-02-26T07:54:35.000Z</time>
      </trkpt>
      <trkpt lat="49.37114" lon="1.49004">
        <ele>85</ele>
        <time>2021-02-26T07:54:38.000Z</time>
      </trkpt>
      <trkpt lat="49.37114" lon="1.48998">
        <ele>85</ele>
        <time>2021-02-26T07:54:39.000Z</time>
      </trkpt>
      <trkpt lat="49.37113" lon="1.48968">
        <ele>85.199996948242</ele>
        <time>2021-02-26T07:54:44.000Z</time>
      </trkpt>
      <trkpt lat="49.37112" lon="1.48943">
        <ele>85.199996948242</ele>
        <time>2021-02-26T07:54:49.000Z</time>
      </trkpt>
      <trkpt lat="49.3711" lon="1.48919">
        <ele>86</ele>
        <time>2021-02-26T07:54:54.000Z</time>
      </trkpt>
      <trkpt lat="49.37103" lon="1.48899">
        <ele>86.599998474121</ele>
        <time>2021-02-26T07:54:58.000Z</time>
      </trkpt>
      <trkpt lat="49.37101" lon="1.48895">
        <ele>86.800003051758</ele>
        <time>2021-02-26T07:54:59.000Z</time>
      </trkpt>
      <trkpt lat="49.37092" lon="1.48879">
        <ele>87.599998474121</ele>
        <time>2021-02-26T07:55:03.000Z</time>
      </trkpt>
      <trkpt lat="49.37088" lon="1.48872">
        <ele>88</ele>
        <time>2021-02-26T07:55:05.000Z</time>
      </trkpt>
      <trkpt lat="49.37081" lon="1.4886">
        <ele>88.400001525879</ele>
        <time>2021-02-26T07:55:08.000Z</time>
      </trkpt>
      <trkpt lat="49.37073" lon="1.48844">
        <ele>89.199996948242</ele>
        <time>2021-02-26T07:55:12.000Z</time>
      </trkpt>
      <trkpt lat="49.37069" lon="1.48837">
        <ele>89.599998474121</ele>
        <time>2021-02-26T07:55:14.000Z</time>
      </trkpt>
      <trkpt lat="49.37058" lon="1.48823">
        <ele>90.400001525879</ele>
        <time>2021-02-26T07:55:18.000Z</time>
      </trkpt>
      <trkpt lat="49.3705" lon="1.48813">
        <ele>90.800003051758</ele>
        <time>2021-02-26T07:55:21.000Z</time>
      </trkpt>
      <trkpt lat="49.37039" lon="1.48802">
        <ele>91</ele>
        <time>2021-02-26T07:55:25.000Z</time>
      </trkpt>
      <trkpt lat="49.37027" lon="1.48785">
        <ele>91.599998474121</ele>
        <time>2021-02-26T07:55:30.000Z</time>
      </trkpt>
      <trkpt lat="49.37025" lon="1.48782">
        <ele>91.800003051758</ele>
        <time>2021-02-26T07:55:31.000Z</time>
      </trkpt>
      <trkpt lat="49.37009" lon="1.48764">
        <ele>92.800003051758</ele>
        <time>2021-02-26T07:55:37.000Z</time>
      </trkpt>
      <trkpt lat="49.37004" lon="1.48758">
        <ele>93</ele>
        <time>2021-02-26T07:55:39.000Z</time>
      </trkpt>
      <trkpt lat="49.36995" lon="1.48745">
        <ele>93.800003051758</ele>
        <time>2021-02-26T07:55:43.000Z</time>
      </trkpt>
      <trkpt lat="49.36988" lon="1.48733">
        <ele>94.400001525879</ele>
        <time>2021-02-26T07:55:47.000Z</time>
      </trkpt>
      <trkpt lat="49.36984" lon="1.48727">
        <ele>95</ele>
        <time>2021-02-26T07:55:49.000Z</time>
      </trkpt>
      <trkpt lat="49.36976" lon="1.48712">
        <ele>96.199996948242</ele>
        <time>2021-02-26T07:55:53.000Z</time>
      </trkpt>
      <trkpt lat="49.36968" lon="1.48696">
        <ele>97.199996948242</ele>
        <time>2021-02-26T07:55:58.000Z</time>
      </trkpt>
      <trkpt lat="49.36967" lon="1.48693">
        <ele>97.599998474121</ele>
        <time>2021-02-26T07:55:59.000Z</time>
      </trkpt>
      <trkpt lat="49.36961" lon="1.48678">
        <ele>98.199996948242</ele>
        <time>2021-02-26T07:56:03.000Z</time>
      </trkpt>
      <trkpt lat="49.36958" lon="1.48671">
        <ele>98.400001525879</ele>
        <time>2021-02-26T07:56:05.000Z</time>
      </trkpt>
      <trkpt lat="49.36949" lon="1.48651">
        <ele>99.199996948242</ele>
        <time>2021-02-26T07:56:10.000Z</time>
      </trkpt>
      <trkpt lat="49.36946" lon="1.48641">
        <ele>99.599998474121</ele>
        <time>2021-02-26T07:56:12.000Z</time>
      </trkpt>
      <trkpt lat="49.36942" lon="1.48624">
        <ele>100.19999694824</ele>
        <time>2021-02-26T07:56:15.000Z</time>
      </trkpt>
      <trkpt lat="49.36936" lon="1.48605">
        <ele>100.59999847412</ele>
        <time>2021-02-26T07:56:18.000Z</time>
      </trkpt>
      <trkpt lat="49.36926" lon="1.48569">
        <ele>100.59999847412</ele>
        <time>2021-02-26T07:56:24.000Z</time>
      </trkpt>
      <trkpt lat="49.36914" lon="1.48522">
        <ele>100.40000152588</ele>
        <time>2021-02-26T07:56:31.000Z</time>
      </trkpt>
      <trkpt lat="49.36911" lon="1.48515">
        <ele>100.40000152588</ele>
        <time>2021-02-26T07:56:32.000Z</time>
      </trkpt>
      <trkpt lat="49.36905" lon="1.48495">
        <ele>99.800003051758</ele>
        <time>2021-02-26T07:56:35.000Z</time>
      </trkpt>
      <trkpt lat="49.36903" lon="1.48489">
        <ele>99.599998474121</ele>
        <time>2021-02-26T07:56:36.000Z</time>
      </trkpt>
      <trkpt lat="49.369" lon="1.48483">
        <ele>99.199996948242</ele>
        <time>2021-02-26T07:56:37.000Z</time>
      </trkpt>
      <trkpt lat="49.36897" lon="1.48476">
        <ele>99</ele>
        <time>2021-02-26T07:56:38.000Z</time>
      </trkpt>
      <trkpt lat="49.36889" lon="1.48457">
        <ele>98.199996948242</ele>
        <time>2021-02-26T07:56:41.000Z</time>
      </trkpt>
      <trkpt lat="49.36886" lon="1.4845">
        <ele>98</ele>
        <time>2021-02-26T07:56:42.000Z</time>
      </trkpt>
      <trkpt lat="49.36876" lon="1.48417">
        <ele>97.199996948242</ele>
        <time>2021-02-26T07:56:46.000Z</time>
      </trkpt>
      <trkpt lat="49.36871" lon="1.48399">
        <ele>97</ele>
        <time>2021-02-26T07:56:48.000Z</time>
      </trkpt>
      <trkpt lat="49.36864" lon="1.48373">
        <ele>96.199996948242</ele>
        <time>2021-02-26T07:56:51.000Z</time>
      </trkpt>
      <trkpt lat="49.36862" lon="1.48365">
        <ele>95.800003051758</ele>
        <time>2021-02-26T07:56:52.000Z</time>
      </trkpt>
      <trkpt lat="49.36856" lon="1.48339">
        <ele>94.599998474121</ele>
        <time>2021-02-26T07:56:55.000Z</time>
      </trkpt>
      <trkpt lat="49.36853" lon="1.48327">
        <ele>93.599998474121</ele>
        <time>2021-02-26T07:56:57.000Z</time>
      </trkpt>
      <trkpt lat="49.36852" lon="1.48323">
        <ele>93.400001525879</ele>
        <time>2021-02-26T07:56:58.000Z</time>
      </trkpt>
      <trkpt lat="49.36848" lon="1.48304">
        <ele>92.199996948242</ele>
        <time>2021-02-26T07:57:02.000Z</time>
      </trkpt>
      <trkpt lat="49.36847" lon="1.48299">
        <ele>92</ele>
        <time>2021-02-26T07:57:03.000Z</time>
      </trkpt>
      <trkpt lat="49.3684" lon="1.48276">
        <ele>91.599998474121</ele>
        <time>2021-02-26T07:57:08.000Z</time>
      </trkpt>
      <trkpt lat="49.36838" lon="1.4827">
        <ele>91.400001525879</ele>
        <time>2021-02-26T07:57:12.000Z</time>
      </trkpt>
      <trkpt lat="49.36833" lon="1.48249">
        <ele>91.599998474121</ele>
        <time>2021-02-26T07:58:11.000Z</time>
      </trkpt>
      <trkpt lat="49.36831" lon="1.48244">
        <ele>91.599998474121</ele>
        <time>2021-02-26T07:58:13.000Z</time>
      </trkpt>
      <trkpt lat="49.36825" lon="1.48223">
        <ele>91.599998474121</ele>
        <time>2021-02-26T07:58:19.000Z</time>
      </trkpt>
      <trkpt lat="49.36817" lon="1.48198">
        <ele>91.400001525879</ele>
        <time>2021-02-26T07:58:26.000Z</time>
      </trkpt>
      <trkpt lat="49.36814" lon="1.48189">
        <ele>91.400001525879</ele>
        <time>2021-02-26T07:58:29.000Z</time>
      </trkpt>
      <trkpt lat="49.36812" lon="1.48182">
        <ele>91.400001525879</ele>
        <time>2021-02-26T07:58:31.000Z</time>
      </trkpt>
      <trkpt lat="49.36804" lon="1.48163">
        <ele>92.199996948242</ele>
        <time>2021-02-26T07:58:37.000Z</time>
      </trkpt>
      <trkpt lat="49.36802" lon="1.48159">
        <ele>92.400001525879</ele>
        <time>2021-02-26T07:58:38.000Z</time>
      </trkpt>
      <trkpt lat="49.36797" lon="1.48149">
        <ele>93.599998474121</ele>
        <time>2021-02-26T07:58:41.000Z</time>
      </trkpt>
      <trkpt lat="49.36795" lon="1.48142">
        <ele>94</ele>
        <time>2021-02-26T07:58:43.000Z</time>
      </trkpt>
      <trkpt lat="49.36792" lon="1.48137">
        <ele>94.599998474121</ele>
        <time>2021-02-26T07:58:45.000Z</time>
      </trkpt>
      <trkpt lat="49.36788" lon="1.48127">
        <ele>95.599998474121</ele>
        <time>2021-02-26T07:58:48.000Z</time>
      </trkpt>
      <trkpt lat="49.36781" lon="1.48114">
        <ele>96.599998474121</ele>
        <time>2021-02-26T07:58:52.000Z</time>
      </trkpt>
      <trkpt lat="49.36777" lon="1.48106">
        <ele>97</ele>
        <time>2021-02-26T07:58:54.000Z</time>
      </trkpt>
      <trkpt lat="49.36771" lon="1.48093">
        <ele>97.599998474121</ele>
        <time>2021-02-26T07:58:57.000Z</time>
      </trkpt>
      <trkpt lat="49.3677" lon="1.48088">
        <ele>97.800003051758</ele>
        <time>2021-02-26T07:58:58.000Z</time>
      </trkpt>
      <trkpt lat="49.36767" lon="1.48079">
        <ele>98.199996948242</ele>
        <time>2021-02-26T07:59:00.000Z</time>
      </trkpt>
      <trkpt lat="49.36758" lon="1.48053">
        <ele>98.800003051758</ele>
        <time>2021-02-26T07:59:06.000Z</time>
      </trkpt>
      <trkpt lat="49.36756" lon="1.4805">
        <ele>98.800003051758</ele>
        <time>2021-02-26T07:59:07.000Z</time>
      </trkpt>
      <trkpt lat="49.3675" lon="1.48033">
        <ele>99.800003051758</ele>
        <time>2021-02-26T07:59:12.000Z</time>
      </trkpt>
      <trkpt lat="49.36748" lon="1.48029">
        <ele>100</ele>
        <time>2021-02-26T07:59:13.000Z</time>
      </trkpt>
      <trkpt lat="49.36741" lon="1.48012">
        <ele>100.80000305176</ele>
        <time>2021-02-26T07:59:18.000Z</time>
      </trkpt>
      <trkpt lat="49.36738" lon="1.48005">
        <ele>101.19999694824</ele>
        <time>2021-02-26T07:59:20.000Z</time>
      </trkpt>
      <trkpt lat="49.36733" lon="1.47996">
        <ele>102</ele>
        <time>2021-02-26T07:59:23.000Z</time>
      </trkpt>
      <trkpt lat="49.3673" lon="1.4799">
        <ele>102.19999694824</ele>
        <time>2021-02-26T07:59:25.000Z</time>
      </trkpt>
      <trkpt lat="49.36726" lon="1.4798">
        <ele>102.59999847412</ele>
        <time>2021-02-26T07:59:28.000Z</time>
      </trkpt>
      <trkpt lat="49.36712" lon="1.47957">
        <ele>103.40000152588</ele>
        <time>2021-02-26T07:59:35.000Z</time>
      </trkpt>
      <trkpt lat="49.36699" lon="1.47944">
        <ele>104.19999694824</ele>
        <time>2021-02-26T07:59:41.000Z</time>
      </trkpt>
      <trkpt lat="49.36696" lon="1.47942">
        <ele>104.40000152588</ele>
        <time>2021-02-26T07:59:42.000Z</time>
      </trkpt>
      <trkpt lat="49.36687" lon="1.47932">
        <ele>105.59999847412</ele>
        <time>2021-02-26T07:59:47.000Z</time>
      </trkpt>
      <trkpt lat="49.36679" lon="1.47925">
        <ele>106.59999847412</ele>
        <time>2021-02-26T07:59:51.000Z</time>
      </trkpt>
      <trkpt lat="49.36673" lon="1.47919">
        <ele>107.19999694824</ele>
        <time>2021-02-26T07:59:54.000Z</time>
      </trkpt>
      <trkpt lat="49.36666" lon="1.47913">
        <ele>107.80000305176</ele>
        <time>2021-02-26T07:59:57.000Z</time>
      </trkpt>
      <trkpt lat="49.36657" lon="1.47907">
        <ele>108.59999847412</ele>
        <time>2021-02-26T08:00:01.000Z</time>
      </trkpt>
      <trkpt lat="49.36656" lon="1.47906">
        <ele>108.80000305176</ele>
        <time>2021-02-26T08:00:02.000Z</time>
      </trkpt>
      <trkpt lat="49.36656" lon="1.47904">
        <ele>109</ele>
        <time>2021-02-26T08:00:03.000Z</time>
      </trkpt>
      <trkpt lat="49.36657" lon="1.47901">
        <ele>109.19999694824</ele>
        <time>2021-02-26T08:00:05.000Z</time>
      </trkpt>
      <trkpt lat="49.36666" lon="1.47903">
        <ele>109.19999694824</ele>
        <time>2021-02-26T08:00:09.000Z</time>
      </trkpt>
      <trkpt lat="49.36675" lon="1.47906">
        <ele>109.19999694824</ele>
        <time>2021-02-26T08:00:12.000Z</time>
      </trkpt>
      <trkpt lat="49.36684" lon="1.47911">
        <ele>108.80000305176</ele>
        <time>2021-02-26T08:00:14.000Z</time>
      </trkpt>
      <trkpt lat="49.36699" lon="1.47919">
        <ele>107.59999847412</ele>
        <time>2021-02-26T08:00:17.000Z</time>
      </trkpt>
      <trkpt lat="49.36709" lon="1.47927">
        <ele>106.40000152588</ele>
        <time>2021-02-26T08:00:19.000Z</time>
      </trkpt>
      <trkpt lat="49.36715" lon="1.47931">
        <ele>105.59999847412</ele>
        <time>2021-02-26T08:00:20.000Z</time>
      </trkpt>
      <trkpt lat="49.36721" lon="1.47936">
        <ele>105</ele>
        <time>2021-02-26T08:00:21.000Z</time>
      </trkpt>
      <trkpt lat="49.36732" lon="1.47946">
        <ele>103.40000152588</ele>
        <time>2021-02-26T08:00:23.000Z</time>
      </trkpt>
      <trkpt lat="49.36743" lon="1.47956">
        <ele>101.80000305176</ele>
        <time>2021-02-26T08:00:25.000Z</time>
      </trkpt>
      <trkpt lat="49.36753" lon="1.47964">
        <ele>100</ele>
        <time>2021-02-26T08:00:27.000Z</time>
      </trkpt>
      <trkpt lat="49.36758" lon="1.47968">
        <ele>99</ele>
        <time>2021-02-26T08:00:28.000Z</time>
      </trkpt>
      <trkpt lat="49.36762" lon="1.47973">
        <ele>98</ele>
        <time>2021-02-26T08:00:29.000Z</time>
      </trkpt>
      <trkpt lat="49.36773" lon="1.47983">
        <ele>96.400001525879</ele>
        <time>2021-02-26T08:00:31.000Z</time>
      </trkpt>
      <trkpt lat="49.36782" lon="1.47991">
        <ele>94.599998474121</ele>
        <time>2021-02-26T08:00:33.000Z</time>
      </trkpt>
      <trkpt lat="49.36786" lon="1.47992">
        <ele>92.199996948242</ele>
        <time>2021-02-26T08:00:34.000Z</time>
      </trkpt>
      <trkpt lat="49.36791" lon="1.47991">
        <ele>91.199996948242</ele>
        <time>2021-02-26T08:00:35.000Z</time>
      </trkpt>
      <trkpt lat="49.36802" lon="1.47982">
        <ele>89.199996948242</ele>
        <time>2021-02-26T08:00:37.000Z</time>
      </trkpt>
      <trkpt lat="49.36808" lon="1.47977">
        <ele>88</ele>
        <time>2021-02-26T08:00:38.000Z</time>
      </trkpt>
      <trkpt lat="49.36816" lon="1.47972">
        <ele>87</ele>
        <time>2021-02-26T08:00:39.000Z</time>
      </trkpt>
      <trkpt lat="49.3683" lon="1.47963">
        <ele>85</ele>
        <time>2021-02-26T08:00:41.000Z</time>
      </trkpt>
      <trkpt lat="49.36844" lon="1.47953">
        <ele>83.400001525879</ele>
        <time>2021-02-26T08:00:43.000Z</time>
      </trkpt>
      <trkpt lat="49.3685" lon="1.47948">
        <ele>82.400001525879</ele>
        <time>2021-02-26T08:00:44.000Z</time>
      </trkpt>
      <trkpt lat="49.36856" lon="1.47944">
        <ele>81.199996948242</ele>
        <time>2021-02-26T08:00:45.000Z</time>
      </trkpt>
      <trkpt lat="49.36863" lon="1.47941">
        <ele>80</ele>
        <time>2021-02-26T08:00:46.000Z</time>
      </trkpt>
      <trkpt lat="49.36878" lon="1.4793">
        <ele>78.599998474121</ele>
        <time>2021-02-26T08:00:49.000Z</time>
      </trkpt>
      <trkpt lat="49.36905" lon="1.47915">
        <ele>78.400001525879</ele>
        <time>2021-02-26T08:00:55.000Z</time>
      </trkpt>
      <trkpt lat="49.36921" lon="1.47899">
        <ele>79.599998474121</ele>
        <time>2021-02-26T08:01:00.000Z</time>
      </trkpt>
      <trkpt lat="49.36923" lon="1.47897">
        <ele>79.800003051758</ele>
        <time>2021-02-26T08:01:01.000Z</time>
      </trkpt>
      <trkpt lat="49.36928" lon="1.47892">
        <ele>81</ele>
        <time>2021-02-26T08:01:03.000Z</time>
      </trkpt>
      <trkpt lat="49.36935" lon="1.47888">
        <ele>82.199996948242</ele>
        <time>2021-02-26T08:01:06.000Z</time>
      </trkpt>
      <trkpt lat="49.36945" lon="1.47889">
        <ele>83.599998474121</ele>
        <time>2021-02-26T08:01:10.000Z</time>
      </trkpt>
      <trkpt lat="49.36947" lon="1.47891">
        <ele>84</ele>
        <time>2021-02-26T08:01:11.000Z</time>
      </trkpt>
      <trkpt lat="49.36952" lon="1.47895">
        <ele>85</ele>
        <time>2021-02-26T08:01:13.000Z</time>
      </trkpt>
      <trkpt lat="49.36959" lon="1.47903">
        <ele>86.199996948242</ele>
        <time>2021-02-26T08:01:16.000Z</time>
      </trkpt>
      <trkpt lat="49.36964" lon="1.47908">
        <ele>86.800003051758</ele>
        <time>2021-02-26T08:01:18.000Z</time>
      </trkpt>
      <trkpt lat="49.36967" lon="1.47911">
        <ele>87.199996948242</ele>
        <time>2021-02-26T08:01:19.000Z</time>
      </trkpt>
      <trkpt lat="49.36975" lon="1.47919">
        <ele>88.199996948242</ele>
        <time>2021-02-26T08:01:22.000Z</time>
      </trkpt>
      <trkpt lat="49.36982" lon="1.47925">
        <ele>89</ele>
        <time>2021-02-26T08:01:24.000Z</time>
      </trkpt>
      <trkpt lat="49.36989" lon="1.47931">
        <ele>89.199996948242</ele>
        <time>2021-02-26T08:01:26.000Z</time>
      </trkpt>
      <trkpt lat="49.36998" lon="1.47941">
        <ele>89.400001525879</ele>
        <time>2021-02-26T08:01:29.000Z</time>
      </trkpt>
      <trkpt lat="49.37001" lon="1.47946">
        <ele>89.599998474121</ele>
        <time>2021-02-26T08:01:30.000Z</time>
      </trkpt>
      <trkpt lat="49.37009" lon="1.47981">
        <ele>89.599998474121</ele>
        <time>2021-02-26T08:01:36.000Z</time>
      </trkpt>
      <trkpt lat="49.37017" lon="1.48023">
        <ele>90.400001525879</ele>
        <time>2021-02-26T08:01:43.000Z</time>
      </trkpt>
      <trkpt lat="49.37018" lon="1.48029">
        <ele>90.599998474121</ele>
        <time>2021-02-26T08:01:44.000Z</time>
      </trkpt>
      <trkpt lat="49.37023" lon="1.48058">
        <ele>91.400001525879</ele>
        <time>2021-02-26T08:01:49.000Z</time>
      </trkpt>
      <trkpt lat="49.37028" lon="1.48089">
        <ele>92.400001525879</ele>
        <time>2021-02-26T08:01:54.000Z</time>
      </trkpt>
      <trkpt lat="49.37029" lon="1.48095">
        <ele>92.599998474121</ele>
        <time>2021-02-26T08:01:55.000Z</time>
      </trkpt>
      <trkpt lat="49.37036" lon="1.48135">
        <ele>93.400001525879</ele>
        <time>2021-02-26T08:02:02.000Z</time>
      </trkpt>
      <trkpt lat="49.37046" lon="1.48182">
        <ele>94.599998474121</ele>
        <time>2021-02-26T08:02:10.000Z</time>
      </trkpt>
      <trkpt lat="49.37062" lon="1.48228">
        <ele>95</ele>
        <time>2021-02-26T08:02:17.000Z</time>
      </trkpt>
      <trkpt lat="49.37088" lon="1.48286">
        <ele>94.199996948242</ele>
        <time>2021-02-26T08:02:25.000Z</time>
      </trkpt>
      <trkpt lat="49.37099" lon="1.48309">
        <ele>93.599998474121</ele>
        <time>2021-02-26T08:02:28.000Z</time>
      </trkpt>
      <trkpt lat="49.37109" lon="1.48334">
        <ele>92.400001525879</ele>
        <time>2021-02-26T08:02:31.000Z</time>
      </trkpt>
      <trkpt lat="49.37111" lon="1.48343">
        <ele>92.400001525879</ele>
        <time>2021-02-26T08:02:32.000Z</time>
      </trkpt>
      <trkpt lat="49.37119" lon="1.48382">
        <ele>91.400001525879</ele>
        <time>2021-02-26T08:02:36.000Z</time>
      </trkpt>
      <trkpt lat="49.3712" lon="1.48393">
        <ele>91</ele>
        <time>2021-02-26T08:02:37.000Z</time>
      </trkpt>
      <trkpt lat="49.3712" lon="1.48424">
        <ele>90.199996948242</ele>
        <time>2021-02-26T08:02:40.000Z</time>
      </trkpt>
      <trkpt lat="49.3712" lon="1.48465">
        <ele>89</ele>
        <time>2021-02-26T08:02:44.000Z</time>
      </trkpt>
      <trkpt lat="49.3712" lon="1.48476">
        <ele>89</ele>
        <time>2021-02-26T08:02:45.000Z</time>
      </trkpt>
      <trkpt lat="49.37121" lon="1.48508">
        <ele>88.199996948242</ele>
        <time>2021-02-26T08:02:48.000Z</time>
      </trkpt>
      <trkpt lat="49.37122" lon="1.48518">
        <ele>88</ele>
        <time>2021-02-26T08:02:49.000Z</time>
      </trkpt>
      <trkpt lat="49.37124" lon="1.48528">
        <ele>87.599998474121</ele>
        <time>2021-02-26T08:02:50.000Z</time>
      </trkpt>
      <trkpt lat="49.3713" lon="1.48558">
        <ele>87</ele>
        <time>2021-02-26T08:02:53.000Z</time>
      </trkpt>
      <trkpt lat="49.37132" lon="1.48567">
        <ele>86.800003051758</ele>
        <time>2021-02-26T08:02:54.000Z</time>
      </trkpt>
      <trkpt lat="49.37135" lon="1.48575">
        <ele>86.800003051758</ele>
        <time>2021-02-26T08:02:55.000Z</time>
      </trkpt>
      <trkpt lat="49.37141" lon="1.48593">
        <ele>86.199996948242</ele>
        <time>2021-02-26T08:02:57.000Z</time>
      </trkpt>
      <trkpt lat="49.37147" lon="1.4861">
        <ele>85.599998474121</ele>
        <time>2021-02-26T08:02:59.000Z</time>
      </trkpt>
      <trkpt lat="49.37153" lon="1.48628">
        <ele>85.199996948242</ele>
        <time>2021-02-26T08:03:01.000Z</time>
      </trkpt>
      <trkpt lat="49.37167" lon="1.48672">
        <ele>84.199996948242</ele>
        <time>2021-02-26T08:03:06.000Z</time>
      </trkpt>
      <trkpt lat="49.37176" lon="1.487">
        <ele>84</ele>
        <time>2021-02-26T08:03:09.000Z</time>
      </trkpt>
      <trkpt lat="49.37192" lon="1.48746">
        <ele>83.199996948242</ele>
        <time>2021-02-26T08:03:14.000Z</time>
      </trkpt>
      <trkpt lat="49.37197" lon="1.48765">
        <ele>82.800003051758</ele>
        <time>2021-02-26T08:03:16.000Z</time>
      </trkpt>
      <trkpt lat="49.37206" lon="1.48804">
        <ele>82</ele>
        <time>2021-02-26T08:03:20.000Z</time>
      </trkpt>
      <trkpt lat="49.37207" lon="1.48815">
        <ele>82</ele>
        <time>2021-02-26T08:03:21.000Z</time>
      </trkpt>
      <trkpt lat="49.37209" lon="1.48875">
        <ele>81.199996948242</ele>
        <time>2021-02-26T08:03:27.000Z</time>
      </trkpt>
      <trkpt lat="49.37202" lon="1.48957">
        <ele>80.800003051758</ele>
        <time>2021-02-26T08:03:36.000Z</time>
      </trkpt>
      <trkpt lat="49.37206" lon="1.49018">
        <ele>81.199996948242</ele>
        <time>2021-02-26T08:03:43.000Z</time>
      </trkpt>
      <trkpt lat="49.37223" lon="1.49081">
        <ele>81.599998474121</ele>
        <time>2021-02-26T08:03:50.000Z</time>
      </trkpt>
      <trkpt lat="49.37233" lon="1.49139">
        <ele>81.400001525879</ele>
        <time>2021-02-26T08:03:56.000Z</time>
      </trkpt>
      <trkpt lat="49.37233" lon="1.49158">
        <ele>81</ele>
        <time>2021-02-26T08:03:58.000Z</time>
      </trkpt>
      <trkpt lat="49.37231" lon="1.49186">
        <ele>80.599998474121</ele>
        <time>2021-02-26T08:04:01.000Z</time>
      </trkpt>
      <trkpt lat="49.37217" lon="1.49265">
        <ele>80.599998474121</ele>
        <time>2021-02-26T08:04:10.000Z</time>
      </trkpt>
      <trkpt lat="49.37214" lon="1.49282">
        <ele>80.599998474121</ele>
        <time>2021-02-26T08:04:12.000Z</time>
      </trkpt>
      <trkpt lat="49.37208" lon="1.49316">
        <ele>80.800003051758</ele>
        <time>2021-02-26T08:04:16.000Z</time>
      </trkpt>
      <trkpt lat="49.37202" lon="1.4935">
        <ele>80.800003051758</ele>
        <time>2021-02-26T08:04:20.000Z</time>
      </trkpt>
      <trkpt lat="49.37202" lon="1.49375">
        <ele>80.800003051758</ele>
        <time>2021-02-26T08:04:23.000Z</time>
      </trkpt>
      <trkpt lat="49.37207" lon="1.49434">
        <ele>81.400001525879</ele>
        <time>2021-02-26T08:04:30.000Z</time>
      </trkpt>
      <trkpt lat="49.37211" lon="1.49451">
        <ele>81.599998474121</ele>
        <time>2021-02-26T08:04:32.000Z</time>
      </trkpt>
      <trkpt lat="49.37218" lon="1.49491">
        <ele>81.800003051758</ele>
        <time>2021-02-26T08:04:37.000Z</time>
      </trkpt>
      <trkpt lat="49.37231" lon="1.49557">
        <ele>82.599998474121</ele>
        <time>2021-02-26T08:04:46.000Z</time>
      </trkpt>
      <trkpt lat="49.37233" lon="1.49565">
        <ele>82.800003051758</ele>
        <time>2021-02-26T08:04:47.000Z</time>
      </trkpt>
      <trkpt lat="49.37237" lon="1.49593">
        <ele>83.800003051758</ele>
        <time>2021-02-26T08:04:51.000Z</time>
      </trkpt>
      <trkpt lat="49.37242" lon="1.49627">
        <ele>84.800003051758</ele>
        <time>2021-02-26T08:04:56.000Z</time>
      </trkpt>
      <trkpt lat="49.37243" lon="1.49633">
        <ele>85</ele>
        <time>2021-02-26T08:04:57.000Z</time>
      </trkpt>
      <trkpt lat="49.37244" lon="1.4966">
        <ele>86</ele>
        <time>2021-02-26T08:05:01.000Z</time>
      </trkpt>
      <trkpt lat="49.37243" lon="1.49679">
        <ele>86.400001525879</ele>
        <time>2021-02-26T08:05:04.000Z</time>
      </trkpt>
      <trkpt lat="49.37242" lon="1.49705">
        <ele>86.800003051758</ele>
        <time>2021-02-26T08:05:08.000Z</time>
      </trkpt>
      <trkpt lat="49.3724" lon="1.49723">
        <ele>87.199996948242</ele>
        <time>2021-02-26T08:05:11.000Z</time>
      </trkpt>
      <trkpt lat="49.37243" lon="1.49745">
        <ele>87.199996948242</ele>
        <time>2021-02-26T08:05:15.000Z</time>
      </trkpt>
      <trkpt lat="49.37251" lon="1.49744">
        <ele>87.199996948242</ele>
        <time>2021-02-26T08:05:18.000Z</time>
      </trkpt>
      <trkpt lat="49.37255" lon="1.49734">
        <ele>87</ele>
        <time>2021-02-26T08:05:20.000Z</time>
      </trkpt>
      <trkpt lat="49.3726" lon="1.49722">
        <ele>86.800003051758</ele>
        <time>2021-02-26T08:05:22.000Z</time>
      </trkpt>
      <trkpt lat="49.37268" lon="1.49704">
        <ele>85.800003051758</ele>
        <time>2021-02-26T08:05:25.000Z</time>
      </trkpt>
      <trkpt lat="49.37275" lon="1.49688">
        <ele>85.400001525879</ele>
        <time>2021-02-26T08:05:28.000Z</time>
      </trkpt>
      <trkpt lat="49.37277" lon="1.49682">
        <ele>85.400001525879</ele>
        <time>2021-02-26T08:05:29.000Z</time>
      </trkpt>
      <trkpt lat="49.37287" lon="1.49671">
        <ele>85</ele>
        <time>2021-02-26T08:05:32.000Z</time>
      </trkpt>
      <trkpt lat="49.37297" lon="1.49674">
        <ele>85.199996948242</ele>
        <time>2021-02-26T08:05:36.000Z</time>
      </trkpt>
      <trkpt lat="49.373" lon="1.49679">
        <ele>84.400001525879</ele>
        <time>2021-02-26T08:05:38.000Z</time>
      </trkpt>
      <trkpt lat="49.37302" lon="1.49687">
        <ele>84.199996948242</ele>
        <time>2021-02-26T08:05:42.000Z</time>
      </trkpt>
      <trkpt lat="49.37302" lon="1.49693">
        <ele>84.199996948242</ele>
        <time>2021-02-26T08:05:44.000Z</time>
      </trkpt>
      <trkpt lat="49.373" lon="1.49705">
        <ele>84.599998474121</ele>
        <time>2021-02-26T08:05:48.000Z</time>
      </trkpt>
      <trkpt lat="49.37299" lon="1.49715">
        <ele>85.800003051758</ele>
        <time>2021-02-26T08:05:51.000Z</time>
      </trkpt>
      <trkpt lat="49.373" lon="1.49719">
        <ele>86.400001525879</ele>
        <time>2021-02-26T08:05:52.000Z</time>
      </trkpt>
      <trkpt lat="49.373" lon="1.49722">
        <ele>86.599998474121</ele>
        <time>2021-02-26T08:05:53.000Z</time>
      </trkpt>
      <trkpt lat="49.37302" lon="1.49725">
        <ele>86.800003051758</ele>
        <time>2021-02-26T08:05:54.000Z</time>
      </trkpt>
      <trkpt lat="49.37305" lon="1.49731">
        <ele>87</ele>
        <time>2021-02-26T08:05:56.000Z</time>
      </trkpt>
      <trkpt lat="49.37308" lon="1.4974">
        <ele>87.400001525879</ele>
        <time>2021-02-26T08:05:59.000Z</time>
      </trkpt>
      <trkpt lat="49.37311" lon="1.49747">
        <ele>87.800003051758</ele>
        <time>2021-02-26T08:06:02.000Z</time>
      </trkpt>
      <trkpt lat="49.37317" lon="1.49753">
        <ele>89</ele>
        <time>2021-02-26T08:06:06.000Z</time>
      </trkpt>
      <trkpt lat="49.37325" lon="1.49754">
        <ele>90</ele>
        <time>2021-02-26T08:06:11.000Z</time>
      </trkpt>
      <trkpt lat="49.37327" lon="1.49753">
        <ele>90.199996948242</ele>
        <time>2021-02-26T08:06:13.000Z</time>
      </trkpt>
      <trkpt lat="49.37333" lon="1.49753">
        <ele>91</ele>
        <time>2021-02-26T08:06:17.000Z</time>
      </trkpt>
      <trkpt lat="49.37334" lon="1.49752">
        <ele>91.400001525879</ele>
        <time>2021-02-26T08:06:18.000Z</time>
      </trkpt>
      <trkpt lat="49.37336" lon="1.49752">
        <ele>91.599998474121</ele>
        <time>2021-02-26T08:06:19.000Z</time>
      </trkpt>
      <trkpt lat="49.37339" lon="1.49751">
        <ele>92.199996948242</ele>
        <time>2021-02-26T08:06:21.000Z</time>
      </trkpt>
      <trkpt lat="49.37344" lon="1.4975">
        <ele>92.800003051758</ele>
        <time>2021-02-26T08:06:24.000Z</time>
      </trkpt>
      <trkpt lat="49.37347" lon="1.49748">
        <ele>93.400001525879</ele>
        <time>2021-02-26T08:06:26.000Z</time>
      </trkpt>
      <trkpt lat="49.37357" lon="1.49742">
        <ele>94.599998474121</ele>
        <time>2021-02-26T08:06:32.000Z</time>
      </trkpt>
      <trkpt lat="49.37358" lon="1.4974">
        <ele>94.800003051758</ele>
        <time>2021-02-26T08:06:33.000Z</time>
      </trkpt>
      <trkpt lat="49.37362" lon="1.49736">
        <ele>95.400001525879</ele>
        <time>2021-02-26T08:06:36.000Z</time>
      </trkpt>
      <trkpt lat="49.37364" lon="1.49734">
        <ele>95.400001525879</ele>
        <time>2021-02-26T08:06:37.000Z</time>
      </trkpt>
      <trkpt lat="49.37374" lon="1.49725">
        <ele>96.400001525879</ele>
        <time>2021-02-26T08:06:42.000Z</time>
      </trkpt>
      <trkpt lat="49.37376" lon="1.49723">
        <ele>96.599998474121</ele>
        <time>2021-02-26T08:06:43.000Z</time>
      </trkpt>
      <trkpt lat="49.37384" lon="1.49713">
        <ele>97.800003051758</ele>
        <time>2021-02-26T08:06:48.000Z</time>
      </trkpt>
      <trkpt lat="49.37389" lon="1.49707">
        <ele>98.800003051758</ele>
        <time>2021-02-26T08:06:51.000Z</time>
      </trkpt>
      <trkpt lat="49.37392" lon="1.49701">
        <ele>99.599998474121</ele>
        <time>2021-02-26T08:06:54.000Z</time>
      </trkpt>
      <trkpt lat="49.37393" lon="1.49699">
        <ele>99.800003051758</ele>
        <time>2021-02-26T08:06:55.000Z</time>
      </trkpt>
      <trkpt lat="49.37395" lon="1.49696">
        <ele>100.19999694824</ele>
        <time>2021-02-26T08:06:56.000Z</time>
      </trkpt>
      <trkpt lat="49.374" lon="1.49688">
        <ele>101</ele>
        <time>2021-02-26T08:07:00.000Z</time>
      </trkpt>
      <trkpt lat="49.37404" lon="1.49683">
        <ele>101.59999847412</ele>
        <time>2021-02-26T08:07:02.000Z</time>
      </trkpt>
      <trkpt lat="49.37408" lon="1.49675">
        <ele>102.19999694824</ele>
        <time>2021-02-26T08:07:05.000Z</time>
      </trkpt>
      <trkpt lat="49.37413" lon="1.49665">
        <ele>103</ele>
        <time>2021-02-26T08:07:09.000Z</time>
      </trkpt>
      <trkpt lat="49.37415" lon="1.49663">
        <ele>103.19999694824</ele>
        <time>2021-02-26T08:07:10.000Z</time>
      </trkpt>
      <trkpt lat="49.3742" lon="1.49656">
        <ele>104.40000152588</ele>
        <time>2021-02-26T08:07:14.000Z</time>
      </trkpt>
      <trkpt lat="49.37423" lon="1.49652">
        <ele>105</ele>
        <time>2021-02-26T08:07:16.000Z</time>
      </trkpt>
      <trkpt lat="49.37426" lon="1.49649">
        <ele>105.59999847412</ele>
        <time>2021-02-26T08:07:18.000Z</time>
      </trkpt>
      <trkpt lat="49.37433" lon="1.49642">
        <ele>106.80000305176</ele>
        <time>2021-02-26T08:07:23.000Z</time>
      </trkpt>
      <trkpt lat="49.37434" lon="1.4964">
        <ele>107</ele>
        <time>2021-02-26T08:07:24.000Z</time>
      </trkpt>
      <trkpt lat="49.37438" lon="1.49635">
        <ele>107.80000305176</ele>
        <time>2021-02-26T08:07:27.000Z</time>
      </trkpt>
      <trkpt lat="49.3744" lon="1.49632">
        <ele>108</ele>
        <time>2021-02-26T08:07:29.000Z</time>
      </trkpt>
      <trkpt lat="49.37441" lon="1.49631">
        <ele>108.19999694824</ele>
        <time>2021-02-26T08:07:30.000Z</time>
      </trkpt>
      <trkpt lat="49.37444" lon="1.49629">
        <ele>108.59999847412</ele>
        <time>2021-02-26T08:07:32.000Z</time>
      </trkpt>
      <trkpt lat="49.37451" lon="1.49623">
        <ele>109.40000152588</ele>
        <time>2021-02-26T08:07:36.000Z</time>
      </trkpt>
      <trkpt lat="49.37454" lon="1.4962">
        <ele>109.80000305176</ele>
        <time>2021-02-26T08:07:38.000Z</time>
      </trkpt>
      <trkpt lat="49.37463" lon="1.49613">
        <ele>110.80000305176</ele>
        <time>2021-02-26T08:07:43.000Z</time>
      </trkpt>
      <trkpt lat="49.37465" lon="1.49612">
        <ele>111.19999694824</ele>
        <time>2021-02-26T08:07:44.000Z</time>
      </trkpt>
      <trkpt lat="49.37469" lon="1.49607">
        <ele>112</ele>
        <time>2021-02-26T08:07:47.000Z</time>
      </trkpt>
      <trkpt lat="49.37476" lon="1.49599">
        <ele>113.19999694824</ele>
        <time>2021-02-26T08:07:52.000Z</time>
      </trkpt>
      <trkpt lat="49.37482" lon="1.49595">
        <ele>114.19999694824</ele>
        <time>2021-02-26T08:07:56.000Z</time>
      </trkpt>
      <trkpt lat="49.37483" lon="1.49595">
        <ele>114.40000152588</ele>
        <time>2021-02-26T08:07:57.000Z</time>
      </trkpt>
      <trkpt lat="49.37489" lon="1.4959">
        <ele>115.19999694824</ele>
        <time>2021-02-26T08:08:01.000Z</time>
      </trkpt>
      <trkpt lat="49.37493" lon="1.49587">
        <ele>115.80000305176</ele>
        <time>2021-02-26T08:08:04.000Z</time>
      </trkpt>
      <trkpt lat="49.37496" lon="1.49585">
        <ele>116.19999694824</ele>
        <time>2021-02-26T08:08:06.000Z</time>
      </trkpt>
      <trkpt lat="49.37502" lon="1.4958">
        <ele>117.40000152588</ele>
        <time>2021-02-26T08:08:11.000Z</time>
      </trkpt>
      <trkpt lat="49.37503" lon="1.49579">
        <ele>117.40000152588</ele>
        <time>2021-02-26T08:08:12.000Z</time>
      </trkpt>
      <trkpt lat="49.37511" lon="1.49572">
        <ele>118.59999847412</ele>
        <time>2021-02-26T08:08:17.000Z</time>
      </trkpt>
      <trkpt lat="49.37514" lon="1.4957">
        <ele>119</ele>
        <time>2021-02-26T08:08:19.000Z</time>
      </trkpt>
      <trkpt lat="49.3752" lon="1.49564">
        <ele>119.59999847412</ele>
        <time>2021-02-26T08:08:23.000Z</time>
      </trkpt>
      <trkpt lat="49.37523" lon="1.49562">
        <ele>120.19999694824</ele>
        <time>2021-02-26T08:08:25.000Z</time>
      </trkpt>
      <trkpt lat="49.37529" lon="1.49557">
        <ele>120.80000305176</ele>
        <time>2021-02-26T08:08:29.000Z</time>
      </trkpt>
      <trkpt lat="49.37534" lon="1.49552">
        <ele>121</ele>
        <time>2021-02-26T08:08:32.000Z</time>
      </trkpt>
      <trkpt lat="49.3754" lon="1.49549">
        <ele>122</ele>
        <time>2021-02-26T08:08:35.000Z</time>
      </trkpt>
      <trkpt lat="49.37547" lon="1.49544">
        <ele>122.59999847412</ele>
        <time>2021-02-26T08:08:39.000Z</time>
      </trkpt>
      <trkpt lat="49.3755" lon="1.49541">
        <ele>122.80000305176</ele>
        <time>2021-02-26T08:08:41.000Z</time>
      </trkpt>
      <trkpt lat="49.37559" lon="1.49534">
        <ele>124</ele>
        <time>2021-02-26T08:08:46.000Z</time>
      </trkpt>
      <trkpt lat="49.3757" lon="1.49529">
        <ele>124.80000305176</ele>
        <time>2021-02-26T08:08:52.000Z</time>
      </trkpt>
      <trkpt lat="49.37571" lon="1.49529">
        <ele>125</ele>
        <time>2021-02-26T08:08:53.000Z</time>
      </trkpt>
      <trkpt lat="49.3758" lon="1.49525">
        <ele>126.19999694824</ele>
        <time>2021-02-26T08:08:58.000Z</time>
      </trkpt>
      <trkpt lat="49.37582" lon="1.49524">
        <ele>126.40000152588</ele>
        <time>2021-02-26T08:08:59.000Z</time>
      </trkpt>
      <trkpt lat="49.37592" lon="1.49521">
        <ele>127</ele>
        <time>2021-02-26T08:09:04.000Z</time>
      </trkpt>
      <trkpt lat="49.37595" lon="1.4952">
        <ele>127.40000152588</ele>
        <time>2021-02-26T08:09:06.000Z</time>
      </trkpt>
      <trkpt lat="49.37602" lon="1.49518">
        <ele>128.19999694824</ele>
        <time>2021-02-26T08:09:09.000Z</time>
      </trkpt>
      <trkpt lat="49.37608" lon="1.49515">
        <ele>129</ele>
        <time>2021-02-26T08:09:12.000Z</time>
      </trkpt>
      <trkpt lat="49.3761" lon="1.49515">
        <ele>129.19999694824</ele>
        <time>2021-02-26T08:09:13.000Z</time>
      </trkpt>
      <trkpt lat="49.37618" lon="1.49512">
        <ele>130.19999694824</ele>
        <time>2021-02-26T08:09:18.000Z</time>
      </trkpt>
      <trkpt lat="49.37625" lon="1.49512">
        <ele>131.19999694824</ele>
        <time>2021-02-26T08:09:22.000Z</time>
      </trkpt>
      <trkpt lat="49.3763" lon="1.49512">
        <ele>131.80000305176</ele>
        <time>2021-02-26T08:09:25.000Z</time>
      </trkpt>
      <trkpt lat="49.37634" lon="1.49512">
        <ele>132.19999694824</ele>
        <time>2021-02-26T08:09:27.000Z</time>
      </trkpt>
      <trkpt lat="49.37636" lon="1.49511">
        <ele>132.80000305176</ele>
        <time>2021-02-26T08:09:29.000Z</time>
      </trkpt>
      <trkpt lat="49.37639" lon="1.49512">
        <ele>133</ele>
        <time>2021-02-26T08:09:31.000Z</time>
      </trkpt>
      <trkpt lat="49.37641" lon="1.49512">
        <ele>133.39999389648</ele>
        <time>2021-02-26T08:09:32.000Z</time>
      </trkpt>
      <trkpt lat="49.37644" lon="1.49512">
        <ele>133.80000305176</ele>
        <time>2021-02-26T08:09:34.000Z</time>
      </trkpt>
      <trkpt lat="49.37649" lon="1.49512">
        <ele>134.39999389648</ele>
        <time>2021-02-26T08:09:37.000Z</time>
      </trkpt>
      <trkpt lat="49.37655" lon="1.49514">
        <ele>135.80000305176</ele>
        <time>2021-02-26T08:09:41.000Z</time>
      </trkpt>
      <trkpt lat="49.37663" lon="1.49516">
        <ele>136.80000305176</ele>
        <time>2021-02-26T08:09:46.000Z</time>
      </trkpt>
      <trkpt lat="49.3767" lon="1.49516">
        <ele>137.80000305176</ele>
        <time>2021-02-26T08:09:50.000Z</time>
      </trkpt>
      <trkpt lat="49.37674" lon="1.49516">
        <ele>138.39999389648</ele>
        <time>2021-02-26T08:09:52.000Z</time>
      </trkpt>
      <trkpt lat="49.37678" lon="1.49515">
        <ele>138.60000610352</ele>
        <time>2021-02-26T08:09:54.000Z</time>
      </trkpt>
      <trkpt lat="49.37686" lon="1.49514">
        <ele>139.60000610352</ele>
        <time>2021-02-26T08:09:59.000Z</time>
      </trkpt>
      <trkpt lat="49.37688" lon="1.49513">
        <ele>139.80000305176</ele>
        <time>2021-02-26T08:10:00.000Z</time>
      </trkpt>
      <trkpt lat="49.37695" lon="1.49511">
        <ele>140.80000305176</ele>
        <time>2021-02-26T08:10:05.000Z</time>
      </trkpt>
      <trkpt lat="49.37696" lon="1.49511">
        <ele>141.19999694824</ele>
        <time>2021-02-26T08:10:06.000Z</time>
      </trkpt>
      <trkpt lat="49.37701" lon="1.49509">
        <ele>142</ele>
        <time>2021-02-26T08:10:09.000Z</time>
      </trkpt>
      <trkpt lat="49.37707" lon="1.49507">
        <ele>142.80000305176</ele>
        <time>2021-02-26T08:10:12.000Z</time>
      </trkpt>
      <trkpt lat="49.37709" lon="1.49506">
        <ele>143</ele>
        <time>2021-02-26T08:10:13.000Z</time>
      </trkpt>
      <trkpt lat="49.37718" lon="1.49501">
        <ele>144</ele>
        <time>2021-02-26T08:10:18.000Z</time>
      </trkpt>
      <trkpt lat="49.37726" lon="1.49498">
        <ele>144.60000610352</ele>
        <time>2021-02-26T08:10:22.000Z</time>
      </trkpt>
      <trkpt lat="49.37732" lon="1.49497">
        <ele>145</ele>
        <time>2021-02-26T08:10:25.000Z</time>
      </trkpt>
      <trkpt lat="49.37738" lon="1.49495">
        <ele>145.60000610352</ele>
        <time>2021-02-26T08:10:28.000Z</time>
      </trkpt>
      <trkpt lat="49.37747" lon="1.49493">
        <ele>146.19999694824</ele>
        <time>2021-02-26T08:10:32.000Z</time>
      </trkpt>
      <trkpt lat="49.37755" lon="1.49491">
        <ele>146.80000305176</ele>
        <time>2021-02-26T08:10:36.000Z</time>
      </trkpt>
      <trkpt lat="49.37762" lon="1.49488">
        <ele>147.39999389648</ele>
        <time>2021-02-26T08:10:39.000Z</time>
      </trkpt>
      <trkpt lat="49.37769" lon="1.49485">
        <ele>148</ele>
        <time>2021-02-26T08:10:42.000Z</time>
      </trkpt>
      <trkpt lat="49.37776" lon="1.49481">
        <ele>148.39999389648</ele>
        <time>2021-02-26T08:10:45.000Z</time>
      </trkpt>
      <trkpt lat="49.37789" lon="1.49477">
        <ele>149.19999694824</ele>
        <time>2021-02-26T08:10:50.000Z</time>
      </trkpt>
      <trkpt lat="49.37793" lon="1.49476">
        <ele>149.80000305176</ele>
        <time>2021-02-26T08:10:52.000Z</time>
      </trkpt>
      <trkpt lat="49.37806" lon="1.49473">
        <ele>150.60000610352</ele>
        <time>2021-02-26T08:10:57.000Z</time>
      </trkpt>
      <trkpt lat="49.37809" lon="1.49473">
        <ele>150.80000305176</ele>
        <time>2021-02-26T08:10:58.000Z</time>
      </trkpt>
      <trkpt lat="49.37822" lon="1.4947">
        <ele>151.80000305176</ele>
        <time>2021-02-26T08:11:03.000Z</time>
      </trkpt>
      <trkpt lat="49.37841" lon="1.49468">
        <ele>153</ele>
        <time>2021-02-26T08:11:09.000Z</time>
      </trkpt>
      <trkpt lat="49.37846" lon="1.49467">
        <ele>153.39999389648</ele>
        <time>2021-02-26T08:11:11.000Z</time>
      </trkpt>
      <trkpt lat="49.37859" lon="1.49466">
        <ele>153.80000305176</ele>
        <time>2021-02-26T08:11:15.000Z</time>
      </trkpt>
      <trkpt lat="49.37868" lon="1.49466">
        <ele>154.60000610352</ele>
        <time>2021-02-26T08:11:18.000Z</time>
      </trkpt>
      <trkpt lat="49.37874" lon="1.49466">
        <ele>155</ele>
        <time>2021-02-26T08:11:20.000Z</time>
      </trkpt>
      <trkpt lat="49.3789" lon="1.49469">
        <ele>155.60000610352</ele>
        <time>2021-02-26T08:11:25.000Z</time>
      </trkpt>
      <trkpt lat="49.37902" lon="1.49472">
        <ele>156</ele>
        <time>2021-02-26T08:11:29.000Z</time>
      </trkpt>
      <trkpt lat="49.37912" lon="1.49474">
        <ele>156.60000610352</ele>
        <time>2021-02-26T08:11:32.000Z</time>
      </trkpt>
      <trkpt lat="49.37928" lon="1.49469">
        <ele>157.19999694824</ele>
        <time>2021-02-26T08:11:37.000Z</time>
      </trkpt>
      <trkpt lat="49.37936" lon="1.49451">
        <ele>157.60000610352</ele>
        <time>2021-02-26T08:11:41.000Z</time>
      </trkpt>
      <trkpt lat="49.37938" lon="1.49446">
        <ele>157.60000610352</ele>
        <time>2021-02-26T08:11:42.000Z</time>
      </trkpt>
      <trkpt lat="49.37947" lon="1.49416">
        <ele>158</ele>
        <time>2021-02-26T08:11:47.000Z</time>
      </trkpt>
      <trkpt lat="49.37954" lon="1.49395">
        <ele>158.19999694824</ele>
        <time>2021-02-26T08:11:51.000Z</time>
      </trkpt>
      <trkpt lat="49.37963" lon="1.49364">
        <ele>158.80000305176</ele>
        <time>2021-02-26T08:11:57.000Z</time>
      </trkpt>
      <trkpt lat="49.37966" lon="1.49354">
        <ele>159</ele>
        <time>2021-02-26T08:11:59.000Z</time>
      </trkpt>
      <trkpt lat="49.37975" lon="1.4932">
        <ele>159.80000305176</ele>
        <time>2021-02-26T08:12:06.000Z</time>
      </trkpt>
      <trkpt lat="49.37983" lon="1.49289">
        <ele>161</ele>
        <time>2021-02-26T08:12:12.000Z</time>
      </trkpt>
      <trkpt lat="49.37984" lon="1.49284">
        <ele>161</ele>
        <time>2021-02-26T08:12:13.000Z</time>
      </trkpt>
      <trkpt lat="49.3799" lon="1.4926">
        <ele>161.80000305176</ele>
        <time>2021-02-26T08:12:18.000Z</time>
      </trkpt>
      <trkpt lat="49.37996" lon="1.4924">
        <ele>162.39999389648</ele>
        <time>2021-02-26T08:12:22.000Z</time>
      </trkpt>
      <trkpt lat="49.38" lon="1.49226">
        <ele>163</ele>
        <time>2021-02-26T08:12:25.000Z</time>
      </trkpt>
      <trkpt lat="49.38004" lon="1.49211">
        <ele>163.39999389648</ele>
        <time>2021-02-26T08:12:28.000Z</time>
      </trkpt>
      <trkpt lat="49.3801" lon="1.49186">
        <ele>164</ele>
        <time>2021-02-26T08:12:33.000Z</time>
      </trkpt>
      <trkpt lat="49.38013" lon="1.49171">
        <ele>164.60000610352</ele>
        <time>2021-02-26T08:12:36.000Z</time>
      </trkpt>
      <trkpt lat="49.38017" lon="1.49155">
        <ele>165</ele>
        <time>2021-02-26T08:12:39.000Z</time>
      </trkpt>
      <trkpt lat="49.38024" lon="1.49128">
        <ele>165.80000305176</ele>
        <time>2021-02-26T08:12:44.000Z</time>
      </trkpt>
      <trkpt lat="49.38025" lon="1.49122">
        <ele>166</ele>
        <time>2021-02-26T08:12:45.000Z</time>
      </trkpt>
      <trkpt lat="49.38036" lon="1.49081">
        <ele>166.80000305176</ele>
        <time>2021-02-26T08:12:52.000Z</time>
      </trkpt>
      <trkpt lat="49.3804" lon="1.49062">
        <ele>167</ele>
        <time>2021-02-26T08:12:55.000Z</time>
      </trkpt>
      <trkpt lat="49.38048" lon="1.49039">
        <ele>167.19999694824</ele>
        <time>2021-02-26T08:12:59.000Z</time>
      </trkpt>
      <trkpt lat="49.38057" lon="1.49017">
        <ele>167.39999389648</ele>
        <time>2021-02-26T08:13:03.000Z</time>
      </trkpt>
      <trkpt lat="49.38064" lon="1.4901">
        <ele>167.60000610352</ele>
        <time>2021-02-26T08:13:05.000Z</time>
      </trkpt>
      <trkpt lat="49.3807" lon="1.49001">
        <ele>167.80000305176</ele>
        <time>2021-02-26T08:13:07.000Z</time>
      </trkpt>
      <trkpt lat="49.38075" lon="1.4899">
        <ele>167.80000305176</ele>
        <time>2021-02-26T08:13:09.000Z</time>
      </trkpt>
      <trkpt lat="49.38078" lon="1.48985">
        <ele>167.80000305176</ele>
        <time>2021-02-26T08:13:10.000Z</time>
      </trkpt>
      <trkpt lat="49.3809" lon="1.48965">
        <ele>167.80000305176</ele>
        <time>2021-02-26T08:13:14.000Z</time>
      </trkpt>
      <trkpt lat="49.381" lon="1.48953">
        <ele>167.80000305176</ele>
        <time>2021-02-26T08:13:17.000Z</time>
      </trkpt>
      <trkpt lat="49.38116" lon="1.48927">
        <ele>168</ele>
        <time>2021-02-26T08:13:23.000Z</time>
      </trkpt>
      <trkpt lat="49.3813" lon="1.48904">
        <ele>167.80000305176</ele>
        <time>2021-02-26T08:13:28.000Z</time>
      </trkpt>
      <trkpt lat="49.38133" lon="1.489">
        <ele>167.80000305176</ele>
        <time>2021-02-26T08:13:29.000Z</time>
      </trkpt>
      <trkpt lat="49.3814" lon="1.4889">
        <ele>167.80000305176</ele>
        <time>2021-02-26T08:13:31.000Z</time>
      </trkpt>
      <trkpt lat="49.38148" lon="1.48874">
        <ele>167.80000305176</ele>
        <time>2021-02-26T08:13:34.000Z</time>
      </trkpt>
      <trkpt lat="49.38145" lon="1.48862">
        <ele>167.19999694824</ele>
        <time>2021-02-26T08:13:37.000Z</time>
      </trkpt>
      <trkpt lat="49.38139" lon="1.48846">
        <ele>167</ele>
        <time>2021-02-26T08:13:41.000Z</time>
      </trkpt>
      <trkpt lat="49.38135" lon="1.48825">
        <ele>167</ele>
        <time>2021-02-26T08:13:45.000Z</time>
      </trkpt>
      <trkpt lat="49.38134" lon="1.48819">
        <ele>167</ele>
        <time>2021-02-26T08:13:46.000Z</time>
      </trkpt>
      <trkpt lat="49.38132" lon="1.48793">
        <ele>167.19999694824</ele>
        <time>2021-02-26T08:13:50.000Z</time>
      </trkpt>
      <trkpt lat="49.38129" lon="1.48778">
        <ele>167.39999389648</ele>
        <time>2021-02-26T08:13:52.000Z</time>
      </trkpt>
      <trkpt lat="49.38123" lon="1.48757">
        <ele>167.60000610352</ele>
        <time>2021-02-26T08:13:55.000Z</time>
      </trkpt>
      <trkpt lat="49.38118" lon="1.48736">
        <ele>167.60000610352</ele>
        <time>2021-02-26T08:13:58.000Z</time>
      </trkpt>
      <trkpt lat="49.38117" lon="1.48716">
        <ele>167.80000305176</ele>
        <time>2021-02-26T08:14:01.000Z</time>
      </trkpt>
      <trkpt lat="49.38114" lon="1.48702">
        <ele>168.19999694824</ele>
        <time>2021-02-26T08:14:04.000Z</time>
      </trkpt>
      <trkpt lat="49.38112" lon="1.48698">
        <ele>168.19999694824</ele>
        <time>2021-02-26T08:14:05.000Z</time>
      </trkpt>
      <trkpt lat="49.38108" lon="1.48676">
        <ele>168.39999389648</ele>
        <time>2021-02-26T08:14:11.000Z</time>
      </trkpt>
      <trkpt lat="49.38106" lon="1.48651">
        <ele>168.60000610352</ele>
        <time>2021-02-26T08:14:16.000Z</time>
      </trkpt>
      <trkpt lat="49.38102" lon="1.48616">
        <ele>168.60000610352</ele>
        <time>2021-02-26T08:14:22.000Z</time>
      </trkpt>
      <trkpt lat="49.38099" lon="1.48584">
        <ele>168.80000305176</ele>
        <time>2021-02-26T08:14:27.000Z</time>
      </trkpt>
      <trkpt lat="49.38096" lon="1.48568">
        <ele>168.80000305176</ele>
        <time>2021-02-26T08:14:29.000Z</time>
      </trkpt>
      <trkpt lat="49.38092" lon="1.48555">
        <ele>168.80000305176</ele>
        <time>2021-02-26T08:14:31.000Z</time>
      </trkpt>
      <trkpt lat="49.38087" lon="1.48524">
        <ele>168.80000305176</ele>
        <time>2021-02-26T08:14:36.000Z</time>
      </trkpt>
      <trkpt lat="49.38082" lon="1.48498">
        <ele>169</ele>
        <time>2021-02-26T08:14:40.000Z</time>
      </trkpt>
      <trkpt lat="49.38078" lon="1.48472">
        <ele>169.19999694824</ele>
        <time>2021-02-26T08:14:44.000Z</time>
      </trkpt>
      <trkpt lat="49.38071" lon="1.48444">
        <ele>169.19999694824</ele>
        <time>2021-02-26T08:14:49.000Z</time>
      </trkpt>
      <trkpt lat="49.38064" lon="1.48406">
        <ele>169.19999694824</ele>
        <time>2021-02-26T08:14:55.000Z</time>
      </trkpt>
      <trkpt lat="49.38058" lon="1.48375">
        <ele>169.39999389648</ele>
        <time>2021-02-26T08:15:00.000Z</time>
      </trkpt>
      <trkpt lat="49.38052" lon="1.48335">
        <ele>169.60000610352</ele>
        <time>2021-02-26T08:15:06.000Z</time>
      </trkpt>
      <trkpt lat="49.38045" lon="1.48303">
        <ele>170</ele>
        <time>2021-02-26T08:15:11.000Z</time>
      </trkpt>
      <trkpt lat="49.38043" lon="1.48298">
        <ele>170.19999694824</ele>
        <time>2021-02-26T08:15:12.000Z</time>
      </trkpt>
      <trkpt lat="49.38039" lon="1.48273">
        <ele>170.60000610352</ele>
        <time>2021-02-26T08:15:16.000Z</time>
      </trkpt>
      <trkpt lat="49.38034" lon="1.48227">
        <ele>170.80000305176</ele>
        <time>2021-02-26T08:15:23.000Z</time>
      </trkpt>
      <trkpt lat="49.38029" lon="1.48195">
        <ele>170.80000305176</ele>
        <time>2021-02-26T08:15:28.000Z</time>
      </trkpt>
      <trkpt lat="49.38025" lon="1.48165">
        <ele>170.80000305176</ele>
        <time>2021-02-26T08:15:33.000Z</time>
      </trkpt>
      <trkpt lat="49.38024" lon="1.48158">
        <ele>170.80000305176</ele>
        <time>2021-02-26T08:15:34.000Z</time>
      </trkpt>
      <trkpt lat="49.38023" lon="1.48151">
        <ele>171</ele>
        <time>2021-02-26T08:15:35.000Z</time>
      </trkpt>
      <trkpt lat="49.38019" lon="1.48133">
        <ele>171</ele>
        <time>2021-02-26T08:15:38.000Z</time>
      </trkpt>
      <trkpt lat="49.38016" lon="1.48118">
        <ele>171.19999694824</ele>
        <time>2021-02-26T08:15:41.000Z</time>
      </trkpt>
      <trkpt lat="49.38014" lon="1.48114">
        <ele>171.19999694824</ele>
        <time>2021-02-26T08:15:42.000Z</time>
      </trkpt>
      <trkpt lat="49.38002" lon="1.48104">
        <ele>171.19999694824</ele>
        <time>2021-02-26T08:15:46.000Z</time>
      </trkpt>
      <trkpt lat="49.37997" lon="1.48084">
        <ele>171.19999694824</ele>
        <time>2021-02-26T08:15:50.000Z</time>
      </trkpt>
      <trkpt lat="49.37993" lon="1.4806">
        <ele>171.39999389648</ele>
        <time>2021-02-26T08:15:55.000Z</time>
      </trkpt>
      <trkpt lat="49.37988" lon="1.48036">
        <ele>171.39999389648</ele>
        <time>2021-02-26T08:16:00.000Z</time>
      </trkpt>
      <trkpt lat="49.37983" lon="1.48016">
        <ele>171.39999389648</ele>
        <time>2021-02-26T08:16:04.000Z</time>
      </trkpt>
      <trkpt lat="49.37978" lon="1.48003">
        <ele>171.39999389648</ele>
        <time>2021-02-26T08:16:08.000Z</time>
      </trkpt>
      <trkpt lat="49.37977" lon="1.47998">
        <ele>171.39999389648</ele>
        <time>2021-02-26T08:16:09.000Z</time>
      </trkpt>
      <trkpt lat="49.37976" lon="1.47984">
        <ele>171.39999389648</ele>
        <time>2021-02-26T08:16:12.000Z</time>
      </trkpt>
      <trkpt lat="49.37976" lon="1.47958">
        <ele>171.39999389648</ele>
        <time>2021-02-26T08:16:17.000Z</time>
      </trkpt>
      <trkpt lat="49.37974" lon="1.47938">
        <ele>171.39999389648</ele>
        <time>2021-02-26T08:16:21.000Z</time>
      </trkpt>
      <trkpt lat="49.37974" lon="1.47927">
        <ele>171.39999389648</ele>
        <time>2021-02-26T08:16:23.000Z</time>
      </trkpt>
      <trkpt lat="49.3797" lon="1.47907">
        <ele>171.39999389648</ele>
        <time>2021-02-26T08:16:26.000Z</time>
      </trkpt>
      <trkpt lat="49.37969" lon="1.4788">
        <ele>171.39999389648</ele>
        <time>2021-02-26T08:16:30.000Z</time>
      </trkpt>
      <trkpt lat="49.37968" lon="1.47856">
        <ele>171.19999694824</ele>
        <time>2021-02-26T08:16:33.000Z</time>
      </trkpt>
      <trkpt lat="49.37969" lon="1.47841">
        <ele>171</ele>
        <time>2021-02-26T08:16:35.000Z</time>
      </trkpt>
      <trkpt lat="49.3797" lon="1.47834">
        <ele>171</ele>
        <time>2021-02-26T08:16:36.000Z</time>
      </trkpt>
      <trkpt lat="49.37975" lon="1.47816">
        <ele>170.80000305176</ele>
        <time>2021-02-26T08:16:40.000Z</time>
      </trkpt>
      <trkpt lat="49.37983" lon="1.47811">
        <ele>170.80000305176</ele>
        <time>2021-02-26T08:16:44.000Z</time>
      </trkpt>
      <trkpt lat="49.37987" lon="1.4781">
        <ele>170.80000305176</ele>
        <time>2021-02-26T08:16:45.000Z</time>
      </trkpt>
      <trkpt lat="49.38012" lon="1.47804">
        <ele>171</ele>
        <time>2021-02-26T08:16:51.000Z</time>
      </trkpt>
      <trkpt lat="49.38042" lon="1.47801">
        <ele>171</ele>
        <time>2021-02-26T08:16:57.000Z</time>
      </trkpt>
      <trkpt lat="49.38068" lon="1.47797">
        <ele>171</ele>
        <time>2021-02-26T08:17:02.000Z</time>
      </trkpt>
      <trkpt lat="49.38103" lon="1.47795">
        <ele>170.80000305176</ele>
        <time>2021-02-26T08:17:08.000Z</time>
      </trkpt>
      <trkpt lat="49.38114" lon="1.47793">
        <ele>170.60000610352</ele>
        <time>2021-02-26T08:17:10.000Z</time>
      </trkpt>
      <trkpt lat="49.3813" lon="1.47793">
        <ele>170.19999694824</ele>
        <time>2021-02-26T08:17:13.000Z</time>
      </trkpt>
      <trkpt lat="49.38136" lon="1.47795">
        <ele>170</ele>
        <time>2021-02-26T08:17:14.000Z</time>
      </trkpt>
      <trkpt lat="49.38156" lon="1.47801">
        <ele>169.60000610352</ele>
        <time>2021-02-26T08:17:18.000Z</time>
      </trkpt>
      <trkpt lat="49.38162" lon="1.47802">
        <ele>169.39999389648</ele>
        <time>2021-02-26T08:17:19.000Z</time>
      </trkpt>
      <trkpt lat="49.38173" lon="1.47802">
        <ele>169.19999694824</ele>
        <time>2021-02-26T08:17:21.000Z</time>
      </trkpt>
      <trkpt lat="49.38189" lon="1.47801">
        <ele>168.60000610352</ele>
        <time>2021-02-26T08:17:24.000Z</time>
      </trkpt>
      <trkpt lat="49.38195" lon="1.47802">
        <ele>168.39999389648</ele>
        <time>2021-02-26T08:17:25.000Z</time>
      </trkpt>
      <trkpt lat="49.38212" lon="1.47803">
        <ele>168</ele>
        <time>2021-02-26T08:17:28.000Z</time>
      </trkpt>
      <trkpt lat="49.38224" lon="1.47801">
        <ele>167.80000305176</ele>
        <time>2021-02-26T08:17:30.000Z</time>
      </trkpt>
      <trkpt lat="49.38247" lon="1.47802">
        <ele>167.19999694824</ele>
        <time>2021-02-26T08:17:34.000Z</time>
      </trkpt>
      <trkpt lat="49.38258" lon="1.47803">
        <ele>167</ele>
        <time>2021-02-26T08:17:36.000Z</time>
      </trkpt>
      <trkpt lat="49.38276" lon="1.47804">
        <ele>166.60000610352</ele>
        <time>2021-02-26T08:17:40.000Z</time>
      </trkpt>
      <trkpt lat="49.38281" lon="1.47805">
        <ele>166.39999389648</ele>
        <time>2021-02-26T08:17:41.000Z</time>
      </trkpt>
      <trkpt lat="49.38299" lon="1.47807">
        <ele>166</ele>
        <time>2021-02-26T08:17:45.000Z</time>
      </trkpt>
      <trkpt lat="49.38311" lon="1.47807">
        <ele>165.60000610352</ele>
        <time>2021-02-26T08:17:48.000Z</time>
      </trkpt>
      <trkpt lat="49.38331" lon="1.47806">
        <ele>165</ele>
        <time>2021-02-26T08:17:53.000Z</time>
      </trkpt>
      <trkpt lat="49.38335" lon="1.47805">
        <ele>165</ele>
        <time>2021-02-26T08:17:54.000Z</time>
      </trkpt>
      <trkpt lat="49.38363" lon="1.47805">
        <ele>164.60000610352</ele>
        <time>2021-02-26T08:18:00.000Z</time>
      </trkpt>
      <trkpt lat="49.38399" lon="1.47807">
        <ele>164</ele>
        <time>2021-02-26T08:18:07.000Z</time>
      </trkpt>
      <trkpt lat="49.38404" lon="1.47806">
        <ele>164</ele>
        <time>2021-02-26T08:18:08.000Z</time>
      </trkpt>
      <trkpt lat="49.38416" lon="1.47796">
        <ele>163.39999389648</ele>
        <time>2021-02-26T08:18:11.000Z</time>
      </trkpt>
      <trkpt lat="49.38422" lon="1.47776">
        <ele>163.19999694824</ele>
        <time>2021-02-26T08:18:14.000Z</time>
      </trkpt>
      <trkpt lat="49.38422" lon="1.47759">
        <ele>163.19999694824</ele>
        <time>2021-02-26T08:18:16.000Z</time>
      </trkpt>
      <trkpt lat="49.38422" lon="1.47741">
        <ele>162.80000305176</ele>
        <time>2021-02-26T08:18:18.000Z</time>
      </trkpt>
      <trkpt lat="49.38421" lon="1.47732">
        <ele>162.80000305176</ele>
        <time>2021-02-26T08:18:19.000Z</time>
      </trkpt>
      <trkpt lat="49.38417" lon="1.47664">
        <ele>162</ele>
        <time>2021-02-26T08:18:26.000Z</time>
      </trkpt>
      <trkpt lat="49.38414" lon="1.47635">
        <ele>161.60000610352</ele>
        <time>2021-02-26T08:18:29.000Z</time>
      </trkpt>
      <trkpt lat="49.3841" lon="1.47617">
        <ele>160.39999389648</ele>
        <time>2021-02-26T08:18:31.000Z</time>
      </trkpt>
      <trkpt lat="49.38406" lon="1.47601">
        <ele>159.80000305176</ele>
        <time>2021-02-26T08:18:33.000Z</time>
      </trkpt>
      <trkpt lat="49.38403" lon="1.47594">
        <ele>159.80000305176</ele>
        <time>2021-02-26T08:18:34.000Z</time>
      </trkpt>
      <trkpt lat="49.38395" lon="1.47576">
        <ele>159.19999694824</ele>
        <time>2021-02-26T08:18:37.000Z</time>
      </trkpt>
      <trkpt lat="49.38395" lon="1.47559">
        <ele>159</ele>
        <time>2021-02-26T08:18:40.000Z</time>
      </trkpt>
      <trkpt lat="49.38396" lon="1.47554">
        <ele>159</ele>
        <time>2021-02-26T08:18:41.000Z</time>
      </trkpt>
      <trkpt lat="49.38399" lon="1.47533">
        <ele>159</ele>
        <time>2021-02-26T08:18:45.000Z</time>
      </trkpt>
      <trkpt lat="49.38399" lon="1.47515">
        <ele>159</ele>
        <time>2021-02-26T08:18:48.000Z</time>
      </trkpt>
      <trkpt lat="49.38398" lon="1.47509">
        <ele>159.19999694824</ele>
        <time>2021-02-26T08:18:49.000Z</time>
      </trkpt>
      <trkpt lat="49.38392" lon="1.47463">
        <ele>160</ele>
        <time>2021-02-26T08:18:56.000Z</time>
      </trkpt>
      <trkpt lat="49.38392" lon="1.47456">
        <ele>160</ele>
        <time>2021-02-26T08:18:57.000Z</time>
      </trkpt>
      <trkpt lat="49.38391" lon="1.47433">
        <ele>160.19999694824</ele>
        <time>2021-02-26T08:19:00.000Z</time>
      </trkpt>
      <trkpt lat="49.38389" lon="1.4741">
        <ele>160.39999389648</ele>
        <time>2021-02-26T08:19:03.000Z</time>
      </trkpt>
      <trkpt lat="49.38389" lon="1.47393">
        <ele>160.39999389648</ele>
        <time>2021-02-26T08:19:05.000Z</time>
      </trkpt>
      <trkpt lat="49.38388" lon="1.47361">
        <ele>160.60000610352</ele>
        <time>2021-02-26T08:19:09.000Z</time>
      </trkpt>
      <trkpt lat="49.38387" lon="1.47354">
        <ele>160.60000610352</ele>
        <time>2021-02-26T08:19:10.000Z</time>
      </trkpt>
      <trkpt lat="49.38387" lon="1.47346">
        <ele>160.60000610352</ele>
        <time>2021-02-26T08:19:11.000Z</time>
      </trkpt>
      <trkpt lat="49.38383" lon="1.47323">
        <ele>160.80000305176</ele>
        <time>2021-02-26T08:19:14.000Z</time>
      </trkpt>
      <trkpt lat="49.38384" lon="1.47316">
        <ele>160.80000305176</ele>
        <time>2021-02-26T08:19:15.000Z</time>
      </trkpt>
      <trkpt lat="49.38385" lon="1.47296">
        <ele>161</ele>
        <time>2021-02-26T08:19:18.000Z</time>
      </trkpt>
      <trkpt lat="49.38383" lon="1.47283">
        <ele>161</ele>
        <time>2021-02-26T08:19:20.000Z</time>
      </trkpt>
      <trkpt lat="49.38381" lon="1.47257">
        <ele>161</ele>
        <time>2021-02-26T08:19:24.000Z</time>
      </trkpt>
      <trkpt lat="49.38381" lon="1.4725">
        <ele>161</ele>
        <time>2021-02-26T08:19:25.000Z</time>
      </trkpt>
      <trkpt lat="49.38382" lon="1.47219">
        <ele>161</ele>
        <time>2021-02-26T08:19:30.000Z</time>
      </trkpt>
      <trkpt lat="49.38381" lon="1.47173">
        <ele>160.80000305176</ele>
        <time>2021-02-26T08:19:37.000Z</time>
      </trkpt>
      <trkpt lat="49.38381" lon="1.47165">
        <ele>160.80000305176</ele>
        <time>2021-02-26T08:19:38.000Z</time>
      </trkpt>
      <trkpt lat="49.38379" lon="1.47137">
        <ele>160.80000305176</ele>
        <time>2021-02-26T08:19:42.000Z</time>
      </trkpt>
      <trkpt lat="49.3838" lon="1.47127">
        <ele>160.80000305176</ele>
        <time>2021-02-26T08:19:44.000Z</time>
      </trkpt>
      <trkpt lat="49.3838" lon="1.47123">
        <ele>160.80000305176</ele>
        <time>2021-02-26T08:19:45.000Z</time>
      </trkpt>
      <trkpt lat="49.3839" lon="1.47106">
        <ele>161</ele>
        <time>2021-02-26T08:19:50.000Z</time>
      </trkpt>
      <trkpt lat="49.38411" lon="1.47079">
        <ele>161.19999694824</ele>
        <time>2021-02-26T08:19:57.000Z</time>
      </trkpt>
      <trkpt lat="49.38416" lon="1.47073">
        <ele>161.19999694824</ele>
        <time>2021-02-26T08:19:59.000Z</time>
      </trkpt>
      <trkpt lat="49.38426" lon="1.4706">
        <ele>161.60000610352</ele>
        <time>2021-02-26T08:20:03.000Z</time>
      </trkpt>
      <trkpt lat="49.38436" lon="1.47048">
        <ele>162.39999389648</ele>
        <time>2021-02-26T08:20:07.000Z</time>
      </trkpt>
      <trkpt lat="49.38446" lon="1.47034">
        <ele>163.39999389648</ele>
        <time>2021-02-26T08:20:11.000Z</time>
      </trkpt>
      <trkpt lat="49.38449" lon="1.4703">
        <ele>163.39999389648</ele>
        <time>2021-02-26T08:20:12.000Z</time>
      </trkpt>
      <trkpt lat="49.38464" lon="1.47009">
        <ele>164.39999389648</ele>
        <time>2021-02-26T08:20:18.000Z</time>
      </trkpt>
      <trkpt lat="49.38479" lon="1.46985">
        <ele>165.19999694824</ele>
        <time>2021-02-26T08:20:25.000Z</time>
      </trkpt>
      <trkpt lat="49.38484" lon="1.46976">
        <ele>165.60000610352</ele>
        <time>2021-02-26T08:20:28.000Z</time>
      </trkpt>
      <trkpt lat="49.3849" lon="1.46965">
        <ele>165.80000305176</ele>
        <time>2021-02-26T08:20:31.000Z</time>
      </trkpt>
      <trkpt lat="49.38492" lon="1.46943">
        <ele>166.19999694824</ele>
        <time>2021-02-26T08:20:35.000Z</time>
      </trkpt>
      <trkpt lat="49.38496" lon="1.46896">
        <ele>166.19999694824</ele>
        <time>2021-02-26T08:20:42.000Z</time>
      </trkpt>
      <trkpt lat="49.38499" lon="1.4687">
        <ele>166.19999694824</ele>
        <time>2021-02-26T08:20:46.000Z</time>
      </trkpt>
      <trkpt lat="49.38501" lon="1.4685">
        <ele>166.19999694824</ele>
        <time>2021-02-26T08:20:49.000Z</time>
      </trkpt>
      <trkpt lat="49.38505" lon="1.4681">
        <ele>166.39999389648</ele>
        <time>2021-02-26T08:20:55.000Z</time>
      </trkpt>
      <trkpt lat="49.38506" lon="1.46803">
        <ele>166.39999389648</ele>
        <time>2021-02-26T08:20:56.000Z</time>
      </trkpt>
      <trkpt lat="49.3851" lon="1.46769">
        <ele>166.80000305176</ele>
        <time>2021-02-26T08:21:01.000Z</time>
      </trkpt>
      <trkpt lat="49.38516" lon="1.46706">
        <ele>167.39999389648</ele>
        <time>2021-02-26T08:21:10.000Z</time>
      </trkpt>
      <trkpt lat="49.38517" lon="1.46698">
        <ele>167.39999389648</ele>
        <time>2021-02-26T08:21:11.000Z</time>
      </trkpt>
      <trkpt lat="49.38523" lon="1.46655">
        <ele>168</ele>
        <time>2021-02-26T08:21:17.000Z</time>
      </trkpt>
      <trkpt lat="49.38533" lon="1.4661">
        <ele>168.19999694824</ele>
        <time>2021-02-26T08:21:23.000Z</time>
      </trkpt>
      <trkpt lat="49.38538" lon="1.46597">
        <ele>168.19999694824</ele>
        <time>2021-02-26T08:21:25.000Z</time>
      </trkpt>
      <trkpt lat="49.38552" lon="1.46556">
        <ele>168.19999694824</ele>
        <time>2021-02-26T08:21:31.000Z</time>
      </trkpt>
      <trkpt lat="49.38576" lon="1.46494">
        <ele>168.39999389648</ele>
        <time>2021-02-26T08:21:40.000Z</time>
      </trkpt>
      <trkpt lat="49.3859" lon="1.46457">
        <ele>168.39999389648</ele>
        <time>2021-02-26T08:21:45.000Z</time>
      </trkpt>
      <trkpt lat="49.38599" lon="1.46434">
        <ele>168.19999694824</ele>
        <time>2021-02-26T08:21:48.000Z</time>
      </trkpt>
      <trkpt lat="49.38617" lon="1.46386">
        <ele>167.39999389648</ele>
        <time>2021-02-26T08:21:54.000Z</time>
      </trkpt>
      <trkpt lat="49.3862" lon="1.46377">
        <ele>167.19999694824</ele>
        <time>2021-02-26T08:21:55.000Z</time>
      </trkpt>
      <trkpt lat="49.38636" lon="1.46335">
        <ele>166.60000610352</ele>
        <time>2021-02-26T08:22:00.000Z</time>
      </trkpt>
      <trkpt lat="49.38642" lon="1.46317">
        <ele>166.19999694824</ele>
        <time>2021-02-26T08:22:02.000Z</time>
      </trkpt>
      <trkpt lat="49.38656" lon="1.46279">
        <ele>165.39999389648</ele>
        <time>2021-02-26T08:22:06.000Z</time>
      </trkpt>
      <trkpt lat="49.38659" lon="1.4627">
        <ele>165.19999694824</ele>
        <time>2021-02-26T08:22:07.000Z</time>
      </trkpt>
      <trkpt lat="49.38666" lon="1.46251">
        <ele>164.19999694824</ele>
        <time>2021-02-26T08:22:09.000Z</time>
      </trkpt>
      <trkpt lat="49.38679" lon="1.46213">
        <ele>162.60000610352</ele>
        <time>2021-02-26T08:22:13.000Z</time>
      </trkpt>
      <trkpt lat="49.38682" lon="1.46202">
        <ele>162</ele>
        <time>2021-02-26T08:22:14.000Z</time>
      </trkpt>
      <trkpt lat="49.38685" lon="1.4618">
        <ele>161.39999389648</ele>
        <time>2021-02-26T08:22:16.000Z</time>
      </trkpt>
      <trkpt lat="49.38685" lon="1.46157">
        <ele>160.80000305176</ele>
        <time>2021-02-26T08:22:18.000Z</time>
      </trkpt>
      <trkpt lat="49.38684" lon="1.46145">
        <ele>160.60000610352</ele>
        <time>2021-02-26T08:22:19.000Z</time>
      </trkpt>
      <trkpt lat="49.38683" lon="1.46134">
        <ele>160.19999694824</ele>
        <time>2021-02-26T08:22:20.000Z</time>
      </trkpt>
      <trkpt lat="49.38679" lon="1.46101">
        <ele>158.80000305176</ele>
        <time>2021-02-26T08:22:23.000Z</time>
      </trkpt>
      <trkpt lat="49.38676" lon="1.4609">
        <ele>158.60000610352</ele>
        <time>2021-02-26T08:22:24.000Z</time>
      </trkpt>
      <trkpt lat="49.38668" lon="1.46058">
        <ele>157.80000305176</ele>
        <time>2021-02-26T08:22:27.000Z</time>
      </trkpt>
      <trkpt lat="49.38655" lon="1.46014">
        <ele>156.60000610352</ele>
        <time>2021-02-26T08:22:31.000Z</time>
      </trkpt>
      <trkpt lat="49.38642" lon="1.45967">
        <ele>155.60000610352</ele>
        <time>2021-02-26T08:22:35.000Z</time>
      </trkpt>
      <trkpt lat="49.38635" lon="1.45942">
        <ele>154</ele>
        <time>2021-02-26T08:22:37.000Z</time>
      </trkpt>
      <trkpt lat="49.38632" lon="1.4593">
        <ele>153.60000610352</ele>
        <time>2021-02-26T08:22:38.000Z</time>
      </trkpt>
      <trkpt lat="49.38624" lon="1.45904">
        <ele>152.60000610352</ele>
        <time>2021-02-26T08:22:40.000Z</time>
      </trkpt>
      <trkpt lat="49.38617" lon="1.45878">
        <ele>151.19999694824</ele>
        <time>2021-02-26T08:22:42.000Z</time>
      </trkpt>
      <trkpt lat="49.38611" lon="1.45852">
        <ele>149.80000305176</ele>
        <time>2021-02-26T08:22:44.000Z</time>
      </trkpt>
      <trkpt lat="49.38608" lon="1.4583">
        <ele>148</ele>
        <time>2021-02-26T08:22:46.000Z</time>
      </trkpt>
      <trkpt lat="49.38608" lon="1.45822">
        <ele>147.19999694824</ele>
        <time>2021-02-26T08:22:47.000Z</time>
      </trkpt>
      <trkpt lat="49.38608" lon="1.45815">
        <ele>146.39999389648</ele>
        <time>2021-02-26T08:22:48.000Z</time>
      </trkpt>
      <trkpt lat="49.3861" lon="1.458">
        <ele>145</ele>
        <time>2021-02-26T08:22:50.000Z</time>
      </trkpt>
      <trkpt lat="49.38611" lon="1.45785">
        <ele>143.39999389648</ele>
        <time>2021-02-26T08:22:52.000Z</time>
      </trkpt>
      <trkpt lat="49.38613" lon="1.45777">
        <ele>143.19999694824</ele>
        <time>2021-02-26T08:22:53.000Z</time>
      </trkpt>
      <trkpt lat="49.38617" lon="1.45752">
        <ele>142.39999389648</ele>
        <time>2021-02-26T08:22:57.000Z</time>
      </trkpt>
      <trkpt lat="49.38617" lon="1.45746">
        <ele>142.19999694824</ele>
        <time>2021-02-26T08:22:58.000Z</time>
      </trkpt>
      <trkpt lat="49.38618" lon="1.4574">
        <ele>142</ele>
        <time>2021-02-26T08:22:59.000Z</time>
      </trkpt>
      <trkpt lat="49.38621" lon="1.45727">
        <ele>141.19999694824</ele>
        <time>2021-02-26T08:23:01.000Z</time>
      </trkpt>
      <trkpt lat="49.38622" lon="1.45722">
        <ele>140.60000610352</ele>
        <time>2021-02-26T08:23:02.000Z</time>
      </trkpt>
      <trkpt lat="49.38626" lon="1.45716">
        <ele>139.80000305176</ele>
        <time>2021-02-26T08:23:04.000Z</time>
      </trkpt>
      <trkpt lat="49.38628" lon="1.45716">
        <ele>139.60000610352</ele>
        <time>2021-02-26T08:23:05.000Z</time>
      </trkpt>
      <trkpt lat="49.38633" lon="1.45721">
        <ele>138.60000610352</ele>
        <time>2021-02-26T08:23:07.000Z</time>
      </trkpt>
      <trkpt lat="49.38635" lon="1.45726">
        <ele>138.19999694824</ele>
        <time>2021-02-26T08:23:08.000Z</time>
      </trkpt>
      <trkpt lat="49.38642" lon="1.45746">
        <ele>137.60000610352</ele>
        <time>2021-02-26T08:23:11.000Z</time>
      </trkpt>
      <trkpt lat="49.38646" lon="1.45754">
        <ele>137.60000610352</ele>
        <time>2021-02-26T08:23:12.000Z</time>
      </trkpt>
      <trkpt lat="49.3866" lon="1.45786">
        <ele>136.39999389648</ele>
        <time>2021-02-26T08:23:16.000Z</time>
      </trkpt>
      <trkpt lat="49.38664" lon="1.45797">
        <ele>135.39999389648</ele>
        <time>2021-02-26T08:23:19.000Z</time>
      </trkpt>
      <trkpt lat="49.38665" lon="1.45799">
        <ele>135.39999389648</ele>
        <time>2021-02-26T08:23:20.000Z</time>
      </trkpt>
      <trkpt lat="49.38671" lon="1.45809">
        <ele>135</ele>
        <time>2021-02-26T08:23:25.000Z</time>
      </trkpt>
      <trkpt lat="49.38675" lon="1.4582">
        <ele>136.60000610352</ele>
        <time>2021-02-26T08:23:30.000Z</time>
      </trkpt>
      <trkpt lat="49.38678" lon="1.45824">
        <ele>137.39999389648</ele>
        <time>2021-02-26T08:23:32.000Z</time>
      </trkpt>
      <trkpt lat="49.38679" lon="1.45827">
        <ele>137.80000305176</ele>
        <time>2021-02-26T08:23:33.000Z</time>
      </trkpt>
      <trkpt lat="49.38681" lon="1.45832">
        <ele>139.19999694824</ele>
        <time>2021-02-26T08:23:35.000Z</time>
      </trkpt>
      <trkpt lat="49.38684" lon="1.45837">
        <ele>140.39999389648</ele>
        <time>2021-02-26T08:23:37.000Z</time>
      </trkpt>
      <trkpt lat="49.38687" lon="1.45844">
        <ele>141.39999389648</ele>
        <time>2021-02-26T08:23:40.000Z</time>
      </trkpt>
      <trkpt lat="49.38688" lon="1.45847">
        <ele>141.80000305176</ele>
        <time>2021-02-26T08:23:41.000Z</time>
      </trkpt>
      <trkpt lat="49.38689" lon="1.45851">
        <ele>142.60000610352</ele>
        <time>2021-02-26T08:23:43.000Z</time>
      </trkpt>
      <trkpt lat="49.38693" lon="1.4586">
        <ele>143.80000305176</ele>
        <time>2021-02-26T08:23:46.000Z</time>
      </trkpt>
      <trkpt lat="49.38696" lon="1.45865">
        <ele>144.60000610352</ele>
        <time>2021-02-26T08:23:48.000Z</time>
      </trkpt>
      <trkpt lat="49.38697" lon="1.45868">
        <ele>145</ele>
        <time>2021-02-26T08:23:49.000Z</time>
      </trkpt>
      <trkpt lat="49.387" lon="1.45875">
        <ele>146.19999694824</ele>
        <time>2021-02-26T08:23:52.000Z</time>
      </trkpt>
      <trkpt lat="49.38702" lon="1.45882">
        <ele>147.19999694824</ele>
        <time>2021-02-26T08:23:55.000Z</time>
      </trkpt>
      <trkpt lat="49.38703" lon="1.45884">
        <ele>147.39999389648</ele>
        <time>2021-02-26T08:23:56.000Z</time>
      </trkpt>
      <trkpt lat="49.38706" lon="1.4589">
        <ele>148.19999694824</ele>
        <time>2021-02-26T08:23:59.000Z</time>
      </trkpt>
      <trkpt lat="49.38711" lon="1.45901">
        <ele>149.19999694824</ele>
        <time>2021-02-26T08:24:04.000Z</time>
      </trkpt>
      <trkpt lat="49.38711" lon="1.45902">
        <ele>149.39999389648</ele>
        <time>2021-02-26T08:24:05.000Z</time>
      </trkpt>
      <trkpt lat="49.38714" lon="1.45909">
        <ele>150.39999389648</ele>
        <time>2021-02-26T08:24:08.000Z</time>
      </trkpt>
      <trkpt lat="49.38719" lon="1.4592">
        <ele>151.60000610352</ele>
        <time>2021-02-26T08:24:13.000Z</time>
      </trkpt>
      <trkpt lat="49.3872" lon="1.45923">
        <ele>151.80000305176</ele>
        <time>2021-02-26T08:24:14.000Z</time>
      </trkpt>
      <trkpt lat="49.38723" lon="1.4593">
        <ele>152.60000610352</ele>
        <time>2021-02-26T08:24:17.000Z</time>
      </trkpt>
      <trkpt lat="49.38728" lon="1.45942">
        <ele>153.39999389648</ele>
        <time>2021-02-26T08:24:22.000Z</time>
      </trkpt>
      <trkpt lat="49.38729" lon="1.45944">
        <ele>153.39999389648</ele>
        <time>2021-02-26T08:24:23.000Z</time>
      </trkpt>
      <trkpt lat="49.38736" lon="1.45961">
        <ele>154.39999389648</ele>
        <time>2021-02-26T08:24:29.000Z</time>
      </trkpt>
      <trkpt lat="49.38737" lon="1.45964">
        <ele>154.60000610352</ele>
        <time>2021-02-26T08:24:30.000Z</time>
      </trkpt>
      <trkpt lat="49.38746" lon="1.45985">
        <ele>155.39999389648</ele>
        <time>2021-02-26T08:24:36.000Z</time>
      </trkpt>
      <trkpt lat="49.38748" lon="1.45989">
        <ele>155.80000305176</ele>
        <time>2021-02-26T08:24:37.000Z</time>
      </trkpt>
      <trkpt lat="49.38759" lon="1.46014">
        <ele>156.80000305176</ele>
        <time>2021-02-26T08:24:44.000Z</time>
      </trkpt>
      <trkpt lat="49.38774" lon="1.4605">
        <ele>158</ele>
        <time>2021-02-26T08:24:53.000Z</time>
      </trkpt>
      <trkpt lat="49.38777" lon="1.46059">
        <ele>158</ele>
        <time>2021-02-26T08:24:55.000Z</time>
      </trkpt>
      <trkpt lat="49.38789" lon="1.46085">
        <ele>158.39999389648</ele>
        <time>2021-02-26T08:25:01.000Z</time>
      </trkpt>
      <trkpt lat="49.38797" lon="1.46103">
        <ele>158.80000305176</ele>
        <time>2021-02-26T08:25:05.000Z</time>
      </trkpt>
      <trkpt lat="49.38802" lon="1.46116">
        <ele>158.80000305176</ele>
        <time>2021-02-26T08:25:08.000Z</time>
      </trkpt>
      <trkpt lat="49.38817" lon="1.46151">
        <ele>159.80000305176</ele>
        <time>2021-02-26T08:25:15.000Z</time>
      </trkpt>
      <trkpt lat="49.38834" lon="1.46192">
        <ele>160.60000610352</ele>
        <time>2021-02-26T08:25:23.000Z</time>
      </trkpt>
      <trkpt lat="49.38836" lon="1.46198">
        <ele>160.60000610352</ele>
        <time>2021-02-26T08:25:24.000Z</time>
      </trkpt>
      <trkpt lat="49.38846" lon="1.46219">
        <ele>160.80000305176</ele>
        <time>2021-02-26T08:25:28.000Z</time>
      </trkpt>
      <trkpt lat="49.38848" lon="1.46225">
        <ele>161</ele>
        <time>2021-02-26T08:25:29.000Z</time>
      </trkpt>
      <trkpt lat="49.38865" lon="1.46267">
        <ele>161</ele>
        <time>2021-02-26T08:25:36.000Z</time>
      </trkpt>
      <trkpt lat="49.38882" lon="1.46308">
        <ele>161.19999694824</ele>
        <time>2021-02-26T08:25:43.000Z</time>
      </trkpt>
      <trkpt lat="49.38885" lon="1.46314">
        <ele>161.19999694824</ele>
        <time>2021-02-26T08:25:44.000Z</time>
      </trkpt>
      <trkpt lat="49.38892" lon="1.46332">
        <ele>161.39999389648</ele>
        <time>2021-02-26T08:25:47.000Z</time>
      </trkpt>
      <trkpt lat="49.38898" lon="1.46344">
        <ele>161.39999389648</ele>
        <time>2021-02-26T08:25:49.000Z</time>
      </trkpt>
      <trkpt lat="49.38914" lon="1.46382">
        <ele>161.39999389648</ele>
        <time>2021-02-26T08:25:55.000Z</time>
      </trkpt>
      <trkpt lat="49.38917" lon="1.46385">
        <ele>161.39999389648</ele>
        <time>2021-02-26T08:25:56.000Z</time>
      </trkpt>
      <trkpt lat="49.3893" lon="1.46382">
        <ele>161.39999389648</ele>
        <time>2021-02-26T08:25:59.000Z</time>
      </trkpt>
      <trkpt lat="49.38934" lon="1.46379">
        <ele>161.39999389648</ele>
        <time>2021-02-26T08:26:00.000Z</time>
      </trkpt>
      <trkpt lat="49.38948" lon="1.4637">
        <ele>161.19999694824</ele>
        <time>2021-02-26T08:26:03.000Z</time>
      </trkpt>
      <trkpt lat="49.38957" lon="1.46362">
        <ele>161</ele>
        <time>2021-02-26T08:26:05.000Z</time>
      </trkpt>
      <trkpt lat="49.38962" lon="1.46357">
        <ele>161</ele>
        <time>2021-02-26T08:26:06.000Z</time>
      </trkpt>
      <trkpt lat="49.38972" lon="1.46349">
        <ele>160.39999389648</ele>
        <time>2021-02-26T08:26:08.000Z</time>
      </trkpt>
      <trkpt lat="49.38976" lon="1.46348">
        <ele>160</ele>
        <time>2021-02-26T08:26:09.000Z</time>
      </trkpt>
      <trkpt lat="49.38987" lon="1.46358">
        <ele>159.60000610352</ele>
        <time>2021-02-26T08:26:12.000Z</time>
      </trkpt>
      <trkpt lat="49.38996" lon="1.46368">
        <ele>159.19999694824</ele>
        <time>2021-02-26T08:26:14.000Z</time>
      </trkpt>
      <trkpt lat="49.39001" lon="1.46374">
        <ele>158.80000305176</ele>
        <time>2021-02-26T08:26:15.000Z</time>
      </trkpt>
      <trkpt lat="49.39007" lon="1.46378">
        <ele>158.39999389648</ele>
        <time>2021-02-26T08:26:16.000Z</time>
      </trkpt>
      <trkpt lat="49.39013" lon="1.46383">
        <ele>158.19999694824</ele>
        <time>2021-02-26T08:26:17.000Z</time>
      </trkpt>
      <trkpt lat="49.3903" lon="1.46397">
        <ele>157</ele>
        <time>2021-02-26T08:26:20.000Z</time>
      </trkpt>
      <trkpt lat="49.39034" lon="1.46403">
        <ele>156.39999389648</ele>
        <time>2021-02-26T08:26:21.000Z</time>
      </trkpt>
      <trkpt lat="49.39039" lon="1.4641">
        <ele>156</ele>
        <time>2021-02-26T08:26:22.000Z</time>
      </trkpt>
      <trkpt lat="49.3905" lon="1.46435">
        <ele>153.80000305176</ele>
        <time>2021-02-26T08:26:25.000Z</time>
      </trkpt>
      <trkpt lat="49.39055" lon="1.46455">
        <ele>152.60000610352</ele>
        <time>2021-02-26T08:26:27.000Z</time>
      </trkpt>
      <trkpt lat="49.39058" lon="1.46472">
        <ele>151.19999694824</ele>
        <time>2021-02-26T08:26:29.000Z</time>
      </trkpt>
      <trkpt lat="49.39059" lon="1.4648">
        <ele>150.80000305176</ele>
        <time>2021-02-26T08:26:30.000Z</time>
      </trkpt>
      <trkpt lat="49.39057" lon="1.46506">
        <ele>150.39999389648</ele>
        <time>2021-02-26T08:26:34.000Z</time>
      </trkpt>
      <trkpt lat="49.39057" lon="1.46513">
        <ele>150.39999389648</ele>
        <time>2021-02-26T08:26:35.000Z</time>
      </trkpt>
      <trkpt lat="49.3906" lon="1.46534">
        <ele>150.39999389648</ele>
        <time>2021-02-26T08:26:38.000Z</time>
      </trkpt>
      <trkpt lat="49.39062" lon="1.4654">
        <ele>150.60000610352</ele>
        <time>2021-02-26T08:26:39.000Z</time>
      </trkpt>
      <trkpt lat="49.39065" lon="1.46546">
        <ele>151</ele>
        <time>2021-02-26T08:26:40.000Z</time>
      </trkpt>
      <trkpt lat="49.39071" lon="1.46559">
        <ele>152</ele>
        <time>2021-02-26T08:26:42.000Z</time>
      </trkpt>
      <trkpt lat="49.39075" lon="1.46566">
        <ele>152.39999389648</ele>
        <time>2021-02-26T08:26:43.000Z</time>
      </trkpt>
      <trkpt lat="49.39086" lon="1.46598">
        <ele>152.80000305176</ele>
        <time>2021-02-26T08:26:47.000Z</time>
      </trkpt>
      <trkpt lat="49.3909" lon="1.46613">
        <ele>152.80000305176</ele>
        <time>2021-02-26T08:26:49.000Z</time>
      </trkpt>
      <trkpt lat="49.39093" lon="1.46637">
        <ele>152.80000305176</ele>
        <time>2021-02-26T08:26:52.000Z</time>
      </trkpt>
      <trkpt lat="49.39094" lon="1.46645">
        <ele>152.80000305176</ele>
        <time>2021-02-26T08:26:53.000Z</time>
      </trkpt>
      <trkpt lat="49.39096" lon="1.46679">
        <ele>152.80000305176</ele>
        <time>2021-02-26T08:26:58.000Z</time>
      </trkpt>
      <trkpt lat="49.39098" lon="1.46687">
        <ele>152.80000305176</ele>
        <time>2021-02-26T08:26:59.000Z</time>
      </trkpt>
      <trkpt lat="49.39106" lon="1.46718">
        <ele>153</ele>
        <time>2021-02-26T08:27:03.000Z</time>
      </trkpt>
      <trkpt lat="49.39105" lon="1.46751">
        <ele>153.19999694824</ele>
        <time>2021-02-26T08:27:07.000Z</time>
      </trkpt>
      <trkpt lat="49.39106" lon="1.46774">
        <ele>153.19999694824</ele>
        <time>2021-02-26T08:27:10.000Z</time>
      </trkpt>
      <trkpt lat="49.39108" lon="1.46782">
        <ele>153.39999389648</ele>
        <time>2021-02-26T08:27:11.000Z</time>
      </trkpt>
      <trkpt lat="49.39111" lon="1.46807">
        <ele>153.39999389648</ele>
        <time>2021-02-26T08:27:14.000Z</time>
      </trkpt>
      <trkpt lat="49.39111" lon="1.46815">
        <ele>153.39999389648</ele>
        <time>2021-02-26T08:27:15.000Z</time>
      </trkpt>
      <trkpt lat="49.39109" lon="1.4685">
        <ele>153.39999389648</ele>
        <time>2021-02-26T08:27:19.000Z</time>
      </trkpt>
      <trkpt lat="49.39107" lon="1.46866">
        <ele>153.39999389648</ele>
        <time>2021-02-26T08:27:21.000Z</time>
      </trkpt>
      <trkpt lat="49.391" lon="1.46899">
        <ele>152.60000610352</ele>
        <time>2021-02-26T08:27:26.000Z</time>
      </trkpt>
      <trkpt lat="49.391" lon="1.46904">
        <ele>152.39999389648</ele>
        <time>2021-02-26T08:27:27.000Z</time>
      </trkpt>
      <trkpt lat="49.39101" lon="1.46911">
        <ele>152.19999694824</ele>
        <time>2021-02-26T08:27:29.000Z</time>
      </trkpt>
      <trkpt lat="49.39106" lon="1.46912">
        <ele>151</ele>
        <time>2021-02-26T08:27:32.000Z</time>
      </trkpt>
      <trkpt lat="49.39111" lon="1.46911">
        <ele>150</ele>
        <time>2021-02-26T08:27:34.000Z</time>
      </trkpt>
      <trkpt lat="49.39114" lon="1.4691">
        <ele>149.80000305176</ele>
        <time>2021-02-26T08:27:35.000Z</time>
      </trkpt>
      <trkpt lat="49.39128" lon="1.46908">
        <ele>149.39999389648</ele>
        <time>2021-02-26T08:27:39.000Z</time>
      </trkpt>
      <trkpt lat="49.39143" lon="1.46907">
        <ele>148.80000305176</ele>
        <time>2021-02-26T08:27:43.000Z</time>
      </trkpt>
      <trkpt lat="49.39153" lon="1.46907">
        <ele>148.39999389648</ele>
        <time>2021-02-26T08:27:45.000Z</time>
      </trkpt>
      <trkpt lat="49.39163" lon="1.46907">
        <ele>148</ele>
        <time>2021-02-26T08:27:47.000Z</time>
      </trkpt>
      <trkpt lat="49.39167" lon="1.46908">
        <ele>147.60000610352</ele>
        <time>2021-02-26T08:27:48.000Z</time>
      </trkpt>
      <trkpt lat="49.39177" lon="1.46909">
        <ele>147.19999694824</ele>
        <time>2021-02-26T08:27:50.000Z</time>
      </trkpt>
      <trkpt lat="49.39182" lon="1.46909">
        <ele>146.60000610352</ele>
        <time>2021-02-26T08:27:51.000Z</time>
      </trkpt>
      <trkpt lat="49.39198" lon="1.46908">
        <ele>145.19999694824</ele>
        <time>2021-02-26T08:27:54.000Z</time>
      </trkpt>
      <trkpt lat="49.39203" lon="1.46906">
        <ele>144.60000610352</ele>
        <time>2021-02-26T08:27:55.000Z</time>
      </trkpt>
      <trkpt lat="49.39213" lon="1.46905">
        <ele>143.80000305176</ele>
        <time>2021-02-26T08:27:57.000Z</time>
      </trkpt>
      <trkpt lat="49.39219" lon="1.46904">
        <ele>143.39999389648</ele>
        <time>2021-02-26T08:27:58.000Z</time>
      </trkpt>
      <trkpt lat="49.39231" lon="1.46902">
        <ele>142.60000610352</ele>
        <time>2021-02-26T08:28:00.000Z</time>
      </trkpt>
      <trkpt lat="49.3925" lon="1.469">
        <ele>141.60000610352</ele>
        <time>2021-02-26T08:28:03.000Z</time>
      </trkpt>
      <trkpt lat="49.39262" lon="1.46898">
        <ele>140.39999389648</ele>
        <time>2021-02-26T08:28:05.000Z</time>
      </trkpt>
      <trkpt lat="49.39268" lon="1.46897">
        <ele>140</ele>
        <time>2021-02-26T08:28:06.000Z</time>
      </trkpt>
      <trkpt lat="49.39274" lon="1.46897">
        <ele>139.39999389648</ele>
        <time>2021-02-26T08:28:07.000Z</time>
      </trkpt>
      <trkpt lat="49.39284" lon="1.46894">
        <ele>138.39999389648</ele>
        <time>2021-02-26T08:28:09.000Z</time>
      </trkpt>
      <trkpt lat="49.39289" lon="1.46891">
        <ele>138</ele>
        <time>2021-02-26T08:28:10.000Z</time>
      </trkpt>
      <trkpt lat="49.39297" lon="1.46884">
        <ele>136.80000305176</ele>
        <time>2021-02-26T08:28:12.000Z</time>
      </trkpt>
      <trkpt lat="49.39305" lon="1.4688">
        <ele>135.60000610352</ele>
        <time>2021-02-26T08:28:14.000Z</time>
      </trkpt>
      <trkpt lat="49.39314" lon="1.4688">
        <ele>134.39999389648</ele>
        <time>2021-02-26T08:28:16.000Z</time>
      </trkpt>
      <trkpt lat="49.39323" lon="1.46879">
        <ele>133.39999389648</ele>
        <time>2021-02-26T08:28:18.000Z</time>
      </trkpt>
      <trkpt lat="49.39328" lon="1.46878">
        <ele>132.39999389648</ele>
        <time>2021-02-26T08:28:19.000Z</time>
      </trkpt>
      <trkpt lat="49.39332" lon="1.46879">
        <ele>132.19999694824</ele>
        <time>2021-02-26T08:28:20.000Z</time>
      </trkpt>
      <trkpt lat="49.39346" lon="1.46887">
        <ele>131</ele>
        <time>2021-02-26T08:28:23.000Z</time>
      </trkpt>
      <trkpt lat="49.39349" lon="1.4689">
        <ele>130.60000610352</ele>
        <time>2021-02-26T08:28:24.000Z</time>
      </trkpt>
      <trkpt lat="49.39353" lon="1.46901">
        <ele>129.60000610352</ele>
        <time>2021-02-26T08:28:26.000Z</time>
      </trkpt>
      <trkpt lat="49.39355" lon="1.46916">
        <ele>128.19999694824</ele>
        <time>2021-02-26T08:28:28.000Z</time>
      </trkpt>
      <trkpt lat="49.39356" lon="1.46922">
        <ele>127.19999694824</ele>
        <time>2021-02-26T08:28:29.000Z</time>
      </trkpt>
      <trkpt lat="49.39358" lon="1.46929">
        <ele>126</ele>
        <time>2021-02-26T08:28:30.000Z</time>
      </trkpt>
      <trkpt lat="49.3936" lon="1.46937">
        <ele>124.80000305176</ele>
        <time>2021-02-26T08:28:31.000Z</time>
      </trkpt>
      <trkpt lat="49.39362" lon="1.46945">
        <ele>123.80000305176</ele>
        <time>2021-02-26T08:28:32.000Z</time>
      </trkpt>
      <trkpt lat="49.39365" lon="1.46952">
        <ele>122.59999847412</ele>
        <time>2021-02-26T08:28:33.000Z</time>
      </trkpt>
      <trkpt lat="49.39368" lon="1.46959">
        <ele>121.40000152588</ele>
        <time>2021-02-26T08:28:34.000Z</time>
      </trkpt>
      <trkpt lat="49.39371" lon="1.46964">
        <ele>120.40000152588</ele>
        <time>2021-02-26T08:28:35.000Z</time>
      </trkpt>
      <trkpt lat="49.39374" lon="1.4697">
        <ele>119.80000305176</ele>
        <time>2021-02-26T08:28:36.000Z</time>
      </trkpt>
      <trkpt lat="49.39375" lon="1.46976">
        <ele>119.40000152588</ele>
        <time>2021-02-26T08:28:37.000Z</time>
      </trkpt>
      <trkpt lat="49.39377" lon="1.46987">
        <ele>118.19999694824</ele>
        <time>2021-02-26T08:28:39.000Z</time>
      </trkpt>
      <trkpt lat="49.3938" lon="1.46997">
        <ele>116.40000152588</ele>
        <time>2021-02-26T08:28:41.000Z</time>
      </trkpt>
      <trkpt lat="49.39382" lon="1.47001">
        <ele>115.40000152588</ele>
        <time>2021-02-26T08:28:42.000Z</time>
      </trkpt>
      <trkpt lat="49.39384" lon="1.47005">
        <ele>114.19999694824</ele>
        <time>2021-02-26T08:28:43.000Z</time>
      </trkpt>
      <trkpt lat="49.39386" lon="1.47008">
        <ele>113.19999694824</ele>
        <time>2021-02-26T08:28:44.000Z</time>
      </trkpt>
      <trkpt lat="49.39391" lon="1.47018">
        <ele>112.19999694824</ele>
        <time>2021-02-26T08:28:48.000Z</time>
      </trkpt>
      <trkpt lat="49.39392" lon="1.47021">
        <ele>112.19999694824</ele>
        <time>2021-02-26T08:28:49.000Z</time>
      </trkpt>
      <trkpt lat="49.39401" lon="1.47037">
        <ele>113.59999847412</ele>
        <time>2021-02-26T08:28:56.000Z</time>
      </trkpt>
      <trkpt lat="49.39403" lon="1.47039">
        <ele>114.59999847412</ele>
        <time>2021-02-26T08:28:59.000Z</time>
      </trkpt>
      <trkpt lat="49.39404" lon="1.47039">
        <ele>115.40000152588</ele>
        <time>2021-02-26T08:29:01.000Z</time>
      </trkpt>
      <trkpt lat="49.394" lon="1.47033">
        <ele>117</ele>
        <time>2021-02-26T08:29:34.000Z</time>
      </trkpt>
      <trkpt lat="49.39399" lon="1.47029">
        <ele>117</ele>
        <time>2021-02-26T08:29:35.000Z</time>
      </trkpt>
      <trkpt lat="49.39393" lon="1.47015">
        <ele>117</ele>
        <time>2021-02-26T08:29:38.000Z</time>
      </trkpt>
      <trkpt lat="49.3939" lon="1.47007">
        <ele>117</ele>
        <time>2021-02-26T08:29:40.000Z</time>
      </trkpt>
      <trkpt lat="49.39389" lon="1.47005">
        <ele>116.80000305176</ele>
        <time>2021-02-26T08:29:41.000Z</time>
      </trkpt>
      <trkpt lat="49.39387" lon="1.47005">
        <ele>115.59999847412</ele>
        <time>2021-02-26T08:29:43.000Z</time>
      </trkpt>
      <trkpt lat="49.39388" lon="1.47007">
        <ele>114.80000305176</ele>
        <time>2021-02-26T08:29:44.000Z</time>
      </trkpt>
      <trkpt lat="49.39389" lon="1.47008">
        <ele>112.80000305176</ele>
        <time>2021-02-26T08:29:45.000Z</time>
      </trkpt>
      <trkpt lat="49.39393" lon="1.47017">
        <ele>111.80000305176</ele>
        <time>2021-02-26T08:29:49.000Z</time>
      </trkpt>
      <trkpt lat="49.39399" lon="1.4703">
        <ele>111.80000305176</ele>
        <time>2021-02-26T08:29:55.000Z</time>
      </trkpt>
      <trkpt lat="49.39406" lon="1.47044">
        <ele>113.80000305176</ele>
        <time>2021-02-26T08:30:03.000Z</time>
      </trkpt>
      <trkpt lat="49.3941" lon="1.47048">
        <ele>115</ele>
        <time>2021-02-26T08:30:06.000Z</time>
      </trkpt>
      <trkpt lat="49.39414" lon="1.47052">
        <ele>116.19999694824</ele>
        <time>2021-02-26T08:30:09.000Z</time>
      </trkpt>
      <trkpt lat="49.39421" lon="1.47058">
        <ele>117.59999847412</ele>
        <time>2021-02-26T08:30:13.000Z</time>
      </trkpt>
      <trkpt lat="49.39424" lon="1.47059">
        <ele>118.40000152588</ele>
        <time>2021-02-26T08:30:15.000Z</time>
      </trkpt>
      <trkpt lat="49.39426" lon="1.4706">
        <ele>118.80000305176</ele>
        <time>2021-02-26T08:30:16.000Z</time>
      </trkpt>
      <trkpt lat="49.39436" lon="1.47059">
        <ele>119.80000305176</ele>
        <time>2021-02-26T08:30:20.000Z</time>
      </trkpt>
      <trkpt lat="49.39456" lon="1.47059">
        <ele>120.19999694824</ele>
        <time>2021-02-26T08:30:26.000Z</time>
      </trkpt>
      <trkpt lat="49.39481" lon="1.47059">
        <ele>120.59999847412</ele>
        <time>2021-02-26T08:30:33.000Z</time>
      </trkpt>
      <trkpt lat="49.39498" lon="1.47061">
        <ele>120.80000305176</ele>
        <time>2021-02-26T08:30:38.000Z</time>
      </trkpt>
      <trkpt lat="49.3952" lon="1.47066">
        <ele>120.80000305176</ele>
        <time>2021-02-26T08:30:45.000Z</time>
      </trkpt>
      <trkpt lat="49.39525" lon="1.47071">
        <ele>121</ele>
        <time>2021-02-26T08:30:47.000Z</time>
      </trkpt>
      <trkpt lat="49.39529" lon="1.47077">
        <ele>121</ele>
        <time>2021-02-26T08:30:49.000Z</time>
      </trkpt>
      <trkpt lat="49.39532" lon="1.47082">
        <ele>121</ele>
        <time>2021-02-26T08:30:51.000Z</time>
      </trkpt>
      <trkpt lat="49.39538" lon="1.47084">
        <ele>121</ele>
        <time>2021-02-26T08:30:53.000Z</time>
      </trkpt>
      <trkpt lat="49.39562" lon="1.47082">
        <ele>121.59999847412</ele>
        <time>2021-02-26T08:30:58.000Z</time>
      </trkpt>
      <trkpt lat="49.39593" lon="1.47075">
        <ele>121.59999847412</ele>
        <time>2021-02-26T08:31:03.000Z</time>
      </trkpt>
      <trkpt lat="49.39607" lon="1.47072">
        <ele>121.40000152588</ele>
        <time>2021-02-26T08:31:05.000Z</time>
      </trkpt>
      <trkpt lat="49.39622" lon="1.47074">
        <ele>120.19999694824</ele>
        <time>2021-02-26T08:31:07.000Z</time>
      </trkpt>
      <trkpt lat="49.39631" lon="1.47076">
        <ele>119.59999847412</ele>
        <time>2021-02-26T08:31:08.000Z</time>
      </trkpt>
      <trkpt lat="49.39648" lon="1.47083">
        <ele>117.80000305176</ele>
        <time>2021-02-26T08:31:10.000Z</time>
      </trkpt>
      <trkpt lat="49.39656" lon="1.47087">
        <ele>117</ele>
        <time>2021-02-26T08:31:11.000Z</time>
      </trkpt>
      <trkpt lat="49.39664" lon="1.4709">
        <ele>116.59999847412</ele>
        <time>2021-02-26T08:31:12.000Z</time>
      </trkpt>
      <trkpt lat="49.39688" lon="1.47099">
        <ele>115</ele>
        <time>2021-02-26T08:31:15.000Z</time>
      </trkpt>
      <trkpt lat="49.39693" lon="1.47103">
        <ele>114.19999694824</ele>
        <time>2021-02-26T08:31:16.000Z</time>
      </trkpt>
      <trkpt lat="49.39697" lon="1.47106">
        <ele>113.40000152588</ele>
        <time>2021-02-26T08:31:17.000Z</time>
      </trkpt>
      <trkpt lat="49.397" lon="1.47109">
        <ele>112.40000152588</ele>
        <time>2021-02-26T08:31:18.000Z</time>
      </trkpt>
      <trkpt lat="49.39703" lon="1.47112">
        <ele>111.19999694824</ele>
        <time>2021-02-26T08:31:19.000Z</time>
      </trkpt>
      <trkpt lat="49.39707" lon="1.47115">
        <ele>110.19999694824</ele>
        <time>2021-02-26T08:31:20.000Z</time>
      </trkpt>
      <trkpt lat="49.39711" lon="1.47119">
        <ele>109.40000152588</ele>
        <time>2021-02-26T08:31:21.000Z</time>
      </trkpt>
      <trkpt lat="49.39716" lon="1.47127">
        <ele>108</ele>
        <time>2021-02-26T08:31:23.000Z</time>
      </trkpt>
      <trkpt lat="49.39716" lon="1.47133">
        <ele>107.40000152588</ele>
        <time>2021-02-26T08:31:24.000Z</time>
      </trkpt>
      <trkpt lat="49.39717" lon="1.47144">
        <ele>106.59999847412</ele>
        <time>2021-02-26T08:31:26.000Z</time>
      </trkpt>
      <trkpt lat="49.39719" lon="1.47156">
        <ele>106.40000152588</ele>
        <time>2021-02-26T08:31:28.000Z</time>
      </trkpt>
      <trkpt lat="49.39725" lon="1.47198">
        <ele>106.40000152588</ele>
        <time>2021-02-26T08:31:35.000Z</time>
      </trkpt>
      <trkpt lat="49.39727" lon="1.47232">
        <ele>106.40000152588</ele>
        <time>2021-02-26T08:31:40.000Z</time>
      </trkpt>
      <trkpt lat="49.39731" lon="1.47267">
        <ele>106.19999694824</ele>
        <time>2021-02-26T08:31:45.000Z</time>
      </trkpt>
      <trkpt lat="49.39733" lon="1.47276">
        <ele>106</ele>
        <time>2021-02-26T08:31:46.000Z</time>
      </trkpt>
      <trkpt lat="49.39736" lon="1.47286">
        <ele>105.59999847412</ele>
        <time>2021-02-26T08:31:47.000Z</time>
      </trkpt>
      <trkpt lat="49.3974" lon="1.47306">
        <ele>105.19999694824</ele>
        <time>2021-02-26T08:31:49.000Z</time>
      </trkpt>
      <trkpt lat="49.39745" lon="1.47326">
        <ele>104.59999847412</ele>
        <time>2021-02-26T08:31:51.000Z</time>
      </trkpt>
      <trkpt lat="49.3975" lon="1.47347">
        <ele>103.59999847412</ele>
        <time>2021-02-26T08:31:53.000Z</time>
      </trkpt>
      <trkpt lat="49.39756" lon="1.47368">
        <ele>102.19999694824</ele>
        <time>2021-02-26T08:31:55.000Z</time>
      </trkpt>
      <trkpt lat="49.39763" lon="1.47392">
        <ele>100.59999847412</ele>
        <time>2021-02-26T08:31:57.000Z</time>
      </trkpt>
      <trkpt lat="49.39772" lon="1.47416">
        <ele>98.800003051758</ele>
        <time>2021-02-26T08:31:59.000Z</time>
      </trkpt>
      <trkpt lat="49.39781" lon="1.47438">
        <ele>96.800003051758</ele>
        <time>2021-02-26T08:32:01.000Z</time>
      </trkpt>
      <trkpt lat="49.39785" lon="1.47448">
        <ele>95.800003051758</ele>
        <time>2021-02-26T08:32:02.000Z</time>
      </trkpt>
      <trkpt lat="49.39788" lon="1.47458">
        <ele>94.800003051758</ele>
        <time>2021-02-26T08:32:03.000Z</time>
      </trkpt>
      <trkpt lat="49.39791" lon="1.47466">
        <ele>93.800003051758</ele>
        <time>2021-02-26T08:32:04.000Z</time>
      </trkpt>
      <trkpt lat="49.39792" lon="1.47475">
        <ele>92.599998474121</ele>
        <time>2021-02-26T08:32:05.000Z</time>
      </trkpt>
      <trkpt lat="49.39792" lon="1.47483">
        <ele>91.800003051758</ele>
        <time>2021-02-26T08:32:06.000Z</time>
      </trkpt>
      <trkpt lat="49.39793" lon="1.47492">
        <ele>91.400001525879</ele>
        <time>2021-02-26T08:32:07.000Z</time>
      </trkpt>
      <trkpt lat="49.39793" lon="1.47506">
        <ele>91.199996948242</ele>
        <time>2021-02-26T08:32:09.000Z</time>
      </trkpt>
      <trkpt lat="49.39791" lon="1.4752">
        <ele>91</ele>
        <time>2021-02-26T08:32:11.000Z</time>
      </trkpt>
      <trkpt lat="49.39782" lon="1.47536">
        <ele>91</ele>
        <time>2021-02-26T08:32:14.000Z</time>
      </trkpt>
      <trkpt lat="49.39779" lon="1.47559">
        <ele>91.400001525879</ele>
        <time>2021-02-26T08:32:18.000Z</time>
      </trkpt>
      <trkpt lat="49.3979" lon="1.47565">
        <ele>92</ele>
        <time>2021-02-26T08:32:21.000Z</time>
      </trkpt>
      <trkpt lat="49.39796" lon="1.47575">
        <ele>92.800003051758</ele>
        <time>2021-02-26T08:32:24.000Z</time>
      </trkpt>
      <trkpt lat="49.39795" lon="1.47588">
        <ele>93.400001525879</ele>
        <time>2021-02-26T08:32:26.000Z</time>
      </trkpt>
      <trkpt lat="49.39793" lon="1.47609">
        <ele>93.800003051758</ele>
        <time>2021-02-26T08:32:29.000Z</time>
      </trkpt>
      <trkpt lat="49.39792" lon="1.47616">
        <ele>93.800003051758</ele>
        <time>2021-02-26T08:32:30.000Z</time>
      </trkpt>
      <trkpt lat="49.39791" lon="1.47662">
        <ele>94.199996948242</ele>
        <time>2021-02-26T08:32:36.000Z</time>
      </trkpt>
      <trkpt lat="49.39797" lon="1.47685">
        <ele>94.800003051758</ele>
        <time>2021-02-26T08:32:40.000Z</time>
      </trkpt>
      <trkpt lat="49.39798" lon="1.47691">
        <ele>95</ele>
        <time>2021-02-26T08:32:41.000Z</time>
      </trkpt>
      <trkpt lat="49.39803" lon="1.47706">
        <ele>95.800003051758</ele>
        <time>2021-02-26T08:32:44.000Z</time>
      </trkpt>
      <trkpt lat="49.39807" lon="1.47713">
        <ele>96.400001525879</ele>
        <time>2021-02-26T08:32:46.000Z</time>
      </trkpt>
      <trkpt lat="49.39808" lon="1.47717">
        <ele>96.800003051758</ele>
        <time>2021-02-26T08:32:47.000Z</time>
      </trkpt>
      <trkpt lat="49.39809" lon="1.47721">
        <ele>97</ele>
        <time>2021-02-26T08:32:48.000Z</time>
      </trkpt>
      <trkpt lat="49.3981" lon="1.47724">
        <ele>97.199996948242</ele>
        <time>2021-02-26T08:32:49.000Z</time>
      </trkpt>
      <trkpt lat="49.3982" lon="1.47723">
        <ele>97.400001525879</ele>
        <time>2021-02-26T08:32:52.000Z</time>
      </trkpt>
      <trkpt lat="49.39827" lon="1.47716">
        <ele>97.400001525879</ele>
        <time>2021-02-26T08:32:54.000Z</time>
      </trkpt>
      <trkpt lat="49.39835" lon="1.47706">
        <ele>97.400001525879</ele>
        <time>2021-02-26T08:32:56.000Z</time>
      </trkpt>
      <trkpt lat="49.39838" lon="1.47701">
        <ele>97.400001525879</ele>
        <time>2021-02-26T08:32:57.000Z</time>
      </trkpt>
      <trkpt lat="49.39863" lon="1.47677">
        <ele>97</ele>
        <time>2021-02-26T08:33:03.000Z</time>
      </trkpt>
      <trkpt lat="49.39873" lon="1.47685">
        <ele>96</ele>
        <time>2021-02-26T08:33:06.000Z</time>
      </trkpt>
      <trkpt lat="49.39887" lon="1.47707">
        <ele>95.199996948242</ele>
        <time>2021-02-26T08:33:11.000Z</time>
      </trkpt>
      <trkpt lat="49.39896" lon="1.47701">
        <ele>95</ele>
        <time>2021-02-26T08:33:14.000Z</time>
      </trkpt>
      <trkpt lat="49.39899" lon="1.47701">
        <ele>95</ele>
        <time>2021-02-26T08:33:15.000Z</time>
      </trkpt>
      <trkpt lat="49.39909" lon="1.47694">
        <ele>94.400001525879</ele>
        <time>2021-02-26T08:33:19.000Z</time>
      </trkpt>
      <trkpt lat="49.39916" lon="1.47684">
        <ele>94.400001525879</ele>
        <time>2021-02-26T08:33:24.000Z</time>
      </trkpt>
      <trkpt lat="49.39916" lon="1.47683">
        <ele>94.199996948242</ele>
        <time>2021-02-26T08:33:26.000Z</time>
      </trkpt>
      <trkpt lat="49.39925" lon="1.47667">
        <ele>93.599998474121</ele>
        <time>2021-02-26T08:43:06.000Z</time>
      </trkpt>
      <trkpt lat="49.39927" lon="1.47665">
        <ele>93.599998474121</ele>
        <time>2021-02-26T08:43:07.000Z</time>
      </trkpt>
      <trkpt lat="49.39943" lon="1.47653">
        <ele>93.599998474121</ele>
        <time>2021-02-26T08:43:12.000Z</time>
      </trkpt>
      <trkpt lat="49.39968" lon="1.47628">
        <ele>92.800003051758</ele>
        <time>2021-02-26T08:43:18.000Z</time>
      </trkpt>
      <trkpt lat="49.39976" lon="1.47615">
        <ele>92.400001525879</ele>
        <time>2021-02-26T08:43:20.000Z</time>
      </trkpt>
      <trkpt lat="49.3999" lon="1.4759">
        <ele>92</ele>
        <time>2021-02-26T08:43:23.000Z</time>
      </trkpt>
      <trkpt lat="49.4" lon="1.47573">
        <ele>91.400001525879</ele>
        <time>2021-02-26T08:43:25.000Z</time>
      </trkpt>
      <trkpt lat="49.40012" lon="1.47552">
        <ele>90.199996948242</ele>
        <time>2021-02-26T08:43:28.000Z</time>
      </trkpt>
      <trkpt lat="49.40018" lon="1.47546">
        <ele>89.199996948242</ele>
        <time>2021-02-26T08:43:30.000Z</time>
      </trkpt>
      <trkpt lat="49.40022" lon="1.47548">
        <ele>88.199996948242</ele>
        <time>2021-02-26T08:43:31.000Z</time>
      </trkpt>
      <trkpt lat="49.40025" lon="1.47552">
        <ele>87.199996948242</ele>
        <time>2021-02-26T08:43:32.000Z</time>
      </trkpt>
      <trkpt lat="49.4003" lon="1.47556">
        <ele>86</ele>
        <time>2021-02-26T08:43:33.000Z</time>
      </trkpt>
      <trkpt lat="49.40034" lon="1.47562">
        <ele>84.400001525879</ele>
        <time>2021-02-26T08:43:34.000Z</time>
      </trkpt>
      <trkpt lat="49.40039" lon="1.47567">
        <ele>83.800003051758</ele>
        <time>2021-02-26T08:43:35.000Z</time>
      </trkpt>
      <trkpt lat="49.40048" lon="1.47577">
        <ele>83.199996948242</ele>
        <time>2021-02-26T08:43:37.000Z</time>
      </trkpt>
      <trkpt lat="49.40063" lon="1.47594">
        <ele>82.199996948242</ele>
        <time>2021-02-26T08:43:40.000Z</time>
      </trkpt>
      <trkpt lat="49.40079" lon="1.4761">
        <ele>81</ele>
        <time>2021-02-26T08:43:43.000Z</time>
      </trkpt>
      <trkpt lat="49.40095" lon="1.47628">
        <ele>80.400001525879</ele>
        <time>2021-02-26T08:43:46.000Z</time>
      </trkpt>
      <trkpt lat="49.40104" lon="1.47643">
        <ele>80</ele>
        <time>2021-02-26T08:43:48.000Z</time>
      </trkpt>
      <trkpt lat="49.40108" lon="1.47651">
        <ele>79.800003051758</ele>
        <time>2021-02-26T08:43:49.000Z</time>
      </trkpt>
      <trkpt lat="49.40118" lon="1.47677">
        <ele>78.800003051758</ele>
        <time>2021-02-26T08:43:52.000Z</time>
      </trkpt>
      <trkpt lat="49.4013" lon="1.47714">
        <ele>78.199996948242</ele>
        <time>2021-02-26T08:43:56.000Z</time>
      </trkpt>
      <trkpt lat="49.40136" lon="1.47733">
        <ele>77.800003051758</ele>
        <time>2021-02-26T08:43:58.000Z</time>
      </trkpt>
      <trkpt lat="49.40149" lon="1.47781">
        <ele>76.800003051758</ele>
        <time>2021-02-26T08:44:03.000Z</time>
      </trkpt>
      <trkpt lat="49.40151" lon="1.4779">
        <ele>76.800003051758</ele>
        <time>2021-02-26T08:44:04.000Z</time>
      </trkpt>
      <trkpt lat="49.40156" lon="1.47808">
        <ele>76.599998474121</ele>
        <time>2021-02-26T08:44:06.000Z</time>
      </trkpt>
      <trkpt lat="49.40162" lon="1.47832">
        <ele>76.199996948242</ele>
        <time>2021-02-26T08:44:09.000Z</time>
      </trkpt>
      <trkpt lat="49.40174" lon="1.47845">
        <ele>76</ele>
        <time>2021-02-26T08:44:12.000Z</time>
      </trkpt>
      <trkpt lat="49.40194" lon="1.47848">
        <ele>76</ele>
        <time>2021-02-26T08:44:16.000Z</time>
      </trkpt>
      <trkpt lat="49.40199" lon="1.47845">
        <ele>76</ele>
        <time>2021-02-26T08:44:17.000Z</time>
      </trkpt>
      <trkpt lat="49.40232" lon="1.47829">
        <ele>76.199996948242</ele>
        <time>2021-02-26T08:44:23.000Z</time>
      </trkpt>
      <trkpt lat="49.4028" lon="1.47805">
        <ele>76.400001525879</ele>
        <time>2021-02-26T08:44:32.000Z</time>
      </trkpt>
      <trkpt lat="49.40325" lon="1.47787">
        <ele>76.400001525879</ele>
        <time>2021-02-26T08:44:40.000Z</time>
      </trkpt>
      <trkpt lat="49.40331" lon="1.47787">
        <ele>76.400001525879</ele>
        <time>2021-02-26T08:44:41.000Z</time>
      </trkpt>
      <trkpt lat="49.40349" lon="1.47798">
        <ele>76.400001525879</ele>
        <time>2021-02-26T08:44:45.000Z</time>
      </trkpt>
      <trkpt lat="49.40358" lon="1.47796">
        <ele>76.400001525879</ele>
        <time>2021-02-26T08:44:48.000Z</time>
      </trkpt>
      <trkpt lat="49.40363" lon="1.47787">
        <ele>76.599998474121</ele>
        <time>2021-02-26T08:44:51.000Z</time>
      </trkpt>
      <trkpt lat="49.40369" lon="1.47779">
        <ele>77.400001525879</ele>
        <time>2021-02-26T08:44:54.000Z</time>
      </trkpt>
      <trkpt lat="49.40373" lon="1.47775">
        <ele>78.199996948242</ele>
        <time>2021-02-26T08:44:56.000Z</time>
      </trkpt>
      <trkpt lat="49.40376" lon="1.47771">
        <ele>78.800003051758</ele>
        <time>2021-02-26T08:44:58.000Z</time>
      </trkpt>
      <trkpt lat="49.40376" lon="1.47768">
        <ele>79</ele>
        <time>2021-02-26T08:44:59.000Z</time>
      </trkpt>
      <trkpt lat="49.40373" lon="1.4776">
        <ele>79.400001525879</ele>
        <time>2021-02-26T08:45:02.000Z</time>
      </trkpt>
      <trkpt lat="49.4037" lon="1.47757">
        <ele>79.599998474121</ele>
        <time>2021-02-26T08:45:03.000Z</time>
      </trkpt>
      <trkpt lat="49.40362" lon="1.47737">
        <ele>79.800003051758</ele>
        <time>2021-02-26T08:45:08.000Z</time>
      </trkpt>
      <trkpt lat="49.40354" lon="1.47708">
        <ele>79.800003051758</ele>
        <time>2021-02-26T08:45:14.000Z</time>
      </trkpt>
      <trkpt lat="49.40349" lon="1.47684">
        <ele>80</ele>
        <time>2021-02-26T08:45:19.000Z</time>
      </trkpt>
      <trkpt lat="49.40345" lon="1.47658">
        <ele>79.800003051758</ele>
        <time>2021-02-26T08:45:25.000Z</time>
      </trkpt>
      <trkpt lat="49.4034" lon="1.47638">
        <ele>79.599998474121</ele>
        <time>2021-02-26T08:45:29.000Z</time>
      </trkpt>
      <trkpt lat="49.40339" lon="1.47634">
        <ele>79.599998474121</ele>
        <time>2021-02-26T08:45:30.000Z</time>
      </trkpt>
      <trkpt lat="49.40336" lon="1.47624">
        <ele>79.400001525879</ele>
        <time>2021-02-26T08:45:32.000Z</time>
      </trkpt>
      <trkpt lat="49.40335" lon="1.4762">
        <ele>79.400001525879</ele>
        <time>2021-02-26T08:45:33.000Z</time>
      </trkpt>
      <trkpt lat="49.40327" lon="1.47591">
        <ele>79.199996948242</ele>
        <time>2021-02-26T08:45:39.000Z</time>
      </trkpt>
      <trkpt lat="49.40318" lon="1.47572">
        <ele>79</ele>
        <time>2021-02-26T08:45:43.000Z</time>
      </trkpt>
      <trkpt lat="49.40315" lon="1.47564">
        <ele>78.800003051758</ele>
        <time>2021-02-26T08:45:45.000Z</time>
      </trkpt>
      <trkpt lat="49.40312" lon="1.47553">
        <ele>78.400001525879</ele>
        <time>2021-02-26T08:45:48.000Z</time>
      </trkpt>
      <trkpt lat="49.40298" lon="1.4752">
        <ele>78.199996948242</ele>
        <time>2021-02-26T08:45:53.000Z</time>
      </trkpt>
      <trkpt lat="49.40295" lon="1.47514">
        <ele>78</ele>
        <time>2021-02-26T08:45:54.000Z</time>
      </trkpt>
      <trkpt lat="49.40279" lon="1.4749">
        <ele>77.599998474121</ele>
        <time>2021-02-26T08:45:58.000Z</time>
      </trkpt>
      <trkpt lat="49.40263" lon="1.47461">
        <ele>77.400001525879</ele>
        <time>2021-02-26T08:46:03.000Z</time>
      </trkpt>
      <trkpt lat="49.40242" lon="1.47428">
        <ele>77</ele>
        <time>2021-02-26T08:46:09.000Z</time>
      </trkpt>
      <trkpt lat="49.40238" lon="1.47422">
        <ele>77</ele>
        <time>2021-02-26T08:46:10.000Z</time>
      </trkpt>
      <trkpt lat="49.40224" lon="1.474">
        <ele>76.800003051758</ele>
        <time>2021-02-26T08:46:14.000Z</time>
      </trkpt>
      <trkpt lat="49.40219" lon="1.47394">
        <ele>76.800003051758</ele>
        <time>2021-02-26T08:46:15.000Z</time>
      </trkpt>
      <trkpt lat="49.40206" lon="1.47379">
        <ele>76.400001525879</ele>
        <time>2021-02-26T08:46:18.000Z</time>
      </trkpt>
      <trkpt lat="49.40197" lon="1.47366">
        <ele>76.199996948242</ele>
        <time>2021-02-26T08:46:20.000Z</time>
      </trkpt>
      <trkpt lat="49.40191" lon="1.47355">
        <ele>76</ele>
        <time>2021-02-26T08:46:22.000Z</time>
      </trkpt>
      <trkpt lat="49.40185" lon="1.47344">
        <ele>75.400001525879</ele>
        <time>2021-02-26T08:46:24.000Z</time>
      </trkpt>
      <trkpt lat="49.40173" lon="1.47324">
        <ele>74.800003051758</ele>
        <time>2021-02-26T08:46:28.000Z</time>
      </trkpt>
      <trkpt lat="49.40171" lon="1.47321">
        <ele>74.599998474121</ele>
        <time>2021-02-26T08:46:29.000Z</time>
      </trkpt>
      <trkpt lat="49.40164" lon="1.47313">
        <ele>74.599998474121</ele>
        <time>2021-02-26T08:46:32.000Z</time>
      </trkpt>
      <trkpt lat="49.40162" lon="1.47311">
        <ele>74.599998474121</ele>
        <time>2021-02-26T08:46:33.000Z</time>
      </trkpt>
      <trkpt lat="49.40156" lon="1.47304">
        <ele>74.800003051758</ele>
        <time>2021-02-26T08:46:38.000Z</time>
      </trkpt>
      <trkpt lat="49.40158" lon="1.473">
        <ele>75.400001525879</ele>
        <time>2021-02-26T08:46:42.000Z</time>
      </trkpt>
      <trkpt lat="49.40159" lon="1.47299">
        <ele>75.800003051758</ele>
        <time>2021-02-26T08:46:43.000Z</time>
      </trkpt>
      <trkpt lat="49.40161" lon="1.47296">
        <ele>76.400001525879</ele>
        <time>2021-02-26T08:46:47.000Z</time>
      </trkpt>
      <trkpt lat="49.40162" lon="1.47295">
        <ele>77</ele>
        <time>2021-02-26T08:46:49.000Z</time>
      </trkpt>
      <trkpt lat="49.40165" lon="1.47293">
        <ele>78.400001525879</ele>
        <time>2021-02-26T08:46:52.000Z</time>
      </trkpt>
      <trkpt lat="49.4017" lon="1.47292">
        <ele>79.599998474121</ele>
        <time>2021-02-26T08:46:56.000Z</time>
      </trkpt>
      <trkpt lat="49.40173" lon="1.47294">
        <ele>80.800003051758</ele>
        <time>2021-02-26T08:47:00.000Z</time>
      </trkpt>
      <trkpt lat="49.40174" lon="1.47295">
        <ele>81.400001525879</ele>
        <time>2021-02-26T08:47:02.000Z</time>
      </trkpt>
      <trkpt lat="49.40176" lon="1.47296">
        <ele>82</ele>
        <time>2021-02-26T08:47:04.000Z</time>
      </trkpt>
      <trkpt lat="49.4018" lon="1.47297">
        <ele>83.199996948242</ele>
        <time>2021-02-26T08:47:09.000Z</time>
      </trkpt>
      <trkpt lat="49.40183" lon="1.47297">
        <ele>84</ele>
        <time>2021-02-26T08:47:12.000Z</time>
      </trkpt>
      <trkpt lat="49.40183" lon="1.47296">
        <ele>84.199996948242</ele>
        <time>2021-02-26T08:47:13.000Z</time>
      </trkpt>
      <trkpt lat="49.40184" lon="1.47295">
        <ele>84.800003051758</ele>
        <time>2021-02-26T08:47:15.000Z</time>
      </trkpt>
      <trkpt lat="49.40202" lon="1.47207">
        <ele>99.599998474121</ele>
        <time>2021-02-26T08:48:12.000Z</time>
      </trkpt>
      <trkpt lat="49.40203" lon="1.47201">
        <ele>100.59999847412</ele>
        <time>2021-02-26T08:48:15.000Z</time>
      </trkpt>
      <trkpt lat="49.40203" lon="1.47198">
        <ele>100.80000305176</ele>
        <time>2021-02-26T08:48:16.000Z</time>
      </trkpt>
      <trkpt lat="49.40205" lon="1.47191">
        <ele>102</ele>
        <time>2021-02-26T08:48:20.000Z</time>
      </trkpt>
      <trkpt lat="49.40204" lon="1.47184">
        <ele>102.80000305176</ele>
        <time>2021-02-26T08:48:23.000Z</time>
      </trkpt>
      <trkpt lat="49.40204" lon="1.4718">
        <ele>103.19999694824</ele>
        <time>2021-02-26T08:48:24.000Z</time>
      </trkpt>
      <trkpt lat="49.40203" lon="1.47159">
        <ele>103.59999847412</ele>
        <time>2021-02-26T08:48:29.000Z</time>
      </trkpt>
      <trkpt lat="49.40202" lon="1.47137">
        <ele>103.80000305176</ele>
        <time>2021-02-26T08:48:33.000Z</time>
      </trkpt>
      <trkpt lat="49.40202" lon="1.47125">
        <ele>103.80000305176</ele>
        <time>2021-02-26T08:48:35.000Z</time>
      </trkpt>
      <trkpt lat="49.40197" lon="1.47088">
        <ele>102.59999847412</ele>
        <time>2021-02-26T08:48:41.000Z</time>
      </trkpt>
      <trkpt lat="49.40192" lon="1.47065">
        <ele>102.19999694824</ele>
        <time>2021-02-26T08:48:46.000Z</time>
      </trkpt>
      <trkpt lat="49.4019" lon="1.47045">
        <ele>102</ele>
        <time>2021-02-26T08:48:49.000Z</time>
      </trkpt>
      <trkpt lat="49.4019" lon="1.47037">
        <ele>102</ele>
        <time>2021-02-26T08:48:50.000Z</time>
      </trkpt>
      <trkpt lat="49.40182" lon="1.47006">
        <ele>102</ele>
        <time>2021-02-26T08:48:55.000Z</time>
      </trkpt>
      <trkpt lat="49.40173" lon="1.4698">
        <ele>102.19999694824</ele>
        <time>2021-02-26T08:49:00.000Z</time>
      </trkpt>
      <trkpt lat="49.40168" lon="1.46955">
        <ele>102.59999847412</ele>
        <time>2021-02-26T08:49:05.000Z</time>
      </trkpt>
      <trkpt lat="49.40164" lon="1.46931">
        <ele>102.80000305176</ele>
        <time>2021-02-26T08:49:09.000Z</time>
      </trkpt>
      <trkpt lat="49.40162" lon="1.46918">
        <ele>103.19999694824</ele>
        <time>2021-02-26T08:49:11.000Z</time>
      </trkpt>
      <trkpt lat="49.40158" lon="1.4689">
        <ele>103.80000305176</ele>
        <time>2021-02-26T08:49:15.000Z</time>
      </trkpt>
      <trkpt lat="49.4015" lon="1.46848">
        <ele>104</ele>
        <time>2021-02-26T08:49:21.000Z</time>
      </trkpt>
      <trkpt lat="49.40138" lon="1.4682">
        <ele>104</ele>
        <time>2021-02-26T08:49:26.000Z</time>
      </trkpt>
      <trkpt lat="49.40129" lon="1.46807">
        <ele>104</ele>
        <time>2021-02-26T08:49:28.000Z</time>
      </trkpt>
      <trkpt lat="49.40117" lon="1.46795">
        <ele>104</ele>
        <time>2021-02-26T08:49:30.000Z</time>
      </trkpt>
      <trkpt lat="49.40101" lon="1.46782">
        <ele>103.80000305176</ele>
        <time>2021-02-26T08:49:32.000Z</time>
      </trkpt>
      <trkpt lat="49.40082" lon="1.46768">
        <ele>103.80000305176</ele>
        <time>2021-02-26T08:49:34.000Z</time>
      </trkpt>
      <trkpt lat="49.4004" lon="1.46735">
        <ele>101.19999694824</ele>
        <time>2021-02-26T08:49:38.000Z</time>
      </trkpt>
      <trkpt lat="49.40031" lon="1.46726">
        <ele>99.800003051758</ele>
        <time>2021-02-26T08:49:39.000Z</time>
      </trkpt>
      <trkpt lat="49.40022" lon="1.46715">
        <ele>98.800003051758</ele>
        <time>2021-02-26T08:49:40.000Z</time>
      </trkpt>
      <trkpt lat="49.40014" lon="1.46705">
        <ele>97.800003051758</ele>
        <time>2021-02-26T08:49:41.000Z</time>
      </trkpt>
      <trkpt lat="49.40004" lon="1.46697">
        <ele>96.599998474121</ele>
        <time>2021-02-26T08:49:42.000Z</time>
      </trkpt>
      <trkpt lat="49.39994" lon="1.4669">
        <ele>93.800003051758</ele>
        <time>2021-02-26T08:49:43.000Z</time>
      </trkpt>
      <trkpt lat="49.39983" lon="1.46683">
        <ele>92.599998474121</ele>
        <time>2021-02-26T08:49:44.000Z</time>
      </trkpt>
      <trkpt lat="49.39972" lon="1.46676">
        <ele>91</ele>
        <time>2021-02-26T08:49:45.000Z</time>
      </trkpt>
      <trkpt lat="49.3995" lon="1.46661">
        <ele>89.199996948242</ele>
        <time>2021-02-26T08:49:47.000Z</time>
      </trkpt>
      <trkpt lat="49.3994" lon="1.46655">
        <ele>88.199996948242</ele>
        <time>2021-02-26T08:49:48.000Z</time>
      </trkpt>
      <trkpt lat="49.39929" lon="1.46651">
        <ele>87.199996948242</ele>
        <time>2021-02-26T08:49:49.000Z</time>
      </trkpt>
      <trkpt lat="49.39918" lon="1.46645">
        <ele>85.800003051758</ele>
        <time>2021-02-26T08:49:50.000Z</time>
      </trkpt>
      <trkpt lat="49.39908" lon="1.46638">
        <ele>84.400001525879</ele>
        <time>2021-02-26T08:49:51.000Z</time>
      </trkpt>
      <trkpt lat="49.399" lon="1.46628">
        <ele>83</ele>
        <time>2021-02-26T08:49:52.000Z</time>
      </trkpt>
      <trkpt lat="49.39891" lon="1.46616">
        <ele>81.400001525879</ele>
        <time>2021-02-26T08:49:53.000Z</time>
      </trkpt>
      <trkpt lat="49.39884" lon="1.46605">
        <ele>80</ele>
        <time>2021-02-26T08:49:54.000Z</time>
      </trkpt>
      <trkpt lat="49.39879" lon="1.46593">
        <ele>78.599998474121</ele>
        <time>2021-02-26T08:49:55.000Z</time>
      </trkpt>
      <trkpt lat="49.39872" lon="1.4657">
        <ele>76.599998474121</ele>
        <time>2021-02-26T08:49:57.000Z</time>
      </trkpt>
      <trkpt lat="49.39869" lon="1.46559">
        <ele>76</ele>
        <time>2021-02-26T08:49:58.000Z</time>
      </trkpt>
      <trkpt lat="49.39864" lon="1.46541">
        <ele>75.599998474121</ele>
        <time>2021-02-26T08:50:00.000Z</time>
      </trkpt>
      <trkpt lat="49.39859" lon="1.46525">
        <ele>75.400001525879</ele>
        <time>2021-02-26T08:50:02.000Z</time>
      </trkpt>
      <trkpt lat="49.3985" lon="1.46491">
        <ele>75.800003051758</ele>
        <time>2021-02-26T08:50:08.000Z</time>
      </trkpt>
      <trkpt lat="49.39846" lon="1.46481">
        <ele>76.599998474121</ele>
        <time>2021-02-26T08:50:10.000Z</time>
      </trkpt>
      <trkpt lat="49.39844" lon="1.46471">
        <ele>78</ele>
        <time>2021-02-26T08:50:12.000Z</time>
      </trkpt>
      <trkpt lat="49.39842" lon="1.46466">
        <ele>78.400001525879</ele>
        <time>2021-02-26T08:50:13.000Z</time>
      </trkpt>
      <trkpt lat="49.39839" lon="1.46456">
        <ele>79.199996948242</ele>
        <time>2021-02-26T08:50:15.000Z</time>
      </trkpt>
      <trkpt lat="49.39835" lon="1.46441">
        <ele>80.199996948242</ele>
        <time>2021-02-26T08:50:18.000Z</time>
      </trkpt>
      <trkpt lat="49.39829" lon="1.46421">
        <ele>81.400001525879</ele>
        <time>2021-02-26T08:50:22.000Z</time>
      </trkpt>
      <trkpt lat="49.39827" lon="1.46416">
        <ele>81.599998474121</ele>
        <time>2021-02-26T08:50:23.000Z</time>
      </trkpt>
      <trkpt lat="49.39824" lon="1.46402">
        <ele>82.599998474121</ele>
        <time>2021-02-26T08:50:26.000Z</time>
      </trkpt>
      <trkpt lat="49.39819" lon="1.46386">
        <ele>83.599998474121</ele>
        <time>2021-02-26T08:50:30.000Z</time>
      </trkpt>
      <trkpt lat="49.39817" lon="1.46371">
        <ele>84.800003051758</ele>
        <time>2021-02-26T08:50:34.000Z</time>
      </trkpt>
      <trkpt lat="49.39818" lon="1.46364">
        <ele>85.400001525879</ele>
        <time>2021-02-26T08:50:36.000Z</time>
      </trkpt>
      <trkpt lat="49.39821" lon="1.46358">
        <ele>86</ele>
        <time>2021-02-26T08:50:38.000Z</time>
      </trkpt>
      <trkpt lat="49.39827" lon="1.46355">
        <ele>87.199996948242</ele>
        <time>2021-02-26T08:50:41.000Z</time>
      </trkpt>
      <trkpt lat="49.39832" lon="1.46358">
        <ele>88</ele>
        <time>2021-02-26T08:50:43.000Z</time>
      </trkpt>
      <trkpt lat="49.39834" lon="1.4636">
        <ele>88.400001525879</ele>
        <time>2021-02-26T08:50:44.000Z</time>
      </trkpt>
      <trkpt lat="49.39836" lon="1.46362">
        <ele>88.800003051758</ele>
        <time>2021-02-26T08:50:45.000Z</time>
      </trkpt>
      <trkpt lat="49.3984" lon="1.46363">
        <ele>89.400001525879</ele>
        <time>2021-02-26T08:50:47.000Z</time>
      </trkpt>
      <trkpt lat="49.39841" lon="1.4636">
        <ele>89.599998474121</ele>
        <time>2021-02-26T08:50:48.000Z</time>
      </trkpt>
      <trkpt lat="49.39839" lon="1.46352">
        <ele>90.400001525879</ele>
        <time>2021-02-26T08:50:51.000Z</time>
      </trkpt>
      <trkpt lat="49.39835" lon="1.46348">
        <ele>90.800003051758</ele>
        <time>2021-02-26T08:50:53.000Z</time>
      </trkpt>
      <trkpt lat="49.39831" lon="1.46344">
        <ele>91.199996948242</ele>
        <time>2021-02-26T08:50:55.000Z</time>
      </trkpt>
      <trkpt lat="49.39817" lon="1.46334">
        <ele>91.800003051758</ele>
        <time>2021-02-26T08:51:03.000Z</time>
      </trkpt>
      <trkpt lat="49.39816" lon="1.46332">
        <ele>92</ele>
        <time>2021-02-26T08:51:04.000Z</time>
      </trkpt>
      <trkpt lat="49.39817" lon="1.46329">
        <ele>92.400001525879</ele>
        <time>2021-02-26T08:51:07.000Z</time>
      </trkpt>
      <trkpt lat="49.39818" lon="1.46329">
        <ele>92.800003051758</ele>
        <time>2021-02-26T08:51:09.000Z</time>
      </trkpt>
      <trkpt lat="49.39821" lon="1.46332">
        <ele>93.400001525879</ele>
        <time>2021-02-26T08:51:12.000Z</time>
      </trkpt>
      <trkpt lat="49.39824" lon="1.46334">
        <ele>93.800003051758</ele>
        <time>2021-02-26T08:51:14.000Z</time>
      </trkpt>
      <trkpt lat="49.39826" lon="1.46335">
        <ele>94.199996948242</ele>
        <time>2021-02-26T08:51:15.000Z</time>
      </trkpt>
      <trkpt lat="49.39835" lon="1.46341">
        <ele>95.199996948242</ele>
        <time>2021-02-26T08:51:20.000Z</time>
      </trkpt>
      <trkpt lat="49.39839" lon="1.46343">
        <ele>95.400001525879</ele>
        <time>2021-02-26T08:51:22.000Z</time>
      </trkpt>
      <trkpt lat="49.39848" lon="1.46342">
        <ele>96</ele>
        <time>2021-02-26T08:51:27.000Z</time>
      </trkpt>
      <trkpt lat="49.3985" lon="1.46342">
        <ele>96.199996948242</ele>
        <time>2021-02-26T08:51:29.000Z</time>
      </trkpt>
      <trkpt lat="49.39854" lon="1.46341">
        <ele>96.800003051758</ele>
        <time>2021-02-26T08:51:33.000Z</time>
      </trkpt>
      <trkpt lat="49.39857" lon="1.46339">
        <ele>97.400001525879</ele>
        <time>2021-02-26T08:51:36.000Z</time>
      </trkpt>
      <trkpt lat="49.39861" lon="1.46337">
        <ele>98.400001525879</ele>
        <time>2021-02-26T08:51:39.000Z</time>
      </trkpt>
      <trkpt lat="49.39863" lon="1.46336">
        <ele>99</ele>
        <time>2021-02-26T08:51:41.000Z</time>
      </trkpt>
      <trkpt lat="49.39865" lon="1.46335">
        <ele>99.599998474121</ele>
        <time>2021-02-26T08:51:43.000Z</time>
      </trkpt>
      <trkpt lat="49.39869" lon="1.46334">
        <ele>100.80000305176</ele>
        <time>2021-02-26T08:51:47.000Z</time>
      </trkpt>
      <trkpt lat="49.3987" lon="1.46334">
        <ele>101</ele>
        <time>2021-02-26T08:51:48.000Z</time>
      </trkpt>
      <trkpt lat="49.39875" lon="1.46334">
        <ele>101.80000305176</ele>
        <time>2021-02-26T08:51:51.000Z</time>
      </trkpt>
      <trkpt lat="49.39878" lon="1.46335">
        <ele>103</ele>
        <time>2021-02-26T08:51:54.000Z</time>
      </trkpt>
      <trkpt lat="49.39881" lon="1.46334">
        <ele>103.40000152588</ele>
        <time>2021-02-26T08:51:55.000Z</time>
      </trkpt>
      <trkpt lat="49.39884" lon="1.46334">
        <ele>104.19999694824</ele>
        <time>2021-02-26T08:51:58.000Z</time>
      </trkpt>
      <trkpt lat="49.39887" lon="1.46334">
        <ele>104.59999847412</ele>
        <time>2021-02-26T08:52:00.000Z</time>
      </trkpt>
      <trkpt lat="49.3989" lon="1.46333">
        <ele>105.19999694824</ele>
        <time>2021-02-26T08:52:03.000Z</time>
      </trkpt>
      <trkpt lat="49.39894" lon="1.46335">
        <ele>106.40000152588</ele>
        <time>2021-02-26T08:52:06.000Z</time>
      </trkpt>
      <trkpt lat="49.39896" lon="1.46341">
        <ele>107.40000152588</ele>
        <time>2021-02-26T08:52:09.000Z</time>
      </trkpt>
      <trkpt lat="49.39899" lon="1.46347">
        <ele>108.19999694824</ele>
        <time>2021-02-26T08:52:12.000Z</time>
      </trkpt>
      <trkpt lat="49.39902" lon="1.46351">
        <ele>108.59999847412</ele>
        <time>2021-02-26T08:52:14.000Z</time>
      </trkpt>
      <trkpt lat="49.39906" lon="1.4635">
        <ele>109</ele>
        <time>2021-02-26T08:52:17.000Z</time>
      </trkpt>
      <trkpt lat="49.39907" lon="1.46349">
        <ele>109</ele>
        <time>2021-02-26T08:52:18.000Z</time>
      </trkpt>
      <trkpt lat="49.3991" lon="1.46346">
        <ele>109</ele>
        <time>2021-02-26T08:52:21.000Z</time>
      </trkpt>
      <trkpt lat="49.39911" lon="1.46344">
        <ele>109.19999694824</ele>
        <time>2021-02-26T08:52:23.000Z</time>
      </trkpt>
      <trkpt lat="49.39914" lon="1.46342">
        <ele>110</ele>
        <time>2021-02-26T08:52:26.000Z</time>
      </trkpt>
      <trkpt lat="49.39916" lon="1.46339">
        <ele>111.19999694824</ele>
        <time>2021-02-26T08:52:30.000Z</time>
      </trkpt>
      <trkpt lat="49.3992" lon="1.46335">
        <ele>112.59999847412</ele>
        <time>2021-02-26T08:52:34.000Z</time>
      </trkpt>
      <trkpt lat="49.39923" lon="1.46332">
        <ele>113.59999847412</ele>
        <time>2021-02-26T08:52:38.000Z</time>
      </trkpt>
      <trkpt lat="49.39925" lon="1.46329">
        <ele>114.40000152588</ele>
        <time>2021-02-26T08:52:41.000Z</time>
      </trkpt>
      <trkpt lat="49.39925" lon="1.46328">
        <ele>114.80000305176</ele>
        <time>2021-02-26T08:52:42.000Z</time>
      </trkpt>
      <trkpt lat="49.39927" lon="1.46319">
        <ele>116</ele>
        <time>2021-02-26T08:52:47.000Z</time>
      </trkpt>
      <trkpt lat="49.39927" lon="1.46317">
        <ele>116.19999694824</ele>
        <time>2021-02-26T08:52:48.000Z</time>
      </trkpt>
      <trkpt lat="49.39928" lon="1.46316">
        <ele>116.40000152588</ele>
        <time>2021-02-26T08:52:49.000Z</time>
      </trkpt>
      <trkpt lat="49.3993" lon="1.46311">
        <ele>117</ele>
        <time>2021-02-26T08:52:52.000Z</time>
      </trkpt>
      <trkpt lat="49.39931" lon="1.46309">
        <ele>117.40000152588</ele>
        <time>2021-02-26T08:52:54.000Z</time>
      </trkpt>
      <trkpt lat="49.39933" lon="1.46308">
        <ele>117.59999847412</ele>
        <time>2021-02-26T08:52:56.000Z</time>
      </trkpt>
      <trkpt lat="49.39934" lon="1.46307">
        <ele>117.80000305176</ele>
        <time>2021-02-26T08:52:57.000Z</time>
      </trkpt>
      <trkpt lat="49.39935" lon="1.46306">
        <ele>118.19999694824</ele>
        <time>2021-02-26T08:52:59.000Z</time>
      </trkpt>
      <trkpt lat="49.39939" lon="1.46306">
        <ele>119.40000152588</ele>
        <time>2021-02-26T08:53:04.000Z</time>
      </trkpt>
      <trkpt lat="49.39944" lon="1.46306">
        <ele>120.59999847412</ele>
        <time>2021-02-26T08:53:09.000Z</time>
      </trkpt>
      <trkpt lat="49.39947" lon="1.46308">
        <ele>121.80000305176</ele>
        <time>2021-02-26T08:53:13.000Z</time>
      </trkpt>
      <trkpt lat="49.39948" lon="1.46308">
        <ele>122</ele>
        <time>2021-02-26T08:53:14.000Z</time>
      </trkpt>
      <trkpt lat="49.39949" lon="1.46309">
        <ele>122.19999694824</ele>
        <time>2021-02-26T08:53:15.000Z</time>
      </trkpt>
      <trkpt lat="49.39953" lon="1.46309">
        <ele>122.80000305176</ele>
        <time>2021-02-26T08:53:18.000Z</time>
      </trkpt>
      <trkpt lat="49.39958" lon="1.4631">
        <ele>123.80000305176</ele>
        <time>2021-02-26T08:53:22.000Z</time>
      </trkpt>
      <trkpt lat="49.39963" lon="1.4631">
        <ele>124.59999847412</ele>
        <time>2021-02-26T08:53:26.000Z</time>
      </trkpt>
      <trkpt lat="49.39964" lon="1.46311">
        <ele>125</ele>
        <time>2021-02-26T08:53:27.000Z</time>
      </trkpt>
      <trkpt lat="49.39967" lon="1.46316">
        <ele>126.19999694824</ele>
        <time>2021-02-26T08:53:31.000Z</time>
      </trkpt>
      <trkpt lat="49.39969" lon="1.46321">
        <ele>126.59999847412</ele>
        <time>2021-02-26T08:53:33.000Z</time>
      </trkpt>
      <trkpt lat="49.39978" lon="1.46338">
        <ele>126.80000305176</ele>
        <time>2021-02-26T08:53:41.000Z</time>
      </trkpt>
      <trkpt lat="49.39981" lon="1.46341">
        <ele>126.80000305176</ele>
        <time>2021-02-26T08:53:43.000Z</time>
      </trkpt>
      <trkpt lat="49.39985" lon="1.46338">
        <ele>126.80000305176</ele>
        <time>2021-02-26T08:53:46.000Z</time>
      </trkpt>
      <trkpt lat="49.39985" lon="1.46331">
        <ele>127.19999694824</ele>
        <time>2021-02-26T08:53:49.000Z</time>
      </trkpt>
      <trkpt lat="49.39985" lon="1.46329">
        <ele>127.40000152588</ele>
        <time>2021-02-26T08:53:50.000Z</time>
      </trkpt>
      <trkpt lat="49.39982" lon="1.46322">
        <ele>128.19999694824</ele>
        <time>2021-02-26T08:53:53.000Z</time>
      </trkpt>
      <trkpt lat="49.39981" lon="1.46317">
        <ele>128.60000610352</ele>
        <time>2021-02-26T08:53:55.000Z</time>
      </trkpt>
      <trkpt lat="49.39978" lon="1.46308">
        <ele>129.19999694824</ele>
        <time>2021-02-26T08:53:59.000Z</time>
      </trkpt>
      <trkpt lat="49.39978" lon="1.46306">
        <ele>129.19999694824</ele>
        <time>2021-02-26T08:54:00.000Z</time>
      </trkpt>
      <trkpt lat="49.39979" lon="1.46299">
        <ele>129.39999389648</ele>
        <time>2021-02-26T08:54:03.000Z</time>
      </trkpt>
      <trkpt lat="49.39978" lon="1.46294">
        <ele>129.80000305176</ele>
        <time>2021-02-26T08:54:05.000Z</time>
      </trkpt>
      <trkpt lat="49.39978" lon="1.46287">
        <ele>130.19999694824</ele>
        <time>2021-02-26T08:54:08.000Z</time>
      </trkpt>
      <trkpt lat="49.3998" lon="1.4628">
        <ele>130.39999389648</ele>
        <time>2021-02-26T08:54:11.000Z</time>
      </trkpt>
      <trkpt lat="49.39982" lon="1.46274">
        <ele>130.80000305176</ele>
        <time>2021-02-26T08:54:14.000Z</time>
      </trkpt>
      <trkpt lat="49.39986" lon="1.46266">
        <ele>131.80000305176</ele>
        <time>2021-02-26T08:54:18.000Z</time>
      </trkpt>
      <trkpt lat="49.39987" lon="1.46264">
        <ele>132</ele>
        <time>2021-02-26T08:54:19.000Z</time>
      </trkpt>
      <trkpt lat="49.39989" lon="1.46252">
        <ele>133.39999389648</ele>
        <time>2021-02-26T08:54:23.000Z</time>
      </trkpt>
      <trkpt lat="49.3999" lon="1.46237">
        <ele>134.39999389648</ele>
        <time>2021-02-26T08:54:27.000Z</time>
      </trkpt>
      <trkpt lat="49.39992" lon="1.4623">
        <ele>134.80000305176</ele>
        <time>2021-02-26T08:54:30.000Z</time>
      </trkpt>
      <trkpt lat="49.39997" lon="1.46215">
        <ele>135.39999389648</ele>
        <time>2021-02-26T08:54:35.000Z</time>
      </trkpt>
      <trkpt lat="49.40002" lon="1.46205">
        <ele>136.60000610352</ele>
        <time>2021-02-26T08:54:39.000Z</time>
      </trkpt>
      <trkpt lat="49.40009" lon="1.46189">
        <ele>137.19999694824</ele>
        <time>2021-02-26T08:54:44.000Z</time>
      </trkpt>
      <trkpt lat="49.4001" lon="1.46185">
        <ele>137.60000610352</ele>
        <time>2021-02-26T08:54:45.000Z</time>
      </trkpt>
      <trkpt lat="49.40013" lon="1.46172">
        <ele>138.60000610352</ele>
        <time>2021-02-26T08:54:48.000Z</time>
      </trkpt>
      <trkpt lat="49.40014" lon="1.46167">
        <ele>138.80000305176</ele>
        <time>2021-02-26T08:54:49.000Z</time>
      </trkpt>
      <trkpt lat="49.40022" lon="1.46142">
        <ele>139.19999694824</ele>
        <time>2021-02-26T08:54:54.000Z</time>
      </trkpt>
      <trkpt lat="49.40032" lon="1.46121">
        <ele>139.60000610352</ele>
        <time>2021-02-26T08:54:59.000Z</time>
      </trkpt>
      <trkpt lat="49.40045" lon="1.46085">
        <ele>139.60000610352</ele>
        <time>2021-02-26T08:55:06.000Z</time>
      </trkpt>
      <trkpt lat="49.40051" lon="1.46061">
        <ele>139.80000305176</ele>
        <time>2021-02-26T08:55:10.000Z</time>
      </trkpt>
      <trkpt lat="49.40055" lon="1.46043">
        <ele>140</ele>
        <time>2021-02-26T08:55:13.000Z</time>
      </trkpt>
      <trkpt lat="49.40065" lon="1.46008">
        <ele>140.60000610352</ele>
        <time>2021-02-26T08:55:19.000Z</time>
      </trkpt>
      <trkpt lat="49.4007" lon="1.45985">
        <ele>140.80000305176</ele>
        <time>2021-02-26T08:55:23.000Z</time>
      </trkpt>
      <trkpt lat="49.40074" lon="1.45967">
        <ele>141.19999694824</ele>
        <time>2021-02-26T08:55:26.000Z</time>
      </trkpt>
      <trkpt lat="49.40079" lon="1.45942">
        <ele>142</ele>
        <time>2021-02-26T08:55:30.000Z</time>
      </trkpt>
      <trkpt lat="49.4008" lon="1.45924">
        <ele>142.39999389648</ele>
        <time>2021-02-26T08:55:33.000Z</time>
      </trkpt>
      <trkpt lat="49.40081" lon="1.459">
        <ele>143.19999694824</ele>
        <time>2021-02-26T08:55:37.000Z</time>
      </trkpt>
      <trkpt lat="49.4008" lon="1.45889">
        <ele>143.60000610352</ele>
        <time>2021-02-26T08:55:39.000Z</time>
      </trkpt>
      <trkpt lat="49.40081" lon="1.45874">
        <ele>144.19999694824</ele>
        <time>2021-02-26T08:55:42.000Z</time>
      </trkpt>
      <trkpt lat="49.40083" lon="1.4587">
        <ele>144.39999389648</ele>
        <time>2021-02-26T08:55:43.000Z</time>
      </trkpt>
      <trkpt lat="49.40087" lon="1.45845">
        <ele>145.19999694824</ele>
        <time>2021-02-26T08:55:48.000Z</time>
      </trkpt>
      <trkpt lat="49.40087" lon="1.45839">
        <ele>145.39999389648</ele>
        <time>2021-02-26T08:55:49.000Z</time>
      </trkpt>
      <trkpt lat="49.40085" lon="1.45809">
        <ele>146.39999389648</ele>
        <time>2021-02-26T08:55:54.000Z</time>
      </trkpt>
      <trkpt lat="49.40082" lon="1.45777">
        <ele>146.80000305176</ele>
        <time>2021-02-26T08:56:00.000Z</time>
      </trkpt>
      <trkpt lat="49.4008" lon="1.45773">
        <ele>146.80000305176</ele>
        <time>2021-02-26T08:56:01.000Z</time>
      </trkpt>
      <trkpt lat="49.40073" lon="1.45772">
        <ele>146.80000305176</ele>
        <time>2021-02-26T08:56:03.000Z</time>
      </trkpt>
      <trkpt lat="49.40056" lon="1.45775">
        <ele>146.80000305176</ele>
        <time>2021-02-26T08:56:06.000Z</time>
      </trkpt>
      <trkpt lat="49.40032" lon="1.45781">
        <ele>146.80000305176</ele>
        <time>2021-02-26T08:56:10.000Z</time>
      </trkpt>
      <trkpt lat="49.40017" lon="1.45786">
        <ele>145.39999389648</ele>
        <time>2021-02-26T08:56:14.000Z</time>
      </trkpt>
      <trkpt lat="49.40016" lon="1.45785">
        <ele>145</ele>
        <time>2021-02-26T08:56:15.000Z</time>
      </trkpt>
      <trkpt lat="49.40014" lon="1.45784">
        <ele>144.80000305176</ele>
        <time>2021-02-26T08:56:16.000Z</time>
      </trkpt>
      <trkpt lat="49.40005" lon="1.45779">
        <ele>144.19999694824</ele>
        <time>2021-02-26T08:56:21.000Z</time>
      </trkpt>
      <trkpt lat="49.39999" lon="1.45777">
        <ele>144</ele>
        <time>2021-02-26T08:56:23.000Z</time>
      </trkpt>
      <trkpt lat="49.39984" lon="1.45775">
        <ele>144</ele>
        <time>2021-02-26T08:56:27.000Z</time>
      </trkpt>
      <trkpt lat="49.39972" lon="1.45763">
        <ele>144</ele>
        <time>2021-02-26T08:56:31.000Z</time>
      </trkpt>
      <trkpt lat="49.3995" lon="1.45749">
        <ele>144</ele>
        <time>2021-02-26T08:56:37.000Z</time>
      </trkpt>
      <trkpt lat="49.39941" lon="1.45744">
        <ele>144.19999694824</ele>
        <time>2021-02-26T08:56:39.000Z</time>
      </trkpt>
      <trkpt lat="49.39924" lon="1.45734">
        <ele>144.19999694824</ele>
        <time>2021-02-26T08:56:43.000Z</time>
      </trkpt>
      <trkpt lat="49.39908" lon="1.45716">
        <ele>144.19999694824</ele>
        <time>2021-02-26T08:56:47.000Z</time>
      </trkpt>
      <trkpt lat="49.39901" lon="1.45705">
        <ele>144.19999694824</ele>
        <time>2021-02-26T08:56:49.000Z</time>
      </trkpt>
      <trkpt lat="49.39892" lon="1.45686">
        <ele>144.39999389648</ele>
        <time>2021-02-26T08:56:52.000Z</time>
      </trkpt>
      <trkpt lat="49.39877" lon="1.45648">
        <ele>144.60000610352</ele>
        <time>2021-02-26T08:56:57.000Z</time>
      </trkpt>
      <trkpt lat="49.39874" lon="1.45639">
        <ele>144.60000610352</ele>
        <time>2021-02-26T08:56:58.000Z</time>
      </trkpt>
      <trkpt lat="49.39868" lon="1.45622">
        <ele>144.80000305176</ele>
        <time>2021-02-26T08:57:00.000Z</time>
      </trkpt>
      <trkpt lat="49.39859" lon="1.45607">
        <ele>145</ele>
        <time>2021-02-26T08:57:02.000Z</time>
      </trkpt>
      <trkpt lat="49.3985" lon="1.45592">
        <ele>145</ele>
        <time>2021-02-26T08:57:04.000Z</time>
      </trkpt>
      <trkpt lat="49.39839" lon="1.45579">
        <ele>145.19999694824</ele>
        <time>2021-02-26T08:57:06.000Z</time>
      </trkpt>
      <trkpt lat="49.39832" lon="1.45572">
        <ele>145.19999694824</ele>
        <time>2021-02-26T08:57:07.000Z</time>
      </trkpt>
      <trkpt lat="49.39798" lon="1.45541">
        <ele>145.80000305176</ele>
        <time>2021-02-26T08:57:12.000Z</time>
      </trkpt>
      <trkpt lat="49.39768" lon="1.45507">
        <ele>146</ele>
        <time>2021-02-26T08:57:17.000Z</time>
      </trkpt>
      <trkpt lat="49.39751" lon="1.45486">
        <ele>146.39999389648</ele>
        <time>2021-02-26T08:57:20.000Z</time>
      </trkpt>
      <trkpt lat="49.39737" lon="1.45467">
        <ele>146.39999389648</ele>
        <time>2021-02-26T08:57:23.000Z</time>
      </trkpt>
      <trkpt lat="49.39729" lon="1.45454">
        <ele>146.39999389648</ele>
        <time>2021-02-26T08:57:25.000Z</time>
      </trkpt>
      <trkpt lat="49.3971" lon="1.45422">
        <ele>146.19999694824</ele>
        <time>2021-02-26T08:57:31.000Z</time>
      </trkpt>
      <trkpt lat="49.39702" lon="1.45407">
        <ele>146.19999694824</ele>
        <time>2021-02-26T08:57:35.000Z</time>
      </trkpt>
      <trkpt lat="49.39692" lon="1.45377">
        <ele>146.19999694824</ele>
        <time>2021-02-26T08:57:41.000Z</time>
      </trkpt>
      <trkpt lat="49.39685" lon="1.45346">
        <ele>146.19999694824</ele>
        <time>2021-02-26T08:57:47.000Z</time>
      </trkpt>
      <trkpt lat="49.39678" lon="1.4532">
        <ele>146.19999694824</ele>
        <time>2021-02-26T08:57:52.000Z</time>
      </trkpt>
      <trkpt lat="49.39674" lon="1.45288">
        <ele>146.19999694824</ele>
        <time>2021-02-26T08:57:58.000Z</time>
      </trkpt>
      <trkpt lat="49.39673" lon="1.4526">
        <ele>146.39999389648</ele>
        <time>2021-02-26T08:58:04.000Z</time>
      </trkpt>
      <trkpt lat="49.39669" lon="1.45229">
        <ele>146.80000305176</ele>
        <time>2021-02-26T08:58:10.000Z</time>
      </trkpt>
      <trkpt lat="49.39663" lon="1.45201">
        <ele>146.80000305176</ele>
        <time>2021-02-26T08:58:16.000Z</time>
      </trkpt>
      <trkpt lat="49.39655" lon="1.45174">
        <ele>146.80000305176</ele>
        <time>2021-02-26T08:58:22.000Z</time>
      </trkpt>
      <trkpt lat="49.39645" lon="1.45153">
        <ele>146.60000610352</ele>
        <time>2021-02-26T08:58:26.000Z</time>
      </trkpt>
      <trkpt lat="49.39636" lon="1.45131">
        <ele>146.60000610352</ele>
        <time>2021-02-26T08:58:30.000Z</time>
      </trkpt>
      <trkpt lat="49.39628" lon="1.45104">
        <ele>146.60000610352</ele>
        <time>2021-02-26T08:58:35.000Z</time>
      </trkpt>
      <trkpt lat="49.3962" lon="1.45068">
        <ele>146.80000305176</ele>
        <time>2021-02-26T08:58:41.000Z</time>
      </trkpt>
      <trkpt lat="49.39612" lon="1.45017">
        <ele>147</ele>
        <time>2021-02-26T08:58:48.000Z</time>
      </trkpt>
      <trkpt lat="49.3961" lon="1.44982">
        <ele>147.19999694824</ele>
        <time>2021-02-26T08:58:53.000Z</time>
      </trkpt>
      <trkpt lat="49.39609" lon="1.44945">
        <ele>147.19999694824</ele>
        <time>2021-02-26T08:58:59.000Z</time>
      </trkpt>
      <trkpt lat="49.39607" lon="1.44913">
        <ele>147.19999694824</ele>
        <time>2021-02-26T08:59:04.000Z</time>
      </trkpt>
      <trkpt lat="49.39608" lon="1.44906">
        <ele>147.19999694824</ele>
        <time>2021-02-26T08:59:05.000Z</time>
      </trkpt>
      <trkpt lat="49.3961" lon="1.44879">
        <ele>147.39999389648</ele>
        <time>2021-02-26T08:59:09.000Z</time>
      </trkpt>
      <trkpt lat="49.3961" lon="1.44872">
        <ele>147.39999389648</ele>
        <time>2021-02-26T08:59:10.000Z</time>
      </trkpt>
      <trkpt lat="49.39611" lon="1.44857">
        <ele>147.39999389648</ele>
        <time>2021-02-26T08:59:12.000Z</time>
      </trkpt>
      <trkpt lat="49.39612" lon="1.44844">
        <ele>147.39999389648</ele>
        <time>2021-02-26T08:59:14.000Z</time>
      </trkpt>
      <trkpt lat="49.39612" lon="1.4483">
        <ele>147.39999389648</ele>
        <time>2021-02-26T08:59:16.000Z</time>
      </trkpt>
      <trkpt lat="49.39611" lon="1.44823">
        <ele>147.39999389648</ele>
        <time>2021-02-26T08:59:17.000Z</time>
      </trkpt>
      <trkpt lat="49.39608" lon="1.44805">
        <ele>147.39999389648</ele>
        <time>2021-02-26T08:59:19.000Z</time>
      </trkpt>
      <trkpt lat="49.39603" lon="1.44764">
        <ele>147.60000610352</ele>
        <time>2021-02-26T08:59:24.000Z</time>
      </trkpt>
      <trkpt lat="49.39602" lon="1.44756">
        <ele>147.60000610352</ele>
        <time>2021-02-26T08:59:25.000Z</time>
      </trkpt>
      <trkpt lat="49.39596" lon="1.44711">
        <ele>148</ele>
        <time>2021-02-26T08:59:30.000Z</time>
      </trkpt>
      <trkpt lat="49.39592" lon="1.44665">
        <ele>148</ele>
        <time>2021-02-26T08:59:35.000Z</time>
      </trkpt>
      <trkpt lat="49.39592" lon="1.44657">
        <ele>148</ele>
        <time>2021-02-26T08:59:36.000Z</time>
      </trkpt>
      <trkpt lat="49.39597" lon="1.44638">
        <ele>148.19999694824</ele>
        <time>2021-02-26T08:59:39.000Z</time>
      </trkpt>
      <trkpt lat="49.39599" lon="1.4463">
        <ele>148.39999389648</ele>
        <time>2021-02-26T08:59:40.000Z</time>
      </trkpt>
      <trkpt lat="49.39599" lon="1.44606">
        <ele>148.60000610352</ele>
        <time>2021-02-26T08:59:43.000Z</time>
      </trkpt>
      <trkpt lat="49.39596" lon="1.44591">
        <ele>148.60000610352</ele>
        <time>2021-02-26T08:59:45.000Z</time>
      </trkpt>
      <trkpt lat="49.39592" lon="1.44568">
        <ele>148.60000610352</ele>
        <time>2021-02-26T08:59:48.000Z</time>
      </trkpt>
      <trkpt lat="49.39589" lon="1.44561">
        <ele>148.80000305176</ele>
        <time>2021-02-26T08:59:49.000Z</time>
      </trkpt>
      <trkpt lat="49.39584" lon="1.44553">
        <ele>148.80000305176</ele>
        <time>2021-02-26T08:59:51.000Z</time>
      </trkpt>
      <trkpt lat="49.39578" lon="1.44555">
        <ele>149</ele>
        <time>2021-02-26T08:59:53.000Z</time>
      </trkpt>
      <trkpt lat="49.39576" lon="1.44556">
        <ele>149</ele>
        <time>2021-02-26T08:59:54.000Z</time>
      </trkpt>
      <trkpt lat="49.39564" lon="1.44564">
        <ele>149</ele>
        <time>2021-02-26T08:59:58.000Z</time>
      </trkpt>
      <trkpt lat="49.39547" lon="1.44575">
        <ele>149.19999694824</ele>
        <time>2021-02-26T09:00:03.000Z</time>
      </trkpt>
      <trkpt lat="49.39535" lon="1.44583">
        <ele>149.19999694824</ele>
        <time>2021-02-26T09:00:06.000Z</time>
      </trkpt>
      <trkpt lat="49.39525" lon="1.44587">
        <ele>149.19999694824</ele>
        <time>2021-02-26T09:00:08.000Z</time>
      </trkpt>
      <trkpt lat="49.39503" lon="1.44604">
        <ele>149.19999694824</ele>
        <time>2021-02-26T09:00:13.000Z</time>
      </trkpt>
      <trkpt lat="49.39478" lon="1.4461">
        <ele>149.19999694824</ele>
        <time>2021-02-26T09:00:18.000Z</time>
      </trkpt>
      <trkpt lat="49.39438" lon="1.44616">
        <ele>149.19999694824</ele>
        <time>2021-02-26T09:00:24.000Z</time>
      </trkpt>
      <trkpt lat="49.39416" lon="1.44617">
        <ele>149.19999694824</ele>
        <time>2021-02-26T09:00:27.000Z</time>
      </trkpt>
      <trkpt lat="49.39402" lon="1.44613">
        <ele>149.19999694824</ele>
        <time>2021-02-26T09:00:29.000Z</time>
      </trkpt>
      <trkpt lat="49.39364" lon="1.44597">
        <ele>149.19999694824</ele>
        <time>2021-02-26T09:00:34.000Z</time>
      </trkpt>
      <trkpt lat="49.39356" lon="1.44594">
        <ele>149</ele>
        <time>2021-02-26T09:00:35.000Z</time>
      </trkpt>
      <trkpt lat="49.39326" lon="1.44582">
        <ele>148.80000305176</ele>
        <time>2021-02-26T09:00:39.000Z</time>
      </trkpt>
      <trkpt lat="49.39303" lon="1.44555">
        <ele>148.19999694824</ele>
        <time>2021-02-26T09:00:43.000Z</time>
      </trkpt>
      <trkpt lat="49.39284" lon="1.44536">
        <ele>148.19999694824</ele>
        <time>2021-02-26T09:00:46.000Z</time>
      </trkpt>
      <trkpt lat="49.39269" lon="1.44526">
        <ele>148</ele>
        <time>2021-02-26T09:00:48.000Z</time>
      </trkpt>
      <trkpt lat="49.39262" lon="1.44522">
        <ele>148</ele>
        <time>2021-02-26T09:00:49.000Z</time>
      </trkpt>
      <trkpt lat="49.39234" lon="1.44502">
        <ele>147.80000305176</ele>
        <time>2021-02-26T09:00:53.000Z</time>
      </trkpt>
      <trkpt lat="49.39228" lon="1.44496">
        <ele>148</ele>
        <time>2021-02-26T09:00:54.000Z</time>
      </trkpt>
      <trkpt lat="49.39195" lon="1.44466">
        <ele>147.60000610352</ele>
        <time>2021-02-26T09:00:59.000Z</time>
      </trkpt>
      <trkpt lat="49.39189" lon="1.44459">
        <ele>147.39999389648</ele>
        <time>2021-02-26T09:01:00.000Z</time>
      </trkpt>
      <trkpt lat="49.39183" lon="1.44452">
        <ele>147.39999389648</ele>
        <time>2021-02-26T09:01:01.000Z</time>
      </trkpt>
      <trkpt lat="49.3917" lon="1.4444">
        <ele>147.19999694824</ele>
        <time>2021-02-26T09:01:03.000Z</time>
      </trkpt>
      <trkpt lat="49.3914" lon="1.44407">
        <ele>146.60000610352</ele>
        <time>2021-02-26T09:01:08.000Z</time>
      </trkpt>
      <trkpt lat="49.39129" lon="1.44395">
        <ele>146.39999389648</ele>
        <time>2021-02-26T09:01:10.000Z</time>
      </trkpt>
      <trkpt lat="49.39111" lon="1.44374">
        <ele>146.39999389648</ele>
        <time>2021-02-26T09:01:13.000Z</time>
      </trkpt>
      <trkpt lat="49.39089" lon="1.4435">
        <ele>146.39999389648</ele>
        <time>2021-02-26T09:01:17.000Z</time>
      </trkpt>
      <trkpt lat="49.39084" lon="1.44343">
        <ele>146.39999389648</ele>
        <time>2021-02-26T09:01:18.000Z</time>
      </trkpt>
      <trkpt lat="49.39081" lon="1.44337">
        <ele>146.39999389648</ele>
        <time>2021-02-26T09:01:19.000Z</time>
      </trkpt>
      <trkpt lat="49.39068" lon="1.44312">
        <ele>146.60000610352</ele>
        <time>2021-02-26T09:01:23.000Z</time>
      </trkpt>
      <trkpt lat="49.39054" lon="1.44288">
        <ele>146.80000305176</ele>
        <time>2021-02-26T09:01:27.000Z</time>
      </trkpt>
      <trkpt lat="49.3905" lon="1.44283">
        <ele>146.80000305176</ele>
        <time>2021-02-26T09:01:28.000Z</time>
      </trkpt>
      <trkpt lat="49.39039" lon="1.4428">
        <ele>146.80000305176</ele>
        <time>2021-02-26T09:01:31.000Z</time>
      </trkpt>
      <trkpt lat="49.39027" lon="1.44298">
        <ele>146.80000305176</ele>
        <time>2021-02-26T09:01:35.000Z</time>
      </trkpt>
      <trkpt lat="49.39019" lon="1.44316">
        <ele>146.80000305176</ele>
        <time>2021-02-26T09:01:38.000Z</time>
      </trkpt>
      <trkpt lat="49.39015" lon="1.44323">
        <ele>147</ele>
        <time>2021-02-26T09:01:39.000Z</time>
      </trkpt>
      <trkpt lat="49.39003" lon="1.44346">
        <ele>146.80000305176</ele>
        <time>2021-02-26T09:01:42.000Z</time>
      </trkpt>
      <trkpt lat="49.38998" lon="1.44353">
        <ele>146.60000610352</ele>
        <time>2021-02-26T09:01:43.000Z</time>
      </trkpt>
      <trkpt lat="49.38976" lon="1.44368">
        <ele>145.80000305176</ele>
        <time>2021-02-26T09:01:46.000Z</time>
      </trkpt>
      <trkpt lat="49.38943" lon="1.44372">
        <ele>144.60000610352</ele>
        <time>2021-02-26T09:01:50.000Z</time>
      </trkpt>
      <trkpt lat="49.38923" lon="1.44361">
        <ele>143.39999389648</ele>
        <time>2021-02-26T09:01:53.000Z</time>
      </trkpt>
      <trkpt lat="49.38917" lon="1.44359">
        <ele>143</ele>
        <time>2021-02-26T09:01:54.000Z</time>
      </trkpt>
      <trkpt lat="49.38903" lon="1.44354">
        <ele>142.39999389648</ele>
        <time>2021-02-26T09:01:56.000Z</time>
      </trkpt>
      <trkpt lat="49.38888" lon="1.4435">
        <ele>141.80000305176</ele>
        <time>2021-02-26T09:01:58.000Z</time>
      </trkpt>
      <trkpt lat="49.38882" lon="1.44348">
        <ele>141.60000610352</ele>
        <time>2021-02-26T09:01:59.000Z</time>
      </trkpt>
      <trkpt lat="49.38875" lon="1.44346">
        <ele>141.39999389648</ele>
        <time>2021-02-26T09:02:00.000Z</time>
      </trkpt>
      <trkpt lat="49.38855" lon="1.44338">
        <ele>141</ele>
        <time>2021-02-26T09:02:03.000Z</time>
      </trkpt>
      <trkpt lat="49.38821" lon="1.44321">
        <ele>140.60000610352</ele>
        <time>2021-02-26T09:02:08.000Z</time>
      </trkpt>
      <trkpt lat="49.38795" lon="1.44317">
        <ele>140.39999389648</ele>
        <time>2021-02-26T09:02:11.000Z</time>
      </trkpt>
      <trkpt lat="49.38779" lon="1.44316">
        <ele>140.19999694824</ele>
        <time>2021-02-26T09:02:13.000Z</time>
      </trkpt>
      <trkpt lat="49.38761" lon="1.44318">
        <ele>140</ele>
        <time>2021-02-26T09:02:15.000Z</time>
      </trkpt>
      <trkpt lat="49.38735" lon="1.4432">
        <ele>139.60000610352</ele>
        <time>2021-02-26T09:02:18.000Z</time>
      </trkpt>
      <trkpt lat="49.38717" lon="1.44324">
        <ele>139.39999389648</ele>
        <time>2021-02-26T09:02:20.000Z</time>
      </trkpt>
      <trkpt lat="49.38702" lon="1.44336">
        <ele>139.39999389648</ele>
        <time>2021-02-26T09:02:22.000Z</time>
      </trkpt>
      <trkpt lat="49.38696" lon="1.44341">
        <ele>139.19999694824</ele>
        <time>2021-02-26T09:02:23.000Z</time>
      </trkpt>
      <trkpt lat="49.38685" lon="1.44343">
        <ele>138.80000305176</ele>
        <time>2021-02-26T09:02:25.000Z</time>
      </trkpt>
      <trkpt lat="49.3868" lon="1.44346">
        <ele>138.39999389648</ele>
        <time>2021-02-26T09:02:26.000Z</time>
      </trkpt>
      <trkpt lat="49.38672" lon="1.44349">
        <ele>135.80000305176</ele>
        <time>2021-02-26T09:02:28.000Z</time>
      </trkpt>
      <trkpt lat="49.38669" lon="1.4435">
        <ele>132</ele>
        <time>2021-02-26T09:02:29.000Z</time>
      </trkpt>
      <trkpt lat="49.38668" lon="1.44352">
        <ele>127.19999694824</ele>
        <time>2021-02-26T09:02:30.000Z</time>
      </trkpt>
      <trkpt lat="49.38667" lon="1.44356">
        <ele>122.19999694824</ele>
        <time>2021-02-26T09:02:31.000Z</time>
      </trkpt>
      <trkpt lat="49.38667" lon="1.44361">
        <ele>117.80000305176</ele>
        <time>2021-02-26T09:02:32.000Z</time>
      </trkpt>
      <trkpt lat="49.38669" lon="1.44364">
        <ele>113.80000305176</ele>
        <time>2021-02-26T09:02:33.000Z</time>
      </trkpt>
      <trkpt lat="49.3867" lon="1.44366">
        <ele>110</ele>
        <time>2021-02-26T09:02:34.000Z</time>
      </trkpt>
      <trkpt lat="49.38672" lon="1.44364">
        <ele>106.80000305176</ele>
        <time>2021-02-26T09:02:35.000Z</time>
      </trkpt>
      <trkpt lat="49.38672" lon="1.44362">
        <ele>101.40000152588</ele>
        <time>2021-02-26T09:02:36.000Z</time>
      </trkpt>
      <trkpt lat="49.38671" lon="1.4436">
        <ele>99</ele>
        <time>2021-02-26T09:02:37.000Z</time>
      </trkpt>
      <trkpt lat="49.3867" lon="1.44357">
        <ele>97</ele>
        <time>2021-02-26T09:02:38.000Z</time>
      </trkpt>
      <trkpt lat="49.38668" lon="1.44355">
        <ele>95.199996948242</ele>
        <time>2021-02-26T09:02:39.000Z</time>
      </trkpt>
      <trkpt lat="49.38666" lon="1.44352">
        <ele>93.599998474121</ele>
        <time>2021-02-26T09:02:40.000Z</time>
      </trkpt>
      <trkpt lat="49.38664" lon="1.4435">
        <ele>92.199996948242</ele>
        <time>2021-02-26T09:02:41.000Z</time>
      </trkpt>
      <trkpt lat="49.38661" lon="1.44348">
        <ele>91</ele>
        <time>2021-02-26T09:02:42.000Z</time>
      </trkpt>
      <trkpt lat="49.38658" lon="1.44346">
        <ele>90</ele>
        <time>2021-02-26T09:02:43.000Z</time>
      </trkpt>
      <trkpt lat="49.38653" lon="1.44343">
        <ele>88.599998474121</ele>
        <time>2021-02-26T09:02:45.000Z</time>
      </trkpt>
      <trkpt lat="49.38642" lon="1.4434">
        <ele>87.400001525879</ele>
        <time>2021-02-26T09:02:48.000Z</time>
      </trkpt>
      <trkpt lat="49.38638" lon="1.4434">
        <ele>87.199996948242</ele>
        <time>2021-02-26T09:02:49.000Z</time>
      </trkpt>
      <trkpt lat="49.38608" lon="1.44339">
        <ele>86.800003051758</ele>
        <time>2021-02-26T09:02:56.000Z</time>
      </trkpt>
      <trkpt lat="49.38594" lon="1.44336">
        <ele>86.199996948242</ele>
        <time>2021-02-26T09:02:59.000Z</time>
      </trkpt>
      <trkpt lat="49.3858" lon="1.44331">
        <ele>85.599998474121</ele>
        <time>2021-02-26T09:03:02.000Z</time>
      </trkpt>
      <trkpt lat="49.38572" lon="1.44327">
        <ele>85.199996948242</ele>
        <time>2021-02-26T09:03:04.000Z</time>
      </trkpt>
      <trkpt lat="49.38556" lon="1.44316">
        <ele>84</ele>
        <time>2021-02-26T09:03:08.000Z</time>
      </trkpt>
      <trkpt lat="49.38549" lon="1.4431">
        <ele>83.599998474121</ele>
        <time>2021-02-26T09:03:10.000Z</time>
      </trkpt>
      <trkpt lat="49.38533" lon="1.44304">
        <ele>83.199996948242</ele>
        <time>2021-02-26T09:03:14.000Z</time>
      </trkpt>
      <trkpt lat="49.38524" lon="1.44304">
        <ele>83</ele>
        <time>2021-02-26T09:03:16.000Z</time>
      </trkpt>
      <trkpt lat="49.38514" lon="1.44306">
        <ele>82.599998474121</ele>
        <time>2021-02-26T09:03:18.000Z</time>
      </trkpt>
      <trkpt lat="49.3849" lon="1.44314">
        <ele>82</ele>
        <time>2021-02-26T09:03:22.000Z</time>
      </trkpt>
      <trkpt lat="49.38484" lon="1.44317">
        <ele>81.800003051758</ele>
        <time>2021-02-26T09:03:23.000Z</time>
      </trkpt>
      <trkpt lat="49.3847" lon="1.44321">
        <ele>81.400001525879</ele>
        <time>2021-02-26T09:03:25.000Z</time>
      </trkpt>
      <trkpt lat="49.38457" lon="1.44321">
        <ele>81</ele>
        <time>2021-02-26T09:03:27.000Z</time>
      </trkpt>
      <trkpt lat="49.3845" lon="1.4432">
        <ele>80.599998474121</ele>
        <time>2021-02-26T09:03:28.000Z</time>
      </trkpt>
      <trkpt lat="49.38444" lon="1.44319">
        <ele>80.400001525879</ele>
        <time>2021-02-26T09:03:29.000Z</time>
      </trkpt>
      <trkpt lat="49.38422" lon="1.44309">
        <ele>79.800003051758</ele>
        <time>2021-02-26T09:03:33.000Z</time>
      </trkpt>
      <trkpt lat="49.38407" lon="1.44302">
        <ele>79.599998474121</ele>
        <time>2021-02-26T09:03:36.000Z</time>
      </trkpt>
      <trkpt lat="49.38386" lon="1.44293">
        <ele>79.400001525879</ele>
        <time>2021-02-26T09:03:40.000Z</time>
      </trkpt>
      <trkpt lat="49.38346" lon="1.44278">
        <ele>78.599998474121</ele>
        <time>2021-02-26T09:03:48.000Z</time>
      </trkpt>
      <trkpt lat="49.38342" lon="1.44276">
        <ele>78.400001525879</ele>
        <time>2021-02-26T09:03:49.000Z</time>
      </trkpt>
      <trkpt lat="49.38318" lon="1.44265">
        <ele>77.599998474121</ele>
        <time>2021-02-26T09:03:56.000Z</time>
      </trkpt>
      <trkpt lat="49.38305" lon="1.44255">
        <ele>76.599998474121</ele>
        <time>2021-02-26T09:04:02.000Z</time>
      </trkpt>
      <trkpt lat="49.38299" lon="1.44251">
        <ele>76.199996948242</ele>
        <time>2021-02-26T09:04:05.000Z</time>
      </trkpt>
      <trkpt lat="49.38291" lon="1.44246">
        <ele>75.800003051758</ele>
        <time>2021-02-26T09:04:09.000Z</time>
      </trkpt>
      <trkpt lat="49.3828" lon="1.44242">
        <ele>75.199996948242</ele>
        <time>2021-02-26T09:04:15.000Z</time>
      </trkpt>
      <trkpt lat="49.3827" lon="1.44241">
        <ele>74.400001525879</ele>
        <time>2021-02-26T09:04:20.000Z</time>
      </trkpt>
      <trkpt lat="49.38267" lon="1.44241">
        <ele>74.199996948242</ele>
        <time>2021-02-26T09:04:22.000Z</time>
      </trkpt>
      <trkpt lat="49.38258" lon="1.44239">
        <ele>73</ele>
        <time>2021-02-26T09:04:28.000Z</time>
      </trkpt>
      <trkpt lat="49.38256" lon="1.44239">
        <ele>72.800003051758</ele>
        <time>2021-02-26T09:04:29.000Z</time>
      </trkpt>
      <trkpt lat="49.38252" lon="1.44238">
        <ele>71.800003051758</ele>
        <time>2021-02-26T09:04:32.000Z</time>
      </trkpt>
      <trkpt lat="49.38245" lon="1.44237">
        <ele>70.800003051758</ele>
        <time>2021-02-26T09:04:36.000Z</time>
      </trkpt>
      <trkpt lat="49.38244" lon="1.44236">
        <ele>70.599998474121</ele>
        <time>2021-02-26T09:04:37.000Z</time>
      </trkpt>
      <trkpt lat="49.38236" lon="1.44235">
        <ele>69.400001525879</ele>
        <time>2021-02-26T09:04:42.000Z</time>
      </trkpt>
      <trkpt lat="49.38231" lon="1.44235">
        <ele>68.400001525879</ele>
        <time>2021-02-26T09:04:45.000Z</time>
      </trkpt>
      <trkpt lat="49.38228" lon="1.44235">
        <ele>68</ele>
        <time>2021-02-26T09:04:47.000Z</time>
      </trkpt>
      <trkpt lat="49.3822" lon="1.44233">
        <ele>66.800003051758</ele>
        <time>2021-02-26T09:04:52.000Z</time>
      </trkpt>
      <trkpt lat="49.38212" lon="1.44232">
        <ele>65.400001525879</ele>
        <time>2021-02-26T09:04:57.000Z</time>
      </trkpt>
      <trkpt lat="49.38205" lon="1.4423">
        <ele>64.400001525879</ele>
        <time>2021-02-26T09:05:01.000Z</time>
      </trkpt>
      <trkpt lat="49.38194" lon="1.44228">
        <ele>63.400001525879</ele>
        <time>2021-02-26T09:05:07.000Z</time>
      </trkpt>
      <trkpt lat="49.38191" lon="1.44228">
        <ele>63</ele>
        <time>2021-02-26T09:05:08.000Z</time>
      </trkpt>
      <trkpt lat="49.38189" lon="1.44227">
        <ele>62.799999237061</ele>
        <time>2021-02-26T09:05:09.000Z</time>
      </trkpt>
      <trkpt lat="49.38178" lon="1.44224">
        <ele>62</ele>
        <time>2021-02-26T09:05:13.000Z</time>
      </trkpt>
      <trkpt lat="49.38171" lon="1.44222">
        <ele>61.599998474121</ele>
        <time>2021-02-26T09:05:15.000Z</time>
      </trkpt>
      <trkpt lat="49.3816" lon="1.44219">
        <ele>60.799999237061</ele>
        <time>2021-02-26T09:05:18.000Z</time>
      </trkpt>
      <trkpt lat="49.38143" lon="1.44215">
        <ele>59.599998474121</ele>
        <time>2021-02-26T09:05:22.000Z</time>
      </trkpt>
      <trkpt lat="49.38138" lon="1.44214">
        <ele>59.400001525879</ele>
        <time>2021-02-26T09:05:23.000Z</time>
      </trkpt>
      <trkpt lat="49.38111" lon="1.44209">
        <ele>58.200000762939</ele>
        <time>2021-02-26T09:05:28.000Z</time>
      </trkpt>
      <trkpt lat="49.38074" lon="1.44203">
        <ele>57.400001525879</ele>
        <time>2021-02-26T09:05:33.000Z</time>
      </trkpt>
      <trkpt lat="49.38061" lon="1.44203">
        <ele>56.799999237061</ele>
        <time>2021-02-26T09:05:35.000Z</time>
      </trkpt>
      <trkpt lat="49.38056" lon="1.44208">
        <ele>56.599998474121</ele>
        <time>2021-02-26T09:05:36.000Z</time>
      </trkpt>
      <trkpt lat="49.38049" lon="1.44235">
        <ele>56.400001525879</ele>
        <time>2021-02-26T09:05:39.000Z</time>
      </trkpt>
      <trkpt lat="49.38042" lon="1.44292">
        <ele>56</ele>
        <time>2021-02-26T09:05:44.000Z</time>
      </trkpt>
      <trkpt lat="49.38041" lon="1.44344">
        <ele>56</ele>
        <time>2021-02-26T09:05:48.000Z</time>
      </trkpt>
      <trkpt lat="49.38034" lon="1.4437">
        <ele>56</ele>
        <time>2021-02-26T09:05:51.000Z</time>
      </trkpt>
      <trkpt lat="49.38025" lon="1.44371">
        <ele>56.400001525879</ele>
        <time>2021-02-26T09:05:53.000Z</time>
      </trkpt>
      <trkpt lat="49.37998" lon="1.4436">
        <ele>56.599998474121</ele>
        <time>2021-02-26T09:05:57.000Z</time>
      </trkpt>
      <trkpt lat="49.37949" lon="1.44348">
        <ele>57.200000762939</ele>
        <time>2021-02-26T09:06:03.000Z</time>
      </trkpt>
      <trkpt lat="49.37937" lon="1.44355">
        <ele>57.599998474121</ele>
        <time>2021-02-26T09:06:05.000Z</time>
      </trkpt>
      <trkpt lat="49.37933" lon="1.4436">
        <ele>57.799999237061</ele>
        <time>2021-02-26T09:06:06.000Z</time>
      </trkpt>
      <trkpt lat="49.37928" lon="1.4437">
        <ele>58.599998474121</ele>
        <time>2021-02-26T09:06:08.000Z</time>
      </trkpt>
      <trkpt lat="49.37927" lon="1.44376">
        <ele>59</ele>
        <time>2021-02-26T09:06:09.000Z</time>
      </trkpt>
      <trkpt lat="49.3793" lon="1.44388">
        <ele>60</ele>
        <time>2021-02-26T09:06:11.000Z</time>
      </trkpt>
      <trkpt lat="49.37933" lon="1.44392">
        <ele>60.400001525879</ele>
        <time>2021-02-26T09:06:12.000Z</time>
      </trkpt>
      <trkpt lat="49.37947" lon="1.44396">
        <ele>61.400001525879</ele>
        <time>2021-02-26T09:06:15.000Z</time>
      </trkpt>
      <trkpt lat="49.37957" lon="1.44399">
        <ele>62.200000762939</ele>
        <time>2021-02-26T09:06:17.000Z</time>
      </trkpt>
      <trkpt lat="49.37967" lon="1.44404">
        <ele>62.599998474121</ele>
        <time>2021-02-26T09:06:19.000Z</time>
      </trkpt>
      <trkpt lat="49.37972" lon="1.44406">
        <ele>62.799999237061</ele>
        <time>2021-02-26T09:06:20.000Z</time>
      </trkpt>
      <trkpt lat="49.37995" lon="1.44418">
        <ele>63.599998474121</ele>
        <time>2021-02-26T09:06:25.000Z</time>
      </trkpt>
      <trkpt lat="49.38" lon="1.44421">
        <ele>64</ele>
        <time>2021-02-26T09:06:26.000Z</time>
      </trkpt>
      <trkpt lat="49.38011" lon="1.44429">
        <ele>64.800003051758</ele>
        <time>2021-02-26T09:06:29.000Z</time>
      </trkpt>
      <trkpt lat="49.38024" lon="1.44437">
        <ele>65.400001525879</ele>
        <time>2021-02-26T09:06:32.000Z</time>
      </trkpt>
      <trkpt lat="49.38037" lon="1.44445">
        <ele>65.800003051758</ele>
        <time>2021-02-26T09:06:35.000Z</time>
      </trkpt>
      <trkpt lat="49.38053" lon="1.44448">
        <ele>66.199996948242</ele>
        <time>2021-02-26T09:06:38.000Z</time>
      </trkpt>
      <trkpt lat="49.38068" lon="1.44448">
        <ele>67</ele>
        <time>2021-02-26T09:06:41.000Z</time>
      </trkpt>
      <trkpt lat="49.38082" lon="1.44445">
        <ele>67.800003051758</ele>
        <time>2021-02-26T09:06:44.000Z</time>
      </trkpt>
      <trkpt lat="49.38092" lon="1.44443">
        <ele>68.199996948242</ele>
        <time>2021-02-26T09:06:46.000Z</time>
      </trkpt>
      <trkpt lat="49.38111" lon="1.44442">
        <ele>69.400001525879</ele>
        <time>2021-02-26T09:06:50.000Z</time>
      </trkpt>
      <trkpt lat="49.3812" lon="1.44441">
        <ele>69.599998474121</ele>
        <time>2021-02-26T09:06:52.000Z</time>
      </trkpt>
      <trkpt lat="49.38136" lon="1.4444">
        <ele>70.400001525879</ele>
        <time>2021-02-26T09:06:56.000Z</time>
      </trkpt>
      <trkpt lat="49.38146" lon="1.44438">
        <ele>70.800003051758</ele>
        <time>2021-02-26T09:06:59.000Z</time>
      </trkpt>
      <trkpt lat="49.38156" lon="1.44434">
        <ele>71.400001525879</ele>
        <time>2021-02-26T09:07:02.000Z</time>
      </trkpt>
      <trkpt lat="49.38163" lon="1.4443">
        <ele>72.199996948242</ele>
        <time>2021-02-26T09:07:04.000Z</time>
      </trkpt>
      <trkpt lat="49.38165" lon="1.4443">
        <ele>72.400001525879</ele>
        <time>2021-02-26T09:07:05.000Z</time>
      </trkpt>
      <trkpt lat="49.3817" lon="1.44436">
        <ele>72.800003051758</ele>
        <time>2021-02-26T09:07:07.000Z</time>
      </trkpt>
      <trkpt lat="49.38172" lon="1.44442">
        <ele>73</ele>
        <time>2021-02-26T09:07:08.000Z</time>
      </trkpt>
      <trkpt lat="49.38173" lon="1.44457">
        <ele>73.400001525879</ele>
        <time>2021-02-26T09:07:10.000Z</time>
      </trkpt>
      <trkpt lat="49.38172" lon="1.44482">
        <ele>74</ele>
        <time>2021-02-26T09:07:13.000Z</time>
      </trkpt>
      <trkpt lat="49.3817" lon="1.44488">
        <ele>74</ele>
        <time>2021-02-26T09:07:14.000Z</time>
      </trkpt>
      <trkpt lat="49.38159" lon="1.44497">
        <ele>74.199996948242</ele>
        <time>2021-02-26T09:07:17.000Z</time>
      </trkpt>
      <trkpt lat="49.38148" lon="1.44503">
        <ele>74.599998474121</ele>
        <time>2021-02-26T09:07:19.000Z</time>
      </trkpt>
      <trkpt lat="49.38144" lon="1.44508">
        <ele>74.800003051758</ele>
        <time>2021-02-26T09:07:20.000Z</time>
      </trkpt>
      <trkpt lat="49.38134" lon="1.44515">
        <ele>75</ele>
        <time>2021-02-26T09:07:22.000Z</time>
      </trkpt>
      <trkpt lat="49.38113" lon="1.44524">
        <ele>76</ele>
        <time>2021-02-26T09:07:26.000Z</time>
      </trkpt>
      <trkpt lat="49.38109" lon="1.44528">
        <ele>76.199996948242</ele>
        <time>2021-02-26T09:07:27.000Z</time>
      </trkpt>
      <trkpt lat="49.38102" lon="1.44542">
        <ele>76.800003051758</ele>
        <time>2021-02-26T09:07:30.000Z</time>
      </trkpt>
      <trkpt lat="49.381" lon="1.44547">
        <ele>77</ele>
        <time>2021-02-26T09:07:31.000Z</time>
      </trkpt>
      <trkpt lat="49.38099" lon="1.44552">
        <ele>77.400001525879</ele>
        <time>2021-02-26T09:07:32.000Z</time>
      </trkpt>
      <trkpt lat="49.38092" lon="1.44571">
        <ele>78.400001525879</ele>
        <time>2021-02-26T09:07:37.000Z</time>
      </trkpt>
      <trkpt lat="49.38091" lon="1.44573">
        <ele>78.400001525879</ele>
        <time>2021-02-26T09:07:38.000Z</time>
      </trkpt>
      <trkpt lat="49.38088" lon="1.44573">
        <ele>78.800003051758</ele>
        <time>2021-02-26T09:07:40.000Z</time>
      </trkpt>
      <trkpt lat="49.38086" lon="1.44573">
        <ele>78.800003051758</ele>
        <time>2021-02-26T09:07:41.000Z</time>
      </trkpt>
      <trkpt lat="49.38078" lon="1.44572">
        <ele>79.400001525879</ele>
        <time>2021-02-26T09:07:45.000Z</time>
      </trkpt>
      <trkpt lat="49.38076" lon="1.44574">
        <ele>79.599998474121</ele>
        <time>2021-02-26T09:07:46.000Z</time>
      </trkpt>
      <trkpt lat="49.38077" lon="1.44578">
        <ele>79.599998474121</ele>
        <time>2021-02-26T09:07:47.000Z</time>
      </trkpt>
      <trkpt lat="49.38084" lon="1.44582">
        <ele>80.199996948242</ele>
        <time>2021-02-26T09:07:50.000Z</time>
      </trkpt>
      <trkpt lat="49.38104" lon="1.44588">
        <ele>80.400001525879</ele>
        <time>2021-02-26T09:07:56.000Z</time>
      </trkpt>
      <trkpt lat="49.38115" lon="1.44591">
        <ele>80.800003051758</ele>
        <time>2021-02-26T09:07:59.000Z</time>
      </trkpt>
      <trkpt lat="49.38128" lon="1.44594">
        <ele>81.400001525879</ele>
        <time>2021-02-26T09:08:03.000Z</time>
      </trkpt>
      <trkpt lat="49.38142" lon="1.44597">
        <ele>82</ele>
        <time>2021-02-26T09:08:07.000Z</time>
      </trkpt>
      <trkpt lat="49.38157" lon="1.446">
        <ele>82.800003051758</ele>
        <time>2021-02-26T09:08:11.000Z</time>
      </trkpt>
      <trkpt lat="49.38165" lon="1.44602">
        <ele>83.199996948242</ele>
        <time>2021-02-26T09:08:13.000Z</time>
      </trkpt>
      <trkpt lat="49.38176" lon="1.44606">
        <ele>83.400001525879</ele>
        <time>2021-02-26T09:08:16.000Z</time>
      </trkpt>
      <trkpt lat="49.38183" lon="1.44612">
        <ele>83.400001525879</ele>
        <time>2021-02-26T09:08:18.000Z</time>
      </trkpt>
      <trkpt lat="49.38188" lon="1.44618">
        <ele>84</ele>
        <time>2021-02-26T09:08:20.000Z</time>
      </trkpt>
      <trkpt lat="49.38194" lon="1.44625">
        <ele>84.400001525879</ele>
        <time>2021-02-26T09:08:23.000Z</time>
      </trkpt>
      <trkpt lat="49.38201" lon="1.44636">
        <ele>85.599998474121</ele>
        <time>2021-02-26T09:08:28.000Z</time>
      </trkpt>
      <trkpt lat="49.38202" lon="1.44638">
        <ele>85.800003051758</ele>
        <time>2021-02-26T09:08:29.000Z</time>
      </trkpt>
      <trkpt lat="49.38206" lon="1.44644">
        <ele>86.599998474121</ele>
        <time>2021-02-26T09:08:32.000Z</time>
      </trkpt>
      <trkpt lat="49.38208" lon="1.44648">
        <ele>87.199996948242</ele>
        <time>2021-02-26T09:08:34.000Z</time>
      </trkpt>
      <trkpt lat="49.38211" lon="1.44652">
        <ele>88</ele>
        <time>2021-02-26T09:08:37.000Z</time>
      </trkpt>
      <trkpt lat="49.38214" lon="1.44658">
        <ele>88.800003051758</ele>
        <time>2021-02-26T09:08:41.000Z</time>
      </trkpt>
      <trkpt lat="49.38215" lon="1.4466">
        <ele>89.199996948242</ele>
        <time>2021-02-26T09:08:42.000Z</time>
      </trkpt>
      <trkpt lat="49.38221" lon="1.44669">
        <ele>90.400001525879</ele>
        <time>2021-02-26T09:08:47.000Z</time>
      </trkpt>
      <trkpt lat="49.38225" lon="1.44673">
        <ele>91</ele>
        <time>2021-02-26T09:08:50.000Z</time>
      </trkpt>
      <trkpt lat="49.38229" lon="1.44679">
        <ele>91.599998474121</ele>
        <time>2021-02-26T09:08:53.000Z</time>
      </trkpt>
      <trkpt lat="49.38232" lon="1.44685">
        <ele>92.199996948242</ele>
        <time>2021-02-26T09:08:56.000Z</time>
      </trkpt>
      <trkpt lat="49.38233" lon="1.44686">
        <ele>92.400001525879</ele>
        <time>2021-02-26T09:08:57.000Z</time>
      </trkpt>
      <trkpt lat="49.38235" lon="1.44688">
        <ele>92.599998474121</ele>
        <time>2021-02-26T09:08:58.000Z</time>
      </trkpt>
      <trkpt lat="49.38238" lon="1.44693">
        <ele>93</ele>
        <time>2021-02-26T09:09:01.000Z</time>
      </trkpt>
      <trkpt lat="49.38239" lon="1.44695">
        <ele>93.199996948242</ele>
        <time>2021-02-26T09:09:02.000Z</time>
      </trkpt>
      <trkpt lat="49.38243" lon="1.447">
        <ele>93.800003051758</ele>
        <time>2021-02-26T09:09:05.000Z</time>
      </trkpt>
      <trkpt lat="49.38248" lon="1.44709">
        <ele>94.599998474121</ele>
        <time>2021-02-26T09:09:10.000Z</time>
      </trkpt>
      <trkpt lat="49.3825" lon="1.44712">
        <ele>94.800003051758</ele>
        <time>2021-02-26T09:09:12.000Z</time>
      </trkpt>
      <trkpt lat="49.38254" lon="1.44718">
        <ele>95.599998474121</ele>
        <time>2021-02-26T09:09:16.000Z</time>
      </trkpt>
      <trkpt lat="49.38256" lon="1.4472">
        <ele>95.800003051758</ele>
        <time>2021-02-26T09:09:17.000Z</time>
      </trkpt>
      <trkpt lat="49.38256" lon="1.44721">
        <ele>96.199996948242</ele>
        <time>2021-02-26T09:09:18.000Z</time>
      </trkpt>
      <trkpt lat="49.38259" lon="1.44724">
        <ele>96.400001525879</ele>
        <time>2021-02-26T09:09:20.000Z</time>
      </trkpt>
      <trkpt lat="49.38261" lon="1.44725">
        <ele>96.599998474121</ele>
        <time>2021-02-26T09:09:21.000Z</time>
      </trkpt>
      <trkpt lat="49.38267" lon="1.44729">
        <ele>97.199996948242</ele>
        <time>2021-02-26T09:09:26.000Z</time>
      </trkpt>
      <trkpt lat="49.3827" lon="1.44731">
        <ele>97.400001525879</ele>
        <time>2021-02-26T09:09:29.000Z</time>
      </trkpt>
      <trkpt lat="49.38275" lon="1.44735">
        <ele>98.199996948242</ele>
        <time>2021-02-26T09:09:33.000Z</time>
      </trkpt>
      <trkpt lat="49.38277" lon="1.44737">
        <ele>98.400001525879</ele>
        <time>2021-02-26T09:09:35.000Z</time>
      </trkpt>
      <trkpt lat="49.38283" lon="1.44743">
        <ele>99.400001525879</ele>
        <time>2021-02-26T09:09:40.000Z</time>
      </trkpt>
      <trkpt lat="49.38289" lon="1.44749">
        <ele>100.19999694824</ele>
        <time>2021-02-26T09:09:44.000Z</time>
      </trkpt>
      <trkpt lat="49.3829" lon="1.4475">
        <ele>100.40000152588</ele>
        <time>2021-02-26T09:09:45.000Z</time>
      </trkpt>
      <trkpt lat="49.38296" lon="1.44757">
        <ele>101.19999694824</ele>
        <time>2021-02-26T09:09:50.000Z</time>
      </trkpt>
      <trkpt lat="49.38299" lon="1.4476">
        <ele>101.59999847412</ele>
        <time>2021-02-26T09:09:52.000Z</time>
      </trkpt>
      <trkpt lat="49.38304" lon="1.44767">
        <ele>102.59999847412</ele>
        <time>2021-02-26T09:09:57.000Z</time>
      </trkpt>
      <trkpt lat="49.38306" lon="1.44768">
        <ele>102.80000305176</ele>
        <time>2021-02-26T09:09:59.000Z</time>
      </trkpt>
      <trkpt lat="49.38315" lon="1.44778">
        <ele>103.59999847412</ele>
        <time>2021-02-26T09:10:06.000Z</time>
      </trkpt>
      <trkpt lat="49.38316" lon="1.44779">
        <ele>103.80000305176</ele>
        <time>2021-02-26T09:10:07.000Z</time>
      </trkpt>
      <trkpt lat="49.38323" lon="1.44787">
        <ele>104.40000152588</ele>
        <time>2021-02-26T09:10:13.000Z</time>
      </trkpt>
      <trkpt lat="49.38325" lon="1.44789">
        <ele>104.59999847412</ele>
        <time>2021-02-26T09:10:14.000Z</time>
      </trkpt>
      <trkpt lat="49.38334" lon="1.44798">
        <ele>105.59999847412</ele>
        <time>2021-02-26T09:10:20.000Z</time>
      </trkpt>
      <trkpt lat="49.38336" lon="1.44801">
        <ele>106</ele>
        <time>2021-02-26T09:10:22.000Z</time>
      </trkpt>
      <trkpt lat="49.38343" lon="1.44808">
        <ele>106.59999847412</ele>
        <time>2021-02-26T09:10:27.000Z</time>
      </trkpt>
      <trkpt lat="49.38349" lon="1.44813">
        <ele>107</ele>
        <time>2021-02-26T09:10:31.000Z</time>
      </trkpt>
      <trkpt lat="49.38352" lon="1.44816">
        <ele>107.19999694824</ele>
        <time>2021-02-26T09:10:33.000Z</time>
      </trkpt>
      <trkpt lat="49.3836" lon="1.44825">
        <ele>108</ele>
        <time>2021-02-26T09:10:39.000Z</time>
      </trkpt>
      <trkpt lat="49.38361" lon="1.44826">
        <ele>108</ele>
        <time>2021-02-26T09:10:40.000Z</time>
      </trkpt>
      <trkpt lat="49.38361" lon="1.44828">
        <ele>108.19999694824</ele>
        <time>2021-02-26T09:10:41.000Z</time>
      </trkpt>
      <trkpt lat="49.3836" lon="1.4483">
        <ele>108.59999847412</ele>
        <time>2021-02-26T09:10:43.000Z</time>
      </trkpt>
      <trkpt lat="49.38358" lon="1.4483">
        <ele>109</ele>
        <time>2021-02-26T09:10:45.000Z</time>
      </trkpt>
      <trkpt lat="49.38353" lon="1.44828">
        <ele>109.19999694824</ele>
        <time>2021-02-26T09:10:49.000Z</time>
      </trkpt>
      <trkpt lat="49.38346" lon="1.44825">
        <ele>109.40000152588</ele>
        <time>2021-02-26T09:10:53.000Z</time>
      </trkpt>
      <trkpt lat="49.38341" lon="1.44822">
        <ele>109.40000152588</ele>
        <time>2021-02-26T09:10:55.000Z</time>
      </trkpt>
      <trkpt lat="49.38328" lon="1.44813">
        <ele>109.80000305176</ele>
        <time>2021-02-26T09:11:00.000Z</time>
      </trkpt>
      <trkpt lat="49.38305" lon="1.44792">
        <ele>110.40000152588</ele>
        <time>2021-02-26T09:11:06.000Z</time>
      </trkpt>
      <trkpt lat="49.38295" lon="1.44783">
        <ele>110.40000152588</ele>
        <time>2021-02-26T09:11:08.000Z</time>
      </trkpt>
      <trkpt lat="49.3829" lon="1.4478">
        <ele>110.40000152588</ele>
        <time>2021-02-26T09:11:09.000Z</time>
      </trkpt>
      <trkpt lat="49.38281" lon="1.44775">
        <ele>110.59999847412</ele>
        <time>2021-02-26T09:11:11.000Z</time>
      </trkpt>
      <trkpt lat="49.38259" lon="1.44779">
        <ele>110.80000305176</ele>
        <time>2021-02-26T09:11:16.000Z</time>
      </trkpt>
      <trkpt lat="49.38239" lon="1.44786">
        <ele>111.40000152588</ele>
        <time>2021-02-26T09:11:21.000Z</time>
      </trkpt>
      <trkpt lat="49.38217" lon="1.44792">
        <ele>112.40000152588</ele>
        <time>2021-02-26T09:11:26.000Z</time>
      </trkpt>
      <trkpt lat="49.3821" lon="1.44795">
        <ele>112.59999847412</ele>
        <time>2021-02-26T09:11:28.000Z</time>
      </trkpt>
      <trkpt lat="49.38189" lon="1.44798">
        <ele>113.40000152588</ele>
        <time>2021-02-26T09:11:33.000Z</time>
      </trkpt>
      <trkpt lat="49.38172" lon="1.44798">
        <ele>113.80000305176</ele>
        <time>2021-02-26T09:11:36.000Z</time>
      </trkpt>
      <trkpt lat="49.38161" lon="1.448">
        <ele>114.19999694824</ele>
        <time>2021-02-26T09:11:38.000Z</time>
      </trkpt>
      <trkpt lat="49.38135" lon="1.44802">
        <ele>114.80000305176</ele>
        <time>2021-02-26T09:11:43.000Z</time>
      </trkpt>
      <trkpt lat="49.3813" lon="1.44802">
        <ele>114.80000305176</ele>
        <time>2021-02-26T09:11:44.000Z</time>
      </trkpt>
      <trkpt lat="49.38109" lon="1.44802">
        <ele>115.80000305176</ele>
        <time>2021-02-26T09:11:49.000Z</time>
      </trkpt>
      <trkpt lat="49.38097" lon="1.44802">
        <ele>116.19999694824</ele>
        <time>2021-02-26T09:11:52.000Z</time>
      </trkpt>
      <trkpt lat="49.3809" lon="1.44803">
        <ele>116.59999847412</ele>
        <time>2021-02-26T09:11:54.000Z</time>
      </trkpt>
      <trkpt lat="49.38068" lon="1.44803">
        <ele>117</ele>
        <time>2021-02-26T09:11:59.000Z</time>
      </trkpt>
      <trkpt lat="49.38053" lon="1.44806">
        <ele>117.40000152588</ele>
        <time>2021-02-26T09:12:03.000Z</time>
      </trkpt>
      <trkpt lat="49.38047" lon="1.44807">
        <ele>117.59999847412</ele>
        <time>2021-02-26T09:12:05.000Z</time>
      </trkpt>
      <trkpt lat="49.38024" lon="1.44813">
        <ele>118.19999694824</ele>
        <time>2021-02-26T09:12:11.000Z</time>
      </trkpt>
      <trkpt lat="49.38003" lon="1.44821">
        <ele>118.59999847412</ele>
        <time>2021-02-26T09:12:16.000Z</time>
      </trkpt>
      <trkpt lat="49.37996" lon="1.44822">
        <ele>118.59999847412</ele>
        <time>2021-02-26T09:12:18.000Z</time>
      </trkpt>
      <trkpt lat="49.37982" lon="1.44827">
        <ele>118.59999847412</ele>
        <time>2021-02-26T09:12:21.000Z</time>
      </trkpt>
      <trkpt lat="49.37961" lon="1.44833">
        <ele>119</ele>
        <time>2021-02-26T09:12:26.000Z</time>
      </trkpt>
      <trkpt lat="49.3794" lon="1.44837">
        <ele>119.19999694824</ele>
        <time>2021-02-26T09:12:31.000Z</time>
      </trkpt>
      <trkpt lat="49.37926" lon="1.44847">
        <ele>119.80000305176</ele>
        <time>2021-02-26T09:12:35.000Z</time>
      </trkpt>
      <trkpt lat="49.37908" lon="1.44847">
        <ele>120</ele>
        <time>2021-02-26T09:12:40.000Z</time>
      </trkpt>
      <trkpt lat="49.37895" lon="1.44835">
        <ele>120.19999694824</ele>
        <time>2021-02-26T09:12:45.000Z</time>
      </trkpt>
      <trkpt lat="49.37877" lon="1.44818">
        <ele>120.59999847412</ele>
        <time>2021-02-26T09:12:51.000Z</time>
      </trkpt>
      <trkpt lat="49.37853" lon="1.44812">
        <ele>120.80000305176</ele>
        <time>2021-02-26T09:12:57.000Z</time>
      </trkpt>
      <trkpt lat="49.37827" lon="1.44806">
        <ele>121.19999694824</ele>
        <time>2021-02-26T09:13:03.000Z</time>
      </trkpt>
      <trkpt lat="49.37809" lon="1.44808">
        <ele>121.19999694824</ele>
        <time>2021-02-26T09:13:08.000Z</time>
      </trkpt>
      <trkpt lat="49.37799" lon="1.44814">
        <ele>121.19999694824</ele>
        <time>2021-02-26T09:13:12.000Z</time>
      </trkpt>
      <trkpt lat="49.37797" lon="1.44817">
        <ele>121.19999694824</ele>
        <time>2021-02-26T09:13:13.000Z</time>
      </trkpt>
      <trkpt lat="49.37792" lon="1.44828">
        <ele>121.19999694824</ele>
        <time>2021-02-26T09:13:17.000Z</time>
      </trkpt>
      <trkpt lat="49.3779" lon="1.44832">
        <ele>121.40000152588</ele>
        <time>2021-02-26T09:13:18.000Z</time>
      </trkpt>
      <trkpt lat="49.37786" lon="1.44844">
        <ele>121.59999847412</ele>
        <time>2021-02-26T09:13:23.000Z</time>
      </trkpt>
      <trkpt lat="49.37785" lon="1.44846">
        <ele>121.59999847412</ele>
        <time>2021-02-26T09:13:24.000Z</time>
      </trkpt>
      <trkpt lat="49.3778" lon="1.44856">
        <ele>121.80000305176</ele>
        <time>2021-02-26T09:13:28.000Z</time>
      </trkpt>
      <trkpt lat="49.37771" lon="1.44877">
        <ele>121.80000305176</ele>
        <time>2021-02-26T09:13:37.000Z</time>
      </trkpt>
      <trkpt lat="49.37765" lon="1.44895">
        <ele>121.80000305176</ele>
        <time>2021-02-26T09:13:45.000Z</time>
      </trkpt>
      <trkpt lat="49.37762" lon="1.44912">
        <ele>121.80000305176</ele>
        <time>2021-02-26T09:13:52.000Z</time>
      </trkpt>
      <trkpt lat="49.37758" lon="1.44931">
        <ele>121.59999847412</ele>
        <time>2021-02-26T09:13:59.000Z</time>
      </trkpt>
      <trkpt lat="49.37758" lon="1.44934">
        <ele>121.59999847412</ele>
        <time>2021-02-26T09:14:00.000Z</time>
      </trkpt>
      <trkpt lat="49.37754" lon="1.44946">
        <ele>121.40000152588</ele>
        <time>2021-02-26T09:14:05.000Z</time>
      </trkpt>
      <trkpt lat="49.37753" lon="1.44962">
        <ele>120.80000305176</ele>
        <time>2021-02-26T09:14:11.000Z</time>
      </trkpt>
      <trkpt lat="49.37752" lon="1.44971">
        <ele>120.40000152588</ele>
        <time>2021-02-26T09:14:15.000Z</time>
      </trkpt>
      <trkpt lat="49.37752" lon="1.44973">
        <ele>120.19999694824</ele>
        <time>2021-02-26T09:14:16.000Z</time>
      </trkpt>
      <trkpt lat="49.37749" lon="1.44983">
        <ele>120</ele>
        <time>2021-02-26T09:14:21.000Z</time>
      </trkpt>
      <trkpt lat="49.37748" lon="1.44988">
        <ele>119.80000305176</ele>
        <time>2021-02-26T09:14:23.000Z</time>
      </trkpt>
      <trkpt lat="49.37747" lon="1.44992">
        <ele>119.59999847412</ele>
        <time>2021-02-26T09:14:25.000Z</time>
      </trkpt>
      <trkpt lat="49.37745" lon="1.44999">
        <ele>119.19999694824</ele>
        <time>2021-02-26T09:14:28.000Z</time>
      </trkpt>
      <trkpt lat="49.37745" lon="1.45001">
        <ele>119</ele>
        <time>2021-02-26T09:14:29.000Z</time>
      </trkpt>
      <trkpt lat="49.37744" lon="1.45006">
        <ele>118.40000152588</ele>
        <time>2021-02-26T09:14:31.000Z</time>
      </trkpt>
      <trkpt lat="49.37742" lon="1.45017">
        <ele>118</ele>
        <time>2021-02-26T09:14:35.000Z</time>
      </trkpt>
      <trkpt lat="49.37741" lon="1.45022">
        <ele>117.59999847412</ele>
        <time>2021-02-26T09:14:37.000Z</time>
      </trkpt>
      <trkpt lat="49.3774" lon="1.45025">
        <ele>117.40000152588</ele>
        <time>2021-02-26T09:14:38.000Z</time>
      </trkpt>
      <trkpt lat="49.37738" lon="1.45031">
        <ele>117.19999694824</ele>
        <time>2021-02-26T09:14:40.000Z</time>
      </trkpt>
      <trkpt lat="49.37734" lon="1.45044">
        <ele>116.59999847412</ele>
        <time>2021-02-26T09:14:45.000Z</time>
      </trkpt>
      <trkpt lat="49.37733" lon="1.45047">
        <ele>116.59999847412</ele>
        <time>2021-02-26T09:14:46.000Z</time>
      </trkpt>
      <trkpt lat="49.37733" lon="1.4505">
        <ele>116.40000152588</ele>
        <time>2021-02-26T09:14:47.000Z</time>
      </trkpt>
      <trkpt lat="49.37732" lon="1.45053">
        <ele>116.40000152588</ele>
        <time>2021-02-26T09:14:48.000Z</time>
      </trkpt>
      <trkpt lat="49.3773" lon="1.45062">
        <ele>116</ele>
        <time>2021-02-26T09:14:50.000Z</time>
      </trkpt>
      <trkpt lat="49.37726" lon="1.45075">
        <ele>116.19999694824</ele>
        <time>2021-02-26T09:14:53.000Z</time>
      </trkpt>
      <trkpt lat="49.37723" lon="1.45088">
        <ele>115.80000305176</ele>
        <time>2021-02-26T09:14:56.000Z</time>
      </trkpt>
      <trkpt lat="49.37715" lon="1.45117">
        <ele>115.40000152588</ele>
        <time>2021-02-26T09:15:02.000Z</time>
      </trkpt>
      <trkpt lat="49.37709" lon="1.45138">
        <ele>115.19999694824</ele>
        <time>2021-02-26T09:15:06.000Z</time>
      </trkpt>
      <trkpt lat="49.37705" lon="1.4515">
        <ele>115.19999694824</ele>
        <time>2021-02-26T09:15:08.000Z</time>
      </trkpt>
      <trkpt lat="49.37696" lon="1.45196">
        <ele>114.80000305176</ele>
        <time>2021-02-26T09:15:14.000Z</time>
      </trkpt>
      <trkpt lat="49.37689" lon="1.45241">
        <ele>114.19999694824</ele>
        <time>2021-02-26T09:15:19.000Z</time>
      </trkpt>
      <trkpt lat="49.37684" lon="1.45291">
        <ele>113.40000152588</ele>
        <time>2021-02-26T09:15:24.000Z</time>
      </trkpt>
      <trkpt lat="49.37684" lon="1.45301">
        <ele>113.40000152588</ele>
        <time>2021-02-26T09:15:25.000Z</time>
      </trkpt>
      <trkpt lat="49.37688" lon="1.45331">
        <ele>113.19999694824</ele>
        <time>2021-02-26T09:15:28.000Z</time>
      </trkpt>
      <trkpt lat="49.3769" lon="1.45341">
        <ele>113</ele>
        <time>2021-02-26T09:15:29.000Z</time>
      </trkpt>
      <trkpt lat="49.37693" lon="1.45371">
        <ele>112.80000305176</ele>
        <time>2021-02-26T09:15:32.000Z</time>
      </trkpt>
      <trkpt lat="49.37694" lon="1.45393">
        <ele>112.59999847412</ele>
        <time>2021-02-26T09:15:34.000Z</time>
      </trkpt>
      <trkpt lat="49.37696" lon="1.45416">
        <ele>112.40000152588</ele>
        <time>2021-02-26T09:15:36.000Z</time>
      </trkpt>
      <trkpt lat="49.37701" lon="1.45436">
        <ele>112</ele>
        <time>2021-02-26T09:15:38.000Z</time>
      </trkpt>
      <trkpt lat="49.37704" lon="1.45442">
        <ele>111.80000305176</ele>
        <time>2021-02-26T09:15:39.000Z</time>
      </trkpt>
      <trkpt lat="49.37712" lon="1.45449">
        <ele>111.40000152588</ele>
        <time>2021-02-26T09:15:41.000Z</time>
      </trkpt>
      <trkpt lat="49.37728" lon="1.45454">
        <ele>111</ele>
        <time>2021-02-26T09:15:44.000Z</time>
      </trkpt>
      <trkpt lat="49.37739" lon="1.45457">
        <ele>111</ele>
        <time>2021-02-26T09:15:46.000Z</time>
      </trkpt>
      <trkpt lat="49.37745" lon="1.45459">
        <ele>111</ele>
        <time>2021-02-26T09:15:47.000Z</time>
      </trkpt>
      <trkpt lat="49.37757" lon="1.45468">
        <ele>110.80000305176</ele>
        <time>2021-02-26T09:15:49.000Z</time>
      </trkpt>
      <trkpt lat="49.37762" lon="1.45474">
        <ele>110.80000305176</ele>
        <time>2021-02-26T09:15:50.000Z</time>
      </trkpt>
      <trkpt lat="49.37768" lon="1.4548">
        <ele>110.59999847412</ele>
        <time>2021-02-26T09:15:51.000Z</time>
      </trkpt>
      <trkpt lat="49.37797" lon="1.45516">
        <ele>110.19999694824</ele>
        <time>2021-02-26T09:15:56.000Z</time>
      </trkpt>
      <trkpt lat="49.3781" lon="1.45536">
        <ele>110</ele>
        <time>2021-02-26T09:15:59.000Z</time>
      </trkpt>
      <trkpt lat="49.37811" lon="1.45541">
        <ele>110</ele>
        <time>2021-02-26T09:16:00.000Z</time>
      </trkpt>
      <trkpt lat="49.37806" lon="1.45546">
        <ele>110</ele>
        <time>2021-02-26T09:16:03.000Z</time>
      </trkpt>
      <trkpt lat="49.37803" lon="1.45544">
        <ele>110</ele>
        <time>2021-02-26T09:16:04.000Z</time>
      </trkpt>
      <trkpt lat="49.37799" lon="1.45543">
        <ele>110</ele>
        <time>2021-02-26T09:16:05.000Z</time>
      </trkpt>
      <trkpt lat="49.37789" lon="1.45539">
        <ele>110</ele>
        <time>2021-02-26T09:16:07.000Z</time>
      </trkpt>
      <trkpt lat="49.37758" lon="1.4553">
        <ele>110.80000305176</ele>
        <time>2021-02-26T09:16:12.000Z</time>
      </trkpt>
      <trkpt lat="49.37724" lon="1.45519">
        <ele>111.59999847412</ele>
        <time>2021-02-26T09:16:17.000Z</time>
      </trkpt>
      <trkpt lat="49.3771" lon="1.45514">
        <ele>112</ele>
        <time>2021-02-26T09:16:19.000Z</time>
      </trkpt>
      <trkpt lat="49.37681" lon="1.45505">
        <ele>112.40000152588</ele>
        <time>2021-02-26T09:16:23.000Z</time>
      </trkpt>
      <trkpt lat="49.37668" lon="1.45502">
        <ele>113.19999694824</ele>
        <time>2021-02-26T09:16:25.000Z</time>
      </trkpt>
      <trkpt lat="49.37653" lon="1.45497">
        <ele>113.80000305176</ele>
        <time>2021-02-26T09:16:28.000Z</time>
      </trkpt>
      <trkpt lat="49.37645" lon="1.45494">
        <ele>114.19999694824</ele>
        <time>2021-02-26T09:16:30.000Z</time>
      </trkpt>
      <trkpt lat="49.37638" lon="1.45495">
        <ele>114.80000305176</ele>
        <time>2021-02-26T09:16:32.000Z</time>
      </trkpt>
      <trkpt lat="49.37638" lon="1.45501">
        <ele>115.19999694824</ele>
        <time>2021-02-26T09:16:34.000Z</time>
      </trkpt>
      <trkpt lat="49.37641" lon="1.4551">
        <ele>116.19999694824</ele>
        <time>2021-02-26T09:16:37.000Z</time>
      </trkpt>
      <trkpt lat="49.3764" lon="1.45513">
        <ele>116.40000152588</ele>
        <time>2021-02-26T09:16:38.000Z</time>
      </trkpt>
      <trkpt lat="49.37637" lon="1.45525">
        <ele>117</ele>
        <time>2021-02-26T09:16:41.000Z</time>
      </trkpt>
      <trkpt lat="49.37635" lon="1.45535">
        <ele>117.59999847412</ele>
        <time>2021-02-26T09:16:44.000Z</time>
      </trkpt>
      <trkpt lat="49.37634" lon="1.45542">
        <ele>118</ele>
        <time>2021-02-26T09:16:46.000Z</time>
      </trkpt>
      <trkpt lat="49.3763" lon="1.4555">
        <ele>118.59999847412</ele>
        <time>2021-02-26T09:16:49.000Z</time>
      </trkpt>
      <trkpt lat="49.37629" lon="1.45553">
        <ele>119</ele>
        <time>2021-02-26T09:16:51.000Z</time>
      </trkpt>
      <trkpt lat="49.37629" lon="1.45555">
        <ele>119.19999694824</ele>
        <time>2021-02-26T09:16:52.000Z</time>
      </trkpt>
      <trkpt lat="49.37628" lon="1.4556">
        <ele>119.80000305176</ele>
        <time>2021-02-26T09:16:55.000Z</time>
      </trkpt>
      <trkpt lat="49.37627" lon="1.45564">
        <ele>120.19999694824</ele>
        <time>2021-02-26T09:16:57.000Z</time>
      </trkpt>
      <trkpt lat="49.37627" lon="1.45569">
        <ele>120.59999847412</ele>
        <time>2021-02-26T09:17:00.000Z</time>
      </trkpt>
      <trkpt lat="49.37628" lon="1.45573">
        <ele>120.80000305176</ele>
        <time>2021-02-26T09:17:02.000Z</time>
      </trkpt>
      <trkpt lat="49.37628" lon="1.45575">
        <ele>121</ele>
        <time>2021-02-26T09:17:03.000Z</time>
      </trkpt>
      <trkpt lat="49.3763" lon="1.45583">
        <ele>121.40000152588</ele>
        <time>2021-02-26T09:17:07.000Z</time>
      </trkpt>
      <trkpt lat="49.37631" lon="1.45586">
        <ele>121.59999847412</ele>
        <time>2021-02-26T09:17:09.000Z</time>
      </trkpt>
      <trkpt lat="49.37634" lon="1.4559">
        <ele>122</ele>
        <time>2021-02-26T09:17:12.000Z</time>
      </trkpt>
      <trkpt lat="49.37637" lon="1.45592">
        <ele>122.19999694824</ele>
        <time>2021-02-26T09:17:15.000Z</time>
      </trkpt>
      <trkpt lat="49.37645" lon="1.45604">
        <ele>123</ele>
        <time>2021-02-26T09:17:25.000Z</time>
      </trkpt>
      <trkpt lat="49.37647" lon="1.45607">
        <ele>123.19999694824</ele>
        <time>2021-02-26T09:17:27.000Z</time>
      </trkpt>
      <trkpt lat="49.37654" lon="1.45614">
        <ele>123.40000152588</ele>
        <time>2021-02-26T09:17:34.000Z</time>
      </trkpt>
      <trkpt lat="49.37662" lon="1.45619">
        <ele>123.59999847412</ele>
        <time>2021-02-26T09:17:42.000Z</time>
      </trkpt>
      <trkpt lat="49.37672" lon="1.45623">
        <ele>123.80000305176</ele>
        <time>2021-02-26T09:17:52.000Z</time>
      </trkpt>
      <trkpt lat="49.3768" lon="1.45626">
        <ele>123.80000305176</ele>
        <time>2021-02-26T09:18:00.000Z</time>
      </trkpt>
      <trkpt lat="49.3769" lon="1.45633">
        <ele>123.19999694824</ele>
        <time>2021-02-26T09:18:13.000Z</time>
      </trkpt>
      <trkpt lat="49.37695" lon="1.45637">
        <ele>123</ele>
        <time>2021-02-26T09:18:20.000Z</time>
      </trkpt>
      <trkpt lat="49.37724" lon="1.45769">
        <ele>115.80000305176</ele>
        <time>2021-02-26T09:19:57.000Z</time>
      </trkpt>
      <trkpt lat="49.37723" lon="1.4577">
        <ele>115.80000305176</ele>
        <time>2021-02-26T09:19:58.000Z</time>
      </trkpt>
      <trkpt lat="49.37716" lon="1.45774">
        <ele>115.40000152588</ele>
        <time>2021-02-26T09:20:02.000Z</time>
      </trkpt>
      <trkpt lat="49.37709" lon="1.45778">
        <ele>115.19999694824</ele>
        <time>2021-02-26T09:20:06.000Z</time>
      </trkpt>
      <trkpt lat="49.377" lon="1.45783">
        <ele>114.40000152588</ele>
        <time>2021-02-26T09:20:10.000Z</time>
      </trkpt>
      <trkpt lat="49.37691" lon="1.45787">
        <ele>114.19999694824</ele>
        <time>2021-02-26T09:20:13.000Z</time>
      </trkpt>
      <trkpt lat="49.37675" lon="1.45797">
        <ele>113.19999694824</ele>
        <time>2021-02-26T09:20:19.000Z</time>
      </trkpt>
      <trkpt lat="49.37652" lon="1.45809">
        <ele>113</ele>
        <time>2021-02-26T09:20:26.000Z</time>
      </trkpt>
      <trkpt lat="49.37633" lon="1.45825">
        <ele>112.80000305176</ele>
        <time>2021-02-26T09:20:33.000Z</time>
      </trkpt>
      <trkpt lat="49.37614" lon="1.45841">
        <ele>112.59999847412</ele>
        <time>2021-02-26T09:20:40.000Z</time>
      </trkpt>
      <trkpt lat="49.37594" lon="1.45858">
        <ele>112.80000305176</ele>
        <time>2021-02-26T09:20:46.000Z</time>
      </trkpt>
      <trkpt lat="49.37583" lon="1.45866">
        <ele>114.80000305176</ele>
        <time>2021-02-26T09:20:49.000Z</time>
      </trkpt>
      <trkpt lat="49.37579" lon="1.45869">
        <ele>121.19999694824</ele>
        <time>2021-02-26T09:20:50.000Z</time>
      </trkpt>
      <trkpt lat="49.37575" lon="1.45872">
        <ele>126.40000152588</ele>
        <time>2021-02-26T09:20:51.000Z</time>
      </trkpt>
      <trkpt lat="49.37571" lon="1.45876">
        <ele>129.19999694824</ele>
        <time>2021-02-26T09:20:52.000Z</time>
      </trkpt>
      <trkpt lat="49.37568" lon="1.45879">
        <ele>130.39999389648</ele>
        <time>2021-02-26T09:20:53.000Z</time>
      </trkpt>
      <trkpt lat="49.37559" lon="1.45887">
        <ele>131.60000610352</ele>
        <time>2021-02-26T09:20:55.000Z</time>
      </trkpt>
      <trkpt lat="49.37554" lon="1.45892">
        <ele>131.60000610352</ele>
        <time>2021-02-26T09:20:56.000Z</time>
      </trkpt>
      <trkpt lat="49.37544" lon="1.45903">
        <ele>131.80000305176</ele>
        <time>2021-02-26T09:20:58.000Z</time>
      </trkpt>
      <trkpt lat="49.3753" lon="1.45917">
        <ele>131.80000305176</ele>
        <time>2021-02-26T09:21:01.000Z</time>
      </trkpt>
      <trkpt lat="49.37525" lon="1.45921">
        <ele>131.60000610352</ele>
        <time>2021-02-26T09:21:02.000Z</time>
      </trkpt>
      <trkpt lat="49.37505" lon="1.45942">
        <ele>130.39999389648</ele>
        <time>2021-02-26T09:21:06.000Z</time>
      </trkpt>
      <trkpt lat="49.37499" lon="1.45948">
        <ele>129.80000305176</ele>
        <time>2021-02-26T09:21:07.000Z</time>
      </trkpt>
      <trkpt lat="49.37494" lon="1.45953">
        <ele>129.60000610352</ele>
        <time>2021-02-26T09:21:08.000Z</time>
      </trkpt>
      <trkpt lat="49.37484" lon="1.45963">
        <ele>129</ele>
        <time>2021-02-26T09:21:10.000Z</time>
      </trkpt>
      <trkpt lat="49.37479" lon="1.45968">
        <ele>128.19999694824</ele>
        <time>2021-02-26T09:21:11.000Z</time>
      </trkpt>
      <trkpt lat="49.37474" lon="1.45973">
        <ele>128</ele>
        <time>2021-02-26T09:21:12.000Z</time>
      </trkpt>
      <trkpt lat="49.3747" lon="1.45977">
        <ele>127.80000305176</ele>
        <time>2021-02-26T09:21:13.000Z</time>
      </trkpt>
      <trkpt lat="49.37462" lon="1.45983">
        <ele>127.19999694824</ele>
        <time>2021-02-26T09:21:15.000Z</time>
      </trkpt>
      <trkpt lat="49.37453" lon="1.45993">
        <ele>126.80000305176</ele>
        <time>2021-02-26T09:21:17.000Z</time>
      </trkpt>
      <trkpt lat="49.37434" lon="1.46011">
        <ele>125.80000305176</ele>
        <time>2021-02-26T09:21:21.000Z</time>
      </trkpt>
      <trkpt lat="49.3743" lon="1.46016">
        <ele>125.40000152588</ele>
        <time>2021-02-26T09:21:22.000Z</time>
      </trkpt>
      <trkpt lat="49.37422" lon="1.46024">
        <ele>124.80000305176</ele>
        <time>2021-02-26T09:21:24.000Z</time>
      </trkpt>
      <trkpt lat="49.37413" lon="1.46038">
        <ele>124.19999694824</ele>
        <time>2021-02-26T09:21:27.000Z</time>
      </trkpt>
      <trkpt lat="49.37404" lon="1.46052">
        <ele>124.19999694824</ele>
        <time>2021-02-26T09:21:31.000Z</time>
      </trkpt>
      <trkpt lat="49.37393" lon="1.46069">
        <ele>124.80000305176</ele>
        <time>2021-02-26T09:21:38.000Z</time>
      </trkpt>
      <trkpt lat="49.3739" lon="1.4607">
        <ele>124.80000305176</ele>
        <time>2021-02-26T09:21:39.000Z</time>
      </trkpt>
      <trkpt lat="49.37381" lon="1.4607">
        <ele>125</ele>
        <time>2021-02-26T09:21:42.000Z</time>
      </trkpt>
      <trkpt lat="49.37369" lon="1.46068">
        <ele>125.19999694824</ele>
        <time>2021-02-26T09:21:47.000Z</time>
      </trkpt>
      <trkpt lat="49.37357" lon="1.46072">
        <ele>125.80000305176</ele>
        <time>2021-02-26T09:21:54.000Z</time>
      </trkpt>
      <trkpt lat="49.37356" lon="1.46072">
        <ele>125.80000305176</ele>
        <time>2021-02-26T09:21:55.000Z</time>
      </trkpt>
      <trkpt lat="49.37349" lon="1.46073">
        <ele>126.80000305176</ele>
        <time>2021-02-26T09:21:58.000Z</time>
      </trkpt>
      <trkpt lat="49.3734" lon="1.46074">
        <ele>128</ele>
        <time>2021-02-26T09:22:02.000Z</time>
      </trkpt>
      <trkpt lat="49.37334" lon="1.46076">
        <ele>129</ele>
        <time>2021-02-26T09:22:06.000Z</time>
      </trkpt>
      <trkpt lat="49.3733" lon="1.46078">
        <ele>130</ele>
        <time>2021-02-26T09:22:08.000Z</time>
      </trkpt>
      <trkpt lat="49.37329" lon="1.46078">
        <ele>130.19999694824</ele>
        <time>2021-02-26T09:22:09.000Z</time>
      </trkpt>
      <trkpt lat="49.37323" lon="1.46078">
        <ele>131.39999389648</ele>
        <time>2021-02-26T09:22:13.000Z</time>
      </trkpt>
      <trkpt lat="49.37318" lon="1.46079">
        <ele>132</ele>
        <time>2021-02-26T09:22:16.000Z</time>
      </trkpt>
      <trkpt lat="49.37316" lon="1.46079">
        <ele>132.39999389648</ele>
        <time>2021-02-26T09:22:17.000Z</time>
      </trkpt>
      <trkpt lat="49.37308" lon="1.46079">
        <ele>133</ele>
        <time>2021-02-26T09:22:22.000Z</time>
      </trkpt>
      <trkpt lat="49.37305" lon="1.4608">
        <ele>133.39999389648</ele>
        <time>2021-02-26T09:22:23.000Z</time>
      </trkpt>
      <trkpt lat="49.37295" lon="1.4608">
        <ele>134</ele>
        <time>2021-02-26T09:22:28.000Z</time>
      </trkpt>
      <trkpt lat="49.37288" lon="1.46079">
        <ele>134.60000610352</ele>
        <time>2021-02-26T09:22:31.000Z</time>
      </trkpt>
      <trkpt lat="49.37278" lon="1.4608">
        <ele>135.19999694824</ele>
        <time>2021-02-26T09:22:35.000Z</time>
      </trkpt>
      <trkpt lat="49.37267" lon="1.46081">
        <ele>135.60000610352</ele>
        <time>2021-02-26T09:22:40.000Z</time>
      </trkpt>
      <trkpt lat="49.37266" lon="1.46081">
        <ele>135.60000610352</ele>
        <time>2021-02-26T09:22:41.000Z</time>
      </trkpt>
      <trkpt lat="49.3726" lon="1.46084">
        <ele>135.80000305176</ele>
        <time>2021-02-26T09:22:44.000Z</time>
      </trkpt>
      <trkpt lat="49.37257" lon="1.46087">
        <ele>136</ele>
        <time>2021-02-26T09:22:46.000Z</time>
      </trkpt>
      <trkpt lat="49.37254" lon="1.46089">
        <ele>136.19999694824</ele>
        <time>2021-02-26T09:22:48.000Z</time>
      </trkpt>
      <trkpt lat="49.3725" lon="1.4609">
        <ele>136.39999389648</ele>
        <time>2021-02-26T09:22:50.000Z</time>
      </trkpt>
      <trkpt lat="49.37246" lon="1.46089">
        <ele>136.80000305176</ele>
        <time>2021-02-26T09:22:52.000Z</time>
      </trkpt>
      <trkpt lat="49.37239" lon="1.4609">
        <ele>137.39999389648</ele>
        <time>2021-02-26T09:22:55.000Z</time>
      </trkpt>
      <trkpt lat="49.37233" lon="1.46092">
        <ele>138</ele>
        <time>2021-02-26T09:22:58.000Z</time>
      </trkpt>
      <trkpt lat="49.37224" lon="1.46091">
        <ele>138.60000610352</ele>
        <time>2021-02-26T09:23:03.000Z</time>
      </trkpt>
      <trkpt lat="49.37223" lon="1.4609">
        <ele>138.80000305176</ele>
        <time>2021-02-26T09:23:04.000Z</time>
      </trkpt>
      <trkpt lat="49.37222" lon="1.46089">
        <ele>138.80000305176</ele>
        <time>2021-02-26T09:23:05.000Z</time>
      </trkpt>
      <trkpt lat="49.3722" lon="1.46082">
        <ele>139.39999389648</ele>
        <time>2021-02-26T09:23:09.000Z</time>
      </trkpt>
      <trkpt lat="49.37221" lon="1.46078">
        <ele>139.19999694824</ele>
        <time>2021-02-26T09:23:11.000Z</time>
      </trkpt>
      <trkpt lat="49.37222" lon="1.46063">
        <ele>139.19999694824</ele>
        <time>2021-02-26T09:23:17.000Z</time>
      </trkpt>
      <trkpt lat="49.37223" lon="1.46042">
        <ele>138.80000305176</ele>
        <time>2021-02-26T09:23:24.000Z</time>
      </trkpt>
      <trkpt lat="49.37221" lon="1.46017">
        <ele>137.39999389648</ele>
        <time>2021-02-26T09:23:29.000Z</time>
      </trkpt>
      <trkpt lat="49.37221" lon="1.46014">
        <ele>137.19999694824</ele>
        <time>2021-02-26T09:23:30.000Z</time>
      </trkpt>
      <trkpt lat="49.3722" lon="1.45997">
        <ele>135.60000610352</ele>
        <time>2021-02-26T09:23:34.000Z</time>
      </trkpt>
      <trkpt lat="49.37216" lon="1.45969">
        <ele>135.19999694824</ele>
        <time>2021-02-26T09:23:40.000Z</time>
      </trkpt>
      <trkpt lat="49.37214" lon="1.45953">
        <ele>135.19999694824</ele>
        <time>2021-02-26T09:23:44.000Z</time>
      </trkpt>
      <trkpt lat="49.37214" lon="1.45947">
        <ele>135.39999389648</ele>
        <time>2021-02-26T09:23:46.000Z</time>
      </trkpt>
      <trkpt lat="49.37211" lon="1.45934">
        <ele>136.39999389648</ele>
        <time>2021-02-26T09:23:50.000Z</time>
      </trkpt>
      <trkpt lat="49.3721" lon="1.45931">
        <ele>136.80000305176</ele>
        <time>2021-02-26T09:23:51.000Z</time>
      </trkpt>
      <trkpt lat="49.3721" lon="1.45928">
        <ele>137</ele>
        <time>2021-02-26T09:23:52.000Z</time>
      </trkpt>
      <trkpt lat="49.37209" lon="1.45924">
        <ele>137.60000610352</ele>
        <time>2021-02-26T09:23:54.000Z</time>
      </trkpt>
      <trkpt lat="49.37208" lon="1.4592">
        <ele>137.80000305176</ele>
        <time>2021-02-26T09:23:55.000Z</time>
      </trkpt>
      <trkpt lat="49.37208" lon="1.45918">
        <ele>138.19999694824</ele>
        <time>2021-02-26T09:23:56.000Z</time>
      </trkpt>
      <trkpt lat="49.37207" lon="1.45911">
        <ele>138.60000610352</ele>
        <time>2021-02-26T09:23:58.000Z</time>
      </trkpt>
      <trkpt lat="49.37207" lon="1.45908">
        <ele>138.80000305176</ele>
        <time>2021-02-26T09:23:59.000Z</time>
      </trkpt>
      <trkpt lat="49.37207" lon="1.45905">
        <ele>139</ele>
        <time>2021-02-26T09:24:00.000Z</time>
      </trkpt>
      <trkpt lat="49.37205" lon="1.45896">
        <ele>139.80000305176</ele>
        <time>2021-02-26T09:24:03.000Z</time>
      </trkpt>
      <trkpt lat="49.37205" lon="1.45893">
        <ele>140</ele>
        <time>2021-02-26T09:24:04.000Z</time>
      </trkpt>
      <trkpt lat="49.37204" lon="1.45876">
        <ele>141</ele>
        <time>2021-02-26T09:24:10.000Z</time>
      </trkpt>
      <trkpt lat="49.37207" lon="1.45863">
        <ele>141.39999389648</ele>
        <time>2021-02-26T09:24:14.000Z</time>
      </trkpt>
      <trkpt lat="49.37207" lon="1.45857">
        <ele>141.80000305176</ele>
        <time>2021-02-26T09:24:16.000Z</time>
      </trkpt>
      <trkpt lat="49.37207" lon="1.45851">
        <ele>142</ele>
        <time>2021-02-26T09:24:18.000Z</time>
      </trkpt>
      <trkpt lat="49.37207" lon="1.45838">
        <ele>142.80000305176</ele>
        <time>2021-02-26T09:24:22.000Z</time>
      </trkpt>
      <trkpt lat="49.37207" lon="1.45829">
        <ele>143.19999694824</ele>
        <time>2021-02-26T09:24:25.000Z</time>
      </trkpt>
      <trkpt lat="49.37206" lon="1.45818">
        <ele>144</ele>
        <time>2021-02-26T09:24:29.000Z</time>
      </trkpt>
      <trkpt lat="49.37206" lon="1.45815">
        <ele>144.19999694824</ele>
        <time>2021-02-26T09:24:30.000Z</time>
      </trkpt>
      <trkpt lat="49.37204" lon="1.45797">
        <ele>145.19999694824</ele>
        <time>2021-02-26T09:24:36.000Z</time>
      </trkpt>
      <trkpt lat="49.37203" lon="1.45791">
        <ele>145.60000610352</ele>
        <time>2021-02-26T09:24:38.000Z</time>
      </trkpt>
      <trkpt lat="49.37202" lon="1.45777">
        <ele>145.60000610352</ele>
        <time>2021-02-26T09:24:42.000Z</time>
      </trkpt>
      <trkpt lat="49.37201" lon="1.4575">
        <ele>145.60000610352</ele>
        <time>2021-02-26T09:24:48.000Z</time>
      </trkpt>
      <trkpt lat="49.37197" lon="1.45722">
        <ele>145</ele>
        <time>2021-02-26T09:24:53.000Z</time>
      </trkpt>
      <trkpt lat="49.37189" lon="1.45709">
        <ele>144.19999694824</ele>
        <time>2021-02-26T09:24:56.000Z</time>
      </trkpt>
      <trkpt lat="49.37186" lon="1.45707">
        <ele>144</ele>
        <time>2021-02-26T09:24:57.000Z</time>
      </trkpt>
      <trkpt lat="49.37173" lon="1.4571">
        <ele>143.39999389648</ele>
        <time>2021-02-26T09:25:01.000Z</time>
      </trkpt>
      <trkpt lat="49.37161" lon="1.45705">
        <ele>143.39999389648</ele>
        <time>2021-02-26T09:25:06.000Z</time>
      </trkpt>
      <trkpt lat="49.37152" lon="1.45691">
        <ele>143.39999389648</ele>
        <time>2021-02-26T09:25:11.000Z</time>
      </trkpt>
      <trkpt lat="49.37146" lon="1.45683">
        <ele>143.60000610352</ele>
        <time>2021-02-26T09:25:16.000Z</time>
      </trkpt>
      <trkpt lat="49.37136" lon="1.45672">
        <ele>143.60000610352</ele>
        <time>2021-02-26T09:25:20.000Z</time>
      </trkpt>
      <trkpt lat="49.37121" lon="1.45664">
        <ele>143.39999389648</ele>
        <time>2021-02-26T09:25:25.000Z</time>
      </trkpt>
      <trkpt lat="49.37117" lon="1.45662">
        <ele>143.19999694824</ele>
        <time>2021-02-26T09:25:28.000Z</time>
      </trkpt>
      <trkpt lat="49.37108" lon="1.45656">
        <ele>143</ele>
        <time>2021-02-26T09:25:34.000Z</time>
      </trkpt>
      <trkpt lat="49.37093" lon="1.45653">
        <ele>142.80000305176</ele>
        <time>2021-02-26T09:25:39.000Z</time>
      </trkpt>
      <trkpt lat="49.37078" lon="1.45648">
        <ele>142.60000610352</ele>
        <time>2021-02-26T09:25:45.000Z</time>
      </trkpt>
      <trkpt lat="49.37062" lon="1.45641">
        <ele>142.39999389648</ele>
        <time>2021-02-26T09:25:50.000Z</time>
      </trkpt>
      <trkpt lat="49.37044" lon="1.45638">
        <ele>142.19999694824</ele>
        <time>2021-02-26T09:25:55.000Z</time>
      </trkpt>
      <trkpt lat="49.3704" lon="1.45638">
        <ele>142</ele>
        <time>2021-02-26T09:25:56.000Z</time>
      </trkpt>
      <trkpt lat="49.37026" lon="1.45645">
        <ele>141.39999389648</ele>
        <time>2021-02-26T09:26:00.000Z</time>
      </trkpt>
      <trkpt lat="49.36999" lon="1.45656">
        <ele>141.19999694824</ele>
        <time>2021-02-26T09:26:07.000Z</time>
      </trkpt>
      <trkpt lat="49.36986" lon="1.45672">
        <ele>141</ele>
        <time>2021-02-26T09:26:11.000Z</time>
      </trkpt>
      <trkpt lat="49.36975" lon="1.4569">
        <ele>141</ele>
        <time>2021-02-26T09:26:15.000Z</time>
      </trkpt>
      <trkpt lat="49.3697" lon="1.45698">
        <ele>141</ele>
        <time>2021-02-26T09:26:17.000Z</time>
      </trkpt>
      <trkpt lat="49.36948" lon="1.45726">
        <ele>141</ele>
        <time>2021-02-26T09:26:24.000Z</time>
      </trkpt>
      <trkpt lat="49.36923" lon="1.45751">
        <ele>141.39999389648</ele>
        <time>2021-02-26T09:26:30.000Z</time>
      </trkpt>
      <trkpt lat="49.36909" lon="1.45771">
        <ele>141.19999694824</ele>
        <time>2021-02-26T09:26:34.000Z</time>
      </trkpt>
      <trkpt lat="49.36905" lon="1.45776">
        <ele>141.19999694824</ele>
        <time>2021-02-26T09:26:35.000Z</time>
      </trkpt>
      <trkpt lat="49.36892" lon="1.45799">
        <ele>141</ele>
        <time>2021-02-26T09:26:39.000Z</time>
      </trkpt>
      <trkpt lat="49.36888" lon="1.45804">
        <ele>141</ele>
        <time>2021-02-26T09:26:40.000Z</time>
      </trkpt>
      <trkpt lat="49.36883" lon="1.45809">
        <ele>140.80000305176</ele>
        <time>2021-02-26T09:26:41.000Z</time>
      </trkpt>
      <trkpt lat="49.36861" lon="1.45826">
        <ele>140.80000305176</ele>
        <time>2021-02-26T09:26:45.000Z</time>
      </trkpt>
      <trkpt lat="49.36856" lon="1.45831">
        <ele>140.60000610352</ele>
        <time>2021-02-26T09:26:46.000Z</time>
      </trkpt>
      <trkpt lat="49.36841" lon="1.45839">
        <ele>140.60000610352</ele>
        <time>2021-02-26T09:26:49.000Z</time>
      </trkpt>
      <trkpt lat="49.36829" lon="1.45831">
        <ele>140.19999694824</ele>
        <time>2021-02-26T09:26:52.000Z</time>
      </trkpt>
      <trkpt lat="49.36825" lon="1.45827">
        <ele>140</ele>
        <time>2021-02-26T09:26:53.000Z</time>
      </trkpt>
      <trkpt lat="49.36811" lon="1.4581">
        <ele>139.60000610352</ele>
        <time>2021-02-26T09:26:56.000Z</time>
      </trkpt>
      <trkpt lat="49.368" lon="1.45797">
        <ele>139</ele>
        <time>2021-02-26T09:26:58.000Z</time>
      </trkpt>
      <trkpt lat="49.36786" lon="1.45784">
        <ele>138.39999389648</ele>
        <time>2021-02-26T09:27:00.000Z</time>
      </trkpt>
      <trkpt lat="49.36765" lon="1.45764">
        <ele>137</ele>
        <time>2021-02-26T09:27:03.000Z</time>
      </trkpt>
      <trkpt lat="49.36758" lon="1.45757">
        <ele>136.39999389648</ele>
        <time>2021-02-26T09:27:04.000Z</time>
      </trkpt>
      <trkpt lat="49.36751" lon="1.45751">
        <ele>135.80000305176</ele>
        <time>2021-02-26T09:27:05.000Z</time>
      </trkpt>
      <trkpt lat="49.36728" lon="1.45731">
        <ele>134.39999389648</ele>
        <time>2021-02-26T09:27:08.000Z</time>
      </trkpt>
      <trkpt lat="49.36706" lon="1.45711">
        <ele>133</ele>
        <time>2021-02-26T09:27:11.000Z</time>
      </trkpt>
      <trkpt lat="49.36684" lon="1.45692">
        <ele>131.60000610352</ele>
        <time>2021-02-26T09:27:14.000Z</time>
      </trkpt>
      <trkpt lat="49.36668" lon="1.45679">
        <ele>130.60000610352</ele>
        <time>2021-02-26T09:27:16.000Z</time>
      </trkpt>
      <trkpt lat="49.36652" lon="1.45667">
        <ele>129.39999389648</ele>
        <time>2021-02-26T09:27:18.000Z</time>
      </trkpt>
      <trkpt lat="49.36644" lon="1.45662">
        <ele>128.80000305176</ele>
        <time>2021-02-26T09:27:19.000Z</time>
      </trkpt>
      <trkpt lat="49.36627" lon="1.45652">
        <ele>128</ele>
        <time>2021-02-26T09:27:21.000Z</time>
      </trkpt>
      <trkpt lat="49.36609" lon="1.45643">
        <ele>126</ele>
        <time>2021-02-26T09:27:23.000Z</time>
      </trkpt>
      <trkpt lat="49.36599" lon="1.45639">
        <ele>125.19999694824</ele>
        <time>2021-02-26T09:27:24.000Z</time>
      </trkpt>
      <trkpt lat="49.36589" lon="1.45635">
        <ele>124.59999847412</ele>
        <time>2021-02-26T09:27:25.000Z</time>
      </trkpt>
      <trkpt lat="49.36571" lon="1.45627">
        <ele>123.59999847412</ele>
        <time>2021-02-26T09:27:27.000Z</time>
      </trkpt>
      <trkpt lat="49.36545" lon="1.45616">
        <ele>122</ele>
        <time>2021-02-26T09:27:30.000Z</time>
      </trkpt>
      <trkpt lat="49.36536" lon="1.45612">
        <ele>121.19999694824</ele>
        <time>2021-02-26T09:27:31.000Z</time>
      </trkpt>
      <trkpt lat="49.36528" lon="1.45608">
        <ele>120.59999847412</ele>
        <time>2021-02-26T09:27:32.000Z</time>
      </trkpt>
      <trkpt lat="49.36504" lon="1.45592">
        <ele>119.19999694824</ele>
        <time>2021-02-26T09:27:35.000Z</time>
      </trkpt>
      <trkpt lat="49.36496" lon="1.45585">
        <ele>118.59999847412</ele>
        <time>2021-02-26T09:27:36.000Z</time>
      </trkpt>
      <trkpt lat="49.36481" lon="1.45569">
        <ele>118</ele>
        <time>2021-02-26T09:27:38.000Z</time>
      </trkpt>
      <trkpt lat="49.36469" lon="1.45552">
        <ele>116.80000305176</ele>
        <time>2021-02-26T09:27:40.000Z</time>
      </trkpt>
      <trkpt lat="49.36464" lon="1.45544">
        <ele>116.40000152588</ele>
        <time>2021-02-26T09:27:41.000Z</time>
      </trkpt>
      <trkpt lat="49.36448" lon="1.45519">
        <ele>115</ele>
        <time>2021-02-26T09:27:44.000Z</time>
      </trkpt>
      <trkpt lat="49.36431" lon="1.45493">
        <ele>114</ele>
        <time>2021-02-26T09:27:47.000Z</time>
      </trkpt>
      <trkpt lat="49.36426" lon="1.45485">
        <ele>113.80000305176</ele>
        <time>2021-02-26T09:27:48.000Z</time>
      </trkpt>
      <trkpt lat="49.36396" lon="1.4544">
        <ele>113</ele>
        <time>2021-02-26T09:27:53.000Z</time>
      </trkpt>
      <trkpt lat="49.36389" lon="1.45431">
        <ele>112.59999847412</ele>
        <time>2021-02-26T09:27:54.000Z</time>
      </trkpt>
      <trkpt lat="49.36358" lon="1.45385">
        <ele>111.59999847412</ele>
        <time>2021-02-26T09:27:59.000Z</time>
      </trkpt>
      <trkpt lat="49.36351" lon="1.45376">
        <ele>111.19999694824</ele>
        <time>2021-02-26T09:28:00.000Z</time>
      </trkpt>
      <trkpt lat="49.36338" lon="1.45357">
        <ele>110.40000152588</ele>
        <time>2021-02-26T09:28:02.000Z</time>
      </trkpt>
      <trkpt lat="49.36318" lon="1.4533">
        <ele>109.19999694824</ele>
        <time>2021-02-26T09:28:05.000Z</time>
      </trkpt>
      <trkpt lat="49.36306" lon="1.45312">
        <ele>108.80000305176</ele>
        <time>2021-02-26T09:28:07.000Z</time>
      </trkpt>
      <trkpt lat="49.36293" lon="1.45294">
        <ele>108.19999694824</ele>
        <time>2021-02-26T09:28:09.000Z</time>
      </trkpt>
      <trkpt lat="49.36253" lon="1.4524">
        <ele>107</ele>
        <time>2021-02-26T09:28:15.000Z</time>
      </trkpt>
      <trkpt lat="49.36246" lon="1.4523">
        <ele>107.19999694824</ele>
        <time>2021-02-26T09:28:16.000Z</time>
      </trkpt>
      <trkpt lat="49.36206" lon="1.45176">
        <ele>105.59999847412</ele>
        <time>2021-02-26T09:28:22.000Z</time>
      </trkpt>
      <trkpt lat="49.36199" lon="1.45168">
        <ele>105.19999694824</ele>
        <time>2021-02-26T09:28:23.000Z</time>
      </trkpt>
      <trkpt lat="49.36188" lon="1.45151">
        <ele>104.19999694824</ele>
        <time>2021-02-26T09:28:25.000Z</time>
      </trkpt>
      <trkpt lat="49.36172" lon="1.45128">
        <ele>103.19999694824</ele>
        <time>2021-02-26T09:28:28.000Z</time>
      </trkpt>
      <trkpt lat="49.36167" lon="1.45121">
        <ele>103.19999694824</ele>
        <time>2021-02-26T09:28:29.000Z</time>
      </trkpt>
      <trkpt lat="49.36162" lon="1.45114">
        <ele>103.19999694824</ele>
        <time>2021-02-26T09:28:30.000Z</time>
      </trkpt>
      <trkpt lat="49.36156" lon="1.45099">
        <ele>103.19999694824</ele>
        <time>2021-02-26T09:28:32.000Z</time>
      </trkpt>
      <trkpt lat="49.36154" lon="1.45083">
        <ele>103</ele>
        <time>2021-02-26T09:28:34.000Z</time>
      </trkpt>
      <trkpt lat="49.36153" lon="1.45067">
        <ele>103</ele>
        <time>2021-02-26T09:28:36.000Z</time>
      </trkpt>
      <trkpt lat="49.36153" lon="1.45031">
        <ele>104.40000152588</ele>
        <time>2021-02-26T09:28:41.000Z</time>
      </trkpt>
      <trkpt lat="49.36153" lon="1.45024">
        <ele>105.19999694824</ele>
        <time>2021-02-26T09:28:42.000Z</time>
      </trkpt>
      <trkpt lat="49.36154" lon="1.45017">
        <ele>105.59999847412</ele>
        <time>2021-02-26T09:28:43.000Z</time>
      </trkpt>
      <trkpt lat="49.36154" lon="1.44992">
        <ele>106.19999694824</ele>
        <time>2021-02-26T09:28:47.000Z</time>
      </trkpt>
      <trkpt lat="49.36153" lon="1.44978">
        <ele>106.80000305176</ele>
        <time>2021-02-26T09:28:49.000Z</time>
      </trkpt>
      <trkpt lat="49.36153" lon="1.4497">
        <ele>107.40000152588</ele>
        <time>2021-02-26T09:28:50.000Z</time>
      </trkpt>
      <trkpt lat="49.36152" lon="1.44957">
        <ele>107.80000305176</ele>
        <time>2021-02-26T09:28:52.000Z</time>
      </trkpt>
      <trkpt lat="49.36152" lon="1.4495">
        <ele>108</ele>
        <time>2021-02-26T09:28:53.000Z</time>
      </trkpt>
      <trkpt lat="49.36147" lon="1.44911">
        <ele>108.80000305176</ele>
        <time>2021-02-26T09:28:59.000Z</time>
      </trkpt>
      <trkpt lat="49.36146" lon="1.44904">
        <ele>109</ele>
        <time>2021-02-26T09:29:00.000Z</time>
      </trkpt>
      <trkpt lat="49.36142" lon="1.44874">
        <ele>110</ele>
        <time>2021-02-26T09:29:05.000Z</time>
      </trkpt>
      <trkpt lat="49.36139" lon="1.44846">
        <ele>111.19999694824</ele>
        <time>2021-02-26T09:29:10.000Z</time>
      </trkpt>
      <trkpt lat="49.36137" lon="1.44834">
        <ele>111.40000152588</ele>
        <time>2021-02-26T09:29:12.000Z</time>
      </trkpt>
      <trkpt lat="49.36133" lon="1.44809">
        <ele>112.19999694824</ele>
        <time>2021-02-26T09:29:16.000Z</time>
      </trkpt>
      <trkpt lat="49.36132" lon="1.44801">
        <ele>112.40000152588</ele>
        <time>2021-02-26T09:29:17.000Z</time>
      </trkpt>
      <trkpt lat="49.36129" lon="1.44787">
        <ele>113</ele>
        <time>2021-02-26T09:29:19.000Z</time>
      </trkpt>
      <trkpt lat="49.36125" lon="1.44765">
        <ele>113.19999694824</ele>
        <time>2021-02-26T09:29:22.000Z</time>
      </trkpt>
      <trkpt lat="49.36124" lon="1.44758">
        <ele>113.19999694824</ele>
        <time>2021-02-26T09:29:23.000Z</time>
      </trkpt>
      <trkpt lat="49.3612" lon="1.44736">
        <ele>113.40000152588</ele>
        <time>2021-02-26T09:29:26.000Z</time>
      </trkpt>
      <trkpt lat="49.36116" lon="1.44717">
        <ele>113.59999847412</ele>
        <time>2021-02-26T09:29:29.000Z</time>
      </trkpt>
      <trkpt lat="49.3611" lon="1.44697">
        <ele>113.59999847412</ele>
        <time>2021-02-26T09:29:33.000Z</time>
      </trkpt>
      <trkpt lat="49.36096" lon="1.44689">
        <ele>113.59999847412</ele>
        <time>2021-02-26T09:29:37.000Z</time>
      </trkpt>
      <trkpt lat="49.36082" lon="1.44682">
        <ele>113.59999847412</ele>
        <time>2021-02-26T09:29:40.000Z</time>
      </trkpt>
      <trkpt lat="49.36069" lon="1.44677">
        <ele>113.59999847412</ele>
        <time>2021-02-26T09:29:43.000Z</time>
      </trkpt>
      <trkpt lat="49.36064" lon="1.44676">
        <ele>113.19999694824</ele>
        <time>2021-02-26T09:29:44.000Z</time>
      </trkpt>
      <trkpt lat="49.36046" lon="1.44669">
        <ele>112</ele>
        <time>2021-02-26T09:29:48.000Z</time>
      </trkpt>
      <trkpt lat="49.36037" lon="1.44667">
        <ele>111.40000152588</ele>
        <time>2021-02-26T09:29:50.000Z</time>
      </trkpt>
      <trkpt lat="49.36013" lon="1.44661">
        <ele>111</ele>
        <time>2021-02-26T09:29:55.000Z</time>
      </trkpt>
      <trkpt lat="49.36009" lon="1.4466">
        <ele>110.80000305176</ele>
        <time>2021-02-26T09:29:56.000Z</time>
      </trkpt>
      <trkpt lat="49.35991" lon="1.44656">
        <ele>110.59999847412</ele>
        <time>2021-02-26T09:29:59.000Z</time>
      </trkpt>
      <trkpt lat="49.35959" lon="1.4465">
        <ele>110.19999694824</ele>
        <time>2021-02-26T09:30:04.000Z</time>
      </trkpt>
      <trkpt lat="49.35937" lon="1.44644">
        <ele>109.59999847412</ele>
        <time>2021-02-26T09:30:07.000Z</time>
      </trkpt>
      <trkpt lat="49.35911" lon="1.44638">
        <ele>109</ele>
        <time>2021-02-26T09:30:10.000Z</time>
      </trkpt>
      <trkpt lat="49.35896" lon="1.44632">
        <ele>108.59999847412</ele>
        <time>2021-02-26T09:30:12.000Z</time>
      </trkpt>
      <trkpt lat="49.35872" lon="1.44625">
        <ele>107.80000305176</ele>
        <time>2021-02-26T09:30:15.000Z</time>
      </trkpt>
      <trkpt lat="49.35863" lon="1.44623">
        <ele>107.19999694824</ele>
        <time>2021-02-26T09:30:16.000Z</time>
      </trkpt>
      <trkpt lat="49.35841" lon="1.44619">
        <ele>106</ele>
        <time>2021-02-26T09:30:19.000Z</time>
      </trkpt>
      <trkpt lat="49.35834" lon="1.44616">
        <ele>105.80000305176</ele>
        <time>2021-02-26T09:30:20.000Z</time>
      </trkpt>
      <trkpt lat="49.35798" lon="1.44597">
        <ele>105.40000152588</ele>
        <time>2021-02-26T09:30:26.000Z</time>
      </trkpt>
      <trkpt lat="49.35777" lon="1.44596">
        <ele>105.40000152588</ele>
        <time>2021-02-26T09:30:31.000Z</time>
      </trkpt>
      <trkpt lat="49.35756" lon="1.44594">
        <ele>105.19999694824</ele>
        <time>2021-02-26T09:30:36.000Z</time>
      </trkpt>
      <trkpt lat="49.3574" lon="1.44587">
        <ele>105</ele>
        <time>2021-02-26T09:30:40.000Z</time>
      </trkpt>
      <trkpt lat="49.35729" lon="1.44584">
        <ele>105</ele>
        <time>2021-02-26T09:30:43.000Z</time>
      </trkpt>
      <trkpt lat="49.35721" lon="1.44584">
        <ele>104.19999694824</ele>
        <time>2021-02-26T09:30:45.000Z</time>
      </trkpt>
      <trkpt lat="49.357" lon="1.44584">
        <ele>104</ele>
        <time>2021-02-26T09:30:49.000Z</time>
      </trkpt>
      <trkpt lat="49.3568" lon="1.44578">
        <ele>103.59999847412</ele>
        <time>2021-02-26T09:30:52.000Z</time>
      </trkpt>
      <trkpt lat="49.35668" lon="1.44573">
        <ele>103.19999694824</ele>
        <time>2021-02-26T09:30:54.000Z</time>
      </trkpt>
      <trkpt lat="49.35661" lon="1.44571">
        <ele>103</ele>
        <time>2021-02-26T09:30:55.000Z</time>
      </trkpt>
      <trkpt lat="49.35655" lon="1.44571">
        <ele>102.59999847412</ele>
        <time>2021-02-26T09:30:56.000Z</time>
      </trkpt>
      <trkpt lat="49.35641" lon="1.4457">
        <ele>101.80000305176</ele>
        <time>2021-02-26T09:30:58.000Z</time>
      </trkpt>
      <trkpt lat="49.35634" lon="1.4457">
        <ele>101.40000152588</ele>
        <time>2021-02-26T09:30:59.000Z</time>
      </trkpt>
      <trkpt lat="49.35621" lon="1.44569">
        <ele>100.59999847412</ele>
        <time>2021-02-26T09:31:01.000Z</time>
      </trkpt>
      <trkpt lat="49.35614" lon="1.44566">
        <ele>100.40000152588</ele>
        <time>2021-02-26T09:31:02.000Z</time>
      </trkpt>
      <trkpt lat="49.35608" lon="1.44564">
        <ele>100.19999694824</ele>
        <time>2021-02-26T09:31:03.000Z</time>
      </trkpt>
      <trkpt lat="49.35593" lon="1.44559">
        <ele>100</ele>
        <time>2021-02-26T09:31:05.000Z</time>
      </trkpt>
      <trkpt lat="49.35569" lon="1.44555">
        <ele>99.199996948242</ele>
        <time>2021-02-26T09:31:08.000Z</time>
      </trkpt>
      <trkpt lat="49.35532" lon="1.44548">
        <ele>97.800003051758</ele>
        <time>2021-02-26T09:31:13.000Z</time>
      </trkpt>
      <trkpt lat="49.35525" lon="1.44546">
        <ele>97.800003051758</ele>
        <time>2021-02-26T09:31:14.000Z</time>
      </trkpt>
      <trkpt lat="49.35504" lon="1.44536">
        <ele>97.199996948242</ele>
        <time>2021-02-26T09:31:17.000Z</time>
      </trkpt>
      <trkpt lat="49.3549" lon="1.44534">
        <ele>96.599998474121</ele>
        <time>2021-02-26T09:31:19.000Z</time>
      </trkpt>
      <trkpt lat="49.35461" lon="1.4453">
        <ele>95.400001525879</ele>
        <time>2021-02-26T09:31:23.000Z</time>
      </trkpt>
      <trkpt lat="49.35453" lon="1.44529">
        <ele>95.199996948242</ele>
        <time>2021-02-26T09:31:24.000Z</time>
      </trkpt>
      <trkpt lat="49.35409" lon="1.44521">
        <ele>94.199996948242</ele>
        <time>2021-02-26T09:31:30.000Z</time>
      </trkpt>
      <trkpt lat="49.35402" lon="1.44519">
        <ele>94</ele>
        <time>2021-02-26T09:31:31.000Z</time>
      </trkpt>
      <trkpt lat="49.35386" lon="1.44515">
        <ele>93.199996948242</ele>
        <time>2021-02-26T09:31:33.000Z</time>
      </trkpt>
      <trkpt lat="49.35362" lon="1.44508">
        <ele>92.199996948242</ele>
        <time>2021-02-26T09:31:36.000Z</time>
      </trkpt>
      <trkpt lat="49.35354" lon="1.44505">
        <ele>91.599998474121</ele>
        <time>2021-02-26T09:31:37.000Z</time>
      </trkpt>
      <trkpt lat="49.35339" lon="1.44497">
        <ele>90.800003051758</ele>
        <time>2021-02-26T09:31:39.000Z</time>
      </trkpt>
      <trkpt lat="49.35331" lon="1.44494">
        <ele>90.199996948242</ele>
        <time>2021-02-26T09:31:40.000Z</time>
      </trkpt>
      <trkpt lat="49.35323" lon="1.44492">
        <ele>89.800003051758</ele>
        <time>2021-02-26T09:31:41.000Z</time>
      </trkpt>
      <trkpt lat="49.35316" lon="1.4449">
        <ele>88.599998474121</ele>
        <time>2021-02-26T09:31:42.000Z</time>
      </trkpt>
      <trkpt lat="49.35302" lon="1.44491">
        <ele>87.400001525879</ele>
        <time>2021-02-26T09:31:44.000Z</time>
      </trkpt>
      <trkpt lat="49.35297" lon="1.44492">
        <ele>86.599998474121</ele>
        <time>2021-02-26T09:31:45.000Z</time>
      </trkpt>
      <trkpt lat="49.35292" lon="1.44493">
        <ele>85.800003051758</ele>
        <time>2021-02-26T09:31:46.000Z</time>
      </trkpt>
      <trkpt lat="49.35289" lon="1.4449">
        <ele>84.400001525879</ele>
        <time>2021-02-26T09:31:48.000Z</time>
      </trkpt>
      <trkpt lat="49.35289" lon="1.44484">
        <ele>83.199996948242</ele>
        <time>2021-02-26T09:31:50.000Z</time>
      </trkpt>
      <trkpt lat="49.3529" lon="1.4448">
        <ele>82</ele>
        <time>2021-02-26T09:31:52.000Z</time>
      </trkpt>
      <trkpt lat="49.35289" lon="1.4448">
        <ele>81</ele>
        <time>2021-02-26T09:31:54.000Z</time>
      </trkpt>
    </trkseg>
  </trk>
</gpx>